<?xml version="1.0" encoding="utf-8"?>
<gpx xmlns:xsi="http://www.w3.org/2001/XMLSchema-instance" xmlns:xsd="http://www.w3.org/2001/XMLSchema" version="1.1" creator="Shapelink.com" xmlns="http://www.topografix.com/GPX/1/1" xmlns:gpxtpx="http://www.garmin.com/xmlschemas/TrackPointExtension/v1">
  <metadata>
    <name>Sykling 39.92 km, 2014-07-07</name>
    <desc></desc>
    <author><name>Mikael Blom</name></author> 
    <time>2014-07-07T17:49:56Z</time>
  </metadata>
  <trk>
    <name>Sykling 39.92 km, 2014-07-07</name>
    <trkseg>
      <trkpt lat="59.9745216" lon="17.7363404">
        <ele>25.1317</ele>
        <time>2014-07-07T17:49:56Z</time>
      </trkpt>
      <trkpt lat="59.9744936" lon="17.7362083">
        <ele>25.1317</ele>
        <time>2014-07-07T17:49:57Z</time>
      </trkpt>
      <trkpt lat="59.974465" lon="17.7360759">
        <ele>25.1317</ele>
        <time>2014-07-07T17:49:58Z</time>
      </trkpt>
      <trkpt lat="59.9744485" lon="17.735997">
        <ele>25.1317</ele>
        <time>2014-07-07T17:49:59Z</time>
      </trkpt>
      <trkpt lat="59.9744215" lon="17.7358618">
        <ele>25.1317</ele>
        <time>2014-07-07T17:50:00Z</time>
      </trkpt>
      <trkpt lat="59.9743957" lon="17.7357246">
        <ele>25.1317</ele>
        <time>2014-07-07T17:50:01Z</time>
      </trkpt>
      <trkpt lat="59.9743704" lon="17.735583">
        <ele>25.1317</ele>
        <time>2014-07-07T17:50:02Z</time>
      </trkpt>
      <trkpt lat="59.9743491" lon="17.7354385">
        <ele>25.1317</ele>
        <time>2014-07-07T17:50:03Z</time>
      </trkpt>
      <trkpt lat="59.9743314" lon="17.7352917">
        <ele>25.1317</ele>
        <time>2014-07-07T17:50:04Z</time>
      </trkpt>
      <trkpt lat="59.9743155" lon="17.7351422">
        <ele>25.1317</ele>
        <time>2014-07-07T17:50:05Z</time>
      </trkpt>
      <trkpt lat="59.9743013" lon="17.7349891">
        <ele>24.651</ele>
        <time>2014-07-07T17:50:06Z</time>
      </trkpt>
      <trkpt lat="59.9742898" lon="17.7348346">
        <ele>24.651</ele>
        <time>2014-07-07T17:50:07Z</time>
      </trkpt>
      <trkpt lat="59.9742824" lon="17.7346785">
        <ele>24.651</ele>
        <time>2014-07-07T17:50:08Z</time>
      </trkpt>
      <trkpt lat="59.9742782" lon="17.7345209">
        <ele>24.651</ele>
        <time>2014-07-07T17:50:09Z</time>
      </trkpt>
      <trkpt lat="59.9742769" lon="17.7343631">
        <ele>24.651</ele>
        <time>2014-07-07T17:50:10Z</time>
      </trkpt>
      <trkpt lat="59.97428" lon="17.7342058">
        <ele>24.651</ele>
        <time>2014-07-07T17:50:11Z</time>
      </trkpt>
      <trkpt lat="59.9742862" lon="17.7340489">
        <ele>24.651</ele>
        <time>2014-07-07T17:50:12Z</time>
      </trkpt>
      <trkpt lat="59.9742937" lon="17.7338928">
        <ele>24.651</ele>
        <time>2014-07-07T17:50:13Z</time>
      </trkpt>
      <trkpt lat="59.9743021" lon="17.7337355">
        <ele>24.651</ele>
        <time>2014-07-07T17:50:14Z</time>
      </trkpt>
      <trkpt lat="59.9743113" lon="17.7335764">
        <ele>24.651</ele>
        <time>2014-07-07T17:50:15Z</time>
      </trkpt>
      <trkpt lat="59.9743196" lon="17.7334169">
        <ele>24.651</ele>
        <time>2014-07-07T17:50:16Z</time>
      </trkpt>
      <trkpt lat="59.9743269" lon="17.7332568">
        <ele>25.1317</ele>
        <time>2014-07-07T17:50:17Z</time>
      </trkpt>
      <trkpt lat="59.9743325" lon="17.7330969">
        <ele>25.1317</ele>
        <time>2014-07-07T17:50:18Z</time>
      </trkpt>
      <trkpt lat="59.9743371" lon="17.7329365">
        <ele>25.1317</ele>
        <time>2014-07-07T17:50:19Z</time>
      </trkpt>
      <trkpt lat="59.9743401" lon="17.7327756">
        <ele>25.1317</ele>
        <time>2014-07-07T17:50:20Z</time>
      </trkpt>
      <trkpt lat="59.9743407" lon="17.7326177">
        <ele>25.1317</ele>
        <time>2014-07-07T17:50:21Z</time>
      </trkpt>
      <trkpt lat="59.9743399" lon="17.7324616">
        <ele>25.1317</ele>
        <time>2014-07-07T17:50:22Z</time>
      </trkpt>
      <trkpt lat="59.9743377" lon="17.7323058">
        <ele>25.1317</ele>
        <time>2014-07-07T17:50:23Z</time>
      </trkpt>
      <trkpt lat="59.9743341" lon="17.7321504">
        <ele>25.1317</ele>
        <time>2014-07-07T17:50:24Z</time>
      </trkpt>
      <trkpt lat="59.9743313" lon="17.731995">
        <ele>25.1317</ele>
        <time>2014-07-07T17:50:25Z</time>
      </trkpt>
      <trkpt lat="59.9743287" lon="17.7318395">
        <ele>25.1317</ele>
        <time>2014-07-07T17:50:26Z</time>
      </trkpt>
      <trkpt lat="59.9743267" lon="17.7316841">
        <ele>25.1317</ele>
        <time>2014-07-07T17:50:27Z</time>
      </trkpt>
      <trkpt lat="59.9743258" lon="17.7315282">
        <ele>25.1317</ele>
        <time>2014-07-07T17:50:28Z</time>
      </trkpt>
      <trkpt lat="59.9743273" lon="17.7313728">
        <ele>25.6123</ele>
        <time>2014-07-07T17:50:29Z</time>
      </trkpt>
      <trkpt lat="59.9743314" lon="17.7312189">
        <ele>25.6123</ele>
        <time>2014-07-07T17:50:30Z</time>
      </trkpt>
      <trkpt lat="59.9743377" lon="17.7310665">
        <ele>25.6123</ele>
        <time>2014-07-07T17:50:31Z</time>
      </trkpt>
      <trkpt lat="59.9743456" lon="17.7309154">
        <ele>25.6123</ele>
        <time>2014-07-07T17:50:32Z</time>
      </trkpt>
      <trkpt lat="59.9743551" lon="17.7307661">
        <ele>25.6123</ele>
        <time>2014-07-07T17:50:33Z</time>
      </trkpt>
      <trkpt lat="59.974366" lon="17.7306186">
        <ele>25.6123</ele>
        <time>2014-07-07T17:50:34Z</time>
      </trkpt>
      <trkpt lat="59.9743781" lon="17.7304725">
        <ele>25.6123</ele>
        <time>2014-07-07T17:50:35Z</time>
      </trkpt>
      <trkpt lat="59.9743905" lon="17.7303276">
        <ele>25.6123</ele>
        <time>2014-07-07T17:50:36Z</time>
      </trkpt>
      <trkpt lat="59.9744025" lon="17.730184">
        <ele>25.6123</ele>
        <time>2014-07-07T17:50:37Z</time>
      </trkpt>
      <trkpt lat="59.9744147" lon="17.730042">
        <ele>25.6123</ele>
        <time>2014-07-07T17:50:38Z</time>
      </trkpt>
      <trkpt lat="59.9744264" lon="17.7299009">
        <ele>26.0929</ele>
        <time>2014-07-07T17:50:39Z</time>
      </trkpt>
      <trkpt lat="59.9744376" lon="17.7297592">
        <ele>26.0929</ele>
        <time>2014-07-07T17:50:40Z</time>
      </trkpt>
      <trkpt lat="59.9744469" lon="17.7296162">
        <ele>26.0929</ele>
        <time>2014-07-07T17:50:41Z</time>
      </trkpt>
      <trkpt lat="59.9744532" lon="17.729472">
        <ele>26.0929</ele>
        <time>2014-07-07T17:50:42Z</time>
      </trkpt>
      <trkpt lat="59.9744566" lon="17.7293266">
        <ele>25.6123</ele>
        <time>2014-07-07T17:50:43Z</time>
      </trkpt>
      <trkpt lat="59.9744564" lon="17.7291804">
        <ele>25.6123</ele>
        <time>2014-07-07T17:50:44Z</time>
      </trkpt>
      <trkpt lat="59.9744537" lon="17.729035">
        <ele>25.6123</ele>
        <time>2014-07-07T17:50:45Z</time>
      </trkpt>
      <trkpt lat="59.9744495" lon="17.7288914">
        <ele>25.6123</ele>
        <time>2014-07-07T17:50:46Z</time>
      </trkpt>
      <trkpt lat="59.9744452" lon="17.7287465">
        <ele>25.6123</ele>
        <time>2014-07-07T17:50:47Z</time>
      </trkpt>
      <trkpt lat="59.9744414" lon="17.7286016">
        <ele>25.1317</ele>
        <time>2014-07-07T17:50:48Z</time>
      </trkpt>
      <trkpt lat="59.9744386" lon="17.7284573">
        <ele>25.1317</ele>
        <time>2014-07-07T17:50:49Z</time>
      </trkpt>
      <trkpt lat="59.9744355" lon="17.7283129">
        <ele>25.1317</ele>
        <time>2014-07-07T17:50:50Z</time>
      </trkpt>
      <trkpt lat="59.9744316" lon="17.7281689">
        <ele>25.1317</ele>
        <time>2014-07-07T17:50:51Z</time>
      </trkpt>
      <trkpt lat="59.9744273" lon="17.7280254">
        <ele>25.1317</ele>
        <time>2014-07-07T17:50:52Z</time>
      </trkpt>
      <trkpt lat="59.9744237" lon="17.727883">
        <ele>25.1317</ele>
        <time>2014-07-07T17:50:53Z</time>
      </trkpt>
      <trkpt lat="59.9744211" lon="17.7277432">
        <ele>25.1317</ele>
        <time>2014-07-07T17:50:54Z</time>
      </trkpt>
      <trkpt lat="59.9744186" lon="17.7276073">
        <ele>25.6123</ele>
        <time>2014-07-07T17:50:55Z</time>
      </trkpt>
      <trkpt lat="59.9744167" lon="17.7274738">
        <ele>25.6123</ele>
        <time>2014-07-07T17:50:56Z</time>
      </trkpt>
      <trkpt lat="59.974414" lon="17.7273427">
        <ele>25.6123</ele>
        <time>2014-07-07T17:50:57Z</time>
      </trkpt>
      <trkpt lat="59.974411" lon="17.7272149">
        <ele>25.6123</ele>
        <time>2014-07-07T17:50:58Z</time>
      </trkpt>
      <trkpt lat="59.9744082" lon="17.7270889">
        <ele>25.6123</ele>
        <time>2014-07-07T17:50:59Z</time>
      </trkpt>
      <trkpt lat="59.9744064" lon="17.7269655">
        <ele>26.0929</ele>
        <time>2014-07-07T17:51:00Z</time>
      </trkpt>
      <trkpt lat="59.9744065" lon="17.7268452">
        <ele>26.0929</ele>
        <time>2014-07-07T17:51:01Z</time>
      </trkpt>
      <trkpt lat="59.9744064" lon="17.7267246">
        <ele>26.5736</ele>
        <time>2014-07-07T17:51:02Z</time>
      </trkpt>
      <trkpt lat="59.9744038" lon="17.7266043">
        <ele>26.5736</ele>
        <time>2014-07-07T17:51:03Z</time>
      </trkpt>
      <trkpt lat="59.9743982" lon="17.7264854">
        <ele>26.5736</ele>
        <time>2014-07-07T17:51:04Z</time>
      </trkpt>
      <trkpt lat="59.9743926" lon="17.7263664">
        <ele>26.5736</ele>
        <time>2014-07-07T17:51:05Z</time>
      </trkpt>
      <trkpt lat="59.9743878" lon="17.726244">
        <ele>27.0543</ele>
        <time>2014-07-07T17:51:06Z</time>
      </trkpt>
      <trkpt lat="59.9743831" lon="17.7261192">
        <ele>27.0543</ele>
        <time>2014-07-07T17:51:07Z</time>
      </trkpt>
      <trkpt lat="59.9743764" lon="17.7259922">
        <ele>27.0543</ele>
        <time>2014-07-07T17:51:08Z</time>
      </trkpt>
      <trkpt lat="59.9743683" lon="17.7258647">
        <ele>27.0543</ele>
        <time>2014-07-07T17:51:09Z</time>
      </trkpt>
      <trkpt lat="59.9743589" lon="17.7257369">
        <ele>27.0543</ele>
        <time>2014-07-07T17:51:10Z</time>
      </trkpt>
      <trkpt lat="59.9743484" lon="17.725609">
        <ele>27.0543</ele>
        <time>2014-07-07T17:51:11Z</time>
      </trkpt>
      <trkpt lat="59.9743373" lon="17.7254805">
        <ele>27.0543</ele>
        <time>2014-07-07T17:51:12Z</time>
      </trkpt>
      <trkpt lat="59.9743252" lon="17.7253511">
        <ele>27.0543</ele>
        <time>2014-07-07T17:51:13Z</time>
      </trkpt>
      <trkpt lat="59.9743112" lon="17.7252212">
        <ele>27.0543</ele>
        <time>2014-07-07T17:51:14Z</time>
      </trkpt>
      <trkpt lat="59.974296" lon="17.72509">
        <ele>27.0543</ele>
        <time>2014-07-07T17:51:15Z</time>
      </trkpt>
      <trkpt lat="59.9742795" lon="17.7249573">
        <ele>26.5736</ele>
        <time>2014-07-07T17:51:16Z</time>
      </trkpt>
      <trkpt lat="59.9742613" lon="17.7248227">
        <ele>26.5736</ele>
        <time>2014-07-07T17:51:17Z</time>
      </trkpt>
      <trkpt lat="59.9742419" lon="17.7246852">
        <ele>26.5736</ele>
        <time>2014-07-07T17:51:18Z</time>
      </trkpt>
      <trkpt lat="59.974222" lon="17.7245449">
        <ele>26.5736</ele>
        <time>2014-07-07T17:51:19Z</time>
      </trkpt>
      <trkpt lat="59.9742015" lon="17.7244031">
        <ele>26.5736</ele>
        <time>2014-07-07T17:51:20Z</time>
      </trkpt>
      <trkpt lat="59.9741805" lon="17.7242606">
        <ele>26.5736</ele>
        <time>2014-07-07T17:51:21Z</time>
      </trkpt>
      <trkpt lat="59.9741595" lon="17.7241174">
        <ele>26.5736</ele>
        <time>2014-07-07T17:51:22Z</time>
      </trkpt>
      <trkpt lat="59.9741388" lon="17.7239726">
        <ele>26.5736</ele>
        <time>2014-07-07T17:51:23Z</time>
      </trkpt>
      <trkpt lat="59.9741179" lon="17.7238271">
        <ele>26.5736</ele>
        <time>2014-07-07T17:51:24Z</time>
      </trkpt>
      <trkpt lat="59.9740966" lon="17.7236819">
        <ele>26.5736</ele>
        <time>2014-07-07T17:51:25Z</time>
      </trkpt>
      <trkpt lat="59.9740756" lon="17.723537">
        <ele>26.5736</ele>
        <time>2014-07-07T17:51:26Z</time>
      </trkpt>
      <trkpt lat="59.9740543" lon="17.723393">
        <ele>26.5736</ele>
        <time>2014-07-07T17:51:27Z</time>
      </trkpt>
      <trkpt lat="59.9740313" lon="17.7232514">
        <ele>26.5736</ele>
        <time>2014-07-07T17:51:28Z</time>
      </trkpt>
      <trkpt lat="59.9740051" lon="17.7231125">
        <ele>26.5736</ele>
        <time>2014-07-07T17:51:29Z</time>
      </trkpt>
      <trkpt lat="59.9739771" lon="17.7229754">
        <ele>26.5736</ele>
        <time>2014-07-07T17:51:30Z</time>
      </trkpt>
      <trkpt lat="59.9739471" lon="17.7228416">
        <ele>26.5736</ele>
        <time>2014-07-07T17:51:31Z</time>
      </trkpt>
      <trkpt lat="59.9739151" lon="17.7227105">
        <ele>26.5736</ele>
        <time>2014-07-07T17:51:32Z</time>
      </trkpt>
      <trkpt lat="59.9738824" lon="17.7225801">
        <ele>26.5736</ele>
        <time>2014-07-07T17:51:33Z</time>
      </trkpt>
      <trkpt lat="59.9738477" lon="17.7224521">
        <ele>26.5736</ele>
        <time>2014-07-07T17:51:34Z</time>
      </trkpt>
      <trkpt lat="59.9738112" lon="17.7223269">
        <ele>26.5736</ele>
        <time>2014-07-07T17:51:35Z</time>
      </trkpt>
      <trkpt lat="59.973773" lon="17.722204">
        <ele>26.5736</ele>
        <time>2014-07-07T17:51:36Z</time>
      </trkpt>
      <trkpt lat="59.9737336" lon="17.7220833">
        <ele>26.5736</ele>
        <time>2014-07-07T17:51:37Z</time>
      </trkpt>
      <trkpt lat="59.9736924" lon="17.7219659">
        <ele>26.5736</ele>
        <time>2014-07-07T17:51:38Z</time>
      </trkpt>
      <trkpt lat="59.9736503" lon="17.7218528">
        <ele>26.5736</ele>
        <time>2014-07-07T17:51:39Z</time>
      </trkpt>
      <trkpt lat="59.9736071" lon="17.7217435">
        <ele>26.5736</ele>
        <time>2014-07-07T17:51:40Z</time>
      </trkpt>
      <trkpt lat="59.9735628" lon="17.7216379">
        <ele>26.5736</ele>
        <time>2014-07-07T17:51:41Z</time>
      </trkpt>
      <trkpt lat="59.973518" lon="17.7215357">
        <ele>26.5736</ele>
        <time>2014-07-07T17:51:42Z</time>
      </trkpt>
      <trkpt lat="59.9734725" lon="17.7214359">
        <ele>26.5736</ele>
        <time>2014-07-07T17:51:43Z</time>
      </trkpt>
      <trkpt lat="59.9734265" lon="17.7213379">
        <ele>26.5736</ele>
        <time>2014-07-07T17:51:44Z</time>
      </trkpt>
      <trkpt lat="59.9733793" lon="17.7212426">
        <ele>26.5736</ele>
        <time>2014-07-07T17:51:45Z</time>
      </trkpt>
      <trkpt lat="59.97333" lon="17.7211503">
        <ele>26.5736</ele>
        <time>2014-07-07T17:51:46Z</time>
      </trkpt>
      <trkpt lat="59.973279" lon="17.7210602">
        <ele>26.5736</ele>
        <time>2014-07-07T17:51:47Z</time>
      </trkpt>
      <trkpt lat="59.9732266" lon="17.7209736">
        <ele>26.5736</ele>
        <time>2014-07-07T17:51:48Z</time>
      </trkpt>
      <trkpt lat="59.9731732" lon="17.7208898">
        <ele>26.5736</ele>
        <time>2014-07-07T17:51:49Z</time>
      </trkpt>
      <trkpt lat="59.9731197" lon="17.720808">
        <ele>26.5736</ele>
        <time>2014-07-07T17:51:50Z</time>
      </trkpt>
      <trkpt lat="59.973066" lon="17.7207293">
        <ele>26.5736</ele>
        <time>2014-07-07T17:51:51Z</time>
      </trkpt>
      <trkpt lat="59.9730121" lon="17.7206546">
        <ele>26.5736</ele>
        <time>2014-07-07T17:51:52Z</time>
      </trkpt>
      <trkpt lat="59.9729578" lon="17.7205847">
        <ele>26.5736</ele>
        <time>2014-07-07T17:51:53Z</time>
      </trkpt>
      <trkpt lat="59.9729034" lon="17.7205184">
        <ele>27.0543</ele>
        <time>2014-07-07T17:51:54Z</time>
      </trkpt>
      <trkpt lat="59.9728495" lon="17.7204551">
        <ele>26.5736</ele>
        <time>2014-07-07T17:51:55Z</time>
      </trkpt>
      <trkpt lat="59.9727952" lon="17.7203941">
        <ele>27.0543</ele>
        <time>2014-07-07T17:51:56Z</time>
      </trkpt>
      <trkpt lat="59.9727405" lon="17.7203351">
        <ele>27.0543</ele>
        <time>2014-07-07T17:51:57Z</time>
      </trkpt>
      <trkpt lat="59.9726848" lon="17.7202789">
        <ele>26.5736</ele>
        <time>2014-07-07T17:51:58Z</time>
      </trkpt>
      <trkpt lat="59.9726283" lon="17.7202259">
        <ele>27.0543</ele>
        <time>2014-07-07T17:51:59Z</time>
      </trkpt>
      <trkpt lat="59.9725716" lon="17.7201753">
        <ele>27.0543</ele>
        <time>2014-07-07T17:52:00Z</time>
      </trkpt>
      <trkpt lat="59.9725139" lon="17.7201253">
        <ele>27.0543</ele>
        <time>2014-07-07T17:52:01Z</time>
      </trkpt>
      <trkpt lat="59.9724553" lon="17.7200748">
        <ele>27.0543</ele>
        <time>2014-07-07T17:52:02Z</time>
      </trkpt>
      <trkpt lat="59.9723963" lon="17.720022">
        <ele>26.5736</ele>
        <time>2014-07-07T17:52:03Z</time>
      </trkpt>
      <trkpt lat="59.9723366" lon="17.7199684">
        <ele>26.5736</ele>
        <time>2014-07-07T17:52:04Z</time>
      </trkpt>
      <trkpt lat="59.9722765" lon="17.7199165">
        <ele>27.0543</ele>
        <time>2014-07-07T17:52:05Z</time>
      </trkpt>
      <trkpt lat="59.9722174" lon="17.7198645">
        <ele>27.0543</ele>
        <time>2014-07-07T17:52:06Z</time>
      </trkpt>
      <trkpt lat="59.9721596" lon="17.7198112">
        <ele>27.0543</ele>
        <time>2014-07-07T17:52:07Z</time>
      </trkpt>
      <trkpt lat="59.972103" lon="17.719759">
        <ele>27.0543</ele>
        <time>2014-07-07T17:52:08Z</time>
      </trkpt>
      <trkpt lat="59.972047" lon="17.7197093">
        <ele>27.0543</ele>
        <time>2014-07-07T17:52:09Z</time>
      </trkpt>
      <trkpt lat="59.9719911" lon="17.7196606">
        <ele>27.0543</ele>
        <time>2014-07-07T17:52:10Z</time>
      </trkpt>
      <trkpt lat="59.971935" lon="17.7196112">
        <ele>27.0543</ele>
        <time>2014-07-07T17:52:11Z</time>
      </trkpt>
      <trkpt lat="59.9718788" lon="17.7195601">
        <ele>27.0543</ele>
        <time>2014-07-07T17:52:12Z</time>
      </trkpt>
      <trkpt lat="59.9718222" lon="17.7195079">
        <ele>27.0543</ele>
        <time>2014-07-07T17:52:13Z</time>
      </trkpt>
      <trkpt lat="59.9717661" lon="17.719456">
        <ele>27.5349</ele>
        <time>2014-07-07T17:52:14Z</time>
      </trkpt>
      <trkpt lat="59.9717101" lon="17.7194051">
        <ele>27.5349</ele>
        <time>2014-07-07T17:52:15Z</time>
      </trkpt>
      <trkpt lat="59.9716543" lon="17.7193556">
        <ele>27.5349</ele>
        <time>2014-07-07T17:52:16Z</time>
      </trkpt>
      <trkpt lat="59.9715989" lon="17.7193063">
        <ele>27.5349</ele>
        <time>2014-07-07T17:52:17Z</time>
      </trkpt>
      <trkpt lat="59.9715437" lon="17.719257">
        <ele>27.5349</ele>
        <time>2014-07-07T17:52:18Z</time>
      </trkpt>
      <trkpt lat="59.9714892" lon="17.7192079">
        <ele>27.5349</ele>
        <time>2014-07-07T17:52:19Z</time>
      </trkpt>
      <trkpt lat="59.9714353" lon="17.7191585">
        <ele>27.5349</ele>
        <time>2014-07-07T17:52:20Z</time>
      </trkpt>
      <trkpt lat="59.971381" lon="17.7191104">
        <ele>27.5349</ele>
        <time>2014-07-07T17:52:21Z</time>
      </trkpt>
      <trkpt lat="59.9713265" lon="17.7190633">
        <ele>27.5349</ele>
        <time>2014-07-07T17:52:22Z</time>
      </trkpt>
      <trkpt lat="59.971272" lon="17.7190147">
        <ele>27.5349</ele>
        <time>2014-07-07T17:52:23Z</time>
      </trkpt>
      <trkpt lat="59.9712167" lon="17.7189638">
        <ele>27.5349</ele>
        <time>2014-07-07T17:52:24Z</time>
      </trkpt>
      <trkpt lat="59.9711602" lon="17.7189116">
        <ele>28.0155</ele>
        <time>2014-07-07T17:52:25Z</time>
      </trkpt>
      <trkpt lat="59.9711027" lon="17.7188601">
        <ele>28.0155</ele>
        <time>2014-07-07T17:52:26Z</time>
      </trkpt>
      <trkpt lat="59.9710448" lon="17.7188086">
        <ele>28.0155</ele>
        <time>2014-07-07T17:52:27Z</time>
      </trkpt>
      <trkpt lat="59.9709865" lon="17.718755">
        <ele>28.0155</ele>
        <time>2014-07-07T17:52:28Z</time>
      </trkpt>
      <trkpt lat="59.9709277" lon="17.7187008">
        <ele>28.0155</ele>
        <time>2014-07-07T17:52:29Z</time>
      </trkpt>
      <trkpt lat="59.970869" lon="17.7186484">
        <ele>28.0155</ele>
        <time>2014-07-07T17:52:30Z</time>
      </trkpt>
      <trkpt lat="59.9708106" lon="17.7185956">
        <ele>28.0155</ele>
        <time>2014-07-07T17:52:31Z</time>
      </trkpt>
      <trkpt lat="59.9707527" lon="17.7185426">
        <ele>28.0155</ele>
        <time>2014-07-07T17:52:32Z</time>
      </trkpt>
      <trkpt lat="59.9706954" lon="17.7184897">
        <ele>28.4962</ele>
        <time>2014-07-07T17:52:33Z</time>
      </trkpt>
      <trkpt lat="59.970638" lon="17.7184366">
        <ele>28.4962</ele>
        <time>2014-07-07T17:52:34Z</time>
      </trkpt>
      <trkpt lat="59.9705806" lon="17.7183842">
        <ele>28.4962</ele>
        <time>2014-07-07T17:52:35Z</time>
      </trkpt>
      <trkpt lat="59.9705235" lon="17.718333">
        <ele>28.4962</ele>
        <time>2014-07-07T17:52:36Z</time>
      </trkpt>
      <trkpt lat="59.9704667" lon="17.718282">
        <ele>28.4962</ele>
        <time>2014-07-07T17:52:37Z</time>
      </trkpt>
      <trkpt lat="59.9704107" lon="17.7182307">
        <ele>28.4962</ele>
        <time>2014-07-07T17:52:38Z</time>
      </trkpt>
      <trkpt lat="59.9703552" lon="17.7181802">
        <ele>28.4962</ele>
        <time>2014-07-07T17:52:39Z</time>
      </trkpt>
      <trkpt lat="59.9703003" lon="17.7181307">
        <ele>28.4962</ele>
        <time>2014-07-07T17:52:40Z</time>
      </trkpt>
      <trkpt lat="59.9702459" lon="17.7180813">
        <ele>28.4962</ele>
        <time>2014-07-07T17:52:41Z</time>
      </trkpt>
      <trkpt lat="59.970192" lon="17.7180325">
        <ele>28.4962</ele>
        <time>2014-07-07T17:52:42Z</time>
      </trkpt>
      <trkpt lat="59.9701378" lon="17.717985">
        <ele>28.4962</ele>
        <time>2014-07-07T17:52:43Z</time>
      </trkpt>
      <trkpt lat="59.9700842" lon="17.7179383">
        <ele>28.4962</ele>
        <time>2014-07-07T17:52:44Z</time>
      </trkpt>
      <trkpt lat="59.9700313" lon="17.7178914">
        <ele>28.9769</ele>
        <time>2014-07-07T17:52:45Z</time>
      </trkpt>
      <trkpt lat="59.9699787" lon="17.7178439">
        <ele>28.9769</ele>
        <time>2014-07-07T17:52:46Z</time>
      </trkpt>
      <trkpt lat="59.9699263" lon="17.7177978">
        <ele>28.9769</ele>
        <time>2014-07-07T17:52:47Z</time>
      </trkpt>
      <trkpt lat="59.9698731" lon="17.7177536">
        <ele>28.9769</ele>
        <time>2014-07-07T17:52:48Z</time>
      </trkpt>
      <trkpt lat="59.9698199" lon="17.7177085">
        <ele>28.9769</ele>
        <time>2014-07-07T17:52:49Z</time>
      </trkpt>
      <trkpt lat="59.9697668" lon="17.717664">
        <ele>28.9769</ele>
        <time>2014-07-07T17:52:50Z</time>
      </trkpt>
      <trkpt lat="59.9697137" lon="17.7176213">
        <ele>29.4575</ele>
        <time>2014-07-07T17:52:51Z</time>
      </trkpt>
      <trkpt lat="59.9696611" lon="17.7175823">
        <ele>29.4575</ele>
        <time>2014-07-07T17:52:52Z</time>
      </trkpt>
      <trkpt lat="59.9696092" lon="17.7175472">
        <ele>29.4575</ele>
        <time>2014-07-07T17:52:53Z</time>
      </trkpt>
      <trkpt lat="59.969557" lon="17.7175148">
        <ele>29.4575</ele>
        <time>2014-07-07T17:52:54Z</time>
      </trkpt>
      <trkpt lat="59.9695048" lon="17.7174839">
        <ele>29.4575</ele>
        <time>2014-07-07T17:52:55Z</time>
      </trkpt>
      <trkpt lat="59.9694528" lon="17.717454">
        <ele>29.9381</ele>
        <time>2014-07-07T17:52:56Z</time>
      </trkpt>
      <trkpt lat="59.9694005" lon="17.7174255">
        <ele>29.9381</ele>
        <time>2014-07-07T17:52:57Z</time>
      </trkpt>
      <trkpt lat="59.9693488" lon="17.7173985">
        <ele>29.9381</ele>
        <time>2014-07-07T17:52:58Z</time>
      </trkpt>
      <trkpt lat="59.9692975" lon="17.7173741">
        <ele>29.9381</ele>
        <time>2014-07-07T17:52:59Z</time>
      </trkpt>
      <trkpt lat="59.9692463" lon="17.7173523">
        <ele>30.4188</ele>
        <time>2014-07-07T17:53:00Z</time>
      </trkpt>
      <trkpt lat="59.9691954" lon="17.7173311">
        <ele>30.4188</ele>
        <time>2014-07-07T17:53:01Z</time>
      </trkpt>
      <trkpt lat="59.9691444" lon="17.7173097">
        <ele>30.4188</ele>
        <time>2014-07-07T17:53:02Z</time>
      </trkpt>
      <trkpt lat="59.9690932" lon="17.7172876">
        <ele>30.4188</ele>
        <time>2014-07-07T17:53:03Z</time>
      </trkpt>
      <trkpt lat="59.9690419" lon="17.7172675">
        <ele>30.4188</ele>
        <time>2014-07-07T17:53:04Z</time>
      </trkpt>
      <trkpt lat="59.9689896" lon="17.7172496">
        <ele>30.4188</ele>
        <time>2014-07-07T17:53:05Z</time>
      </trkpt>
      <trkpt lat="59.9689367" lon="17.7172299">
        <ele>30.4188</ele>
        <time>2014-07-07T17:53:06Z</time>
      </trkpt>
      <trkpt lat="59.9688794" lon="17.7172109">
        <ele>30.4188</ele>
        <time>2014-07-07T17:53:07Z</time>
      </trkpt>
      <trkpt lat="59.9688223" lon="17.7171903">
        <ele>29.9381</ele>
        <time>2014-07-07T17:53:08Z</time>
      </trkpt>
      <trkpt lat="59.9687651" lon="17.7171681">
        <ele>29.9381</ele>
        <time>2014-07-07T17:53:09Z</time>
      </trkpt>
      <trkpt lat="59.9687078" lon="17.717144">
        <ele>29.4575</ele>
        <time>2014-07-07T17:53:10Z</time>
      </trkpt>
      <trkpt lat="59.968649" lon="17.7171182">
        <ele>29.4575</ele>
        <time>2014-07-07T17:53:11Z</time>
      </trkpt>
      <trkpt lat="59.9685893" lon="17.7170914">
        <ele>29.4575</ele>
        <time>2014-07-07T17:53:12Z</time>
      </trkpt>
      <trkpt lat="59.9685288" lon="17.7170643">
        <ele>28.9769</ele>
        <time>2014-07-07T17:53:13Z</time>
      </trkpt>
      <trkpt lat="59.9684685" lon="17.7170318">
        <ele>28.9769</ele>
        <time>2014-07-07T17:53:14Z</time>
      </trkpt>
      <trkpt lat="59.9684076" lon="17.7169909">
        <ele>28.4962</ele>
        <time>2014-07-07T17:53:15Z</time>
      </trkpt>
      <trkpt lat="59.9683455" lon="17.7169447">
        <ele>28.0155</ele>
        <time>2014-07-07T17:53:16Z</time>
      </trkpt>
      <trkpt lat="59.9682827" lon="17.7168925">
        <ele>28.0155</ele>
        <time>2014-07-07T17:53:17Z</time>
      </trkpt>
      <trkpt lat="59.96822" lon="17.7168306">
        <ele>27.5349</ele>
        <time>2014-07-07T17:53:18Z</time>
      </trkpt>
      <trkpt lat="59.9681573" lon="17.7167598">
        <ele>27.0543</ele>
        <time>2014-07-07T17:53:19Z</time>
      </trkpt>
      <trkpt lat="59.9680941" lon="17.716682">
        <ele>26.5736</ele>
        <time>2014-07-07T17:53:20Z</time>
      </trkpt>
      <trkpt lat="59.9680307" lon="17.7165971">
        <ele>26.0929</ele>
        <time>2014-07-07T17:53:21Z</time>
      </trkpt>
      <trkpt lat="59.9679689" lon="17.7165036">
        <ele>26.0929</ele>
        <time>2014-07-07T17:53:22Z</time>
      </trkpt>
      <trkpt lat="59.967909" lon="17.7163992">
        <ele>25.6123</ele>
        <time>2014-07-07T17:53:23Z</time>
      </trkpt>
      <trkpt lat="59.9678497" lon="17.7162702">
        <ele>25.1317</ele>
        <time>2014-07-07T17:53:24Z</time>
      </trkpt>
      <trkpt lat="59.967792" lon="17.7161346">
        <ele>24.651</ele>
        <time>2014-07-07T17:53:25Z</time>
      </trkpt>
      <trkpt lat="59.9677382" lon="17.7159913">
        <ele>24.1703</ele>
        <time>2014-07-07T17:53:26Z</time>
      </trkpt>
      <trkpt lat="59.967687" lon="17.7158392">
        <ele>23.6896</ele>
        <time>2014-07-07T17:53:27Z</time>
      </trkpt>
      <trkpt lat="59.9676428" lon="17.7156801">
        <ele>23.6896</ele>
        <time>2014-07-07T17:53:28Z</time>
      </trkpt>
      <trkpt lat="59.9675999" lon="17.7155134">
        <ele>23.209</ele>
        <time>2014-07-07T17:53:29Z</time>
      </trkpt>
      <trkpt lat="59.9675646" lon="17.7153426">
        <ele>23.209</ele>
        <time>2014-07-07T17:53:30Z</time>
      </trkpt>
      <trkpt lat="59.9675454" lon="17.7151672">
        <ele>22.7283</ele>
        <time>2014-07-07T17:53:31Z</time>
      </trkpt>
      <trkpt lat="59.9675177" lon="17.7149695">
        <ele>23.209</ele>
        <time>2014-07-07T17:53:32Z</time>
      </trkpt>
      <trkpt lat="59.9675016" lon="17.7147992">
        <ele>23.209</ele>
        <time>2014-07-07T17:53:33Z</time>
      </trkpt>
      <trkpt lat="59.9674771" lon="17.7146286">
        <ele>22.7283</ele>
        <time>2014-07-07T17:53:34Z</time>
      </trkpt>
      <trkpt lat="59.9674543" lon="17.7144651">
        <ele>22.7283</ele>
        <time>2014-07-07T17:53:35Z</time>
      </trkpt>
      <trkpt lat="59.9674331" lon="17.714309">
        <ele>22.7283</ele>
        <time>2014-07-07T17:53:36Z</time>
      </trkpt>
      <trkpt lat="59.9674114" lon="17.7141599">
        <ele>22.7283</ele>
        <time>2014-07-07T17:53:37Z</time>
      </trkpt>
      <trkpt lat="59.9673917" lon="17.7140193">
        <ele>23.209</ele>
        <time>2014-07-07T17:53:38Z</time>
      </trkpt>
      <trkpt lat="59.967373" lon="17.7138884">
        <ele>23.6896</ele>
        <time>2014-07-07T17:53:39Z</time>
      </trkpt>
      <trkpt lat="59.9673565" lon="17.7137635">
        <ele>24.1703</ele>
        <time>2014-07-07T17:53:40Z</time>
      </trkpt>
      <trkpt lat="59.9673392" lon="17.7136382">
        <ele>24.651</ele>
        <time>2014-07-07T17:53:41Z</time>
      </trkpt>
      <trkpt lat="59.9673183" lon="17.7135129">
        <ele>24.651</ele>
        <time>2014-07-07T17:53:42Z</time>
      </trkpt>
      <trkpt lat="59.9672959" lon="17.713387">
        <ele>25.1317</ele>
        <time>2014-07-07T17:53:43Z</time>
      </trkpt>
      <trkpt lat="59.9672729" lon="17.7132611">
        <ele>25.6123</ele>
        <time>2014-07-07T17:53:44Z</time>
      </trkpt>
      <trkpt lat="59.967249" lon="17.7131342">
        <ele>25.6123</ele>
        <time>2014-07-07T17:53:45Z</time>
      </trkpt>
      <trkpt lat="59.9672231" lon="17.7130056">
        <ele>26.0929</ele>
        <time>2014-07-07T17:53:46Z</time>
      </trkpt>
      <trkpt lat="59.9671943" lon="17.7128762">
        <ele>26.0929</ele>
        <time>2014-07-07T17:53:47Z</time>
      </trkpt>
      <trkpt lat="59.9671612" lon="17.7127458">
        <ele>26.5736</ele>
        <time>2014-07-07T17:53:48Z</time>
      </trkpt>
      <trkpt lat="59.9671265" lon="17.7126177">
        <ele>26.5736</ele>
        <time>2014-07-07T17:53:49Z</time>
      </trkpt>
      <trkpt lat="59.9670905" lon="17.7124961">
        <ele>26.5736</ele>
        <time>2014-07-07T17:53:50Z</time>
      </trkpt>
      <trkpt lat="59.9670522" lon="17.7123799">
        <ele>26.5736</ele>
        <time>2014-07-07T17:53:51Z</time>
      </trkpt>
      <trkpt lat="59.967012" lon="17.7122681">
        <ele>26.5736</ele>
        <time>2014-07-07T17:53:52Z</time>
      </trkpt>
      <trkpt lat="59.9669706" lon="17.7121602">
        <ele>26.5736</ele>
        <time>2014-07-07T17:53:53Z</time>
      </trkpt>
      <trkpt lat="59.9669294" lon="17.7120529">
        <ele>26.5736</ele>
        <time>2014-07-07T17:53:54Z</time>
      </trkpt>
      <trkpt lat="59.9668885" lon="17.7119448">
        <ele>26.5736</ele>
        <time>2014-07-07T17:53:55Z</time>
      </trkpt>
      <trkpt lat="59.9668471" lon="17.7118361">
        <ele>26.5736</ele>
        <time>2014-07-07T17:53:56Z</time>
      </trkpt>
      <trkpt lat="59.9668052" lon="17.7117268">
        <ele>26.5736</ele>
        <time>2014-07-07T17:53:57Z</time>
      </trkpt>
      <trkpt lat="59.9667633" lon="17.7116176">
        <ele>26.5736</ele>
        <time>2014-07-07T17:53:58Z</time>
      </trkpt>
      <trkpt lat="59.9667215" lon="17.7115057">
        <ele>26.5736</ele>
        <time>2014-07-07T17:53:59Z</time>
      </trkpt>
      <trkpt lat="59.9666804" lon="17.7113905">
        <ele>27.0543</ele>
        <time>2014-07-07T17:54:00Z</time>
      </trkpt>
      <trkpt lat="59.9666416" lon="17.7112719">
        <ele>27.0543</ele>
        <time>2014-07-07T17:54:01Z</time>
      </trkpt>
      <trkpt lat="59.9666054" lon="17.7111483">
        <ele>27.0543</ele>
        <time>2014-07-07T17:54:02Z</time>
      </trkpt>
      <trkpt lat="59.9665692" lon="17.7110213">
        <ele>27.0543</ele>
        <time>2014-07-07T17:54:03Z</time>
      </trkpt>
      <trkpt lat="59.9665319" lon="17.7108931">
        <ele>27.0543</ele>
        <time>2014-07-07T17:54:04Z</time>
      </trkpt>
      <trkpt lat="59.9664955" lon="17.7107641">
        <ele>26.5736</ele>
        <time>2014-07-07T17:54:05Z</time>
      </trkpt>
      <trkpt lat="59.9664596" lon="17.7106342">
        <ele>26.5736</ele>
        <time>2014-07-07T17:54:06Z</time>
      </trkpt>
      <trkpt lat="59.9664233" lon="17.7105036">
        <ele>26.5736</ele>
        <time>2014-07-07T17:54:07Z</time>
      </trkpt>
      <trkpt lat="59.9663869" lon="17.7103717">
        <ele>26.0929</ele>
        <time>2014-07-07T17:54:08Z</time>
      </trkpt>
      <trkpt lat="59.9663504" lon="17.7102394">
        <ele>26.0929</ele>
        <time>2014-07-07T17:54:09Z</time>
      </trkpt>
      <trkpt lat="59.9663132" lon="17.7101064">
        <ele>26.0929</ele>
        <time>2014-07-07T17:54:10Z</time>
      </trkpt>
      <trkpt lat="59.9662757" lon="17.7099738">
        <ele>26.0929</ele>
        <time>2014-07-07T17:54:11Z</time>
      </trkpt>
      <trkpt lat="59.9662374" lon="17.7098408">
        <ele>26.0929</ele>
        <time>2014-07-07T17:54:12Z</time>
      </trkpt>
      <trkpt lat="59.9661992" lon="17.7097065">
        <ele>26.0929</ele>
        <time>2014-07-07T17:54:13Z</time>
      </trkpt>
      <trkpt lat="59.9661617" lon="17.7095713">
        <ele>26.0929</ele>
        <time>2014-07-07T17:54:14Z</time>
      </trkpt>
      <trkpt lat="59.9661239" lon="17.7094378">
        <ele>26.0929</ele>
        <time>2014-07-07T17:54:15Z</time>
      </trkpt>
      <trkpt lat="59.9660852" lon="17.7093057">
        <ele>25.6123</ele>
        <time>2014-07-07T17:54:16Z</time>
      </trkpt>
      <trkpt lat="59.9660458" lon="17.7091749">
        <ele>25.6123</ele>
        <time>2014-07-07T17:54:17Z</time>
      </trkpt>
      <trkpt lat="59.966006" lon="17.7090446">
        <ele>25.6123</ele>
        <time>2014-07-07T17:54:18Z</time>
      </trkpt>
      <trkpt lat="59.965966" lon="17.7089159">
        <ele>25.6123</ele>
        <time>2014-07-07T17:54:19Z</time>
      </trkpt>
      <trkpt lat="59.9659252" lon="17.7087911">
        <ele>25.6123</ele>
        <time>2014-07-07T17:54:20Z</time>
      </trkpt>
      <trkpt lat="59.9658836" lon="17.7086713">
        <ele>25.6123</ele>
        <time>2014-07-07T17:54:21Z</time>
      </trkpt>
      <trkpt lat="59.9658403" lon="17.7085563">
        <ele>25.6123</ele>
        <time>2014-07-07T17:54:22Z</time>
      </trkpt>
      <trkpt lat="59.9657946" lon="17.7084452">
        <ele>25.6123</ele>
        <time>2014-07-07T17:54:23Z</time>
      </trkpt>
      <trkpt lat="59.9657453" lon="17.7083403">
        <ele>25.6123</ele>
        <time>2014-07-07T17:54:24Z</time>
      </trkpt>
      <trkpt lat="59.9656916" lon="17.7082448">
        <ele>25.6123</ele>
        <time>2014-07-07T17:54:25Z</time>
      </trkpt>
      <trkpt lat="59.9656351" lon="17.7081598">
        <ele>25.6123</ele>
        <time>2014-07-07T17:54:26Z</time>
      </trkpt>
      <trkpt lat="59.9655776" lon="17.7080834">
        <ele>25.6123</ele>
        <time>2014-07-07T17:54:27Z</time>
      </trkpt>
      <trkpt lat="59.9655187" lon="17.708015">
        <ele>25.6123</ele>
        <time>2014-07-07T17:54:28Z</time>
      </trkpt>
      <trkpt lat="59.9654589" lon="17.707953">
        <ele>25.6123</ele>
        <time>2014-07-07T17:54:29Z</time>
      </trkpt>
      <trkpt lat="59.9653983" lon="17.707895">
        <ele>25.6123</ele>
        <time>2014-07-07T17:54:30Z</time>
      </trkpt>
      <trkpt lat="59.9653368" lon="17.7078413">
        <ele>25.6123</ele>
        <time>2014-07-07T17:54:31Z</time>
      </trkpt>
      <trkpt lat="59.9652749" lon="17.707791">
        <ele>25.6123</ele>
        <time>2014-07-07T17:54:32Z</time>
      </trkpt>
      <trkpt lat="59.9652124" lon="17.7077415">
        <ele>25.6123</ele>
        <time>2014-07-07T17:54:33Z</time>
      </trkpt>
      <trkpt lat="59.9651499" lon="17.7076908">
        <ele>25.6123</ele>
        <time>2014-07-07T17:54:34Z</time>
      </trkpt>
      <trkpt lat="59.9650876" lon="17.7076426">
        <ele>25.6123</ele>
        <time>2014-07-07T17:54:35Z</time>
      </trkpt>
      <trkpt lat="59.9650249" lon="17.7075978">
        <ele>25.6123</ele>
        <time>2014-07-07T17:54:36Z</time>
      </trkpt>
      <trkpt lat="59.9649634" lon="17.7075531">
        <ele>25.6123</ele>
        <time>2014-07-07T17:54:37Z</time>
      </trkpt>
      <trkpt lat="59.9649027" lon="17.7075075">
        <ele>25.6123</ele>
        <time>2014-07-07T17:54:38Z</time>
      </trkpt>
      <trkpt lat="59.9648427" lon="17.7074634">
        <ele>26.0929</ele>
        <time>2014-07-07T17:54:39Z</time>
      </trkpt>
      <trkpt lat="59.964784" lon="17.7074237">
        <ele>26.0929</ele>
        <time>2014-07-07T17:54:40Z</time>
      </trkpt>
      <trkpt lat="59.9647256" lon="17.7073854">
        <ele>26.0929</ele>
        <time>2014-07-07T17:54:41Z</time>
      </trkpt>
      <trkpt lat="59.9646679" lon="17.7073469">
        <ele>26.0929</ele>
        <time>2014-07-07T17:54:42Z</time>
      </trkpt>
      <trkpt lat="59.9646129" lon="17.7073087">
        <ele>26.0929</ele>
        <time>2014-07-07T17:54:43Z</time>
      </trkpt>
      <trkpt lat="59.9645569" lon="17.7072734">
        <ele>26.0929</ele>
        <time>2014-07-07T17:54:44Z</time>
      </trkpt>
      <trkpt lat="59.964497" lon="17.707245">
        <ele>26.5736</ele>
        <time>2014-07-07T17:54:45Z</time>
      </trkpt>
      <trkpt lat="59.9644355" lon="17.7072201">
        <ele>26.5736</ele>
        <time>2014-07-07T17:54:46Z</time>
      </trkpt>
      <trkpt lat="59.9643741" lon="17.7071971">
        <ele>26.5736</ele>
        <time>2014-07-07T17:54:47Z</time>
      </trkpt>
      <trkpt lat="59.9643121" lon="17.7071748">
        <ele>26.0929</ele>
        <time>2014-07-07T17:54:48Z</time>
      </trkpt>
      <trkpt lat="59.9642493" lon="17.7071564">
        <ele>26.0929</ele>
        <time>2014-07-07T17:54:49Z</time>
      </trkpt>
      <trkpt lat="59.9641853" lon="17.7071402">
        <ele>26.5736</ele>
        <time>2014-07-07T17:54:50Z</time>
      </trkpt>
      <trkpt lat="59.964122" lon="17.7071248">
        <ele>26.5736</ele>
        <time>2014-07-07T17:54:51Z</time>
      </trkpt>
      <trkpt lat="59.9640587" lon="17.7071118">
        <ele>26.5736</ele>
        <time>2014-07-07T17:54:52Z</time>
      </trkpt>
      <trkpt lat="59.9639942" lon="17.7071023">
        <ele>26.5736</ele>
        <time>2014-07-07T17:54:53Z</time>
      </trkpt>
      <trkpt lat="59.9639304" lon="17.7070931">
        <ele>26.5736</ele>
        <time>2014-07-07T17:54:54Z</time>
      </trkpt>
      <trkpt lat="59.9638667" lon="17.7070818">
        <ele>26.5736</ele>
        <time>2014-07-07T17:54:55Z</time>
      </trkpt>
      <trkpt lat="59.9638013" lon="17.707073">
        <ele>26.5736</ele>
        <time>2014-07-07T17:54:56Z</time>
      </trkpt>
      <trkpt lat="59.9637351" lon="17.7070665">
        <ele>26.5736</ele>
        <time>2014-07-07T17:54:57Z</time>
      </trkpt>
      <trkpt lat="59.9636693" lon="17.7070593">
        <ele>26.5736</ele>
        <time>2014-07-07T17:54:58Z</time>
      </trkpt>
      <trkpt lat="59.9636043" lon="17.7070515">
        <ele>26.5736</ele>
        <time>2014-07-07T17:54:59Z</time>
      </trkpt>
      <trkpt lat="59.9635396" lon="17.7070458">
        <ele>26.5736</ele>
        <time>2014-07-07T17:55:00Z</time>
      </trkpt>
      <trkpt lat="59.963475" lon="17.707041">
        <ele>26.5736</ele>
        <time>2014-07-07T17:55:01Z</time>
      </trkpt>
      <trkpt lat="59.9634109" lon="17.7070388">
        <ele>26.5736</ele>
        <time>2014-07-07T17:55:02Z</time>
      </trkpt>
      <trkpt lat="59.9633481" lon="17.7070401">
        <ele>26.5736</ele>
        <time>2014-07-07T17:55:03Z</time>
      </trkpt>
      <trkpt lat="59.9632795" lon="17.7070544">
        <ele>27.0543</ele>
        <time>2014-07-07T17:55:04Z</time>
      </trkpt>
      <trkpt lat="59.963215" lon="17.707059">
        <ele>27.0543</ele>
        <time>2014-07-07T17:55:05Z</time>
      </trkpt>
      <trkpt lat="59.9631513" lon="17.7070616">
        <ele>26.5736</ele>
        <time>2014-07-07T17:55:06Z</time>
      </trkpt>
      <trkpt lat="59.9630866" lon="17.70707">
        <ele>26.5736</ele>
        <time>2014-07-07T17:55:07Z</time>
      </trkpt>
      <trkpt lat="59.9630252" lon="17.7070743">
        <ele>26.5736</ele>
        <time>2014-07-07T17:55:08Z</time>
      </trkpt>
      <trkpt lat="59.9629647" lon="17.7070767">
        <ele>26.5736</ele>
        <time>2014-07-07T17:55:09Z</time>
      </trkpt>
      <trkpt lat="59.9629047" lon="17.7070787">
        <ele>26.5736</ele>
        <time>2014-07-07T17:55:10Z</time>
      </trkpt>
      <trkpt lat="59.9628446" lon="17.7070782">
        <ele>27.0543</ele>
        <time>2014-07-07T17:55:11Z</time>
      </trkpt>
      <trkpt lat="59.9627871" lon="17.7070785">
        <ele>27.0543</ele>
        <time>2014-07-07T17:55:12Z</time>
      </trkpt>
      <trkpt lat="59.9627295" lon="17.7070723">
        <ele>27.0543</ele>
        <time>2014-07-07T17:55:13Z</time>
      </trkpt>
      <trkpt lat="59.9626716" lon="17.7070614">
        <ele>27.0543</ele>
        <time>2014-07-07T17:55:14Z</time>
      </trkpt>
      <trkpt lat="59.9626147" lon="17.707044">
        <ele>27.0543</ele>
        <time>2014-07-07T17:55:15Z</time>
      </trkpt>
      <trkpt lat="59.9625581" lon="17.7070259">
        <ele>27.5349</ele>
        <time>2014-07-07T17:55:16Z</time>
      </trkpt>
      <trkpt lat="59.9625017" lon="17.7070091">
        <ele>27.5349</ele>
        <time>2014-07-07T17:55:17Z</time>
      </trkpt>
      <trkpt lat="59.9624477" lon="17.7069875">
        <ele>27.5349</ele>
        <time>2014-07-07T17:55:18Z</time>
      </trkpt>
      <trkpt lat="59.9623932" lon="17.7069657">
        <ele>27.5349</ele>
        <time>2014-07-07T17:55:19Z</time>
      </trkpt>
      <trkpt lat="59.962339" lon="17.7069423">
        <ele>27.5349</ele>
        <time>2014-07-07T17:55:20Z</time>
      </trkpt>
      <trkpt lat="59.9622857" lon="17.706916">
        <ele>27.5349</ele>
        <time>2014-07-07T17:55:21Z</time>
      </trkpt>
      <trkpt lat="59.9622324" lon="17.7068881">
        <ele>27.5349</ele>
        <time>2014-07-07T17:55:22Z</time>
      </trkpt>
      <trkpt lat="59.962179" lon="17.7068584">
        <ele>27.5349</ele>
        <time>2014-07-07T17:55:23Z</time>
      </trkpt>
      <trkpt lat="59.9621246" lon="17.7068259">
        <ele>27.5349</ele>
        <time>2014-07-07T17:55:24Z</time>
      </trkpt>
      <trkpt lat="59.9620692" lon="17.7067917">
        <ele>28.0155</ele>
        <time>2014-07-07T17:55:25Z</time>
      </trkpt>
      <trkpt lat="59.9620138" lon="17.7067544">
        <ele>28.0155</ele>
        <time>2014-07-07T17:55:26Z</time>
      </trkpt>
      <trkpt lat="59.9619576" lon="17.7067171">
        <ele>28.0155</ele>
        <time>2014-07-07T17:55:27Z</time>
      </trkpt>
      <trkpt lat="59.9619013" lon="17.7066783">
        <ele>28.0155</ele>
        <time>2014-07-07T17:55:28Z</time>
      </trkpt>
      <trkpt lat="59.9618453" lon="17.7066352">
        <ele>28.0155</ele>
        <time>2014-07-07T17:55:29Z</time>
      </trkpt>
      <trkpt lat="59.9617895" lon="17.7065887">
        <ele>28.0155</ele>
        <time>2014-07-07T17:55:30Z</time>
      </trkpt>
      <trkpt lat="59.9617351" lon="17.7065379">
        <ele>28.0155</ele>
        <time>2014-07-07T17:55:31Z</time>
      </trkpt>
      <trkpt lat="59.9616815" lon="17.7064813">
        <ele>28.0155</ele>
        <time>2014-07-07T17:55:32Z</time>
      </trkpt>
      <trkpt lat="59.9616289" lon="17.7064197">
        <ele>28.0155</ele>
        <time>2014-07-07T17:55:33Z</time>
      </trkpt>
      <trkpt lat="59.9615771" lon="17.7063533">
        <ele>28.0155</ele>
        <time>2014-07-07T17:55:34Z</time>
      </trkpt>
      <trkpt lat="59.9615277" lon="17.70628">
        <ele>28.0155</ele>
        <time>2014-07-07T17:55:35Z</time>
      </trkpt>
      <trkpt lat="59.9614801" lon="17.7062012">
        <ele>27.5349</ele>
        <time>2014-07-07T17:55:36Z</time>
      </trkpt>
      <trkpt lat="59.9614335" lon="17.7061202">
        <ele>27.5349</ele>
        <time>2014-07-07T17:55:37Z</time>
      </trkpt>
      <trkpt lat="59.9613867" lon="17.7060354">
        <ele>27.5349</ele>
        <time>2014-07-07T17:55:38Z</time>
      </trkpt>
      <trkpt lat="59.9613404" lon="17.7059485">
        <ele>27.5349</ele>
        <time>2014-07-07T17:55:39Z</time>
      </trkpt>
      <trkpt lat="59.9612942" lon="17.7058608">
        <ele>27.5349</ele>
        <time>2014-07-07T17:55:40Z</time>
      </trkpt>
      <trkpt lat="59.9612471" lon="17.705772">
        <ele>28.0155</ele>
        <time>2014-07-07T17:55:41Z</time>
      </trkpt>
      <trkpt lat="59.9611989" lon="17.7056833">
        <ele>28.0155</ele>
        <time>2014-07-07T17:55:42Z</time>
      </trkpt>
      <trkpt lat="59.961151" lon="17.705594">
        <ele>28.0155</ele>
        <time>2014-07-07T17:55:43Z</time>
      </trkpt>
      <trkpt lat="59.961103" lon="17.7055051">
        <ele>28.0155</ele>
        <time>2014-07-07T17:55:44Z</time>
      </trkpt>
      <trkpt lat="59.9610533" lon="17.7054182">
        <ele>28.0155</ele>
        <time>2014-07-07T17:55:45Z</time>
      </trkpt>
      <trkpt lat="59.9610024" lon="17.7053348">
        <ele>27.5349</ele>
        <time>2014-07-07T17:55:46Z</time>
      </trkpt>
      <trkpt lat="59.9609491" lon="17.7052504">
        <ele>28.0155</ele>
        <time>2014-07-07T17:55:47Z</time>
      </trkpt>
      <trkpt lat="59.9608946" lon="17.7051714">
        <ele>28.0155</ele>
        <time>2014-07-07T17:55:48Z</time>
      </trkpt>
      <trkpt lat="59.9608393" lon="17.7050935">
        <ele>28.0155</ele>
        <time>2014-07-07T17:55:49Z</time>
      </trkpt>
      <trkpt lat="59.960785" lon="17.7050132">
        <ele>28.0155</ele>
        <time>2014-07-07T17:55:50Z</time>
      </trkpt>
      <trkpt lat="59.9607278" lon="17.7049455">
        <ele>28.0155</ele>
        <time>2014-07-07T17:55:51Z</time>
      </trkpt>
      <trkpt lat="59.9606703" lon="17.7048752">
        <ele>28.0155</ele>
        <time>2014-07-07T17:55:52Z</time>
      </trkpt>
      <trkpt lat="59.9606118" lon="17.7048047">
        <ele>28.0155</ele>
        <time>2014-07-07T17:55:53Z</time>
      </trkpt>
      <trkpt lat="59.9605546" lon="17.704734">
        <ele>28.0155</ele>
        <time>2014-07-07T17:55:54Z</time>
      </trkpt>
      <trkpt lat="59.960497" lon="17.7046636">
        <ele>28.0155</ele>
        <time>2014-07-07T17:55:55Z</time>
      </trkpt>
      <trkpt lat="59.9604383" lon="17.7045953">
        <ele>28.0155</ele>
        <time>2014-07-07T17:55:56Z</time>
      </trkpt>
      <trkpt lat="59.9603798" lon="17.704526">
        <ele>28.0155</ele>
        <time>2014-07-07T17:55:57Z</time>
      </trkpt>
      <trkpt lat="59.9603213" lon="17.7044578">
        <ele>28.4962</ele>
        <time>2014-07-07T17:55:58Z</time>
      </trkpt>
      <trkpt lat="59.9602623" lon="17.7043931">
        <ele>28.4962</ele>
        <time>2014-07-07T17:55:59Z</time>
      </trkpt>
      <trkpt lat="59.9602051" lon="17.7043252">
        <ele>28.9769</ele>
        <time>2014-07-07T17:56:00Z</time>
      </trkpt>
      <trkpt lat="59.9601511" lon="17.7042491">
        <ele>28.9769</ele>
        <time>2014-07-07T17:56:01Z</time>
      </trkpt>
      <trkpt lat="59.9601015" lon="17.7041638">
        <ele>29.4575</ele>
        <time>2014-07-07T17:56:02Z</time>
      </trkpt>
      <trkpt lat="59.9600554" lon="17.704071">
        <ele>29.4575</ele>
        <time>2014-07-07T17:56:03Z</time>
      </trkpt>
      <trkpt lat="59.9600147" lon="17.7039709">
        <ele>29.4575</ele>
        <time>2014-07-07T17:56:04Z</time>
      </trkpt>
      <trkpt lat="59.9599795" lon="17.7038642">
        <ele>29.4575</ele>
        <time>2014-07-07T17:56:05Z</time>
      </trkpt>
      <trkpt lat="59.9599439" lon="17.7037514">
        <ele>29.9381</ele>
        <time>2014-07-07T17:56:06Z</time>
      </trkpt>
      <trkpt lat="59.9599115" lon="17.703643">
        <ele>30.4188</ele>
        <time>2014-07-07T17:56:07Z</time>
      </trkpt>
      <trkpt lat="59.959879" lon="17.7035394">
        <ele>30.4188</ele>
        <time>2014-07-07T17:56:08Z</time>
      </trkpt>
      <trkpt lat="59.9598456" lon="17.7034341">
        <ele>30.8995</ele>
        <time>2014-07-07T17:56:09Z</time>
      </trkpt>
      <trkpt lat="59.9598147" lon="17.7033292">
        <ele>30.8995</ele>
        <time>2014-07-07T17:56:10Z</time>
      </trkpt>
      <trkpt lat="59.9597867" lon="17.7032231">
        <ele>31.3801</ele>
        <time>2014-07-07T17:56:11Z</time>
      </trkpt>
      <trkpt lat="59.9597574" lon="17.703119">
        <ele>31.8607</ele>
        <time>2014-07-07T17:56:12Z</time>
      </trkpt>
      <trkpt lat="59.9597261" lon="17.703017">
        <ele>31.8607</ele>
        <time>2014-07-07T17:56:13Z</time>
      </trkpt>
      <trkpt lat="59.9596961" lon="17.702917">
        <ele>32.3416</ele>
        <time>2014-07-07T17:56:14Z</time>
      </trkpt>
      <trkpt lat="59.9596678" lon="17.702823">
        <ele>31.8607</ele>
        <time>2014-07-07T17:56:15Z</time>
      </trkpt>
      <trkpt lat="59.9596392" lon="17.7027235">
        <ele>32.3416</ele>
        <time>2014-07-07T17:56:16Z</time>
      </trkpt>
      <trkpt lat="59.9596085" lon="17.7026175">
        <ele>32.3416</ele>
        <time>2014-07-07T17:56:17Z</time>
      </trkpt>
      <trkpt lat="59.9595789" lon="17.7025101">
        <ele>32.3416</ele>
        <time>2014-07-07T17:56:18Z</time>
      </trkpt>
      <trkpt lat="59.9595489" lon="17.7024001">
        <ele>32.8223</ele>
        <time>2014-07-07T17:56:19Z</time>
      </trkpt>
      <trkpt lat="59.9595188" lon="17.7022903">
        <ele>32.8223</ele>
        <time>2014-07-07T17:56:20Z</time>
      </trkpt>
      <trkpt lat="59.9594875" lon="17.7021804">
        <ele>33.3029</ele>
        <time>2014-07-07T17:56:21Z</time>
      </trkpt>
      <trkpt lat="59.9594568" lon="17.702068">
        <ele>33.3029</ele>
        <time>2014-07-07T17:56:22Z</time>
      </trkpt>
      <trkpt lat="59.9594257" lon="17.7019527">
        <ele>33.7834</ele>
        <time>2014-07-07T17:56:23Z</time>
      </trkpt>
      <trkpt lat="59.9593947" lon="17.7018333">
        <ele>33.7834</ele>
        <time>2014-07-07T17:56:24Z</time>
      </trkpt>
      <trkpt lat="59.9593647" lon="17.7017131">
        <ele>33.7834</ele>
        <time>2014-07-07T17:56:25Z</time>
      </trkpt>
      <trkpt lat="59.9593359" lon="17.7015928">
        <ele>34.2642</ele>
        <time>2014-07-07T17:56:26Z</time>
      </trkpt>
      <trkpt lat="59.9593092" lon="17.7014695">
        <ele>34.2642</ele>
        <time>2014-07-07T17:56:27Z</time>
      </trkpt>
      <trkpt lat="59.9592862" lon="17.7013432">
        <ele>34.2642</ele>
        <time>2014-07-07T17:56:28Z</time>
      </trkpt>
      <trkpt lat="59.9592667" lon="17.7012138">
        <ele>33.7834</ele>
        <time>2014-07-07T17:56:29Z</time>
      </trkpt>
      <trkpt lat="59.9592485" lon="17.7010813">
        <ele>33.7834</ele>
        <time>2014-07-07T17:56:30Z</time>
      </trkpt>
      <trkpt lat="59.9592313" lon="17.7009452">
        <ele>33.7834</ele>
        <time>2014-07-07T17:56:31Z</time>
      </trkpt>
      <trkpt lat="59.9592159" lon="17.7008055">
        <ele>33.3029</ele>
        <time>2014-07-07T17:56:32Z</time>
      </trkpt>
      <trkpt lat="59.9592018" lon="17.7006624">
        <ele>33.3029</ele>
        <time>2014-07-07T17:56:33Z</time>
      </trkpt>
      <trkpt lat="59.9591875" lon="17.7005156">
        <ele>33.3029</ele>
        <time>2014-07-07T17:56:34Z</time>
      </trkpt>
      <trkpt lat="59.9591719" lon="17.7003684">
        <ele>33.3029</ele>
        <time>2014-07-07T17:56:35Z</time>
      </trkpt>
      <trkpt lat="59.9591553" lon="17.7002216">
        <ele>33.3029</ele>
        <time>2014-07-07T17:56:36Z</time>
      </trkpt>
      <trkpt lat="59.9591412" lon="17.7000751">
        <ele>33.3029</ele>
        <time>2014-07-07T17:56:37Z</time>
      </trkpt>
      <trkpt lat="59.9591292" lon="17.6999287">
        <ele>33.3029</ele>
        <time>2014-07-07T17:56:38Z</time>
      </trkpt>
      <trkpt lat="59.959117" lon="17.6997824">
        <ele>33.3029</ele>
        <time>2014-07-07T17:56:39Z</time>
      </trkpt>
      <trkpt lat="59.9591047" lon="17.6996369">
        <ele>33.3029</ele>
        <time>2014-07-07T17:56:40Z</time>
      </trkpt>
      <trkpt lat="59.9590942" lon="17.6994919">
        <ele>33.7834</ele>
        <time>2014-07-07T17:56:41Z</time>
      </trkpt>
      <trkpt lat="59.9590859" lon="17.6993478">
        <ele>33.7834</ele>
        <time>2014-07-07T17:56:42Z</time>
      </trkpt>
      <trkpt lat="59.9590792" lon="17.6992065">
        <ele>33.7834</ele>
        <time>2014-07-07T17:56:43Z</time>
      </trkpt>
      <trkpt lat="59.9590734" lon="17.6990662">
        <ele>33.7834</ele>
        <time>2014-07-07T17:56:44Z</time>
      </trkpt>
      <trkpt lat="59.9590692" lon="17.6989271">
        <ele>34.2642</ele>
        <time>2014-07-07T17:56:45Z</time>
      </trkpt>
      <trkpt lat="59.9590674" lon="17.6987879">
        <ele>34.2642</ele>
        <time>2014-07-07T17:56:46Z</time>
      </trkpt>
      <trkpt lat="59.9590669" lon="17.6986501">
        <ele>34.2642</ele>
        <time>2014-07-07T17:56:47Z</time>
      </trkpt>
      <trkpt lat="59.9590663" lon="17.6985117">
        <ele>34.2642</ele>
        <time>2014-07-07T17:56:48Z</time>
      </trkpt>
      <trkpt lat="59.959065" lon="17.6983717">
        <ele>34.2642</ele>
        <time>2014-07-07T17:56:49Z</time>
      </trkpt>
      <trkpt lat="59.9590611" lon="17.6982286">
        <ele>34.2642</ele>
        <time>2014-07-07T17:56:50Z</time>
      </trkpt>
      <trkpt lat="59.9590543" lon="17.6980839">
        <ele>34.2642</ele>
        <time>2014-07-07T17:56:51Z</time>
      </trkpt>
      <trkpt lat="59.959045" lon="17.6979368">
        <ele>33.7834</ele>
        <time>2014-07-07T17:56:52Z</time>
      </trkpt>
      <trkpt lat="59.9590308" lon="17.6977839">
        <ele>33.7834</ele>
        <time>2014-07-07T17:56:53Z</time>
      </trkpt>
      <trkpt lat="59.9590113" lon="17.697627">
        <ele>33.3029</ele>
        <time>2014-07-07T17:56:54Z</time>
      </trkpt>
      <trkpt lat="59.9589878" lon="17.697465">
        <ele>32.8223</ele>
        <time>2014-07-07T17:56:55Z</time>
      </trkpt>
      <trkpt lat="59.9589599" lon="17.6973002">
        <ele>32.8223</ele>
        <time>2014-07-07T17:56:56Z</time>
      </trkpt>
      <trkpt lat="59.9589279" lon="17.6971317">
        <ele>32.8223</ele>
        <time>2014-07-07T17:56:57Z</time>
      </trkpt>
      <trkpt lat="59.9588933" lon="17.6969654">
        <ele>32.8223</ele>
        <time>2014-07-07T17:56:58Z</time>
      </trkpt>
      <trkpt lat="59.9588554" lon="17.6968011">
        <ele>32.8223</ele>
        <time>2014-07-07T17:56:59Z</time>
      </trkpt>
      <trkpt lat="59.958815" lon="17.6966421">
        <ele>32.8223</ele>
        <time>2014-07-07T17:57:00Z</time>
      </trkpt>
      <trkpt lat="59.9587714" lon="17.69649">
        <ele>32.8223</ele>
        <time>2014-07-07T17:57:01Z</time>
      </trkpt>
      <trkpt lat="59.9587236" lon="17.6963444">
        <ele>32.8223</ele>
        <time>2014-07-07T17:57:02Z</time>
      </trkpt>
      <trkpt lat="59.958672" lon="17.6962054">
        <ele>32.8223</ele>
        <time>2014-07-07T17:57:03Z</time>
      </trkpt>
      <trkpt lat="59.9586193" lon="17.6960711">
        <ele>32.8223</ele>
        <time>2014-07-07T17:57:04Z</time>
      </trkpt>
      <trkpt lat="59.9585684" lon="17.6959385">
        <ele>32.3416</ele>
        <time>2014-07-07T17:57:05Z</time>
      </trkpt>
      <trkpt lat="59.9585182" lon="17.6958084">
        <ele>32.3416</ele>
        <time>2014-07-07T17:57:06Z</time>
      </trkpt>
      <trkpt lat="59.9584683" lon="17.6956823">
        <ele>32.3416</ele>
        <time>2014-07-07T17:57:07Z</time>
      </trkpt>
      <trkpt lat="59.958418" lon="17.6955569">
        <ele>32.3416</ele>
        <time>2014-07-07T17:57:08Z</time>
      </trkpt>
      <trkpt lat="59.9583684" lon="17.6954307">
        <ele>32.3416</ele>
        <time>2014-07-07T17:57:09Z</time>
      </trkpt>
      <trkpt lat="59.9583196" lon="17.6953056">
        <ele>32.3416</ele>
        <time>2014-07-07T17:57:10Z</time>
      </trkpt>
      <trkpt lat="59.9582715" lon="17.695181">
        <ele>32.3416</ele>
        <time>2014-07-07T17:57:11Z</time>
      </trkpt>
      <trkpt lat="59.958225" lon="17.6950561">
        <ele>32.3416</ele>
        <time>2014-07-07T17:57:12Z</time>
      </trkpt>
      <trkpt lat="59.9581792" lon="17.6949311">
        <ele>32.3416</ele>
        <time>2014-07-07T17:57:13Z</time>
      </trkpt>
      <trkpt lat="59.9581333" lon="17.6948076">
        <ele>32.3416</ele>
        <time>2014-07-07T17:57:14Z</time>
      </trkpt>
      <trkpt lat="59.9580877" lon="17.6946843">
        <ele>32.3416</ele>
        <time>2014-07-07T17:57:15Z</time>
      </trkpt>
      <trkpt lat="59.958043" lon="17.6945587">
        <ele>32.3416</ele>
        <time>2014-07-07T17:57:16Z</time>
      </trkpt>
      <trkpt lat="59.9579985" lon="17.6944309">
        <ele>31.8607</ele>
        <time>2014-07-07T17:57:17Z</time>
      </trkpt>
      <trkpt lat="59.9579535" lon="17.6943031">
        <ele>31.8607</ele>
        <time>2014-07-07T17:57:18Z</time>
      </trkpt>
      <trkpt lat="59.9579086" lon="17.6941751">
        <ele>31.8607</ele>
        <time>2014-07-07T17:57:19Z</time>
      </trkpt>
      <trkpt lat="59.9578644" lon="17.6940472">
        <ele>31.8607</ele>
        <time>2014-07-07T17:57:20Z</time>
      </trkpt>
      <trkpt lat="59.9578203" lon="17.6939197">
        <ele>31.8607</ele>
        <time>2014-07-07T17:57:21Z</time>
      </trkpt>
      <trkpt lat="59.9577764" lon="17.6937927">
        <ele>31.8607</ele>
        <time>2014-07-07T17:57:22Z</time>
      </trkpt>
      <trkpt lat="59.9577319" lon="17.6936648">
        <ele>31.8607</ele>
        <time>2014-07-07T17:57:23Z</time>
      </trkpt>
      <trkpt lat="59.9576873" lon="17.6935363">
        <ele>31.8607</ele>
        <time>2014-07-07T17:57:24Z</time>
      </trkpt>
      <trkpt lat="59.9576427" lon="17.6934074">
        <ele>31.8607</ele>
        <time>2014-07-07T17:57:25Z</time>
      </trkpt>
      <trkpt lat="59.957597" lon="17.6932789">
        <ele>31.8607</ele>
        <time>2014-07-07T17:57:26Z</time>
      </trkpt>
      <trkpt lat="59.9575515" lon="17.693151">
        <ele>31.8607</ele>
        <time>2014-07-07T17:57:27Z</time>
      </trkpt>
      <trkpt lat="59.9575068" lon="17.6930233">
        <ele>31.8607</ele>
        <time>2014-07-07T17:57:28Z</time>
      </trkpt>
      <trkpt lat="59.957462" lon="17.6928962">
        <ele>31.8607</ele>
        <time>2014-07-07T17:57:29Z</time>
      </trkpt>
      <trkpt lat="59.9574177" lon="17.6927702">
        <ele>31.8607</ele>
        <time>2014-07-07T17:57:30Z</time>
      </trkpt>
      <trkpt lat="59.9573738" lon="17.6926438">
        <ele>31.8607</ele>
        <time>2014-07-07T17:57:31Z</time>
      </trkpt>
      <trkpt lat="59.9573309" lon="17.6925168">
        <ele>31.8607</ele>
        <time>2014-07-07T17:57:32Z</time>
      </trkpt>
      <trkpt lat="59.957288" lon="17.6923895">
        <ele>32.3416</ele>
        <time>2014-07-07T17:57:33Z</time>
      </trkpt>
      <trkpt lat="59.9572444" lon="17.6922636">
        <ele>32.3416</ele>
        <time>2014-07-07T17:57:34Z</time>
      </trkpt>
      <trkpt lat="59.957201" lon="17.6921388">
        <ele>32.3416</ele>
        <time>2014-07-07T17:57:35Z</time>
      </trkpt>
      <trkpt lat="59.9571579" lon="17.6920138">
        <ele>31.8607</ele>
        <time>2014-07-07T17:57:36Z</time>
      </trkpt>
      <trkpt lat="59.9571159" lon="17.6918878">
        <ele>31.8607</ele>
        <time>2014-07-07T17:57:37Z</time>
      </trkpt>
      <trkpt lat="59.957074" lon="17.691763">
        <ele>31.8607</ele>
        <time>2014-07-07T17:57:38Z</time>
      </trkpt>
      <trkpt lat="59.9570306" lon="17.6916395">
        <ele>32.3416</ele>
        <time>2014-07-07T17:57:39Z</time>
      </trkpt>
      <trkpt lat="59.9569875" lon="17.6915171">
        <ele>32.3416</ele>
        <time>2014-07-07T17:57:40Z</time>
      </trkpt>
      <trkpt lat="59.9569454" lon="17.691396">
        <ele>32.3416</ele>
        <time>2014-07-07T17:57:41Z</time>
      </trkpt>
      <trkpt lat="59.9569047" lon="17.6912774">
        <ele>32.8223</ele>
        <time>2014-07-07T17:57:42Z</time>
      </trkpt>
      <trkpt lat="59.9568642" lon="17.6911608">
        <ele>32.8223</ele>
        <time>2014-07-07T17:57:43Z</time>
      </trkpt>
      <trkpt lat="59.9568264" lon="17.6910479">
        <ele>33.3029</ele>
        <time>2014-07-07T17:57:44Z</time>
      </trkpt>
      <trkpt lat="59.9567886" lon="17.690939">
        <ele>33.3029</ele>
        <time>2014-07-07T17:57:45Z</time>
      </trkpt>
      <trkpt lat="59.9567505" lon="17.6908324">
        <ele>33.3029</ele>
        <time>2014-07-07T17:57:46Z</time>
      </trkpt>
      <trkpt lat="59.9567149" lon="17.690727">
        <ele>33.3029</ele>
        <time>2014-07-07T17:57:47Z</time>
      </trkpt>
      <trkpt lat="59.9566812" lon="17.690621">
        <ele>33.7834</ele>
        <time>2014-07-07T17:57:48Z</time>
      </trkpt>
      <trkpt lat="59.9566465" lon="17.6905164">
        <ele>33.7834</ele>
        <time>2014-07-07T17:57:49Z</time>
      </trkpt>
      <trkpt lat="59.9566119" lon="17.6904133">
        <ele>33.3029</ele>
        <time>2014-07-07T17:57:50Z</time>
      </trkpt>
      <trkpt lat="59.9565808" lon="17.6903147">
        <ele>33.3029</ele>
        <time>2014-07-07T17:57:51Z</time>
      </trkpt>
      <trkpt lat="59.9565482" lon="17.6902253">
        <ele>33.3029</ele>
        <time>2014-07-07T17:57:52Z</time>
      </trkpt>
      <trkpt lat="59.956513" lon="17.6901403">
        <ele>33.3029</ele>
        <time>2014-07-07T17:57:53Z</time>
      </trkpt>
      <trkpt lat="59.9564744" lon="17.6900547">
        <ele>33.3029</ele>
        <time>2014-07-07T17:57:54Z</time>
      </trkpt>
      <trkpt lat="59.9564328" lon="17.6899655">
        <ele>33.3029</ele>
        <time>2014-07-07T17:57:55Z</time>
      </trkpt>
      <trkpt lat="59.9563918" lon="17.68987">
        <ele>33.3029</ele>
        <time>2014-07-07T17:57:56Z</time>
      </trkpt>
      <trkpt lat="59.9563534" lon="17.6897647">
        <ele>33.3029</ele>
        <time>2014-07-07T17:57:57Z</time>
      </trkpt>
      <trkpt lat="59.9563181" lon="17.6896497">
        <ele>33.3029</ele>
        <time>2014-07-07T17:57:58Z</time>
      </trkpt>
      <trkpt lat="59.9562819" lon="17.6895316">
        <ele>32.8223</ele>
        <time>2014-07-07T17:57:59Z</time>
      </trkpt>
      <trkpt lat="59.956241" lon="17.6894185">
        <ele>32.3416</ele>
        <time>2014-07-07T17:58:00Z</time>
      </trkpt>
      <trkpt lat="59.9561963" lon="17.6892969">
        <ele>32.3416</ele>
        <time>2014-07-07T17:58:01Z</time>
      </trkpt>
      <trkpt lat="59.956159" lon="17.6891598">
        <ele>32.3416</ele>
        <time>2014-07-07T17:58:02Z</time>
      </trkpt>
      <trkpt lat="59.9561294" lon="17.6890125">
        <ele>32.8223</ele>
        <time>2014-07-07T17:58:03Z</time>
      </trkpt>
      <trkpt lat="59.9561058" lon="17.6888649">
        <ele>32.8223</ele>
        <time>2014-07-07T17:58:04Z</time>
      </trkpt>
      <trkpt lat="59.9560836" lon="17.6887162">
        <ele>32.3416</ele>
        <time>2014-07-07T17:58:05Z</time>
      </trkpt>
      <trkpt lat="59.9560601" lon="17.6885641">
        <ele>32.3416</ele>
        <time>2014-07-07T17:58:06Z</time>
      </trkpt>
      <trkpt lat="59.9560354" lon="17.6884114">
        <ele>32.3416</ele>
        <time>2014-07-07T17:58:07Z</time>
      </trkpt>
      <trkpt lat="59.9560114" lon="17.6882584">
        <ele>32.3416</ele>
        <time>2014-07-07T17:58:08Z</time>
      </trkpt>
      <trkpt lat="59.9559882" lon="17.6881045">
        <ele>32.3416</ele>
        <time>2014-07-07T17:58:09Z</time>
      </trkpt>
      <trkpt lat="59.9559649" lon="17.6879486">
        <ele>32.3416</ele>
        <time>2014-07-07T17:58:10Z</time>
      </trkpt>
      <trkpt lat="59.9559411" lon="17.6877925">
        <ele>32.3416</ele>
        <time>2014-07-07T17:58:11Z</time>
      </trkpt>
      <trkpt lat="59.9559171" lon="17.6876383">
        <ele>32.3416</ele>
        <time>2014-07-07T17:58:12Z</time>
      </trkpt>
      <trkpt lat="59.9558935" lon="17.6874864">
        <ele>32.3416</ele>
        <time>2014-07-07T17:58:13Z</time>
      </trkpt>
      <trkpt lat="59.9558705" lon="17.6873359">
        <ele>32.8223</ele>
        <time>2014-07-07T17:58:14Z</time>
      </trkpt>
      <trkpt lat="59.9558473" lon="17.6871864">
        <ele>32.8223</ele>
        <time>2014-07-07T17:58:15Z</time>
      </trkpt>
      <trkpt lat="59.9558241" lon="17.6870361">
        <ele>32.8223</ele>
        <time>2014-07-07T17:58:16Z</time>
      </trkpt>
      <trkpt lat="59.9558022" lon="17.6868851">
        <ele>32.8223</ele>
        <time>2014-07-07T17:58:17Z</time>
      </trkpt>
      <trkpt lat="59.955781" lon="17.6867332">
        <ele>32.8223</ele>
        <time>2014-07-07T17:58:18Z</time>
      </trkpt>
      <trkpt lat="59.9557594" lon="17.6865813">
        <ele>32.8223</ele>
        <time>2014-07-07T17:58:19Z</time>
      </trkpt>
      <trkpt lat="59.9557366" lon="17.6864296">
        <ele>32.8223</ele>
        <time>2014-07-07T17:58:20Z</time>
      </trkpt>
      <trkpt lat="59.9557147" lon="17.6862776">
        <ele>32.8223</ele>
        <time>2014-07-07T17:58:21Z</time>
      </trkpt>
      <trkpt lat="59.9556933" lon="17.6861253">
        <ele>32.8223</ele>
        <time>2014-07-07T17:58:22Z</time>
      </trkpt>
      <trkpt lat="59.9556726" lon="17.6859734">
        <ele>32.8223</ele>
        <time>2014-07-07T17:58:23Z</time>
      </trkpt>
      <trkpt lat="59.9556522" lon="17.6858204">
        <ele>32.8223</ele>
        <time>2014-07-07T17:58:24Z</time>
      </trkpt>
      <trkpt lat="59.9556313" lon="17.6856672">
        <ele>32.8223</ele>
        <time>2014-07-07T17:58:25Z</time>
      </trkpt>
      <trkpt lat="59.9556099" lon="17.6855134">
        <ele>32.8223</ele>
        <time>2014-07-07T17:58:26Z</time>
      </trkpt>
      <trkpt lat="59.9555884" lon="17.6853575">
        <ele>32.3416</ele>
        <time>2014-07-07T17:58:27Z</time>
      </trkpt>
      <trkpt lat="59.9555677" lon="17.6852011">
        <ele>32.3416</ele>
        <time>2014-07-07T17:58:28Z</time>
      </trkpt>
      <trkpt lat="59.955546" lon="17.6850446">
        <ele>32.3416</ele>
        <time>2014-07-07T17:58:29Z</time>
      </trkpt>
      <trkpt lat="59.9555223" lon="17.6848886">
        <ele>32.3416</ele>
        <time>2014-07-07T17:58:30Z</time>
      </trkpt>
      <trkpt lat="59.9554978" lon="17.6847342">
        <ele>32.3416</ele>
        <time>2014-07-07T17:58:31Z</time>
      </trkpt>
      <trkpt lat="59.9554732" lon="17.6845799">
        <ele>32.3416</ele>
        <time>2014-07-07T17:58:32Z</time>
      </trkpt>
      <trkpt lat="59.9554469" lon="17.6844252">
        <ele>32.3416</ele>
        <time>2014-07-07T17:58:33Z</time>
      </trkpt>
      <trkpt lat="59.9554194" lon="17.6842707">
        <ele>32.3416</ele>
        <time>2014-07-07T17:58:34Z</time>
      </trkpt>
      <trkpt lat="59.9553921" lon="17.6841153">
        <ele>31.8607</ele>
        <time>2014-07-07T17:58:35Z</time>
      </trkpt>
      <trkpt lat="59.9553656" lon="17.6839605">
        <ele>32.3416</ele>
        <time>2014-07-07T17:58:36Z</time>
      </trkpt>
      <trkpt lat="59.9553364" lon="17.6838097">
        <ele>32.3416</ele>
        <time>2014-07-07T17:58:37Z</time>
      </trkpt>
      <trkpt lat="59.9553065" lon="17.6836631">
        <ele>32.3416</ele>
        <time>2014-07-07T17:58:38Z</time>
      </trkpt>
      <trkpt lat="59.9552739" lon="17.6835207">
        <ele>31.8607</ele>
        <time>2014-07-07T17:58:39Z</time>
      </trkpt>
      <trkpt lat="59.9552391" lon="17.6833811">
        <ele>31.8607</ele>
        <time>2014-07-07T17:58:40Z</time>
      </trkpt>
      <trkpt lat="59.955206" lon="17.6832422">
        <ele>31.8607</ele>
        <time>2014-07-07T17:58:41Z</time>
      </trkpt>
      <trkpt lat="59.9551729" lon="17.6831055">
        <ele>32.3416</ele>
        <time>2014-07-07T17:58:42Z</time>
      </trkpt>
      <trkpt lat="59.9551377" lon="17.6829699">
        <ele>32.3416</ele>
        <time>2014-07-07T17:58:43Z</time>
      </trkpt>
      <trkpt lat="59.9551007" lon="17.6828349">
        <ele>31.8607</ele>
        <time>2014-07-07T17:58:44Z</time>
      </trkpt>
      <trkpt lat="59.9550634" lon="17.6827022">
        <ele>31.8607</ele>
        <time>2014-07-07T17:58:45Z</time>
      </trkpt>
      <trkpt lat="59.9550277" lon="17.6825725">
        <ele>31.8607</ele>
        <time>2014-07-07T17:58:46Z</time>
      </trkpt>
      <trkpt lat="59.9549904" lon="17.6824431">
        <ele>31.8607</ele>
        <time>2014-07-07T17:58:47Z</time>
      </trkpt>
      <trkpt lat="59.9549496" lon="17.6823163">
        <ele>31.3801</ele>
        <time>2014-07-07T17:58:48Z</time>
      </trkpt>
      <trkpt lat="59.9549096" lon="17.682192">
        <ele>30.8995</ele>
        <time>2014-07-07T17:58:49Z</time>
      </trkpt>
      <trkpt lat="59.9548683" lon="17.6820747">
        <ele>30.8995</ele>
        <time>2014-07-07T17:58:50Z</time>
      </trkpt>
      <trkpt lat="59.9548165" lon="17.6819707">
        <ele>30.4188</ele>
        <time>2014-07-07T17:58:51Z</time>
      </trkpt>
      <trkpt lat="59.9547511" lon="17.6818796">
        <ele>30.4188</ele>
        <time>2014-07-07T17:58:52Z</time>
      </trkpt>
      <trkpt lat="59.9546896" lon="17.6817779">
        <ele>30.4188</ele>
        <time>2014-07-07T17:58:53Z</time>
      </trkpt>
      <trkpt lat="59.9546391" lon="17.6816547">
        <ele>30.4188</ele>
        <time>2014-07-07T17:58:54Z</time>
      </trkpt>
      <trkpt lat="59.9545927" lon="17.6815261">
        <ele>30.4188</ele>
        <time>2014-07-07T17:58:55Z</time>
      </trkpt>
      <trkpt lat="59.9545476" lon="17.6813952">
        <ele>30.4188</ele>
        <time>2014-07-07T17:58:56Z</time>
      </trkpt>
      <trkpt lat="59.9545026" lon="17.6812604">
        <ele>30.4188</ele>
        <time>2014-07-07T17:58:57Z</time>
      </trkpt>
      <trkpt lat="59.954458" lon="17.6811208">
        <ele>30.4188</ele>
        <time>2014-07-07T17:58:58Z</time>
      </trkpt>
      <trkpt lat="59.9544135" lon="17.6809772">
        <ele>30.4188</ele>
        <time>2014-07-07T17:58:59Z</time>
      </trkpt>
      <trkpt lat="59.954368" lon="17.6808337">
        <ele>30.4188</ele>
        <time>2014-07-07T17:59:00Z</time>
      </trkpt>
      <trkpt lat="59.9543213" lon="17.6806918">
        <ele>30.4188</ele>
        <time>2014-07-07T17:59:01Z</time>
      </trkpt>
      <trkpt lat="59.9542731" lon="17.6805499">
        <ele>30.4188</ele>
        <time>2014-07-07T17:59:02Z</time>
      </trkpt>
      <trkpt lat="59.9542235" lon="17.6804073">
        <ele>30.4188</ele>
        <time>2014-07-07T17:59:03Z</time>
      </trkpt>
      <trkpt lat="59.954173" lon="17.6802637">
        <ele>30.4188</ele>
        <time>2014-07-07T17:59:04Z</time>
      </trkpt>
      <trkpt lat="59.9541224" lon="17.6801193">
        <ele>30.4188</ele>
        <time>2014-07-07T17:59:05Z</time>
      </trkpt>
      <trkpt lat="59.9540721" lon="17.6799747">
        <ele>30.8995</ele>
        <time>2014-07-07T17:59:06Z</time>
      </trkpt>
      <trkpt lat="59.9540218" lon="17.6798297">
        <ele>30.8995</ele>
        <time>2014-07-07T17:59:07Z</time>
      </trkpt>
      <trkpt lat="59.9539714" lon="17.6796832">
        <ele>30.8995</ele>
        <time>2014-07-07T17:59:08Z</time>
      </trkpt>
      <trkpt lat="59.9539224" lon="17.6795361">
        <ele>30.8995</ele>
        <time>2014-07-07T17:59:09Z</time>
      </trkpt>
      <trkpt lat="59.9538736" lon="17.67939">
        <ele>30.8995</ele>
        <time>2014-07-07T17:59:10Z</time>
      </trkpt>
      <trkpt lat="59.9538246" lon="17.6792455">
        <ele>30.8995</ele>
        <time>2014-07-07T17:59:11Z</time>
      </trkpt>
      <trkpt lat="59.9537763" lon="17.6791023">
        <ele>31.3801</ele>
        <time>2014-07-07T17:59:12Z</time>
      </trkpt>
      <trkpt lat="59.9537307" lon="17.6789626">
        <ele>31.3801</ele>
        <time>2014-07-07T17:59:13Z</time>
      </trkpt>
      <trkpt lat="59.953684" lon="17.6788274">
        <ele>31.3801</ele>
        <time>2014-07-07T17:59:14Z</time>
      </trkpt>
      <trkpt lat="59.9536381" lon="17.6786955">
        <ele>31.3801</ele>
        <time>2014-07-07T17:59:15Z</time>
      </trkpt>
      <trkpt lat="59.953596" lon="17.6785651">
        <ele>31.8607</ele>
        <time>2014-07-07T17:59:16Z</time>
      </trkpt>
      <trkpt lat="59.9535541" lon="17.6784332">
        <ele>31.8607</ele>
        <time>2014-07-07T17:59:17Z</time>
      </trkpt>
      <trkpt lat="59.9535137" lon="17.6783037">
        <ele>32.3416</ele>
        <time>2014-07-07T17:59:18Z</time>
      </trkpt>
      <trkpt lat="59.9534712" lon="17.6781749">
        <ele>32.3416</ele>
        <time>2014-07-07T17:59:19Z</time>
      </trkpt>
      <trkpt lat="59.9534281" lon="17.6780473">
        <ele>32.3416</ele>
        <time>2014-07-07T17:59:20Z</time>
      </trkpt>
      <trkpt lat="59.9533858" lon="17.6779224">
        <ele>32.3416</ele>
        <time>2014-07-07T17:59:21Z</time>
      </trkpt>
      <trkpt lat="59.9533434" lon="17.6777976">
        <ele>32.8223</ele>
        <time>2014-07-07T17:59:22Z</time>
      </trkpt>
      <trkpt lat="59.9533016" lon="17.6776724">
        <ele>32.8223</ele>
        <time>2014-07-07T17:59:23Z</time>
      </trkpt>
      <trkpt lat="59.9532588" lon="17.6775501">
        <ele>32.8223</ele>
        <time>2014-07-07T17:59:24Z</time>
      </trkpt>
      <trkpt lat="59.9532156" lon="17.6774309">
        <ele>32.8223</ele>
        <time>2014-07-07T17:59:25Z</time>
      </trkpt>
      <trkpt lat="59.9531739" lon="17.6773123">
        <ele>32.8223</ele>
        <time>2014-07-07T17:59:26Z</time>
      </trkpt>
      <trkpt lat="59.9531319" lon="17.6771946">
        <ele>32.8223</ele>
        <time>2014-07-07T17:59:27Z</time>
      </trkpt>
      <trkpt lat="59.9530869" lon="17.6770758">
        <ele>32.8223</ele>
        <time>2014-07-07T17:59:28Z</time>
      </trkpt>
      <trkpt lat="59.9530397" lon="17.6769582">
        <ele>32.8223</ele>
        <time>2014-07-07T17:59:29Z</time>
      </trkpt>
      <trkpt lat="59.9529926" lon="17.6768429">
        <ele>32.8223</ele>
        <time>2014-07-07T17:59:30Z</time>
      </trkpt>
      <trkpt lat="59.952946" lon="17.6767285">
        <ele>32.8223</ele>
        <time>2014-07-07T17:59:31Z</time>
      </trkpt>
      <trkpt lat="59.9528992" lon="17.6766161">
        <ele>32.8223</ele>
        <time>2014-07-07T17:59:32Z</time>
      </trkpt>
      <trkpt lat="59.9528521" lon="17.6765055">
        <ele>33.3029</ele>
        <time>2014-07-07T17:59:33Z</time>
      </trkpt>
      <trkpt lat="59.9528076" lon="17.6763943">
        <ele>33.3029</ele>
        <time>2014-07-07T17:59:34Z</time>
      </trkpt>
      <trkpt lat="59.9527672" lon="17.6762782">
        <ele>33.3029</ele>
        <time>2014-07-07T17:59:35Z</time>
      </trkpt>
      <trkpt lat="59.9527273" lon="17.676158">
        <ele>33.3029</ele>
        <time>2014-07-07T17:59:36Z</time>
      </trkpt>
      <trkpt lat="59.9526857" lon="17.6760363">
        <ele>33.7834</ele>
        <time>2014-07-07T17:59:37Z</time>
      </trkpt>
      <trkpt lat="59.9526422" lon="17.6759165">
        <ele>33.7834</ele>
        <time>2014-07-07T17:59:38Z</time>
      </trkpt>
      <trkpt lat="59.9525978" lon="17.6758005">
        <ele>33.7834</ele>
        <time>2014-07-07T17:59:39Z</time>
      </trkpt>
      <trkpt lat="59.9525538" lon="17.6756897">
        <ele>34.2642</ele>
        <time>2014-07-07T17:59:40Z</time>
      </trkpt>
      <trkpt lat="59.9525106" lon="17.6755847">
        <ele>34.7449</ele>
        <time>2014-07-07T17:59:41Z</time>
      </trkpt>
      <trkpt lat="59.9524699" lon="17.6754841">
        <ele>34.7449</ele>
        <time>2014-07-07T17:59:42Z</time>
      </trkpt>
      <trkpt lat="59.9524315" lon="17.6753845">
        <ele>35.2255</ele>
        <time>2014-07-07T17:59:43Z</time>
      </trkpt>
      <trkpt lat="59.9523953" lon="17.6752821">
        <ele>35.2255</ele>
        <time>2014-07-07T17:59:44Z</time>
      </trkpt>
      <trkpt lat="59.9523626" lon="17.675177">
        <ele>35.7061</ele>
        <time>2014-07-07T17:59:45Z</time>
      </trkpt>
      <trkpt lat="59.952332" lon="17.6750687">
        <ele>35.7061</ele>
        <time>2014-07-07T17:59:46Z</time>
      </trkpt>
      <trkpt lat="59.9523045" lon="17.6749518">
        <ele>35.2255</ele>
        <time>2014-07-07T17:59:47Z</time>
      </trkpt>
      <trkpt lat="59.9522811" lon="17.6748243">
        <ele>35.2255</ele>
        <time>2014-07-07T17:59:48Z</time>
      </trkpt>
      <trkpt lat="59.9522611" lon="17.6746844">
        <ele>34.7449</ele>
        <time>2014-07-07T17:59:49Z</time>
      </trkpt>
      <trkpt lat="59.9522398" lon="17.6745361">
        <ele>34.2642</ele>
        <time>2014-07-07T17:59:50Z</time>
      </trkpt>
      <trkpt lat="59.9522109" lon="17.6743854">
        <ele>34.2642</ele>
        <time>2014-07-07T17:59:51Z</time>
      </trkpt>
      <trkpt lat="59.9521803" lon="17.6742375">
        <ele>33.7834</ele>
        <time>2014-07-07T17:59:52Z</time>
      </trkpt>
      <trkpt lat="59.9521488" lon="17.6740888">
        <ele>33.3029</ele>
        <time>2014-07-07T17:59:53Z</time>
      </trkpt>
      <trkpt lat="59.9521192" lon="17.6739396">
        <ele>33.3029</ele>
        <time>2014-07-07T17:59:54Z</time>
      </trkpt>
      <trkpt lat="59.95209" lon="17.673787">
        <ele>33.3029</ele>
        <time>2014-07-07T17:59:55Z</time>
      </trkpt>
      <trkpt lat="59.9520617" lon="17.6736318">
        <ele>32.8223</ele>
        <time>2014-07-07T17:59:56Z</time>
      </trkpt>
      <trkpt lat="59.9520351" lon="17.6734747">
        <ele>32.8223</ele>
        <time>2014-07-07T17:59:57Z</time>
      </trkpt>
      <trkpt lat="59.9520098" lon="17.6733158">
        <ele>32.8223</ele>
        <time>2014-07-07T17:59:58Z</time>
      </trkpt>
      <trkpt lat="59.9519855" lon="17.6731557">
        <ele>32.8223</ele>
        <time>2014-07-07T17:59:59Z</time>
      </trkpt>
      <trkpt lat="59.9519617" lon="17.6729953">
        <ele>32.3416</ele>
        <time>2014-07-07T18:00:00Z</time>
      </trkpt>
      <trkpt lat="59.951939" lon="17.6728351">
        <ele>32.3416</ele>
        <time>2014-07-07T18:00:01Z</time>
      </trkpt>
      <trkpt lat="59.9519181" lon="17.6726745">
        <ele>32.3416</ele>
        <time>2014-07-07T18:00:02Z</time>
      </trkpt>
      <trkpt lat="59.9518983" lon="17.6725112">
        <ele>31.8607</ele>
        <time>2014-07-07T18:00:03Z</time>
      </trkpt>
      <trkpt lat="59.9518799" lon="17.6723446">
        <ele>31.8607</ele>
        <time>2014-07-07T18:00:04Z</time>
      </trkpt>
      <trkpt lat="59.9518628" lon="17.6721758">
        <ele>31.3801</ele>
        <time>2014-07-07T18:00:05Z</time>
      </trkpt>
      <trkpt lat="59.9518484" lon="17.6720062">
        <ele>31.3801</ele>
        <time>2014-07-07T18:00:06Z</time>
      </trkpt>
      <trkpt lat="59.9518411" lon="17.6718369">
        <ele>31.3801</ele>
        <time>2014-07-07T18:00:07Z</time>
      </trkpt>
      <trkpt lat="59.951838" lon="17.671667">
        <ele>31.3801</ele>
        <time>2014-07-07T18:00:08Z</time>
      </trkpt>
      <trkpt lat="59.9518317" lon="17.6714953">
        <ele>30.8995</ele>
        <time>2014-07-07T18:00:09Z</time>
      </trkpt>
      <trkpt lat="59.9518152" lon="17.6713224">
        <ele>30.4188</ele>
        <time>2014-07-07T18:00:10Z</time>
      </trkpt>
      <trkpt lat="59.9517859" lon="17.6711485">
        <ele>29.9381</ele>
        <time>2014-07-07T18:00:11Z</time>
      </trkpt>
      <trkpt lat="59.9517587" lon="17.6709661">
        <ele>29.4575</ele>
        <time>2014-07-07T18:00:12Z</time>
      </trkpt>
      <trkpt lat="59.9517494" lon="17.6707722">
        <ele>28.9769</ele>
        <time>2014-07-07T18:00:13Z</time>
      </trkpt>
      <trkpt lat="59.9517571" lon="17.6705746">
        <ele>28.9769</ele>
        <time>2014-07-07T18:00:14Z</time>
      </trkpt>
      <trkpt lat="59.9517726" lon="17.670378">
        <ele>28.4962</ele>
        <time>2014-07-07T18:00:15Z</time>
      </trkpt>
      <trkpt lat="59.9517881" lon="17.6701816">
        <ele>28.4962</ele>
        <time>2014-07-07T18:00:16Z</time>
      </trkpt>
      <trkpt lat="59.9518002" lon="17.6699853">
        <ele>28.4962</ele>
        <time>2014-07-07T18:00:17Z</time>
      </trkpt>
      <trkpt lat="59.9518094" lon="17.6697902">
        <ele>28.4962</ele>
        <time>2014-07-07T18:00:18Z</time>
      </trkpt>
      <trkpt lat="59.951817" lon="17.6695968">
        <ele>28.0155</ele>
        <time>2014-07-07T18:00:19Z</time>
      </trkpt>
      <trkpt lat="59.9518238" lon="17.6694063">
        <ele>28.0155</ele>
        <time>2014-07-07T18:00:20Z</time>
      </trkpt>
      <trkpt lat="59.9518302" lon="17.6692199">
        <ele>28.0155</ele>
        <time>2014-07-07T18:00:21Z</time>
      </trkpt>
      <trkpt lat="59.9518359" lon="17.6690376">
        <ele>28.0155</ele>
        <time>2014-07-07T18:00:22Z</time>
      </trkpt>
      <trkpt lat="59.9518359" lon="17.6688563">
        <ele>27.5349</ele>
        <time>2014-07-07T18:00:23Z</time>
      </trkpt>
      <trkpt lat="59.9518223" lon="17.668677">
        <ele>27.5349</ele>
        <time>2014-07-07T18:00:24Z</time>
      </trkpt>
      <trkpt lat="59.9517944" lon="17.6685046">
        <ele>27.0543</ele>
        <time>2014-07-07T18:00:25Z</time>
      </trkpt>
      <trkpt lat="59.9517566" lon="17.6683419">
        <ele>27.0543</ele>
        <time>2014-07-07T18:00:26Z</time>
      </trkpt>
      <trkpt lat="59.9517069" lon="17.6681984">
        <ele>27.0543</ele>
        <time>2014-07-07T18:00:27Z</time>
      </trkpt>
      <trkpt lat="59.9516363" lon="17.6681108">
        <ele>26.5736</ele>
        <time>2014-07-07T18:00:28Z</time>
      </trkpt>
      <trkpt lat="59.9515513" lon="17.6680819">
        <ele>26.5736</ele>
        <time>2014-07-07T18:00:29Z</time>
      </trkpt>
      <trkpt lat="59.9514661" lon="17.6680824">
        <ele>26.0929</ele>
        <time>2014-07-07T18:00:30Z</time>
      </trkpt>
      <trkpt lat="59.9513857" lon="17.6680992">
        <ele>26.0929</ele>
        <time>2014-07-07T18:00:31Z</time>
      </trkpt>
      <trkpt lat="59.9513079" lon="17.6681184">
        <ele>26.0929</ele>
        <time>2014-07-07T18:00:32Z</time>
      </trkpt>
      <trkpt lat="59.9512323" lon="17.6681383">
        <ele>26.0929</ele>
        <time>2014-07-07T18:00:33Z</time>
      </trkpt>
      <trkpt lat="59.9511588" lon="17.6681584">
        <ele>26.0929</ele>
        <time>2014-07-07T18:00:34Z</time>
      </trkpt>
      <trkpt lat="59.9510868" lon="17.6681775">
        <ele>26.0929</ele>
        <time>2014-07-07T18:00:35Z</time>
      </trkpt>
      <trkpt lat="59.9510164" lon="17.6681968">
        <ele>26.0929</ele>
        <time>2014-07-07T18:00:36Z</time>
      </trkpt>
      <trkpt lat="59.9509479" lon="17.6682165">
        <ele>26.0929</ele>
        <time>2014-07-07T18:00:37Z</time>
      </trkpt>
      <trkpt lat="59.9508808" lon="17.668236">
        <ele>26.0929</ele>
        <time>2014-07-07T18:00:38Z</time>
      </trkpt>
      <trkpt lat="59.9508152" lon="17.6682541">
        <ele>26.0929</ele>
        <time>2014-07-07T18:00:39Z</time>
      </trkpt>
      <trkpt lat="59.95075" lon="17.6682697">
        <ele>26.0929</ele>
        <time>2014-07-07T18:00:40Z</time>
      </trkpt>
      <trkpt lat="59.950685" lon="17.6682829">
        <ele>26.0929</ele>
        <time>2014-07-07T18:00:41Z</time>
      </trkpt>
      <trkpt lat="59.9506206" lon="17.6682925">
        <ele>26.0929</ele>
        <time>2014-07-07T18:00:42Z</time>
      </trkpt>
      <trkpt lat="59.9505553" lon="17.6682964">
        <ele>26.0929</ele>
        <time>2014-07-07T18:00:43Z</time>
      </trkpt>
      <trkpt lat="59.9504894" lon="17.6682972">
        <ele>26.0929</ele>
        <time>2014-07-07T18:00:44Z</time>
      </trkpt>
      <trkpt lat="59.9504227" lon="17.6682957">
        <ele>26.0929</ele>
        <time>2014-07-07T18:00:45Z</time>
      </trkpt>
      <trkpt lat="59.9503562" lon="17.6682919">
        <ele>26.0929</ele>
        <time>2014-07-07T18:00:46Z</time>
      </trkpt>
      <trkpt lat="59.9502899" lon="17.6682852">
        <ele>26.5736</ele>
        <time>2014-07-07T18:00:47Z</time>
      </trkpt>
      <trkpt lat="59.9502241" lon="17.6682751">
        <ele>26.5736</ele>
        <time>2014-07-07T18:00:48Z</time>
      </trkpt>
      <trkpt lat="59.9501587" lon="17.6682621">
        <ele>26.5736</ele>
        <time>2014-07-07T18:00:49Z</time>
      </trkpt>
      <trkpt lat="59.9500947" lon="17.6682461">
        <ele>26.5736</ele>
        <time>2014-07-07T18:00:50Z</time>
      </trkpt>
      <trkpt lat="59.9500322" lon="17.6682288">
        <ele>26.5736</ele>
        <time>2014-07-07T18:00:51Z</time>
      </trkpt>
      <trkpt lat="59.9499709" lon="17.6682082">
        <ele>26.0929</ele>
        <time>2014-07-07T18:00:52Z</time>
      </trkpt>
      <trkpt lat="59.9499095" lon="17.668183">
        <ele>26.0929</ele>
        <time>2014-07-07T18:00:53Z</time>
      </trkpt>
      <trkpt lat="59.9498472" lon="17.6681559">
        <ele>26.0929</ele>
        <time>2014-07-07T18:00:54Z</time>
      </trkpt>
      <trkpt lat="59.9497839" lon="17.6681264">
        <ele>26.0929</ele>
        <time>2014-07-07T18:00:55Z</time>
      </trkpt>
      <trkpt lat="59.9497198" lon="17.6680941">
        <ele>26.0929</ele>
        <time>2014-07-07T18:00:56Z</time>
      </trkpt>
      <trkpt lat="59.9496556" lon="17.6680616">
        <ele>26.0929</ele>
        <time>2014-07-07T18:00:57Z</time>
      </trkpt>
      <trkpt lat="59.9495911" lon="17.6680299">
        <ele>26.0929</ele>
        <time>2014-07-07T18:00:58Z</time>
      </trkpt>
      <trkpt lat="59.9495265" lon="17.6679979">
        <ele>26.0929</ele>
        <time>2014-07-07T18:00:59Z</time>
      </trkpt>
      <trkpt lat="59.9494623" lon="17.6679648">
        <ele>26.0929</ele>
        <time>2014-07-07T18:01:00Z</time>
      </trkpt>
      <trkpt lat="59.9493981" lon="17.6679305">
        <ele>26.0929</ele>
        <time>2014-07-07T18:01:01Z</time>
      </trkpt>
      <trkpt lat="59.9493339" lon="17.6678949">
        <ele>26.0929</ele>
        <time>2014-07-07T18:01:02Z</time>
      </trkpt>
      <trkpt lat="59.9492695" lon="17.6678576">
        <ele>26.0929</ele>
        <time>2014-07-07T18:01:03Z</time>
      </trkpt>
      <trkpt lat="59.9492053" lon="17.6678183">
        <ele>26.0929</ele>
        <time>2014-07-07T18:01:04Z</time>
      </trkpt>
      <trkpt lat="59.9491411" lon="17.6677802">
        <ele>26.0929</ele>
        <time>2014-07-07T18:01:05Z</time>
      </trkpt>
      <trkpt lat="59.9490773" lon="17.667744">
        <ele>26.0929</ele>
        <time>2014-07-07T18:01:06Z</time>
      </trkpt>
      <trkpt lat="59.9490143" lon="17.6677081">
        <ele>26.0929</ele>
        <time>2014-07-07T18:01:07Z</time>
      </trkpt>
      <trkpt lat="59.9489521" lon="17.6676706">
        <ele>26.5736</ele>
        <time>2014-07-07T18:01:08Z</time>
      </trkpt>
      <trkpt lat="59.94889" lon="17.6676328">
        <ele>26.5736</ele>
        <time>2014-07-07T18:01:09Z</time>
      </trkpt>
      <trkpt lat="59.9488272" lon="17.6675976">
        <ele>26.5736</ele>
        <time>2014-07-07T18:01:10Z</time>
      </trkpt>
      <trkpt lat="59.9487636" lon="17.6675631">
        <ele>26.5736</ele>
        <time>2014-07-07T18:01:11Z</time>
      </trkpt>
      <trkpt lat="59.9487001" lon="17.6675274">
        <ele>26.5736</ele>
        <time>2014-07-07T18:01:12Z</time>
      </trkpt>
      <trkpt lat="59.9486361" lon="17.6674911">
        <ele>26.5736</ele>
        <time>2014-07-07T18:01:13Z</time>
      </trkpt>
      <trkpt lat="59.9485725" lon="17.6674545">
        <ele>26.5736</ele>
        <time>2014-07-07T18:01:14Z</time>
      </trkpt>
      <trkpt lat="59.9485092" lon="17.6674183">
        <ele>26.5736</ele>
        <time>2014-07-07T18:01:15Z</time>
      </trkpt>
      <trkpt lat="59.9484465" lon="17.6673819">
        <ele>26.5736</ele>
        <time>2014-07-07T18:01:16Z</time>
      </trkpt>
      <trkpt lat="59.9483839" lon="17.6673457">
        <ele>26.5736</ele>
        <time>2014-07-07T18:01:17Z</time>
      </trkpt>
      <trkpt lat="59.9483216" lon="17.66731">
        <ele>26.5736</ele>
        <time>2014-07-07T18:01:18Z</time>
      </trkpt>
      <trkpt lat="59.9482591" lon="17.6672746">
        <ele>27.0543</ele>
        <time>2014-07-07T18:01:19Z</time>
      </trkpt>
      <trkpt lat="59.9481968" lon="17.6672396">
        <ele>27.0543</ele>
        <time>2014-07-07T18:01:20Z</time>
      </trkpt>
      <trkpt lat="59.9481347" lon="17.6672059">
        <ele>27.0543</ele>
        <time>2014-07-07T18:01:21Z</time>
      </trkpt>
      <trkpt lat="59.9480729" lon="17.6671715">
        <ele>27.0543</ele>
        <time>2014-07-07T18:01:22Z</time>
      </trkpt>
      <trkpt lat="59.9480114" lon="17.6671361">
        <ele>27.0543</ele>
        <time>2014-07-07T18:01:23Z</time>
      </trkpt>
      <trkpt lat="59.9479498" lon="17.6671023">
        <ele>27.0543</ele>
        <time>2014-07-07T18:01:24Z</time>
      </trkpt>
      <trkpt lat="59.9478881" lon="17.6670692">
        <ele>27.0543</ele>
        <time>2014-07-07T18:01:25Z</time>
      </trkpt>
      <trkpt lat="59.9478261" lon="17.6670364">
        <ele>27.0543</ele>
        <time>2014-07-07T18:01:26Z</time>
      </trkpt>
      <trkpt lat="59.9477639" lon="17.6670047">
        <ele>27.0543</ele>
        <time>2014-07-07T18:01:27Z</time>
      </trkpt>
      <trkpt lat="59.9477025" lon="17.6669737">
        <ele>27.0543</ele>
        <time>2014-07-07T18:01:28Z</time>
      </trkpt>
      <trkpt lat="59.9476416" lon="17.6669415">
        <ele>27.5349</ele>
        <time>2014-07-07T18:01:29Z</time>
      </trkpt>
      <trkpt lat="59.9475809" lon="17.6669101">
        <ele>27.5349</ele>
        <time>2014-07-07T18:01:30Z</time>
      </trkpt>
      <trkpt lat="59.9475199" lon="17.6668806">
        <ele>27.5349</ele>
        <time>2014-07-07T18:01:31Z</time>
      </trkpt>
      <trkpt lat="59.9474572" lon="17.6668504">
        <ele>27.5349</ele>
        <time>2014-07-07T18:01:32Z</time>
      </trkpt>
      <trkpt lat="59.9473949" lon="17.66682">
        <ele>27.5349</ele>
        <time>2014-07-07T18:01:33Z</time>
      </trkpt>
      <trkpt lat="59.9473326" lon="17.6667898">
        <ele>28.0155</ele>
        <time>2014-07-07T18:01:34Z</time>
      </trkpt>
      <trkpt lat="59.9472705" lon="17.66676">
        <ele>28.0155</ele>
        <time>2014-07-07T18:01:35Z</time>
      </trkpt>
      <trkpt lat="59.9472088" lon="17.6667324">
        <ele>28.0155</ele>
        <time>2014-07-07T18:01:36Z</time>
      </trkpt>
      <trkpt lat="59.9471471" lon="17.6667065">
        <ele>28.0155</ele>
        <time>2014-07-07T18:01:37Z</time>
      </trkpt>
      <trkpt lat="59.9470853" lon="17.66668">
        <ele>28.4962</ele>
        <time>2014-07-07T18:01:38Z</time>
      </trkpt>
      <trkpt lat="59.9470239" lon="17.6666511">
        <ele>28.4962</ele>
        <time>2014-07-07T18:01:39Z</time>
      </trkpt>
      <trkpt lat="59.9469628" lon="17.666622">
        <ele>28.4962</ele>
        <time>2014-07-07T18:01:40Z</time>
      </trkpt>
      <trkpt lat="59.9469017" lon="17.6665936">
        <ele>28.4962</ele>
        <time>2014-07-07T18:01:41Z</time>
      </trkpt>
      <trkpt lat="59.9468402" lon="17.6665668">
        <ele>28.4962</ele>
        <time>2014-07-07T18:01:42Z</time>
      </trkpt>
      <trkpt lat="59.9467779" lon="17.6665449">
        <ele>28.9769</ele>
        <time>2014-07-07T18:01:43Z</time>
      </trkpt>
      <trkpt lat="59.9467149" lon="17.6665321">
        <ele>28.9769</ele>
        <time>2014-07-07T18:01:44Z</time>
      </trkpt>
      <trkpt lat="59.9466521" lon="17.6665287">
        <ele>28.9769</ele>
        <time>2014-07-07T18:01:45Z</time>
      </trkpt>
      <trkpt lat="59.9465889" lon="17.6665261">
        <ele>28.9769</ele>
        <time>2014-07-07T18:01:46Z</time>
      </trkpt>
      <trkpt lat="59.9465263" lon="17.666517">
        <ele>28.9769</ele>
        <time>2014-07-07T18:01:47Z</time>
      </trkpt>
      <trkpt lat="59.9464637" lon="17.6664984">
        <ele>29.4575</ele>
        <time>2014-07-07T18:01:48Z</time>
      </trkpt>
      <trkpt lat="59.9464018" lon="17.6664712">
        <ele>29.4575</ele>
        <time>2014-07-07T18:01:49Z</time>
      </trkpt>
      <trkpt lat="59.9463408" lon="17.6664342">
        <ele>29.4575</ele>
        <time>2014-07-07T18:01:50Z</time>
      </trkpt>
      <trkpt lat="59.9462806" lon="17.6663888">
        <ele>29.4575</ele>
        <time>2014-07-07T18:01:51Z</time>
      </trkpt>
      <trkpt lat="59.94622" lon="17.6663448">
        <ele>29.4575</ele>
        <time>2014-07-07T18:01:52Z</time>
      </trkpt>
      <trkpt lat="59.9461583" lon="17.6663092">
        <ele>29.4575</ele>
        <time>2014-07-07T18:01:53Z</time>
      </trkpt>
      <trkpt lat="59.9460961" lon="17.6662813">
        <ele>29.4575</ele>
        <time>2014-07-07T18:01:54Z</time>
      </trkpt>
      <trkpt lat="59.9460342" lon="17.6662569">
        <ele>29.9381</ele>
        <time>2014-07-07T18:01:55Z</time>
      </trkpt>
      <trkpt lat="59.9459726" lon="17.6662336">
        <ele>29.9381</ele>
        <time>2014-07-07T18:01:56Z</time>
      </trkpt>
      <trkpt lat="59.9459117" lon="17.6662112">
        <ele>29.9381</ele>
        <time>2014-07-07T18:01:57Z</time>
      </trkpt>
      <trkpt lat="59.9458507" lon="17.6661884">
        <ele>29.9381</ele>
        <time>2014-07-07T18:01:58Z</time>
      </trkpt>
      <trkpt lat="59.9457897" lon="17.6661636">
        <ele>29.9381</ele>
        <time>2014-07-07T18:01:59Z</time>
      </trkpt>
      <trkpt lat="59.9457291" lon="17.6661386">
        <ele>29.9381</ele>
        <time>2014-07-07T18:02:00Z</time>
      </trkpt>
      <trkpt lat="59.945669" lon="17.6661148">
        <ele>29.9381</ele>
        <time>2014-07-07T18:02:01Z</time>
      </trkpt>
      <trkpt lat="59.945609" lon="17.6660925">
        <ele>29.9381</ele>
        <time>2014-07-07T18:02:02Z</time>
      </trkpt>
      <trkpt lat="59.9455496" lon="17.6660689">
        <ele>29.9381</ele>
        <time>2014-07-07T18:02:03Z</time>
      </trkpt>
      <trkpt lat="59.9454906" lon="17.6660444">
        <ele>30.4188</ele>
        <time>2014-07-07T18:02:04Z</time>
      </trkpt>
      <trkpt lat="59.9454317" lon="17.6660227">
        <ele>30.4188</ele>
        <time>2014-07-07T18:02:05Z</time>
      </trkpt>
      <trkpt lat="59.9453733" lon="17.6660019">
        <ele>30.4188</ele>
        <time>2014-07-07T18:02:06Z</time>
      </trkpt>
      <trkpt lat="59.9453153" lon="17.6659785">
        <ele>30.4188</ele>
        <time>2014-07-07T18:02:07Z</time>
      </trkpt>
      <trkpt lat="59.9452574" lon="17.6659554">
        <ele>30.4188</ele>
        <time>2014-07-07T18:02:08Z</time>
      </trkpt>
      <trkpt lat="59.9451985" lon="17.6659336">
        <ele>30.4188</ele>
        <time>2014-07-07T18:02:09Z</time>
      </trkpt>
      <trkpt lat="59.9451384" lon="17.6659124">
        <ele>30.4188</ele>
        <time>2014-07-07T18:02:10Z</time>
      </trkpt>
      <trkpt lat="59.9450775" lon="17.6658899">
        <ele>30.4188</ele>
        <time>2014-07-07T18:02:11Z</time>
      </trkpt>
      <trkpt lat="59.9450164" lon="17.6658648">
        <ele>30.4188</ele>
        <time>2014-07-07T18:02:12Z</time>
      </trkpt>
      <trkpt lat="59.944955" lon="17.6658398">
        <ele>30.8995</ele>
        <time>2014-07-07T18:02:13Z</time>
      </trkpt>
      <trkpt lat="59.9448933" lon="17.6658171">
        <ele>30.8995</ele>
        <time>2014-07-07T18:02:14Z</time>
      </trkpt>
      <trkpt lat="59.9448313" lon="17.6657959">
        <ele>30.8995</ele>
        <time>2014-07-07T18:02:15Z</time>
      </trkpt>
      <trkpt lat="59.944769" lon="17.6657731">
        <ele>30.8995</ele>
        <time>2014-07-07T18:02:16Z</time>
      </trkpt>
      <trkpt lat="59.9447065" lon="17.665749">
        <ele>30.8995</ele>
        <time>2014-07-07T18:02:17Z</time>
      </trkpt>
      <trkpt lat="59.9446436" lon="17.6657244">
        <ele>30.8995</ele>
        <time>2014-07-07T18:02:18Z</time>
      </trkpt>
      <trkpt lat="59.9445806" lon="17.6656993">
        <ele>30.8995</ele>
        <time>2014-07-07T18:02:19Z</time>
      </trkpt>
      <trkpt lat="59.9445173" lon="17.6656745">
        <ele>30.8995</ele>
        <time>2014-07-07T18:02:20Z</time>
      </trkpt>
      <trkpt lat="59.9444541" lon="17.6656502">
        <ele>31.3801</ele>
        <time>2014-07-07T18:02:21Z</time>
      </trkpt>
      <trkpt lat="59.944391" lon="17.6656249">
        <ele>31.3801</ele>
        <time>2014-07-07T18:02:22Z</time>
      </trkpt>
      <trkpt lat="59.9443281" lon="17.6656005">
        <ele>31.3801</ele>
        <time>2014-07-07T18:02:23Z</time>
      </trkpt>
      <trkpt lat="59.9442653" lon="17.6655765">
        <ele>31.3801</ele>
        <time>2014-07-07T18:02:24Z</time>
      </trkpt>
      <trkpt lat="59.9442026" lon="17.6655509">
        <ele>31.3801</ele>
        <time>2014-07-07T18:02:25Z</time>
      </trkpt>
      <trkpt lat="59.9441398" lon="17.6655239">
        <ele>31.3801</ele>
        <time>2014-07-07T18:02:26Z</time>
      </trkpt>
      <trkpt lat="59.9440769" lon="17.6654954">
        <ele>31.8607</ele>
        <time>2014-07-07T18:02:27Z</time>
      </trkpt>
      <trkpt lat="59.9440147" lon="17.6654646">
        <ele>31.8607</ele>
        <time>2014-07-07T18:02:28Z</time>
      </trkpt>
      <trkpt lat="59.9439533" lon="17.66543">
        <ele>31.8607</ele>
        <time>2014-07-07T18:02:29Z</time>
      </trkpt>
      <trkpt lat="59.9438927" lon="17.6653949">
        <ele>31.8607</ele>
        <time>2014-07-07T18:02:30Z</time>
      </trkpt>
      <trkpt lat="59.9438327" lon="17.6653612">
        <ele>32.3416</ele>
        <time>2014-07-07T18:02:31Z</time>
      </trkpt>
      <trkpt lat="59.9437736" lon="17.6653256">
        <ele>32.3416</ele>
        <time>2014-07-07T18:02:32Z</time>
      </trkpt>
      <trkpt lat="59.943715" lon="17.6652872">
        <ele>32.3416</ele>
        <time>2014-07-07T18:02:33Z</time>
      </trkpt>
      <trkpt lat="59.9436564" lon="17.6652493">
        <ele>32.3416</ele>
        <time>2014-07-07T18:02:34Z</time>
      </trkpt>
      <trkpt lat="59.9435977" lon="17.6652125">
        <ele>32.8223</ele>
        <time>2014-07-07T18:02:35Z</time>
      </trkpt>
      <trkpt lat="59.9435392" lon="17.665174">
        <ele>32.8223</ele>
        <time>2014-07-07T18:02:36Z</time>
      </trkpt>
      <trkpt lat="59.9434814" lon="17.6651321">
        <ele>32.8223</ele>
        <time>2014-07-07T18:02:37Z</time>
      </trkpt>
      <trkpt lat="59.9434247" lon="17.6650878">
        <ele>32.8223</ele>
        <time>2014-07-07T18:02:38Z</time>
      </trkpt>
      <trkpt lat="59.9433685" lon="17.6650428">
        <ele>32.8223</ele>
        <time>2014-07-07T18:02:39Z</time>
      </trkpt>
      <trkpt lat="59.943313" lon="17.6649976">
        <ele>33.3029</ele>
        <time>2014-07-07T18:02:40Z</time>
      </trkpt>
      <trkpt lat="59.9432579" lon="17.664952">
        <ele>33.3029</ele>
        <time>2014-07-07T18:02:41Z</time>
      </trkpt>
      <trkpt lat="59.9432033" lon="17.6649059">
        <ele>33.3029</ele>
        <time>2014-07-07T18:02:42Z</time>
      </trkpt>
      <trkpt lat="59.9431494" lon="17.6648588">
        <ele>33.3029</ele>
        <time>2014-07-07T18:02:43Z</time>
      </trkpt>
      <trkpt lat="59.943096" lon="17.6648099">
        <ele>33.7834</ele>
        <time>2014-07-07T18:02:44Z</time>
      </trkpt>
      <trkpt lat="59.9430431" lon="17.6647587">
        <ele>33.7834</ele>
        <time>2014-07-07T18:02:45Z</time>
      </trkpt>
      <trkpt lat="59.9429907" lon="17.6647073">
        <ele>33.7834</ele>
        <time>2014-07-07T18:02:46Z</time>
      </trkpt>
      <trkpt lat="59.9429389" lon="17.6646571">
        <ele>33.7834</ele>
        <time>2014-07-07T18:02:47Z</time>
      </trkpt>
      <trkpt lat="59.9428878" lon="17.664607">
        <ele>33.7834</ele>
        <time>2014-07-07T18:02:48Z</time>
      </trkpt>
      <trkpt lat="59.9428379" lon="17.6645563">
        <ele>34.2642</ele>
        <time>2014-07-07T18:02:49Z</time>
      </trkpt>
      <trkpt lat="59.9427892" lon="17.6645038">
        <ele>34.2642</ele>
        <time>2014-07-07T18:02:50Z</time>
      </trkpt>
      <trkpt lat="59.9427405" lon="17.6644505">
        <ele>34.2642</ele>
        <time>2014-07-07T18:02:51Z</time>
      </trkpt>
      <trkpt lat="59.9426914" lon="17.6643978">
        <ele>34.2642</ele>
        <time>2014-07-07T18:02:52Z</time>
      </trkpt>
      <trkpt lat="59.9426422" lon="17.6643445">
        <ele>34.7449</ele>
        <time>2014-07-07T18:02:53Z</time>
      </trkpt>
      <trkpt lat="59.9425931" lon="17.6642885">
        <ele>34.7449</ele>
        <time>2014-07-07T18:02:54Z</time>
      </trkpt>
      <trkpt lat="59.9425448" lon="17.6642298">
        <ele>34.7449</ele>
        <time>2014-07-07T18:02:55Z</time>
      </trkpt>
      <trkpt lat="59.9424977" lon="17.6641697">
        <ele>34.7449</ele>
        <time>2014-07-07T18:02:56Z</time>
      </trkpt>
      <trkpt lat="59.9424511" lon="17.664109">
        <ele>35.2255</ele>
        <time>2014-07-07T18:02:57Z</time>
      </trkpt>
      <trkpt lat="59.9424044" lon="17.6640466">
        <ele>35.2255</ele>
        <time>2014-07-07T18:02:58Z</time>
      </trkpt>
      <trkpt lat="59.9423572" lon="17.6639843">
        <ele>35.2255</ele>
        <time>2014-07-07T18:02:59Z</time>
      </trkpt>
      <trkpt lat="59.9423103" lon="17.6639206">
        <ele>35.2255</ele>
        <time>2014-07-07T18:03:00Z</time>
      </trkpt>
      <trkpt lat="59.9422641" lon="17.6638559">
        <ele>35.2255</ele>
        <time>2014-07-07T18:03:01Z</time>
      </trkpt>
      <trkpt lat="59.9422175" lon="17.6637912">
        <ele>35.2255</ele>
        <time>2014-07-07T18:03:02Z</time>
      </trkpt>
      <trkpt lat="59.9421714" lon="17.6637267">
        <ele>35.2255</ele>
        <time>2014-07-07T18:03:03Z</time>
      </trkpt>
      <trkpt lat="59.9421257" lon="17.6636606">
        <ele>35.2255</ele>
        <time>2014-07-07T18:03:04Z</time>
      </trkpt>
      <trkpt lat="59.9420808" lon="17.6635907">
        <ele>35.2255</ele>
        <time>2014-07-07T18:03:05Z</time>
      </trkpt>
      <trkpt lat="59.9420366" lon="17.6635188">
        <ele>35.2255</ele>
        <time>2014-07-07T18:03:06Z</time>
      </trkpt>
      <trkpt lat="59.9419921" lon="17.6634476">
        <ele>35.2255</ele>
        <time>2014-07-07T18:03:07Z</time>
      </trkpt>
      <trkpt lat="59.9419476" lon="17.6633771">
        <ele>35.2255</ele>
        <time>2014-07-07T18:03:08Z</time>
      </trkpt>
      <trkpt lat="59.9419031" lon="17.6633072">
        <ele>35.2255</ele>
        <time>2014-07-07T18:03:09Z</time>
      </trkpt>
      <trkpt lat="59.9418595" lon="17.6632344">
        <ele>35.2255</ele>
        <time>2014-07-07T18:03:10Z</time>
      </trkpt>
      <trkpt lat="59.9418174" lon="17.6631576">
        <ele>35.2255</ele>
        <time>2014-07-07T18:03:11Z</time>
      </trkpt>
      <trkpt lat="59.9417756" lon="17.66308">
        <ele>34.7449</ele>
        <time>2014-07-07T18:03:12Z</time>
      </trkpt>
      <trkpt lat="59.9417335" lon="17.6630039">
        <ele>34.7449</ele>
        <time>2014-07-07T18:03:13Z</time>
      </trkpt>
      <trkpt lat="59.941691" lon="17.6629277">
        <ele>34.7449</ele>
        <time>2014-07-07T18:03:14Z</time>
      </trkpt>
      <trkpt lat="59.9416487" lon="17.662849">
        <ele>34.7449</ele>
        <time>2014-07-07T18:03:15Z</time>
      </trkpt>
      <trkpt lat="59.9416053" lon="17.6627706">
        <ele>34.7449</ele>
        <time>2014-07-07T18:03:16Z</time>
      </trkpt>
      <trkpt lat="59.9415595" lon="17.6626949">
        <ele>34.7449</ele>
        <time>2014-07-07T18:03:17Z</time>
      </trkpt>
      <trkpt lat="59.9415118" lon="17.6626218">
        <ele>34.7449</ele>
        <time>2014-07-07T18:03:18Z</time>
      </trkpt>
      <trkpt lat="59.9414625" lon="17.6625527">
        <ele>34.7449</ele>
        <time>2014-07-07T18:03:19Z</time>
      </trkpt>
      <trkpt lat="59.9414109" lon="17.6624878">
        <ele>34.2642</ele>
        <time>2014-07-07T18:03:20Z</time>
      </trkpt>
      <trkpt lat="59.9413569" lon="17.6624271">
        <ele>34.2642</ele>
        <time>2014-07-07T18:03:21Z</time>
      </trkpt>
      <trkpt lat="59.9413006" lon="17.6623721">
        <ele>34.2642</ele>
        <time>2014-07-07T18:03:22Z</time>
      </trkpt>
      <trkpt lat="59.9412431" lon="17.6623211">
        <ele>34.2642</ele>
        <time>2014-07-07T18:03:23Z</time>
      </trkpt>
      <trkpt lat="59.9411845" lon="17.6622749">
        <ele>34.2642</ele>
        <time>2014-07-07T18:03:24Z</time>
      </trkpt>
      <trkpt lat="59.9411232" lon="17.6622343">
        <ele>34.2642</ele>
        <time>2014-07-07T18:03:25Z</time>
      </trkpt>
      <trkpt lat="59.9410603" lon="17.6621993">
        <ele>34.2642</ele>
        <time>2014-07-07T18:03:26Z</time>
      </trkpt>
      <trkpt lat="59.9409978" lon="17.6621704">
        <ele>34.2642</ele>
        <time>2014-07-07T18:03:27Z</time>
      </trkpt>
      <trkpt lat="59.9409354" lon="17.6621468">
        <ele>34.2642</ele>
        <time>2014-07-07T18:03:28Z</time>
      </trkpt>
      <trkpt lat="59.9408748" lon="17.6621293">
        <ele>34.2642</ele>
        <time>2014-07-07T18:03:29Z</time>
      </trkpt>
      <trkpt lat="59.9408151" lon="17.6621191">
        <ele>34.2642</ele>
        <time>2014-07-07T18:03:30Z</time>
      </trkpt>
      <trkpt lat="59.9407559" lon="17.6621101">
        <ele>34.2642</ele>
        <time>2014-07-07T18:03:31Z</time>
      </trkpt>
      <trkpt lat="59.940697" lon="17.6620931">
        <ele>34.2642</ele>
        <time>2014-07-07T18:03:32Z</time>
      </trkpt>
      <trkpt lat="59.9406332" lon="17.6620521">
        <ele>34.2642</ele>
        <time>2014-07-07T18:03:33Z</time>
      </trkpt>
      <trkpt lat="59.940577" lon="17.6619945">
        <ele>33.7834</ele>
        <time>2014-07-07T18:03:34Z</time>
      </trkpt>
      <trkpt lat="59.940526" lon="17.6619082">
        <ele>33.7834</ele>
        <time>2014-07-07T18:03:35Z</time>
      </trkpt>
      <trkpt lat="59.9404798" lon="17.6618036">
        <ele>33.3029</ele>
        <time>2014-07-07T18:03:36Z</time>
      </trkpt>
      <trkpt lat="59.940449" lon="17.661686">
        <ele>33.3029</ele>
        <time>2014-07-07T18:03:37Z</time>
      </trkpt>
      <trkpt lat="59.9404158" lon="17.6615425">
        <ele>32.8223</ele>
        <time>2014-07-07T18:03:38Z</time>
      </trkpt>
      <trkpt lat="59.9404073" lon="17.6613963">
        <ele>32.3416</ele>
        <time>2014-07-07T18:03:39Z</time>
      </trkpt>
      <trkpt lat="59.9404053" lon="17.6612488">
        <ele>31.8607</ele>
        <time>2014-07-07T18:03:40Z</time>
      </trkpt>
      <trkpt lat="59.9404136" lon="17.6611053">
        <ele>31.8607</ele>
        <time>2014-07-07T18:03:41Z</time>
      </trkpt>
      <trkpt lat="59.9404334" lon="17.6609639">
        <ele>32.3416</ele>
        <time>2014-07-07T18:03:42Z</time>
      </trkpt>
      <trkpt lat="59.9404622" lon="17.6608259">
        <ele>32.3416</ele>
        <time>2014-07-07T18:03:43Z</time>
      </trkpt>
      <trkpt lat="59.9404977" lon="17.660696">
        <ele>32.8223</ele>
        <time>2014-07-07T18:03:44Z</time>
      </trkpt>
      <trkpt lat="59.9405298" lon="17.660568">
        <ele>32.8223</ele>
        <time>2014-07-07T18:03:45Z</time>
      </trkpt>
      <trkpt lat="59.9405504" lon="17.6604385">
        <ele>33.3029</ele>
        <time>2014-07-07T18:03:46Z</time>
      </trkpt>
      <trkpt lat="59.9405567" lon="17.6603091">
        <ele>33.7834</ele>
        <time>2014-07-07T18:03:47Z</time>
      </trkpt>
      <trkpt lat="59.9405526" lon="17.660182">
        <ele>34.2642</ele>
        <time>2014-07-07T18:03:48Z</time>
      </trkpt>
      <trkpt lat="59.9405365" lon="17.6600245">
        <ele>34.2642</ele>
        <time>2014-07-07T18:03:49Z</time>
      </trkpt>
      <trkpt lat="59.9405003" lon="17.6599206">
        <ele>34.2642</ele>
        <time>2014-07-07T18:03:50Z</time>
      </trkpt>
      <trkpt lat="59.9404496" lon="17.6598206">
        <ele>34.7449</ele>
        <time>2014-07-07T18:03:51Z</time>
      </trkpt>
      <trkpt lat="59.9404211" lon="17.6596953">
        <ele>34.2642</ele>
        <time>2014-07-07T18:03:52Z</time>
      </trkpt>
      <trkpt lat="59.9403885" lon="17.6595787">
        <ele>33.7834</ele>
        <time>2014-07-07T18:03:53Z</time>
      </trkpt>
      <trkpt lat="59.9403646" lon="17.6594481">
        <ele>33.3029</ele>
        <time>2014-07-07T18:03:54Z</time>
      </trkpt>
      <trkpt lat="59.940341" lon="17.6593052">
        <ele>33.3029</ele>
        <time>2014-07-07T18:03:55Z</time>
      </trkpt>
      <trkpt lat="59.9403157" lon="17.6591594">
        <ele>32.8223</ele>
        <time>2014-07-07T18:03:56Z</time>
      </trkpt>
      <trkpt lat="59.9402889" lon="17.659012">
        <ele>32.8223</ele>
        <time>2014-07-07T18:03:57Z</time>
      </trkpt>
      <trkpt lat="59.9402599" lon="17.6588642">
        <ele>32.3416</ele>
        <time>2014-07-07T18:03:58Z</time>
      </trkpt>
      <trkpt lat="59.9402288" lon="17.6587173">
        <ele>32.8223</ele>
        <time>2014-07-07T18:03:59Z</time>
      </trkpt>
      <trkpt lat="59.9401977" lon="17.6585733">
        <ele>32.8223</ele>
        <time>2014-07-07T18:04:00Z</time>
      </trkpt>
      <trkpt lat="59.9401673" lon="17.658433">
        <ele>32.8223</ele>
        <time>2014-07-07T18:04:01Z</time>
      </trkpt>
      <trkpt lat="59.9401375" lon="17.6582956">
        <ele>32.8223</ele>
        <time>2014-07-07T18:04:02Z</time>
      </trkpt>
      <trkpt lat="59.940108" lon="17.6581612">
        <ele>33.3029</ele>
        <time>2014-07-07T18:04:03Z</time>
      </trkpt>
      <trkpt lat="59.9400791" lon="17.6580299">
        <ele>33.3029</ele>
        <time>2014-07-07T18:04:04Z</time>
      </trkpt>
      <trkpt lat="59.9400515" lon="17.657902">
        <ele>33.7834</ele>
        <time>2014-07-07T18:04:05Z</time>
      </trkpt>
      <trkpt lat="59.9400246" lon="17.6577781">
        <ele>33.7834</ele>
        <time>2014-07-07T18:04:06Z</time>
      </trkpt>
      <trkpt lat="59.9399994" lon="17.6576558">
        <ele>34.2642</ele>
        <time>2014-07-07T18:04:07Z</time>
      </trkpt>
      <trkpt lat="59.939976" lon="17.6575341">
        <ele>34.2642</ele>
        <time>2014-07-07T18:04:08Z</time>
      </trkpt>
      <trkpt lat="59.9399527" lon="17.657413">
        <ele>34.2642</ele>
        <time>2014-07-07T18:04:09Z</time>
      </trkpt>
      <trkpt lat="59.9399289" lon="17.6572936">
        <ele>34.7449</ele>
        <time>2014-07-07T18:04:10Z</time>
      </trkpt>
      <trkpt lat="59.9399046" lon="17.6571765">
        <ele>34.7449</ele>
        <time>2014-07-07T18:04:11Z</time>
      </trkpt>
      <trkpt lat="59.9398812" lon="17.6570612">
        <ele>35.2255</ele>
        <time>2014-07-07T18:04:12Z</time>
      </trkpt>
      <trkpt lat="59.939859" lon="17.6569472">
        <ele>35.2255</ele>
        <time>2014-07-07T18:04:13Z</time>
      </trkpt>
      <trkpt lat="59.9398367" lon="17.6568348">
        <ele>35.2255</ele>
        <time>2014-07-07T18:04:14Z</time>
      </trkpt>
      <trkpt lat="59.9398143" lon="17.6567237">
        <ele>35.7061</ele>
        <time>2014-07-07T18:04:15Z</time>
      </trkpt>
      <trkpt lat="59.9397921" lon="17.656613">
        <ele>35.7061</ele>
        <time>2014-07-07T18:04:16Z</time>
      </trkpt>
      <trkpt lat="59.9397705" lon="17.6565026">
        <ele>35.7061</ele>
        <time>2014-07-07T18:04:17Z</time>
      </trkpt>
      <trkpt lat="59.9397495" lon="17.6563919">
        <ele>36.1868</ele>
        <time>2014-07-07T18:04:18Z</time>
      </trkpt>
      <trkpt lat="59.9397278" lon="17.6562806">
        <ele>36.1868</ele>
        <time>2014-07-07T18:04:19Z</time>
      </trkpt>
      <trkpt lat="59.9397051" lon="17.6561686">
        <ele>36.1868</ele>
        <time>2014-07-07T18:04:20Z</time>
      </trkpt>
      <trkpt lat="59.9396818" lon="17.6560556">
        <ele>36.1868</ele>
        <time>2014-07-07T18:04:21Z</time>
      </trkpt>
      <trkpt lat="59.9396583" lon="17.6559416">
        <ele>36.1868</ele>
        <time>2014-07-07T18:04:22Z</time>
      </trkpt>
      <trkpt lat="59.9396347" lon="17.6558268">
        <ele>36.6675</ele>
        <time>2014-07-07T18:04:23Z</time>
      </trkpt>
      <trkpt lat="59.9396111" lon="17.6557107">
        <ele>36.6675</ele>
        <time>2014-07-07T18:04:24Z</time>
      </trkpt>
      <trkpt lat="59.9395871" lon="17.6555921">
        <ele>36.6675</ele>
        <time>2014-07-07T18:04:25Z</time>
      </trkpt>
      <trkpt lat="59.9395636" lon="17.6554715">
        <ele>36.6675</ele>
        <time>2014-07-07T18:04:26Z</time>
      </trkpt>
      <trkpt lat="59.9395392" lon="17.6553508">
        <ele>36.6675</ele>
        <time>2014-07-07T18:04:27Z</time>
      </trkpt>
      <trkpt lat="59.9395135" lon="17.65523">
        <ele>36.6675</ele>
        <time>2014-07-07T18:04:28Z</time>
      </trkpt>
      <trkpt lat="59.939488" lon="17.6551072">
        <ele>37.1481</ele>
        <time>2014-07-07T18:04:29Z</time>
      </trkpt>
      <trkpt lat="59.939463" lon="17.6549818">
        <ele>37.1481</ele>
        <time>2014-07-07T18:04:30Z</time>
      </trkpt>
      <trkpt lat="59.9394379" lon="17.6548549">
        <ele>37.1481</ele>
        <time>2014-07-07T18:04:31Z</time>
      </trkpt>
      <trkpt lat="59.9394133" lon="17.654727">
        <ele>37.1481</ele>
        <time>2014-07-07T18:04:32Z</time>
      </trkpt>
      <trkpt lat="59.939389" lon="17.654598">
        <ele>37.1481</ele>
        <time>2014-07-07T18:04:33Z</time>
      </trkpt>
      <trkpt lat="59.9393648" lon="17.654468">
        <ele>37.1481</ele>
        <time>2014-07-07T18:04:34Z</time>
      </trkpt>
      <trkpt lat="59.93934" lon="17.6543379">
        <ele>37.1481</ele>
        <time>2014-07-07T18:04:35Z</time>
      </trkpt>
      <trkpt lat="59.9393141" lon="17.6542076">
        <ele>36.6675</ele>
        <time>2014-07-07T18:04:36Z</time>
      </trkpt>
      <trkpt lat="59.9392866" lon="17.6540717">
        <ele>36.6675</ele>
        <time>2014-07-07T18:04:37Z</time>
      </trkpt>
      <trkpt lat="59.9392582" lon="17.6539387">
        <ele>36.6675</ele>
        <time>2014-07-07T18:04:38Z</time>
      </trkpt>
      <trkpt lat="59.9392314" lon="17.653807">
        <ele>36.6675</ele>
        <time>2014-07-07T18:04:39Z</time>
      </trkpt>
      <trkpt lat="59.9392037" lon="17.6536745">
        <ele>36.6675</ele>
        <time>2014-07-07T18:04:40Z</time>
      </trkpt>
      <trkpt lat="59.9391743" lon="17.6535419">
        <ele>36.6675</ele>
        <time>2014-07-07T18:04:41Z</time>
      </trkpt>
      <trkpt lat="59.9391441" lon="17.6534085">
        <ele>36.6675</ele>
        <time>2014-07-07T18:04:42Z</time>
      </trkpt>
      <trkpt lat="59.939113" lon="17.6532722">
        <ele>36.1868</ele>
        <time>2014-07-07T18:04:43Z</time>
      </trkpt>
      <trkpt lat="59.9390813" lon="17.6531341">
        <ele>36.1868</ele>
        <time>2014-07-07T18:04:44Z</time>
      </trkpt>
      <trkpt lat="59.9390463" lon="17.6529949">
        <ele>36.1868</ele>
        <time>2014-07-07T18:04:45Z</time>
      </trkpt>
      <trkpt lat="59.93901" lon="17.652855">
        <ele>36.1868</ele>
        <time>2014-07-07T18:04:46Z</time>
      </trkpt>
      <trkpt lat="59.9389731" lon="17.652716">
        <ele>36.1868</ele>
        <time>2014-07-07T18:04:47Z</time>
      </trkpt>
      <trkpt lat="59.9389358" lon="17.6525767">
        <ele>36.1868</ele>
        <time>2014-07-07T18:04:48Z</time>
      </trkpt>
      <trkpt lat="59.9388979" lon="17.6524379">
        <ele>36.1868</ele>
        <time>2014-07-07T18:04:49Z</time>
      </trkpt>
      <trkpt lat="59.9388587" lon="17.6523012">
        <ele>36.1868</ele>
        <time>2014-07-07T18:04:50Z</time>
      </trkpt>
      <trkpt lat="59.9388208" lon="17.6521665">
        <ele>36.1868</ele>
        <time>2014-07-07T18:04:51Z</time>
      </trkpt>
      <trkpt lat="59.9387832" lon="17.6520334">
        <ele>36.1868</ele>
        <time>2014-07-07T18:04:52Z</time>
      </trkpt>
      <trkpt lat="59.9387442" lon="17.6519012">
        <ele>36.1868</ele>
        <time>2014-07-07T18:04:53Z</time>
      </trkpt>
      <trkpt lat="59.9387042" lon="17.6517703">
        <ele>36.1868</ele>
        <time>2014-07-07T18:04:54Z</time>
      </trkpt>
      <trkpt lat="59.9386629" lon="17.6516402">
        <ele>36.1868</ele>
        <time>2014-07-07T18:04:55Z</time>
      </trkpt>
      <trkpt lat="59.9386223" lon="17.6515107">
        <ele>36.1868</ele>
        <time>2014-07-07T18:04:56Z</time>
      </trkpt>
      <trkpt lat="59.9385817" lon="17.6513823">
        <ele>35.7061</ele>
        <time>2014-07-07T18:04:57Z</time>
      </trkpt>
      <trkpt lat="59.9385414" lon="17.6512565">
        <ele>35.7061</ele>
        <time>2014-07-07T18:04:58Z</time>
      </trkpt>
      <trkpt lat="59.9384995" lon="17.6511345">
        <ele>35.7061</ele>
        <time>2014-07-07T18:04:59Z</time>
      </trkpt>
      <trkpt lat="59.9384541" lon="17.6510168">
        <ele>35.7061</ele>
        <time>2014-07-07T18:05:00Z</time>
      </trkpt>
      <trkpt lat="59.9384053" lon="17.6509046">
        <ele>35.7061</ele>
        <time>2014-07-07T18:05:01Z</time>
      </trkpt>
      <trkpt lat="59.9383544" lon="17.6507959">
        <ele>35.7061</ele>
        <time>2014-07-07T18:05:02Z</time>
      </trkpt>
      <trkpt lat="59.9383013" lon="17.6506838">
        <ele>35.7061</ele>
        <time>2014-07-07T18:05:03Z</time>
      </trkpt>
      <trkpt lat="59.9382548" lon="17.650569">
        <ele>35.7061</ele>
        <time>2014-07-07T18:05:04Z</time>
      </trkpt>
      <trkpt lat="59.9382137" lon="17.6504524">
        <ele>35.7061</ele>
        <time>2014-07-07T18:05:05Z</time>
      </trkpt>
      <trkpt lat="59.9381733" lon="17.6503338">
        <ele>35.7061</ele>
        <time>2014-07-07T18:05:06Z</time>
      </trkpt>
      <trkpt lat="59.9381314" lon="17.650217">
        <ele>36.1868</ele>
        <time>2014-07-07T18:05:07Z</time>
      </trkpt>
      <trkpt lat="59.9380893" lon="17.6501042">
        <ele>36.1868</ele>
        <time>2014-07-07T18:05:08Z</time>
      </trkpt>
      <trkpt lat="59.9380464" lon="17.6499961">
        <ele>36.1868</ele>
        <time>2014-07-07T18:05:09Z</time>
      </trkpt>
      <trkpt lat="59.9380022" lon="17.6498928">
        <ele>36.1868</ele>
        <time>2014-07-07T18:05:10Z</time>
      </trkpt>
      <trkpt lat="59.9379582" lon="17.6497914">
        <ele>36.1868</ele>
        <time>2014-07-07T18:05:11Z</time>
      </trkpt>
      <trkpt lat="59.9379157" lon="17.6496899">
        <ele>36.6675</ele>
        <time>2014-07-07T18:05:12Z</time>
      </trkpt>
      <trkpt lat="59.9378746" lon="17.6495878">
        <ele>36.6675</ele>
        <time>2014-07-07T18:05:13Z</time>
      </trkpt>
      <trkpt lat="59.9378357" lon="17.6494831">
        <ele>36.6675</ele>
        <time>2014-07-07T18:05:14Z</time>
      </trkpt>
      <trkpt lat="59.9378018" lon="17.6493718">
        <ele>36.6675</ele>
        <time>2014-07-07T18:05:15Z</time>
      </trkpt>
      <trkpt lat="59.9377722" lon="17.6492569">
        <ele>36.6675</ele>
        <time>2014-07-07T18:05:16Z</time>
      </trkpt>
      <trkpt lat="59.9377414" lon="17.6491439">
        <ele>37.1481</ele>
        <time>2014-07-07T18:05:17Z</time>
      </trkpt>
      <trkpt lat="59.9377078" lon="17.6490346">
        <ele>37.1481</ele>
        <time>2014-07-07T18:05:18Z</time>
      </trkpt>
      <trkpt lat="59.937672" lon="17.6489295">
        <ele>37.1481</ele>
        <time>2014-07-07T18:05:19Z</time>
      </trkpt>
      <trkpt lat="59.9376334" lon="17.6488301">
        <ele>37.6287</ele>
        <time>2014-07-07T18:05:20Z</time>
      </trkpt>
      <trkpt lat="59.9375899" lon="17.6487397">
        <ele>37.6287</ele>
        <time>2014-07-07T18:05:21Z</time>
      </trkpt>
      <trkpt lat="59.9375418" lon="17.6486589">
        <ele>37.6287</ele>
        <time>2014-07-07T18:05:22Z</time>
      </trkpt>
      <trkpt lat="59.9374909" lon="17.6485834">
        <ele>37.6287</ele>
        <time>2014-07-07T18:05:23Z</time>
      </trkpt>
      <trkpt lat="59.9374386" lon="17.6485098">
        <ele>37.6287</ele>
        <time>2014-07-07T18:05:24Z</time>
      </trkpt>
      <trkpt lat="59.937385" lon="17.6484364">
        <ele>38.1094</ele>
        <time>2014-07-07T18:05:25Z</time>
      </trkpt>
      <trkpt lat="59.9373315" lon="17.6483636">
        <ele>37.6287</ele>
        <time>2014-07-07T18:05:26Z</time>
      </trkpt>
      <trkpt lat="59.9372772" lon="17.6482913">
        <ele>37.6287</ele>
        <time>2014-07-07T18:05:27Z</time>
      </trkpt>
      <trkpt lat="59.9372228" lon="17.6482188">
        <ele>37.6287</ele>
        <time>2014-07-07T18:05:28Z</time>
      </trkpt>
      <trkpt lat="59.937169" lon="17.6481462">
        <ele>37.6287</ele>
        <time>2014-07-07T18:05:29Z</time>
      </trkpt>
      <trkpt lat="59.937117" lon="17.6480758">
        <ele>38.1094</ele>
        <time>2014-07-07T18:05:30Z</time>
      </trkpt>
      <trkpt lat="59.9370628" lon="17.6480065">
        <ele>38.1094</ele>
        <time>2014-07-07T18:05:31Z</time>
      </trkpt>
      <trkpt lat="59.9370078" lon="17.6479383">
        <ele>38.1094</ele>
        <time>2014-07-07T18:05:32Z</time>
      </trkpt>
      <trkpt lat="59.9369528" lon="17.6478722">
        <ele>38.1094</ele>
        <time>2014-07-07T18:05:33Z</time>
      </trkpt>
      <trkpt lat="59.9368963" lon="17.6478058">
        <ele>38.1094</ele>
        <time>2014-07-07T18:05:34Z</time>
      </trkpt>
      <trkpt lat="59.9368388" lon="17.6477374">
        <ele>38.5901</ele>
        <time>2014-07-07T18:05:35Z</time>
      </trkpt>
      <trkpt lat="59.936781" lon="17.6476671">
        <ele>38.5901</ele>
        <time>2014-07-07T18:05:36Z</time>
      </trkpt>
      <trkpt lat="59.9367238" lon="17.6475961">
        <ele>38.5901</ele>
        <time>2014-07-07T18:05:37Z</time>
      </trkpt>
      <trkpt lat="59.9366673" lon="17.647525">
        <ele>38.5901</ele>
        <time>2014-07-07T18:05:38Z</time>
      </trkpt>
      <trkpt lat="59.9366117" lon="17.6474535">
        <ele>38.5901</ele>
        <time>2014-07-07T18:05:39Z</time>
      </trkpt>
      <trkpt lat="59.9365567" lon="17.6473821">
        <ele>38.5901</ele>
        <time>2014-07-07T18:05:40Z</time>
      </trkpt>
      <trkpt lat="59.9365017" lon="17.6473117">
        <ele>38.5901</ele>
        <time>2014-07-07T18:05:41Z</time>
      </trkpt>
      <trkpt lat="59.9364468" lon="17.6472423">
        <ele>38.5901</ele>
        <time>2014-07-07T18:05:42Z</time>
      </trkpt>
      <trkpt lat="59.9363915" lon="17.6471744">
        <ele>38.5901</ele>
        <time>2014-07-07T18:05:43Z</time>
      </trkpt>
      <trkpt lat="59.936336" lon="17.6471058">
        <ele>38.5901</ele>
        <time>2014-07-07T18:05:44Z</time>
      </trkpt>
      <trkpt lat="59.93628" lon="17.6470355">
        <ele>38.5901</ele>
        <time>2014-07-07T18:05:45Z</time>
      </trkpt>
      <trkpt lat="59.9362226" lon="17.6469646">
        <ele>38.5901</ele>
        <time>2014-07-07T18:05:46Z</time>
      </trkpt>
      <trkpt lat="59.9361636" lon="17.6468931">
        <ele>38.5901</ele>
        <time>2014-07-07T18:05:47Z</time>
      </trkpt>
      <trkpt lat="59.936104" lon="17.6468207">
        <ele>38.5901</ele>
        <time>2014-07-07T18:05:48Z</time>
      </trkpt>
      <trkpt lat="59.9360444" lon="17.6467469">
        <ele>38.5901</ele>
        <time>2014-07-07T18:05:49Z</time>
      </trkpt>
      <trkpt lat="59.9359848" lon="17.6466709">
        <ele>38.5901</ele>
        <time>2014-07-07T18:05:50Z</time>
      </trkpt>
      <trkpt lat="59.9359248" lon="17.6465963">
        <ele>38.5901</ele>
        <time>2014-07-07T18:05:51Z</time>
      </trkpt>
      <trkpt lat="59.9358646" lon="17.6465218">
        <ele>38.1094</ele>
        <time>2014-07-07T18:05:52Z</time>
      </trkpt>
      <trkpt lat="59.9358051" lon="17.6464454">
        <ele>38.1094</ele>
        <time>2014-07-07T18:05:53Z</time>
      </trkpt>
      <trkpt lat="59.9357454" lon="17.6463684">
        <ele>38.1094</ele>
        <time>2014-07-07T18:05:54Z</time>
      </trkpt>
      <trkpt lat="59.935688" lon="17.6462949">
        <ele>38.1094</ele>
        <time>2014-07-07T18:05:55Z</time>
      </trkpt>
      <trkpt lat="59.9356315" lon="17.6462242">
        <ele>38.1094</ele>
        <time>2014-07-07T18:05:56Z</time>
      </trkpt>
      <trkpt lat="59.9355753" lon="17.6461533">
        <ele>38.1094</ele>
        <time>2014-07-07T18:05:57Z</time>
      </trkpt>
      <trkpt lat="59.935519" lon="17.6460825">
        <ele>38.1094</ele>
        <time>2014-07-07T18:05:58Z</time>
      </trkpt>
      <trkpt lat="59.9354621" lon="17.6460119">
        <ele>38.1094</ele>
        <time>2014-07-07T18:05:59Z</time>
      </trkpt>
      <trkpt lat="59.9354045" lon="17.64594">
        <ele>38.1094</ele>
        <time>2014-07-07T18:06:00Z</time>
      </trkpt>
      <trkpt lat="59.9353471" lon="17.6458665">
        <ele>38.1094</ele>
        <time>2014-07-07T18:06:01Z</time>
      </trkpt>
      <trkpt lat="59.9352917" lon="17.6457884">
        <ele>38.1094</ele>
        <time>2014-07-07T18:06:02Z</time>
      </trkpt>
      <trkpt lat="59.9352376" lon="17.6457037">
        <ele>38.1094</ele>
        <time>2014-07-07T18:06:03Z</time>
      </trkpt>
      <trkpt lat="59.9351844" lon="17.6456173">
        <ele>38.1094</ele>
        <time>2014-07-07T18:06:04Z</time>
      </trkpt>
      <trkpt lat="59.9351295" lon="17.645536">
        <ele>38.1094</ele>
        <time>2014-07-07T18:06:05Z</time>
      </trkpt>
      <trkpt lat="59.935071" lon="17.6454563">
        <ele>38.1094</ele>
        <time>2014-07-07T18:06:06Z</time>
      </trkpt>
      <trkpt lat="59.9350122" lon="17.645379">
        <ele>38.1094</ele>
        <time>2014-07-07T18:06:07Z</time>
      </trkpt>
      <trkpt lat="59.9349514" lon="17.6453054">
        <ele>38.1094</ele>
        <time>2014-07-07T18:06:08Z</time>
      </trkpt>
      <trkpt lat="59.9348916" lon="17.6452307">
        <ele>38.1094</ele>
        <time>2014-07-07T18:06:09Z</time>
      </trkpt>
      <trkpt lat="59.9348331" lon="17.6451561">
        <ele>38.1094</ele>
        <time>2014-07-07T18:06:10Z</time>
      </trkpt>
      <trkpt lat="59.9347721" lon="17.6450815">
        <ele>37.6287</ele>
        <time>2014-07-07T18:06:11Z</time>
      </trkpt>
      <trkpt lat="59.934712" lon="17.6450077">
        <ele>37.1481</ele>
        <time>2014-07-07T18:06:12Z</time>
      </trkpt>
      <trkpt lat="59.9346513" lon="17.6449319">
        <ele>37.1481</ele>
        <time>2014-07-07T18:06:13Z</time>
      </trkpt>
      <trkpt lat="59.9345906" lon="17.6448543">
        <ele>37.1481</ele>
        <time>2014-07-07T18:06:14Z</time>
      </trkpt>
      <trkpt lat="59.9345258" lon="17.6447684">
        <ele>36.6675</ele>
        <time>2014-07-07T18:06:15Z</time>
      </trkpt>
      <trkpt lat="59.9344652" lon="17.6446729">
        <ele>36.1868</ele>
        <time>2014-07-07T18:06:16Z</time>
      </trkpt>
      <trkpt lat="59.9344021" lon="17.6445624">
        <ele>35.7061</ele>
        <time>2014-07-07T18:06:17Z</time>
      </trkpt>
      <trkpt lat="59.9343348" lon="17.6444586">
        <ele>34.7449</ele>
        <time>2014-07-07T18:06:18Z</time>
      </trkpt>
      <trkpt lat="59.934267" lon="17.6443642">
        <ele>34.7449</ele>
        <time>2014-07-07T18:06:19Z</time>
      </trkpt>
      <trkpt lat="59.9341976" lon="17.6442744">
        <ele>34.2642</ele>
        <time>2014-07-07T18:06:20Z</time>
      </trkpt>
      <trkpt lat="59.9341294" lon="17.6441869">
        <ele>33.7834</ele>
        <time>2014-07-07T18:06:21Z</time>
      </trkpt>
      <trkpt lat="59.9340627" lon="17.6441012">
        <ele>33.7834</ele>
        <time>2014-07-07T18:06:22Z</time>
      </trkpt>
      <trkpt lat="59.9339956" lon="17.644018">
        <ele>33.3029</ele>
        <time>2014-07-07T18:06:23Z</time>
      </trkpt>
      <trkpt lat="59.9339283" lon="17.6439378">
        <ele>33.3029</ele>
        <time>2014-07-07T18:06:24Z</time>
      </trkpt>
      <trkpt lat="59.9338608" lon="17.6438648">
        <ele>33.3029</ele>
        <time>2014-07-07T18:06:25Z</time>
      </trkpt>
      <trkpt lat="59.9337918" lon="17.6438002">
        <ele>32.8223</ele>
        <time>2014-07-07T18:06:26Z</time>
      </trkpt>
      <trkpt lat="59.9337219" lon="17.6437385">
        <ele>32.8223</ele>
        <time>2014-07-07T18:06:27Z</time>
      </trkpt>
      <trkpt lat="59.9336533" lon="17.643671">
        <ele>32.3416</ele>
        <time>2014-07-07T18:06:28Z</time>
      </trkpt>
      <trkpt lat="59.9335885" lon="17.643596">
        <ele>32.3416</ele>
        <time>2014-07-07T18:06:29Z</time>
      </trkpt>
      <trkpt lat="59.9335263" lon="17.6435058">
        <ele>31.8607</ele>
        <time>2014-07-07T18:06:30Z</time>
      </trkpt>
      <trkpt lat="59.9334551" lon="17.6434577">
        <ele>31.8607</ele>
        <time>2014-07-07T18:06:31Z</time>
      </trkpt>
      <trkpt lat="59.9333869" lon="17.643352">
        <ele>31.3801</ele>
        <time>2014-07-07T18:06:32Z</time>
      </trkpt>
      <trkpt lat="59.9333206" lon="17.6432416">
        <ele>30.4188</ele>
        <time>2014-07-07T18:06:33Z</time>
      </trkpt>
      <trkpt lat="59.9332517" lon="17.6431239">
        <ele>29.4575</ele>
        <time>2014-07-07T18:06:34Z</time>
      </trkpt>
      <trkpt lat="59.9331792" lon="17.6430032">
        <ele>28.4962</ele>
        <time>2014-07-07T18:06:35Z</time>
      </trkpt>
      <trkpt lat="59.933104" lon="17.6428913">
        <ele>28.0155</ele>
        <time>2014-07-07T18:06:36Z</time>
      </trkpt>
      <trkpt lat="59.9330262" lon="17.6427864">
        <ele>28.0155</ele>
        <time>2014-07-07T18:06:37Z</time>
      </trkpt>
      <trkpt lat="59.9329476" lon="17.642685">
        <ele>27.5349</ele>
        <time>2014-07-07T18:06:38Z</time>
      </trkpt>
      <trkpt lat="59.9328719" lon="17.6425771">
        <ele>27.0543</ele>
        <time>2014-07-07T18:06:39Z</time>
      </trkpt>
      <trkpt lat="59.9328026" lon="17.6424544">
        <ele>27.0543</ele>
        <time>2014-07-07T18:06:40Z</time>
      </trkpt>
      <trkpt lat="59.9327356" lon="17.6423296">
        <ele>26.5736</ele>
        <time>2014-07-07T18:06:41Z</time>
      </trkpt>
      <trkpt lat="59.9326636" lon="17.64222">
        <ele>26.5736</ele>
        <time>2014-07-07T18:06:42Z</time>
      </trkpt>
      <trkpt lat="59.9325859" lon="17.6421255">
        <ele>26.0929</ele>
        <time>2014-07-07T18:06:43Z</time>
      </trkpt>
      <trkpt lat="59.9325063" lon="17.6420398">
        <ele>26.0929</ele>
        <time>2014-07-07T18:06:44Z</time>
      </trkpt>
      <trkpt lat="59.932426" lon="17.6419607">
        <ele>26.0929</ele>
        <time>2014-07-07T18:06:45Z</time>
      </trkpt>
      <trkpt lat="59.9323458" lon="17.6418876">
        <ele>26.0929</ele>
        <time>2014-07-07T18:06:46Z</time>
      </trkpt>
      <trkpt lat="59.9322673" lon="17.6418182">
        <ele>26.0929</ele>
        <time>2014-07-07T18:06:47Z</time>
      </trkpt>
      <trkpt lat="59.9321904" lon="17.6417497">
        <ele>26.0929</ele>
        <time>2014-07-07T18:06:48Z</time>
      </trkpt>
      <trkpt lat="59.9321171" lon="17.6416778">
        <ele>26.5736</ele>
        <time>2014-07-07T18:06:49Z</time>
      </trkpt>
      <trkpt lat="59.9320468" lon="17.6416079">
        <ele>26.5736</ele>
        <time>2014-07-07T18:06:50Z</time>
      </trkpt>
      <trkpt lat="59.9319767" lon="17.6415489">
        <ele>26.5736</ele>
        <time>2014-07-07T18:06:51Z</time>
      </trkpt>
      <trkpt lat="59.9319028" lon="17.6414995">
        <ele>26.0929</ele>
        <time>2014-07-07T18:06:52Z</time>
      </trkpt>
      <trkpt lat="59.9318261" lon="17.6414518">
        <ele>26.0929</ele>
        <time>2014-07-07T18:06:53Z</time>
      </trkpt>
      <trkpt lat="59.931748" lon="17.6414024">
        <ele>26.0929</ele>
        <time>2014-07-07T18:06:54Z</time>
      </trkpt>
      <trkpt lat="59.9316701" lon="17.6413504">
        <ele>26.0929</ele>
        <time>2014-07-07T18:06:55Z</time>
      </trkpt>
      <trkpt lat="59.9315939" lon="17.6412959">
        <ele>26.0929</ele>
        <time>2014-07-07T18:06:56Z</time>
      </trkpt>
      <trkpt lat="59.9315186" lon="17.6412418">
        <ele>26.0929</ele>
        <time>2014-07-07T18:06:57Z</time>
      </trkpt>
      <trkpt lat="59.9314442" lon="17.6411904">
        <ele>26.0929</ele>
        <time>2014-07-07T18:06:58Z</time>
      </trkpt>
      <trkpt lat="59.9313708" lon="17.6411396">
        <ele>26.0929</ele>
        <time>2014-07-07T18:06:59Z</time>
      </trkpt>
      <trkpt lat="59.9312978" lon="17.6410866">
        <ele>25.6123</ele>
        <time>2014-07-07T18:07:00Z</time>
      </trkpt>
      <trkpt lat="59.931221" lon="17.641028">
        <ele>25.1317</ele>
        <time>2014-07-07T18:07:01Z</time>
      </trkpt>
      <trkpt lat="59.9311398" lon="17.6409666">
        <ele>24.651</ele>
        <time>2014-07-07T18:07:02Z</time>
      </trkpt>
      <trkpt lat="59.9310562" lon="17.6409056">
        <ele>24.1703</ele>
        <time>2014-07-07T18:07:03Z</time>
      </trkpt>
      <trkpt lat="59.9309728" lon="17.6408495">
        <ele>24.1703</ele>
        <time>2014-07-07T18:07:04Z</time>
      </trkpt>
      <trkpt lat="59.9308892" lon="17.6408075">
        <ele>24.1703</ele>
        <time>2014-07-07T18:07:05Z</time>
      </trkpt>
      <trkpt lat="59.9308071" lon="17.6407867">
        <ele>24.1703</ele>
        <time>2014-07-07T18:07:06Z</time>
      </trkpt>
      <trkpt lat="59.9307264" lon="17.6407813">
        <ele>24.1703</ele>
        <time>2014-07-07T18:07:07Z</time>
      </trkpt>
      <trkpt lat="59.9306478" lon="17.6407882">
        <ele>23.6896</ele>
        <time>2014-07-07T18:07:08Z</time>
      </trkpt>
      <trkpt lat="59.9305618" lon="17.640812">
        <ele>23.209</ele>
        <time>2014-07-07T18:07:09Z</time>
      </trkpt>
      <trkpt lat="59.9304791" lon="17.6408256">
        <ele>23.209</ele>
        <time>2014-07-07T18:07:10Z</time>
      </trkpt>
      <trkpt lat="59.930397" lon="17.6408298">
        <ele>22.7283</ele>
        <time>2014-07-07T18:07:11Z</time>
      </trkpt>
      <trkpt lat="59.9303158" lon="17.6408273">
        <ele>22.2476</ele>
        <time>2014-07-07T18:07:12Z</time>
      </trkpt>
      <trkpt lat="59.9302355" lon="17.6408231">
        <ele>22.2476</ele>
        <time>2014-07-07T18:07:13Z</time>
      </trkpt>
      <trkpt lat="59.9301554" lon="17.6408209">
        <ele>21.767</ele>
        <time>2014-07-07T18:07:14Z</time>
      </trkpt>
      <trkpt lat="59.9300757" lon="17.6408217">
        <ele>21.767</ele>
        <time>2014-07-07T18:07:15Z</time>
      </trkpt>
      <trkpt lat="59.9299966" lon="17.6408241">
        <ele>21.767</ele>
        <time>2014-07-07T18:07:16Z</time>
      </trkpt>
      <trkpt lat="59.9299187" lon="17.6408242">
        <ele>21.767</ele>
        <time>2014-07-07T18:07:17Z</time>
      </trkpt>
      <trkpt lat="59.9298426" lon="17.640824">
        <ele>21.767</ele>
        <time>2014-07-07T18:07:18Z</time>
      </trkpt>
      <trkpt lat="59.9297693" lon="17.6408277">
        <ele>21.767</ele>
        <time>2014-07-07T18:07:19Z</time>
      </trkpt>
      <trkpt lat="59.9296977" lon="17.6408377">
        <ele>21.767</ele>
        <time>2014-07-07T18:07:20Z</time>
      </trkpt>
      <trkpt lat="59.9296257" lon="17.6408535">
        <ele>21.767</ele>
        <time>2014-07-07T18:07:21Z</time>
      </trkpt>
      <trkpt lat="59.9295531" lon="17.6408718">
        <ele>21.2864</ele>
        <time>2014-07-07T18:07:22Z</time>
      </trkpt>
      <trkpt lat="59.9294801" lon="17.6408899">
        <ele>21.2864</ele>
        <time>2014-07-07T18:07:23Z</time>
      </trkpt>
      <trkpt lat="59.9294077" lon="17.6409044">
        <ele>21.2864</ele>
        <time>2014-07-07T18:07:24Z</time>
      </trkpt>
      <trkpt lat="59.929336" lon="17.6409157">
        <ele>21.2864</ele>
        <time>2014-07-07T18:07:25Z</time>
      </trkpt>
      <trkpt lat="59.9292644" lon="17.6409218">
        <ele>21.2864</ele>
        <time>2014-07-07T18:07:26Z</time>
      </trkpt>
      <trkpt lat="59.9291935" lon="17.6409218">
        <ele>21.2864</ele>
        <time>2014-07-07T18:07:27Z</time>
      </trkpt>
      <trkpt lat="59.9291232" lon="17.6409205">
        <ele>21.2864</ele>
        <time>2014-07-07T18:07:28Z</time>
      </trkpt>
      <trkpt lat="59.9290534" lon="17.6409221">
        <ele>21.2864</ele>
        <time>2014-07-07T18:07:29Z</time>
      </trkpt>
      <trkpt lat="59.9289843" lon="17.640926">
        <ele>21.2864</ele>
        <time>2014-07-07T18:07:30Z</time>
      </trkpt>
      <trkpt lat="59.9289158" lon="17.6409302">
        <ele>21.2864</ele>
        <time>2014-07-07T18:07:31Z</time>
      </trkpt>
      <trkpt lat="59.928848" lon="17.6409386">
        <ele>21.2864</ele>
        <time>2014-07-07T18:07:32Z</time>
      </trkpt>
      <trkpt lat="59.9287807" lon="17.6409547">
        <ele>21.2864</ele>
        <time>2014-07-07T18:07:33Z</time>
      </trkpt>
      <trkpt lat="59.9287141" lon="17.6409745">
        <ele>21.2864</ele>
        <time>2014-07-07T18:07:34Z</time>
      </trkpt>
      <trkpt lat="59.9286482" lon="17.6409913">
        <ele>21.2864</ele>
        <time>2014-07-07T18:07:35Z</time>
      </trkpt>
      <trkpt lat="59.9285827" lon="17.6410043">
        <ele>21.2864</ele>
        <time>2014-07-07T18:07:36Z</time>
      </trkpt>
      <trkpt lat="59.9285171" lon="17.6410153">
        <ele>21.2864</ele>
        <time>2014-07-07T18:07:37Z</time>
      </trkpt>
      <trkpt lat="59.9284511" lon="17.6410255">
        <ele>21.2864</ele>
        <time>2014-07-07T18:07:38Z</time>
      </trkpt>
      <trkpt lat="59.9283841" lon="17.6410356">
        <ele>21.2864</ele>
        <time>2014-07-07T18:07:39Z</time>
      </trkpt>
      <trkpt lat="59.9283162" lon="17.6410457">
        <ele>21.2864</ele>
        <time>2014-07-07T18:07:40Z</time>
      </trkpt>
      <trkpt lat="59.9282478" lon="17.6410556">
        <ele>21.2864</ele>
        <time>2014-07-07T18:07:41Z</time>
      </trkpt>
      <trkpt lat="59.9281789" lon="17.6410665">
        <ele>21.2864</ele>
        <time>2014-07-07T18:07:42Z</time>
      </trkpt>
      <trkpt lat="59.92811" lon="17.6410768">
        <ele>20.8057</ele>
        <time>2014-07-07T18:07:43Z</time>
      </trkpt>
      <trkpt lat="59.9280409" lon="17.6410852">
        <ele>20.8057</ele>
        <time>2014-07-07T18:07:44Z</time>
      </trkpt>
      <trkpt lat="59.9279713" lon="17.6410925">
        <ele>20.8057</ele>
        <time>2014-07-07T18:07:45Z</time>
      </trkpt>
      <trkpt lat="59.9279017" lon="17.6410992">
        <ele>20.8057</ele>
        <time>2014-07-07T18:07:46Z</time>
      </trkpt>
      <trkpt lat="59.9278318" lon="17.6411075">
        <ele>20.8057</ele>
        <time>2014-07-07T18:07:47Z</time>
      </trkpt>
      <trkpt lat="59.9277624" lon="17.6411157">
        <ele>20.8057</ele>
        <time>2014-07-07T18:07:48Z</time>
      </trkpt>
      <trkpt lat="59.9276936" lon="17.6411223">
        <ele>20.8057</ele>
        <time>2014-07-07T18:07:49Z</time>
      </trkpt>
      <trkpt lat="59.9276251" lon="17.6411288">
        <ele>20.8057</ele>
        <time>2014-07-07T18:07:50Z</time>
      </trkpt>
      <trkpt lat="59.9275567" lon="17.6411361">
        <ele>20.8057</ele>
        <time>2014-07-07T18:07:51Z</time>
      </trkpt>
      <trkpt lat="59.927489" lon="17.6411434">
        <ele>20.8057</ele>
        <time>2014-07-07T18:07:52Z</time>
      </trkpt>
      <trkpt lat="59.9274222" lon="17.6411508">
        <ele>20.8057</ele>
        <time>2014-07-07T18:07:53Z</time>
      </trkpt>
      <trkpt lat="59.9273563" lon="17.6411571">
        <ele>20.8057</ele>
        <time>2014-07-07T18:07:54Z</time>
      </trkpt>
      <trkpt lat="59.9272908" lon="17.6411618">
        <ele>20.8057</ele>
        <time>2014-07-07T18:07:55Z</time>
      </trkpt>
      <trkpt lat="59.9272248" lon="17.6411655">
        <ele>20.8057</ele>
        <time>2014-07-07T18:07:56Z</time>
      </trkpt>
      <trkpt lat="59.9271593" lon="17.64117">
        <ele>20.8057</ele>
        <time>2014-07-07T18:07:57Z</time>
      </trkpt>
      <trkpt lat="59.9270945" lon="17.6411749">
        <ele>20.8057</ele>
        <time>2014-07-07T18:07:58Z</time>
      </trkpt>
      <trkpt lat="59.9270299" lon="17.64118">
        <ele>20.8057</ele>
        <time>2014-07-07T18:07:59Z</time>
      </trkpt>
      <trkpt lat="59.9269652" lon="17.6411871">
        <ele>20.8057</ele>
        <time>2014-07-07T18:08:00Z</time>
      </trkpt>
      <trkpt lat="59.9269002" lon="17.6411972">
        <ele>20.8057</ele>
        <time>2014-07-07T18:08:01Z</time>
      </trkpt>
      <trkpt lat="59.9268351" lon="17.6412075">
        <ele>20.8057</ele>
        <time>2014-07-07T18:08:02Z</time>
      </trkpt>
      <trkpt lat="59.9267695" lon="17.6412169">
        <ele>20.8057</ele>
        <time>2014-07-07T18:08:03Z</time>
      </trkpt>
      <trkpt lat="59.9267047" lon="17.6412262">
        <ele>20.8057</ele>
        <time>2014-07-07T18:08:04Z</time>
      </trkpt>
      <trkpt lat="59.9266408" lon="17.641235">
        <ele>20.8057</ele>
        <time>2014-07-07T18:08:05Z</time>
      </trkpt>
      <trkpt lat="59.9265771" lon="17.6412437">
        <ele>20.8057</ele>
        <time>2014-07-07T18:08:06Z</time>
      </trkpt>
      <trkpt lat="59.9265135" lon="17.6412514">
        <ele>20.8057</ele>
        <time>2014-07-07T18:08:07Z</time>
      </trkpt>
      <trkpt lat="59.9264498" lon="17.6412568">
        <ele>20.8057</ele>
        <time>2014-07-07T18:08:08Z</time>
      </trkpt>
      <trkpt lat="59.9263866" lon="17.6412602">
        <ele>20.8057</ele>
        <time>2014-07-07T18:08:09Z</time>
      </trkpt>
      <trkpt lat="59.9263235" lon="17.6412651">
        <ele>20.8057</ele>
        <time>2014-07-07T18:08:10Z</time>
      </trkpt>
      <trkpt lat="59.9262612" lon="17.6412738">
        <ele>20.8057</ele>
        <time>2014-07-07T18:08:11Z</time>
      </trkpt>
      <trkpt lat="59.9261999" lon="17.6412836">
        <ele>20.8057</ele>
        <time>2014-07-07T18:08:12Z</time>
      </trkpt>
      <trkpt lat="59.9260793" lon="17.6413003">
        <ele>20.8057</ele>
        <time>2014-07-07T18:08:14Z</time>
      </trkpt>
      <trkpt lat="59.9260198" lon="17.6413081">
        <ele>21.2864</ele>
        <time>2014-07-07T18:08:15Z</time>
      </trkpt>
      <trkpt lat="59.9259607" lon="17.6413164">
        <ele>21.2864</ele>
        <time>2014-07-07T18:08:16Z</time>
      </trkpt>
      <trkpt lat="59.9259022" lon="17.6413238">
        <ele>21.2864</ele>
        <time>2014-07-07T18:08:17Z</time>
      </trkpt>
      <trkpt lat="59.9258441" lon="17.6413306">
        <ele>21.2864</ele>
        <time>2014-07-07T18:08:18Z</time>
      </trkpt>
      <trkpt lat="59.9257855" lon="17.6413386">
        <ele>21.2864</ele>
        <time>2014-07-07T18:08:19Z</time>
      </trkpt>
      <trkpt lat="59.9257266" lon="17.6413479">
        <ele>21.2864</ele>
        <time>2014-07-07T18:08:20Z</time>
      </trkpt>
      <trkpt lat="59.9256676" lon="17.6413576">
        <ele>21.767</ele>
        <time>2014-07-07T18:08:21Z</time>
      </trkpt>
      <trkpt lat="59.9256086" lon="17.6413669">
        <ele>21.767</ele>
        <time>2014-07-07T18:08:22Z</time>
      </trkpt>
      <trkpt lat="59.9255498" lon="17.6413754">
        <ele>21.767</ele>
        <time>2014-07-07T18:08:23Z</time>
      </trkpt>
      <trkpt lat="59.9254909" lon="17.6413841">
        <ele>21.767</ele>
        <time>2014-07-07T18:08:24Z</time>
      </trkpt>
      <trkpt lat="59.925432" lon="17.6413917">
        <ele>21.767</ele>
        <time>2014-07-07T18:08:25Z</time>
      </trkpt>
      <trkpt lat="59.9253733" lon="17.6413977">
        <ele>21.767</ele>
        <time>2014-07-07T18:08:26Z</time>
      </trkpt>
      <trkpt lat="59.9253147" lon="17.6414021">
        <ele>22.2476</ele>
        <time>2014-07-07T18:08:27Z</time>
      </trkpt>
      <trkpt lat="59.9252562" lon="17.6414028">
        <ele>22.2476</ele>
        <time>2014-07-07T18:08:28Z</time>
      </trkpt>
      <trkpt lat="59.9251972" lon="17.6414013">
        <ele>22.2476</ele>
        <time>2014-07-07T18:08:29Z</time>
      </trkpt>
      <trkpt lat="59.9251381" lon="17.641401">
        <ele>22.2476</ele>
        <time>2014-07-07T18:08:30Z</time>
      </trkpt>
      <trkpt lat="59.925079" lon="17.6414013">
        <ele>22.2476</ele>
        <time>2014-07-07T18:08:31Z</time>
      </trkpt>
      <trkpt lat="59.9250201" lon="17.6414013">
        <ele>22.2476</ele>
        <time>2014-07-07T18:08:32Z</time>
      </trkpt>
      <trkpt lat="59.9249615" lon="17.6414043">
        <ele>22.2476</ele>
        <time>2014-07-07T18:08:33Z</time>
      </trkpt>
      <trkpt lat="59.9249026" lon="17.64141">
        <ele>22.7283</ele>
        <time>2014-07-07T18:08:34Z</time>
      </trkpt>
      <trkpt lat="59.9248437" lon="17.6414165">
        <ele>22.7283</ele>
        <time>2014-07-07T18:08:35Z</time>
      </trkpt>
      <trkpt lat="59.9247852" lon="17.6414272">
        <ele>22.7283</ele>
        <time>2014-07-07T18:08:36Z</time>
      </trkpt>
      <trkpt lat="59.9247264" lon="17.6414416">
        <ele>22.7283</ele>
        <time>2014-07-07T18:08:37Z</time>
      </trkpt>
      <trkpt lat="59.9246672" lon="17.6414565">
        <ele>22.7283</ele>
        <time>2014-07-07T18:08:38Z</time>
      </trkpt>
      <trkpt lat="59.9246072" lon="17.6414722">
        <ele>22.7283</ele>
        <time>2014-07-07T18:08:39Z</time>
      </trkpt>
      <trkpt lat="59.924547" lon="17.6414872">
        <ele>22.7283</ele>
        <time>2014-07-07T18:08:40Z</time>
      </trkpt>
      <trkpt lat="59.9244863" lon="17.6414992">
        <ele>22.7283</ele>
        <time>2014-07-07T18:08:41Z</time>
      </trkpt>
      <trkpt lat="59.9244253" lon="17.641509">
        <ele>22.7283</ele>
        <time>2014-07-07T18:08:42Z</time>
      </trkpt>
      <trkpt lat="59.9243641" lon="17.6415168">
        <ele>22.7283</ele>
        <time>2014-07-07T18:08:43Z</time>
      </trkpt>
      <trkpt lat="59.9242988" lon="17.64151">
        <ele>22.7283</ele>
        <time>2014-07-07T18:08:44Z</time>
      </trkpt>
      <trkpt lat="59.9242346" lon="17.6415079">
        <ele>22.7283</ele>
        <time>2014-07-07T18:08:45Z</time>
      </trkpt>
      <trkpt lat="59.9241711" lon="17.6415032">
        <ele>22.7283</ele>
        <time>2014-07-07T18:08:46Z</time>
      </trkpt>
      <trkpt lat="59.9241055" lon="17.6414976">
        <ele>23.209</ele>
        <time>2014-07-07T18:08:47Z</time>
      </trkpt>
      <trkpt lat="59.924041" lon="17.6415048">
        <ele>23.209</ele>
        <time>2014-07-07T18:08:48Z</time>
      </trkpt>
      <trkpt lat="59.9239764" lon="17.6415048">
        <ele>23.209</ele>
        <time>2014-07-07T18:08:49Z</time>
      </trkpt>
      <trkpt lat="59.923912" lon="17.6415047">
        <ele>23.209</ele>
        <time>2014-07-07T18:08:50Z</time>
      </trkpt>
      <trkpt lat="59.9238489" lon="17.6415098">
        <ele>23.209</ele>
        <time>2014-07-07T18:08:51Z</time>
      </trkpt>
      <trkpt lat="59.923787" lon="17.6415187">
        <ele>23.209</ele>
        <time>2014-07-07T18:08:52Z</time>
      </trkpt>
      <trkpt lat="59.923725" lon="17.6415271">
        <ele>23.6896</ele>
        <time>2014-07-07T18:08:53Z</time>
      </trkpt>
      <trkpt lat="59.9236639" lon="17.6415338">
        <ele>23.6896</ele>
        <time>2014-07-07T18:08:54Z</time>
      </trkpt>
      <trkpt lat="59.9236083" lon="17.641546">
        <ele>23.6896</ele>
        <time>2014-07-07T18:08:55Z</time>
      </trkpt>
      <trkpt lat="59.9235502" lon="17.6415545">
        <ele>24.1703</ele>
        <time>2014-07-07T18:08:56Z</time>
      </trkpt>
      <trkpt lat="59.923493" lon="17.6415627">
        <ele>24.1703</ele>
        <time>2014-07-07T18:08:57Z</time>
      </trkpt>
      <trkpt lat="59.9234369" lon="17.6415695">
        <ele>24.651</ele>
        <time>2014-07-07T18:08:58Z</time>
      </trkpt>
      <trkpt lat="59.9233811" lon="17.6415778">
        <ele>24.651</ele>
        <time>2014-07-07T18:08:59Z</time>
      </trkpt>
      <trkpt lat="59.9233259" lon="17.6415866">
        <ele>25.1317</ele>
        <time>2014-07-07T18:09:00Z</time>
      </trkpt>
      <trkpt lat="59.9232706" lon="17.641595">
        <ele>25.1317</ele>
        <time>2014-07-07T18:09:01Z</time>
      </trkpt>
      <trkpt lat="59.9232149" lon="17.6416028">
        <ele>25.6123</ele>
        <time>2014-07-07T18:09:02Z</time>
      </trkpt>
      <trkpt lat="59.9231593" lon="17.64161">
        <ele>25.6123</ele>
        <time>2014-07-07T18:09:03Z</time>
      </trkpt>
      <trkpt lat="59.9231039" lon="17.6416175">
        <ele>25.6123</ele>
        <time>2014-07-07T18:09:04Z</time>
      </trkpt>
      <trkpt lat="59.9230486" lon="17.6416229">
        <ele>26.0929</ele>
        <time>2014-07-07T18:09:05Z</time>
      </trkpt>
      <trkpt lat="59.9229936" lon="17.6416272">
        <ele>26.0929</ele>
        <time>2014-07-07T18:09:06Z</time>
      </trkpt>
      <trkpt lat="59.9229391" lon="17.6416316">
        <ele>26.0929</ele>
        <time>2014-07-07T18:09:07Z</time>
      </trkpt>
      <trkpt lat="59.9228847" lon="17.6416348">
        <ele>26.5736</ele>
        <time>2014-07-07T18:09:08Z</time>
      </trkpt>
      <trkpt lat="59.9228309" lon="17.6416385">
        <ele>26.5736</ele>
        <time>2014-07-07T18:09:09Z</time>
      </trkpt>
      <trkpt lat="59.9227777" lon="17.6416411">
        <ele>26.5736</ele>
        <time>2014-07-07T18:09:10Z</time>
      </trkpt>
      <trkpt lat="59.9227237" lon="17.6416474">
        <ele>27.0543</ele>
        <time>2014-07-07T18:09:11Z</time>
      </trkpt>
      <trkpt lat="59.9226699" lon="17.6416549">
        <ele>27.0543</ele>
        <time>2014-07-07T18:09:12Z</time>
      </trkpt>
      <trkpt lat="59.9226158" lon="17.6416634">
        <ele>27.0543</ele>
        <time>2014-07-07T18:09:13Z</time>
      </trkpt>
      <trkpt lat="59.9225609" lon="17.6416727">
        <ele>27.0543</ele>
        <time>2014-07-07T18:09:14Z</time>
      </trkpt>
      <trkpt lat="59.9225054" lon="17.6416821">
        <ele>27.0543</ele>
        <time>2014-07-07T18:09:15Z</time>
      </trkpt>
      <trkpt lat="59.9224492" lon="17.6416928">
        <ele>27.0543</ele>
        <time>2014-07-07T18:09:16Z</time>
      </trkpt>
      <trkpt lat="59.9223926" lon="17.6417027">
        <ele>27.0543</ele>
        <time>2014-07-07T18:09:17Z</time>
      </trkpt>
      <trkpt lat="59.9223353" lon="17.6417118">
        <ele>27.0543</ele>
        <time>2014-07-07T18:09:18Z</time>
      </trkpt>
      <trkpt lat="59.9222782" lon="17.6417218">
        <ele>27.0543</ele>
        <time>2014-07-07T18:09:19Z</time>
      </trkpt>
      <trkpt lat="59.9222207" lon="17.6417312">
        <ele>27.0543</ele>
        <time>2014-07-07T18:09:20Z</time>
      </trkpt>
      <trkpt lat="59.9221632" lon="17.641741">
        <ele>27.0543</ele>
        <time>2014-07-07T18:09:21Z</time>
      </trkpt>
      <trkpt lat="59.9221052" lon="17.6417491">
        <ele>27.0543</ele>
        <time>2014-07-07T18:09:22Z</time>
      </trkpt>
      <trkpt lat="59.9220472" lon="17.6417565">
        <ele>27.0543</ele>
        <time>2014-07-07T18:09:23Z</time>
      </trkpt>
      <trkpt lat="59.9219897" lon="17.6417628">
        <ele>27.0543</ele>
        <time>2014-07-07T18:09:24Z</time>
      </trkpt>
      <trkpt lat="59.9219323" lon="17.6417694">
        <ele>27.0543</ele>
        <time>2014-07-07T18:09:25Z</time>
      </trkpt>
      <trkpt lat="59.9218762" lon="17.6417778">
        <ele>27.0543</ele>
        <time>2014-07-07T18:09:26Z</time>
      </trkpt>
      <trkpt lat="59.9218208" lon="17.6417875">
        <ele>27.0543</ele>
        <time>2014-07-07T18:09:27Z</time>
      </trkpt>
      <trkpt lat="59.9217657" lon="17.6417971">
        <ele>27.0543</ele>
        <time>2014-07-07T18:09:28Z</time>
      </trkpt>
      <trkpt lat="59.9217111" lon="17.6418069">
        <ele>27.5349</ele>
        <time>2014-07-07T18:09:29Z</time>
      </trkpt>
      <trkpt lat="59.921658" lon="17.6418157">
        <ele>27.0543</ele>
        <time>2014-07-07T18:09:30Z</time>
      </trkpt>
      <trkpt lat="59.9216072" lon="17.6418207">
        <ele>27.0543</ele>
        <time>2014-07-07T18:09:31Z</time>
      </trkpt>
      <trkpt lat="59.9215587" lon="17.6418247">
        <ele>27.0543</ele>
        <time>2014-07-07T18:09:32Z</time>
      </trkpt>
      <trkpt lat="59.9215096" lon="17.6418296">
        <ele>26.5736</ele>
        <time>2014-07-07T18:09:33Z</time>
      </trkpt>
      <trkpt lat="59.9214599" lon="17.6418331">
        <ele>26.5736</ele>
        <time>2014-07-07T18:09:34Z</time>
      </trkpt>
      <trkpt lat="59.9214078" lon="17.6418405">
        <ele>26.0929</ele>
        <time>2014-07-07T18:09:35Z</time>
      </trkpt>
      <trkpt lat="59.9213534" lon="17.6418476">
        <ele>25.6123</ele>
        <time>2014-07-07T18:09:36Z</time>
      </trkpt>
      <trkpt lat="59.9212969" lon="17.6418519">
        <ele>25.1317</ele>
        <time>2014-07-07T18:09:37Z</time>
      </trkpt>
      <trkpt lat="59.9212394" lon="17.6418587">
        <ele>24.651</ele>
        <time>2014-07-07T18:09:38Z</time>
      </trkpt>
      <trkpt lat="59.921181" lon="17.6418679">
        <ele>24.1703</ele>
        <time>2014-07-07T18:09:39Z</time>
      </trkpt>
      <trkpt lat="59.9211184" lon="17.6418711">
        <ele>24.1703</ele>
        <time>2014-07-07T18:09:40Z</time>
      </trkpt>
      <trkpt lat="59.9210541" lon="17.6418721">
        <ele>23.6896</ele>
        <time>2014-07-07T18:09:41Z</time>
      </trkpt>
      <trkpt lat="59.9209936" lon="17.6418741">
        <ele>23.6896</ele>
        <time>2014-07-07T18:09:42Z</time>
      </trkpt>
      <trkpt lat="59.9209335" lon="17.6418758">
        <ele>23.6896</ele>
        <time>2014-07-07T18:09:43Z</time>
      </trkpt>
      <trkpt lat="59.9208728" lon="17.6418782">
        <ele>23.6896</ele>
        <time>2014-07-07T18:09:44Z</time>
      </trkpt>
      <trkpt lat="59.920812" lon="17.6418802">
        <ele>23.6896</ele>
        <time>2014-07-07T18:09:45Z</time>
      </trkpt>
      <trkpt lat="59.9207511" lon="17.6418841">
        <ele>23.6896</ele>
        <time>2014-07-07T18:09:46Z</time>
      </trkpt>
      <trkpt lat="59.92069" lon="17.6418853">
        <ele>23.6896</ele>
        <time>2014-07-07T18:09:47Z</time>
      </trkpt>
      <trkpt lat="59.9206287" lon="17.6418851">
        <ele>23.6896</ele>
        <time>2014-07-07T18:09:48Z</time>
      </trkpt>
      <trkpt lat="59.9205672" lon="17.6418881">
        <ele>23.6896</ele>
        <time>2014-07-07T18:09:49Z</time>
      </trkpt>
      <trkpt lat="59.9205061" lon="17.6418917">
        <ele>23.6896</ele>
        <time>2014-07-07T18:09:50Z</time>
      </trkpt>
      <trkpt lat="59.9204458" lon="17.6418939">
        <ele>24.1703</ele>
        <time>2014-07-07T18:09:51Z</time>
      </trkpt>
      <trkpt lat="59.9203859" lon="17.6418958">
        <ele>24.1703</ele>
        <time>2014-07-07T18:09:52Z</time>
      </trkpt>
      <trkpt lat="59.9203259" lon="17.6418983">
        <ele>24.1703</ele>
        <time>2014-07-07T18:09:53Z</time>
      </trkpt>
      <trkpt lat="59.9202663" lon="17.6419026">
        <ele>24.651</ele>
        <time>2014-07-07T18:09:54Z</time>
      </trkpt>
      <trkpt lat="59.920208" lon="17.6419078">
        <ele>24.651</ele>
        <time>2014-07-07T18:09:55Z</time>
      </trkpt>
      <trkpt lat="59.9201498" lon="17.6419119">
        <ele>24.651</ele>
        <time>2014-07-07T18:09:56Z</time>
      </trkpt>
      <trkpt lat="59.9200907" lon="17.6419166">
        <ele>24.651</ele>
        <time>2014-07-07T18:09:57Z</time>
      </trkpt>
      <trkpt lat="59.9200306" lon="17.6419216">
        <ele>24.651</ele>
        <time>2014-07-07T18:09:58Z</time>
      </trkpt>
      <trkpt lat="59.9199699" lon="17.641928">
        <ele>24.651</ele>
        <time>2014-07-07T18:09:59Z</time>
      </trkpt>
      <trkpt lat="59.9199103" lon="17.6419408">
        <ele>24.651</ele>
        <time>2014-07-07T18:10:00Z</time>
      </trkpt>
      <trkpt lat="59.9198513" lon="17.641958">
        <ele>24.651</ele>
        <time>2014-07-07T18:10:01Z</time>
      </trkpt>
      <trkpt lat="59.9197924" lon="17.641977">
        <ele>25.1317</ele>
        <time>2014-07-07T18:10:02Z</time>
      </trkpt>
      <trkpt lat="59.9197335" lon="17.6419963">
        <ele>25.1317</ele>
        <time>2014-07-07T18:10:03Z</time>
      </trkpt>
      <trkpt lat="59.9196742" lon="17.6420118">
        <ele>25.1317</ele>
        <time>2014-07-07T18:10:04Z</time>
      </trkpt>
      <trkpt lat="59.9196144" lon="17.6420213">
        <ele>25.1317</ele>
        <time>2014-07-07T18:10:05Z</time>
      </trkpt>
      <trkpt lat="59.9195541" lon="17.6420283">
        <ele>25.1317</ele>
        <time>2014-07-07T18:10:06Z</time>
      </trkpt>
      <trkpt lat="59.9194935" lon="17.6420351">
        <ele>25.1317</ele>
        <time>2014-07-07T18:10:07Z</time>
      </trkpt>
      <trkpt lat="59.9194327" lon="17.642042">
        <ele>25.1317</ele>
        <time>2014-07-07T18:10:08Z</time>
      </trkpt>
      <trkpt lat="59.9193706" lon="17.6420486">
        <ele>25.1317</ele>
        <time>2014-07-07T18:10:09Z</time>
      </trkpt>
      <trkpt lat="59.9193081" lon="17.6420558">
        <ele>25.6123</ele>
        <time>2014-07-07T18:10:10Z</time>
      </trkpt>
      <trkpt lat="59.9192453" lon="17.6420636">
        <ele>25.6123</ele>
        <time>2014-07-07T18:10:11Z</time>
      </trkpt>
      <trkpt lat="59.9191824" lon="17.642071">
        <ele>25.6123</ele>
        <time>2014-07-07T18:10:12Z</time>
      </trkpt>
      <trkpt lat="59.9191192" lon="17.642078">
        <ele>25.6123</ele>
        <time>2014-07-07T18:10:13Z</time>
      </trkpt>
      <trkpt lat="59.9190556" lon="17.6420853">
        <ele>26.0929</ele>
        <time>2014-07-07T18:10:14Z</time>
      </trkpt>
      <trkpt lat="59.9189914" lon="17.6420927">
        <ele>26.0929</ele>
        <time>2014-07-07T18:10:15Z</time>
      </trkpt>
      <trkpt lat="59.9189267" lon="17.6421005">
        <ele>26.0929</ele>
        <time>2014-07-07T18:10:16Z</time>
      </trkpt>
      <trkpt lat="59.9188612" lon="17.64211">
        <ele>26.0929</ele>
        <time>2014-07-07T18:10:17Z</time>
      </trkpt>
      <trkpt lat="59.9187955" lon="17.6421212">
        <ele>26.0929</ele>
        <time>2014-07-07T18:10:18Z</time>
      </trkpt>
      <trkpt lat="59.9187293" lon="17.6421324">
        <ele>26.0929</ele>
        <time>2014-07-07T18:10:19Z</time>
      </trkpt>
      <trkpt lat="59.9186629" lon="17.6421413">
        <ele>26.0929</ele>
        <time>2014-07-07T18:10:20Z</time>
      </trkpt>
      <trkpt lat="59.918596" lon="17.642148">
        <ele>26.0929</ele>
        <time>2014-07-07T18:10:21Z</time>
      </trkpt>
      <trkpt lat="59.9185287" lon="17.6421545">
        <ele>26.0929</ele>
        <time>2014-07-07T18:10:22Z</time>
      </trkpt>
      <trkpt lat="59.9184608" lon="17.6421631">
        <ele>25.6123</ele>
        <time>2014-07-07T18:10:23Z</time>
      </trkpt>
      <trkpt lat="59.9183916" lon="17.6421715">
        <ele>25.6123</ele>
        <time>2014-07-07T18:10:24Z</time>
      </trkpt>
      <trkpt lat="59.9183217" lon="17.6421782">
        <ele>25.6123</ele>
        <time>2014-07-07T18:10:25Z</time>
      </trkpt>
      <trkpt lat="59.9182512" lon="17.642186">
        <ele>25.1317</ele>
        <time>2014-07-07T18:10:26Z</time>
      </trkpt>
      <trkpt lat="59.9181797" lon="17.6421941">
        <ele>25.1317</ele>
        <time>2014-07-07T18:10:27Z</time>
      </trkpt>
      <trkpt lat="59.918107" lon="17.6421999">
        <ele>24.651</ele>
        <time>2014-07-07T18:10:28Z</time>
      </trkpt>
      <trkpt lat="59.9180336" lon="17.6422063">
        <ele>24.651</ele>
        <time>2014-07-07T18:10:29Z</time>
      </trkpt>
      <trkpt lat="59.9179597" lon="17.6422164">
        <ele>24.651</ele>
        <time>2014-07-07T18:10:30Z</time>
      </trkpt>
      <trkpt lat="59.9178863" lon="17.6422263">
        <ele>24.1703</ele>
        <time>2014-07-07T18:10:31Z</time>
      </trkpt>
      <trkpt lat="59.9178139" lon="17.6422324">
        <ele>24.1703</ele>
        <time>2014-07-07T18:10:32Z</time>
      </trkpt>
      <trkpt lat="59.9177426" lon="17.6422368">
        <ele>24.1703</ele>
        <time>2014-07-07T18:10:33Z</time>
      </trkpt>
      <trkpt lat="59.9176726" lon="17.6422397">
        <ele>24.1703</ele>
        <time>2014-07-07T18:10:34Z</time>
      </trkpt>
      <trkpt lat="59.9176036" lon="17.6422389">
        <ele>24.1703</ele>
        <time>2014-07-07T18:10:35Z</time>
      </trkpt>
      <trkpt lat="59.9175363" lon="17.64224">
        <ele>24.1703</ele>
        <time>2014-07-07T18:10:36Z</time>
      </trkpt>
      <trkpt lat="59.9174702" lon="17.6422434">
        <ele>23.6896</ele>
        <time>2014-07-07T18:10:37Z</time>
      </trkpt>
      <trkpt lat="59.9174038" lon="17.6422459">
        <ele>23.6896</ele>
        <time>2014-07-07T18:10:38Z</time>
      </trkpt>
      <trkpt lat="59.917338" lon="17.6422478">
        <ele>23.6896</ele>
        <time>2014-07-07T18:10:39Z</time>
      </trkpt>
      <trkpt lat="59.9172728" lon="17.6422464">
        <ele>23.6896</ele>
        <time>2014-07-07T18:10:40Z</time>
      </trkpt>
      <trkpt lat="59.9172084" lon="17.6422451">
        <ele>23.6896</ele>
        <time>2014-07-07T18:10:41Z</time>
      </trkpt>
      <trkpt lat="59.9171458" lon="17.6422539">
        <ele>23.6896</ele>
        <time>2014-07-07T18:10:42Z</time>
      </trkpt>
      <trkpt lat="59.9170853" lon="17.6422731">
        <ele>24.1703</ele>
        <time>2014-07-07T18:10:43Z</time>
      </trkpt>
      <trkpt lat="59.9170272" lon="17.6422963">
        <ele>24.1703</ele>
        <time>2014-07-07T18:10:44Z</time>
      </trkpt>
      <trkpt lat="59.9169706" lon="17.6423202">
        <ele>24.1703</ele>
        <time>2014-07-07T18:10:45Z</time>
      </trkpt>
      <trkpt lat="59.9169142" lon="17.6423394">
        <ele>24.1703</ele>
        <time>2014-07-07T18:10:46Z</time>
      </trkpt>
      <trkpt lat="59.9168588" lon="17.6423481">
        <ele>24.651</ele>
        <time>2014-07-07T18:10:47Z</time>
      </trkpt>
      <trkpt lat="59.916805" lon="17.6423487">
        <ele>24.651</ele>
        <time>2014-07-07T18:10:48Z</time>
      </trkpt>
      <trkpt lat="59.9167535" lon="17.6423492">
        <ele>24.651</ele>
        <time>2014-07-07T18:10:49Z</time>
      </trkpt>
      <trkpt lat="59.9167047" lon="17.6423532">
        <ele>24.651</ele>
        <time>2014-07-07T18:10:50Z</time>
      </trkpt>
      <trkpt lat="59.9166594" lon="17.6423614">
        <ele>25.1317</ele>
        <time>2014-07-07T18:10:51Z</time>
      </trkpt>
      <trkpt lat="59.9166175" lon="17.6423683">
        <ele>25.1317</ele>
        <time>2014-07-07T18:10:52Z</time>
      </trkpt>
      <trkpt lat="59.9165841" lon="17.6423912">
        <ele>25.1317</ele>
        <time>2014-07-07T18:10:53Z</time>
      </trkpt>
      <trkpt lat="59.9165615" lon="17.6424422">
        <ele>25.1317</ele>
        <time>2014-07-07T18:10:54Z</time>
      </trkpt>
      <trkpt lat="59.9165405" lon="17.6424966">
        <ele>25.6123</ele>
        <time>2014-07-07T18:10:55Z</time>
      </trkpt>
      <trkpt lat="59.9165103" lon="17.6425339">
        <ele>25.6123</ele>
        <time>2014-07-07T18:10:56Z</time>
      </trkpt>
      <trkpt lat="59.9164714" lon="17.6425521">
        <ele>25.6123</ele>
        <time>2014-07-07T18:10:57Z</time>
      </trkpt>
      <trkpt lat="59.9164276" lon="17.6425598">
        <ele>25.6123</ele>
        <time>2014-07-07T18:10:58Z</time>
      </trkpt>
      <trkpt lat="59.9163803" lon="17.6425631">
        <ele>25.6123</ele>
        <time>2014-07-07T18:10:59Z</time>
      </trkpt>
      <trkpt lat="59.9163307" lon="17.6425668">
        <ele>25.6123</ele>
        <time>2014-07-07T18:11:00Z</time>
      </trkpt>
      <trkpt lat="59.9162786" lon="17.6425722">
        <ele>25.6123</ele>
        <time>2014-07-07T18:11:01Z</time>
      </trkpt>
      <trkpt lat="59.9162249" lon="17.6425777">
        <ele>25.6123</ele>
        <time>2014-07-07T18:11:02Z</time>
      </trkpt>
      <trkpt lat="59.9161701" lon="17.6425843">
        <ele>25.6123</ele>
        <time>2014-07-07T18:11:03Z</time>
      </trkpt>
      <trkpt lat="59.9161144" lon="17.6425931">
        <ele>25.6123</ele>
        <time>2014-07-07T18:11:04Z</time>
      </trkpt>
      <trkpt lat="59.9160581" lon="17.6426026">
        <ele>25.6123</ele>
        <time>2014-07-07T18:11:05Z</time>
      </trkpt>
      <trkpt lat="59.916001" lon="17.6426109">
        <ele>25.6123</ele>
        <time>2014-07-07T18:11:06Z</time>
      </trkpt>
      <trkpt lat="59.915943" lon="17.6426199">
        <ele>25.6123</ele>
        <time>2014-07-07T18:11:07Z</time>
      </trkpt>
      <trkpt lat="59.9158844" lon="17.6426305">
        <ele>25.6123</ele>
        <time>2014-07-07T18:11:08Z</time>
      </trkpt>
      <trkpt lat="59.9158248" lon="17.6426404">
        <ele>25.6123</ele>
        <time>2014-07-07T18:11:09Z</time>
      </trkpt>
      <trkpt lat="59.9157645" lon="17.6426496">
        <ele>25.6123</ele>
        <time>2014-07-07T18:11:10Z</time>
      </trkpt>
      <trkpt lat="59.9157035" lon="17.6426583">
        <ele>25.6123</ele>
        <time>2014-07-07T18:11:11Z</time>
      </trkpt>
      <trkpt lat="59.915642" lon="17.6426671">
        <ele>25.6123</ele>
        <time>2014-07-07T18:11:12Z</time>
      </trkpt>
      <trkpt lat="59.9155808" lon="17.6426776">
        <ele>26.0929</ele>
        <time>2014-07-07T18:11:13Z</time>
      </trkpt>
      <trkpt lat="59.9155196" lon="17.6426885">
        <ele>26.0929</ele>
        <time>2014-07-07T18:11:14Z</time>
      </trkpt>
      <trkpt lat="59.9154591" lon="17.6426984">
        <ele>26.0929</ele>
        <time>2014-07-07T18:11:15Z</time>
      </trkpt>
      <trkpt lat="59.9153966" lon="17.6427036">
        <ele>26.0929</ele>
        <time>2014-07-07T18:11:16Z</time>
      </trkpt>
      <trkpt lat="59.9153363" lon="17.6427117">
        <ele>26.0929</ele>
        <time>2014-07-07T18:11:17Z</time>
      </trkpt>
      <trkpt lat="59.9152773" lon="17.642718">
        <ele>26.0929</ele>
        <time>2014-07-07T18:11:18Z</time>
      </trkpt>
      <trkpt lat="59.9152145" lon="17.6427256">
        <ele>26.0929</ele>
        <time>2014-07-07T18:11:19Z</time>
      </trkpt>
      <trkpt lat="59.9151551" lon="17.6427362">
        <ele>26.0929</ele>
        <time>2014-07-07T18:11:20Z</time>
      </trkpt>
      <trkpt lat="59.9150954" lon="17.6427438">
        <ele>26.0929</ele>
        <time>2014-07-07T18:11:21Z</time>
      </trkpt>
      <trkpt lat="59.9150386" lon="17.6427532">
        <ele>26.0929</ele>
        <time>2014-07-07T18:11:22Z</time>
      </trkpt>
      <trkpt lat="59.9149753" lon="17.642754">
        <ele>26.0929</ele>
        <time>2014-07-07T18:11:23Z</time>
      </trkpt>
      <trkpt lat="59.9149207" lon="17.6427433">
        <ele>25.6123</ele>
        <time>2014-07-07T18:11:24Z</time>
      </trkpt>
      <trkpt lat="59.9148663" lon="17.6427351">
        <ele>25.6123</ele>
        <time>2014-07-07T18:11:25Z</time>
      </trkpt>
      <trkpt lat="59.9148114" lon="17.6427334">
        <ele>26.0929</ele>
        <time>2014-07-07T18:11:26Z</time>
      </trkpt>
      <trkpt lat="59.9147561" lon="17.6427346">
        <ele>25.6123</ele>
        <time>2014-07-07T18:11:27Z</time>
      </trkpt>
      <trkpt lat="59.9147006" lon="17.6427387">
        <ele>26.0929</ele>
        <time>2014-07-07T18:11:28Z</time>
      </trkpt>
      <trkpt lat="59.9146452" lon="17.6427464">
        <ele>26.0929</ele>
        <time>2014-07-07T18:11:29Z</time>
      </trkpt>
      <trkpt lat="59.9145897" lon="17.6427574">
        <ele>26.0929</ele>
        <time>2014-07-07T18:11:30Z</time>
      </trkpt>
      <trkpt lat="59.9145341" lon="17.6427693">
        <ele>26.0929</ele>
        <time>2014-07-07T18:11:31Z</time>
      </trkpt>
      <trkpt lat="59.9144786" lon="17.6427794">
        <ele>26.0929</ele>
        <time>2014-07-07T18:11:32Z</time>
      </trkpt>
      <trkpt lat="59.9144222" lon="17.6427869">
        <ele>26.0929</ele>
        <time>2014-07-07T18:11:33Z</time>
      </trkpt>
      <trkpt lat="59.9143676" lon="17.6427947">
        <ele>26.5736</ele>
        <time>2014-07-07T18:11:34Z</time>
      </trkpt>
      <trkpt lat="59.9143132" lon="17.642805">
        <ele>26.5736</ele>
        <time>2014-07-07T18:11:35Z</time>
      </trkpt>
      <trkpt lat="59.9142589" lon="17.6428167">
        <ele>26.5736</ele>
        <time>2014-07-07T18:11:36Z</time>
      </trkpt>
      <trkpt lat="59.914205" lon="17.6428294">
        <ele>26.5736</ele>
        <time>2014-07-07T18:11:37Z</time>
      </trkpt>
      <trkpt lat="59.9141517" lon="17.6428413">
        <ele>26.5736</ele>
        <time>2014-07-07T18:11:38Z</time>
      </trkpt>
      <trkpt lat="59.9140976" lon="17.6428542">
        <ele>26.5736</ele>
        <time>2014-07-07T18:11:39Z</time>
      </trkpt>
      <trkpt lat="59.914043" lon="17.6428672">
        <ele>26.5736</ele>
        <time>2014-07-07T18:11:40Z</time>
      </trkpt>
      <trkpt lat="59.913988" lon="17.6428739">
        <ele>26.5736</ele>
        <time>2014-07-07T18:11:41Z</time>
      </trkpt>
      <trkpt lat="59.913931" lon="17.6428784">
        <ele>26.5736</ele>
        <time>2014-07-07T18:11:42Z</time>
      </trkpt>
      <trkpt lat="59.9138725" lon="17.6428843">
        <ele>26.5736</ele>
        <time>2014-07-07T18:11:43Z</time>
      </trkpt>
      <trkpt lat="59.9138144" lon="17.6428936">
        <ele>26.5736</ele>
        <time>2014-07-07T18:11:44Z</time>
      </trkpt>
      <trkpt lat="59.9137574" lon="17.6429063">
        <ele>26.5736</ele>
        <time>2014-07-07T18:11:45Z</time>
      </trkpt>
      <trkpt lat="59.9137018" lon="17.6429194">
        <ele>26.5736</ele>
        <time>2014-07-07T18:11:46Z</time>
      </trkpt>
      <trkpt lat="59.9136466" lon="17.6429305">
        <ele>26.5736</ele>
        <time>2014-07-07T18:11:47Z</time>
      </trkpt>
      <trkpt lat="59.9135917" lon="17.6429414">
        <ele>26.5736</ele>
        <time>2014-07-07T18:11:48Z</time>
      </trkpt>
      <trkpt lat="59.9135347" lon="17.6429527">
        <ele>27.0543</ele>
        <time>2014-07-07T18:11:49Z</time>
      </trkpt>
      <trkpt lat="59.913477" lon="17.6429654">
        <ele>27.0543</ele>
        <time>2014-07-07T18:11:50Z</time>
      </trkpt>
      <trkpt lat="59.9134192" lon="17.6429749">
        <ele>27.0543</ele>
        <time>2014-07-07T18:11:51Z</time>
      </trkpt>
      <trkpt lat="59.9133617" lon="17.6429853">
        <ele>27.0543</ele>
        <time>2014-07-07T18:11:52Z</time>
      </trkpt>
      <trkpt lat="59.9132975" lon="17.6430147">
        <ele>27.0543</ele>
        <time>2014-07-07T18:11:53Z</time>
      </trkpt>
      <trkpt lat="59.9132358" lon="17.6430304">
        <ele>27.0543</ele>
        <time>2014-07-07T18:11:54Z</time>
      </trkpt>
      <trkpt lat="59.9131704" lon="17.643041">
        <ele>26.5736</ele>
        <time>2014-07-07T18:11:55Z</time>
      </trkpt>
      <trkpt lat="59.9131057" lon="17.6430459">
        <ele>27.0543</ele>
        <time>2014-07-07T18:11:56Z</time>
      </trkpt>
      <trkpt lat="59.9130426" lon="17.6430584">
        <ele>27.0543</ele>
        <time>2014-07-07T18:11:57Z</time>
      </trkpt>
      <trkpt lat="59.9129794" lon="17.6430655">
        <ele>27.0543</ele>
        <time>2014-07-07T18:11:58Z</time>
      </trkpt>
      <trkpt lat="59.9129178" lon="17.6430752">
        <ele>27.0543</ele>
        <time>2014-07-07T18:11:59Z</time>
      </trkpt>
      <trkpt lat="59.9128571" lon="17.6430807">
        <ele>26.5736</ele>
        <time>2014-07-07T18:12:00Z</time>
      </trkpt>
      <trkpt lat="59.912795" lon="17.6430841">
        <ele>26.5736</ele>
        <time>2014-07-07T18:12:01Z</time>
      </trkpt>
      <trkpt lat="59.9127373" lon="17.6430935">
        <ele>26.5736</ele>
        <time>2014-07-07T18:12:02Z</time>
      </trkpt>
      <trkpt lat="59.9126722" lon="17.6430761">
        <ele>26.0929</ele>
        <time>2014-07-07T18:12:03Z</time>
      </trkpt>
      <trkpt lat="59.912604" lon="17.6430463">
        <ele>25.6123</ele>
        <time>2014-07-07T18:12:04Z</time>
      </trkpt>
      <trkpt lat="59.9125309" lon="17.6430252">
        <ele>25.6123</ele>
        <time>2014-07-07T18:12:05Z</time>
      </trkpt>
      <trkpt lat="59.9124605" lon="17.643051">
        <ele>25.1317</ele>
        <time>2014-07-07T18:12:06Z</time>
      </trkpt>
      <trkpt lat="59.9123905" lon="17.6430541">
        <ele>25.1317</ele>
        <time>2014-07-07T18:12:07Z</time>
      </trkpt>
      <trkpt lat="59.9123219" lon="17.6430579">
        <ele>25.1317</ele>
        <time>2014-07-07T18:12:08Z</time>
      </trkpt>
      <trkpt lat="59.9122566" lon="17.6430722">
        <ele>25.1317</ele>
        <time>2014-07-07T18:12:09Z</time>
      </trkpt>
      <trkpt lat="59.9121865" lon="17.6430868">
        <ele>25.6123</ele>
        <time>2014-07-07T18:12:10Z</time>
      </trkpt>
      <trkpt lat="59.9121194" lon="17.6431068">
        <ele>25.6123</ele>
        <time>2014-07-07T18:12:11Z</time>
      </trkpt>
      <trkpt lat="59.9120584" lon="17.6431267">
        <ele>25.6123</ele>
        <time>2014-07-07T18:12:12Z</time>
      </trkpt>
      <trkpt lat="59.9120012" lon="17.6431415">
        <ele>25.6123</ele>
        <time>2014-07-07T18:12:13Z</time>
      </trkpt>
      <trkpt lat="59.911939" lon="17.6431526">
        <ele>25.6123</ele>
        <time>2014-07-07T18:12:14Z</time>
      </trkpt>
      <trkpt lat="59.9118816" lon="17.6431692">
        <ele>25.6123</ele>
        <time>2014-07-07T18:12:15Z</time>
      </trkpt>
      <trkpt lat="59.9118217" lon="17.6431827">
        <ele>26.0929</ele>
        <time>2014-07-07T18:12:16Z</time>
      </trkpt>
      <trkpt lat="59.9117625" lon="17.6431977">
        <ele>26.0929</ele>
        <time>2014-07-07T18:12:17Z</time>
      </trkpt>
      <trkpt lat="59.9117026" lon="17.6432096">
        <ele>25.6123</ele>
        <time>2014-07-07T18:12:18Z</time>
      </trkpt>
      <trkpt lat="59.911642" lon="17.6432215">
        <ele>25.6123</ele>
        <time>2014-07-07T18:12:19Z</time>
      </trkpt>
      <trkpt lat="59.9115802" lon="17.6432329">
        <ele>25.6123</ele>
        <time>2014-07-07T18:12:20Z</time>
      </trkpt>
      <trkpt lat="59.9115181" lon="17.6432426">
        <ele>26.0929</ele>
        <time>2014-07-07T18:12:21Z</time>
      </trkpt>
      <trkpt lat="59.9114568" lon="17.6432525">
        <ele>26.0929</ele>
        <time>2014-07-07T18:12:22Z</time>
      </trkpt>
      <trkpt lat="59.9113959" lon="17.6432648">
        <ele>26.0929</ele>
        <time>2014-07-07T18:12:23Z</time>
      </trkpt>
      <trkpt lat="59.9113354" lon="17.6432803">
        <ele>26.0929</ele>
        <time>2014-07-07T18:12:24Z</time>
      </trkpt>
      <trkpt lat="59.9112751" lon="17.6432974">
        <ele>26.0929</ele>
        <time>2014-07-07T18:12:25Z</time>
      </trkpt>
      <trkpt lat="59.9112144" lon="17.6433132">
        <ele>26.0929</ele>
        <time>2014-07-07T18:12:26Z</time>
      </trkpt>
      <trkpt lat="59.9111532" lon="17.6433272">
        <ele>26.0929</ele>
        <time>2014-07-07T18:12:27Z</time>
      </trkpt>
      <trkpt lat="59.9110903" lon="17.64334">
        <ele>26.0929</ele>
        <time>2014-07-07T18:12:28Z</time>
      </trkpt>
      <trkpt lat="59.9110266" lon="17.6433531">
        <ele>26.0929</ele>
        <time>2014-07-07T18:12:29Z</time>
      </trkpt>
      <trkpt lat="59.9109617" lon="17.6433653">
        <ele>25.6123</ele>
        <time>2014-07-07T18:12:30Z</time>
      </trkpt>
      <trkpt lat="59.9108954" lon="17.6433765">
        <ele>25.6123</ele>
        <time>2014-07-07T18:12:31Z</time>
      </trkpt>
      <trkpt lat="59.910828" lon="17.6433878">
        <ele>25.6123</ele>
        <time>2014-07-07T18:12:32Z</time>
      </trkpt>
      <trkpt lat="59.9107597" lon="17.6434014">
        <ele>25.1317</ele>
        <time>2014-07-07T18:12:33Z</time>
      </trkpt>
      <trkpt lat="59.9106904" lon="17.6434173">
        <ele>25.1317</ele>
        <time>2014-07-07T18:12:34Z</time>
      </trkpt>
      <trkpt lat="59.910621" lon="17.6434353">
        <ele>25.1317</ele>
        <time>2014-07-07T18:12:35Z</time>
      </trkpt>
      <trkpt lat="59.910553" lon="17.6434608">
        <ele>25.6123</ele>
        <time>2014-07-07T18:12:36Z</time>
      </trkpt>
      <trkpt lat="59.9104868" lon="17.6434964">
        <ele>25.6123</ele>
        <time>2014-07-07T18:12:37Z</time>
      </trkpt>
      <trkpt lat="59.9104218" lon="17.6435328">
        <ele>25.6123</ele>
        <time>2014-07-07T18:12:38Z</time>
      </trkpt>
      <trkpt lat="59.9103552" lon="17.6435587">
        <ele>25.6123</ele>
        <time>2014-07-07T18:12:39Z</time>
      </trkpt>
      <trkpt lat="59.9102888" lon="17.6435722">
        <ele>25.6123</ele>
        <time>2014-07-07T18:12:40Z</time>
      </trkpt>
      <trkpt lat="59.9102219" lon="17.6435826">
        <ele>25.6123</ele>
        <time>2014-07-07T18:12:41Z</time>
      </trkpt>
      <trkpt lat="59.9101545" lon="17.643591">
        <ele>25.6123</ele>
        <time>2014-07-07T18:12:42Z</time>
      </trkpt>
      <trkpt lat="59.910082" lon="17.643587">
        <ele>25.6123</ele>
        <time>2014-07-07T18:12:43Z</time>
      </trkpt>
      <trkpt lat="59.9100101" lon="17.6435723">
        <ele>25.1317</ele>
        <time>2014-07-07T18:12:44Z</time>
      </trkpt>
      <trkpt lat="59.9099376" lon="17.6435423">
        <ele>24.651</ele>
        <time>2014-07-07T18:12:45Z</time>
      </trkpt>
      <trkpt lat="59.9098629" lon="17.643516">
        <ele>24.651</ele>
        <time>2014-07-07T18:12:46Z</time>
      </trkpt>
      <trkpt lat="59.9097867" lon="17.6435028">
        <ele>24.651</ele>
        <time>2014-07-07T18:12:47Z</time>
      </trkpt>
      <trkpt lat="59.9097111" lon="17.643506">
        <ele>24.1703</ele>
        <time>2014-07-07T18:12:48Z</time>
      </trkpt>
      <trkpt lat="59.9096352" lon="17.6435202">
        <ele>24.1703</ele>
        <time>2014-07-07T18:12:49Z</time>
      </trkpt>
      <trkpt lat="59.9095599" lon="17.643539">
        <ele>24.1703</ele>
        <time>2014-07-07T18:12:50Z</time>
      </trkpt>
      <trkpt lat="59.9094844" lon="17.6435587">
        <ele>24.1703</ele>
        <time>2014-07-07T18:12:51Z</time>
      </trkpt>
      <trkpt lat="59.9094088" lon="17.6435767">
        <ele>24.1703</ele>
        <time>2014-07-07T18:12:52Z</time>
      </trkpt>
      <trkpt lat="59.9093333" lon="17.6435933">
        <ele>24.1703</ele>
        <time>2014-07-07T18:12:53Z</time>
      </trkpt>
      <trkpt lat="59.9092583" lon="17.6436069">
        <ele>24.1703</ele>
        <time>2014-07-07T18:12:54Z</time>
      </trkpt>
      <trkpt lat="59.9091834" lon="17.6436188">
        <ele>24.651</ele>
        <time>2014-07-07T18:12:55Z</time>
      </trkpt>
      <trkpt lat="59.9091094" lon="17.6436302">
        <ele>24.651</ele>
        <time>2014-07-07T18:12:56Z</time>
      </trkpt>
      <trkpt lat="59.9090356" lon="17.6436406">
        <ele>24.651</ele>
        <time>2014-07-07T18:12:57Z</time>
      </trkpt>
      <trkpt lat="59.9089602" lon="17.6436493">
        <ele>24.651</ele>
        <time>2014-07-07T18:12:58Z</time>
      </trkpt>
      <trkpt lat="59.9088813" lon="17.6436535">
        <ele>24.651</ele>
        <time>2014-07-07T18:12:59Z</time>
      </trkpt>
      <trkpt lat="59.9088054" lon="17.6436627">
        <ele>24.651</ele>
        <time>2014-07-07T18:13:00Z</time>
      </trkpt>
      <trkpt lat="59.9087328" lon="17.6436712">
        <ele>24.651</ele>
        <time>2014-07-07T18:13:01Z</time>
      </trkpt>
      <trkpt lat="59.9086628" lon="17.6436784">
        <ele>24.651</ele>
        <time>2014-07-07T18:13:02Z</time>
      </trkpt>
      <trkpt lat="59.908596" lon="17.643682">
        <ele>25.1317</ele>
        <time>2014-07-07T18:13:03Z</time>
      </trkpt>
      <trkpt lat="59.9085327" lon="17.6436779">
        <ele>25.1317</ele>
        <time>2014-07-07T18:13:04Z</time>
      </trkpt>
      <trkpt lat="59.908472" lon="17.6436737">
        <ele>25.1317</ele>
        <time>2014-07-07T18:13:05Z</time>
      </trkpt>
      <trkpt lat="59.9084146" lon="17.6436727">
        <ele>25.1317</ele>
        <time>2014-07-07T18:13:06Z</time>
      </trkpt>
      <trkpt lat="59.9083619" lon="17.6436775">
        <ele>25.1317</ele>
        <time>2014-07-07T18:13:07Z</time>
      </trkpt>
      <trkpt lat="59.9083151" lon="17.6437043">
        <ele>25.6123</ele>
        <time>2014-07-07T18:13:08Z</time>
      </trkpt>
      <trkpt lat="59.9082716" lon="17.6437462">
        <ele>25.6123</ele>
        <time>2014-07-07T18:13:09Z</time>
      </trkpt>
      <trkpt lat="59.908225" lon="17.6437803">
        <ele>25.6123</ele>
        <time>2014-07-07T18:13:10Z</time>
      </trkpt>
      <trkpt lat="59.9081731" lon="17.6437923">
        <ele>26.0929</ele>
        <time>2014-07-07T18:13:11Z</time>
      </trkpt>
      <trkpt lat="59.9081175" lon="17.6437901">
        <ele>26.0929</ele>
        <time>2014-07-07T18:13:12Z</time>
      </trkpt>
      <trkpt lat="59.9080588" lon="17.6437859">
        <ele>26.0929</ele>
        <time>2014-07-07T18:13:13Z</time>
      </trkpt>
      <trkpt lat="59.9079961" lon="17.6437804">
        <ele>26.0929</ele>
        <time>2014-07-07T18:13:14Z</time>
      </trkpt>
      <trkpt lat="59.9079315" lon="17.6437746">
        <ele>26.0929</ele>
        <time>2014-07-07T18:13:15Z</time>
      </trkpt>
      <trkpt lat="59.907866" lon="17.6437686">
        <ele>26.0929</ele>
        <time>2014-07-07T18:13:16Z</time>
      </trkpt>
      <trkpt lat="59.9077989" lon="17.6437609">
        <ele>26.0929</ele>
        <time>2014-07-07T18:13:17Z</time>
      </trkpt>
      <trkpt lat="59.9077302" lon="17.6437507">
        <ele>25.6123</ele>
        <time>2014-07-07T18:13:18Z</time>
      </trkpt>
      <trkpt lat="59.9076603" lon="17.643738">
        <ele>25.6123</ele>
        <time>2014-07-07T18:13:19Z</time>
      </trkpt>
      <trkpt lat="59.9075899" lon="17.6437264">
        <ele>25.6123</ele>
        <time>2014-07-07T18:13:20Z</time>
      </trkpt>
      <trkpt lat="59.9075191" lon="17.6437155">
        <ele>25.6123</ele>
        <time>2014-07-07T18:13:21Z</time>
      </trkpt>
      <trkpt lat="59.9074482" lon="17.6437028">
        <ele>25.6123</ele>
        <time>2014-07-07T18:13:22Z</time>
      </trkpt>
      <trkpt lat="59.9073767" lon="17.6436888">
        <ele>25.6123</ele>
        <time>2014-07-07T18:13:23Z</time>
      </trkpt>
      <trkpt lat="59.9073046" lon="17.6436744">
        <ele>25.1317</ele>
        <time>2014-07-07T18:13:24Z</time>
      </trkpt>
      <trkpt lat="59.9072316" lon="17.6436591">
        <ele>25.1317</ele>
        <time>2014-07-07T18:13:25Z</time>
      </trkpt>
      <trkpt lat="59.9071581" lon="17.6436416">
        <ele>25.1317</ele>
        <time>2014-07-07T18:13:26Z</time>
      </trkpt>
      <trkpt lat="59.9070841" lon="17.643622">
        <ele>25.1317</ele>
        <time>2014-07-07T18:13:27Z</time>
      </trkpt>
      <trkpt lat="59.9070094" lon="17.6436016">
        <ele>25.1317</ele>
        <time>2014-07-07T18:13:28Z</time>
      </trkpt>
      <trkpt lat="59.9069338" lon="17.643582">
        <ele>24.651</ele>
        <time>2014-07-07T18:13:29Z</time>
      </trkpt>
      <trkpt lat="59.9068576" lon="17.6435623">
        <ele>24.651</ele>
        <time>2014-07-07T18:13:30Z</time>
      </trkpt>
      <trkpt lat="59.9067809" lon="17.6435417">
        <ele>24.651</ele>
        <time>2014-07-07T18:13:31Z</time>
      </trkpt>
      <trkpt lat="59.9067033" lon="17.6435214">
        <ele>24.651</ele>
        <time>2014-07-07T18:13:32Z</time>
      </trkpt>
      <trkpt lat="59.9066255" lon="17.6435006">
        <ele>24.1703</ele>
        <time>2014-07-07T18:13:33Z</time>
      </trkpt>
      <trkpt lat="59.9065483" lon="17.6434783">
        <ele>24.1703</ele>
        <time>2014-07-07T18:13:34Z</time>
      </trkpt>
      <trkpt lat="59.906472" lon="17.6434526">
        <ele>24.1703</ele>
        <time>2014-07-07T18:13:35Z</time>
      </trkpt>
      <trkpt lat="59.9063963" lon="17.6434255">
        <ele>24.1703</ele>
        <time>2014-07-07T18:13:36Z</time>
      </trkpt>
      <trkpt lat="59.9063212" lon="17.6433977">
        <ele>24.1703</ele>
        <time>2014-07-07T18:13:37Z</time>
      </trkpt>
      <trkpt lat="59.9062461" lon="17.6433676">
        <ele>23.6896</ele>
        <time>2014-07-07T18:13:38Z</time>
      </trkpt>
      <trkpt lat="59.9061715" lon="17.6433366">
        <ele>23.6896</ele>
        <time>2014-07-07T18:13:39Z</time>
      </trkpt>
      <trkpt lat="59.906097" lon="17.643306">
        <ele>23.6896</ele>
        <time>2014-07-07T18:13:40Z</time>
      </trkpt>
      <trkpt lat="59.9060235" lon="17.643275">
        <ele>23.6896</ele>
        <time>2014-07-07T18:13:41Z</time>
      </trkpt>
      <trkpt lat="59.9059521" lon="17.64324">
        <ele>23.209</ele>
        <time>2014-07-07T18:13:42Z</time>
      </trkpt>
      <trkpt lat="59.905882" lon="17.6432013">
        <ele>23.209</ele>
        <time>2014-07-07T18:13:43Z</time>
      </trkpt>
      <trkpt lat="59.9058127" lon="17.6431687">
        <ele>23.209</ele>
        <time>2014-07-07T18:13:44Z</time>
      </trkpt>
      <trkpt lat="59.9057462" lon="17.6431424">
        <ele>23.209</ele>
        <time>2014-07-07T18:13:45Z</time>
      </trkpt>
      <trkpt lat="59.9056828" lon="17.6431132">
        <ele>23.209</ele>
        <time>2014-07-07T18:13:46Z</time>
      </trkpt>
      <trkpt lat="59.9056202" lon="17.6430822">
        <ele>23.209</ele>
        <time>2014-07-07T18:13:47Z</time>
      </trkpt>
      <trkpt lat="59.9055585" lon="17.6430579">
        <ele>23.209</ele>
        <time>2014-07-07T18:13:48Z</time>
      </trkpt>
      <trkpt lat="59.9055014" lon="17.6430298">
        <ele>23.209</ele>
        <time>2014-07-07T18:13:49Z</time>
      </trkpt>
      <trkpt lat="59.905451" lon="17.6429804">
        <ele>22.7283</ele>
        <time>2014-07-07T18:13:50Z</time>
      </trkpt>
      <trkpt lat="59.9054019" lon="17.6429315">
        <ele>23.209</ele>
        <time>2014-07-07T18:13:51Z</time>
      </trkpt>
      <trkpt lat="59.9053508" lon="17.6429006">
        <ele>22.7283</ele>
        <time>2014-07-07T18:13:52Z</time>
      </trkpt>
      <trkpt lat="59.905298" lon="17.6428792">
        <ele>22.7283</ele>
        <time>2014-07-07T18:13:53Z</time>
      </trkpt>
      <trkpt lat="59.9052423" lon="17.6428604">
        <ele>22.7283</ele>
        <time>2014-07-07T18:13:54Z</time>
      </trkpt>
      <trkpt lat="59.905186" lon="17.6428395">
        <ele>22.7283</ele>
        <time>2014-07-07T18:13:55Z</time>
      </trkpt>
      <trkpt lat="59.905131" lon="17.6428159">
        <ele>22.7283</ele>
        <time>2014-07-07T18:13:56Z</time>
      </trkpt>
      <trkpt lat="59.9050772" lon="17.6427769">
        <ele>22.7283</ele>
        <time>2014-07-07T18:13:57Z</time>
      </trkpt>
      <trkpt lat="59.9050238" lon="17.6427478">
        <ele>22.2476</ele>
        <time>2014-07-07T18:13:58Z</time>
      </trkpt>
      <trkpt lat="59.9049735" lon="17.6427216">
        <ele>22.2476</ele>
        <time>2014-07-07T18:13:59Z</time>
      </trkpt>
      <trkpt lat="59.9049207" lon="17.6426967">
        <ele>22.2476</ele>
        <time>2014-07-07T18:14:00Z</time>
      </trkpt>
      <trkpt lat="59.9048689" lon="17.6426707">
        <ele>21.767</ele>
        <time>2014-07-07T18:14:01Z</time>
      </trkpt>
      <trkpt lat="59.9048171" lon="17.6426365">
        <ele>21.767</ele>
        <time>2014-07-07T18:14:02Z</time>
      </trkpt>
      <trkpt lat="59.9047669" lon="17.6425938">
        <ele>21.2864</ele>
        <time>2014-07-07T18:14:03Z</time>
      </trkpt>
      <trkpt lat="59.9047164" lon="17.642545">
        <ele>21.2864</ele>
        <time>2014-07-07T18:14:04Z</time>
      </trkpt>
      <trkpt lat="59.9046653" lon="17.642499">
        <ele>21.2864</ele>
        <time>2014-07-07T18:14:05Z</time>
      </trkpt>
      <trkpt lat="59.9046146" lon="17.6424554">
        <ele>21.2864</ele>
        <time>2014-07-07T18:14:06Z</time>
      </trkpt>
      <trkpt lat="59.9045628" lon="17.6424173">
        <ele>21.2864</ele>
        <time>2014-07-07T18:14:07Z</time>
      </trkpt>
      <trkpt lat="59.9045088" lon="17.6423852">
        <ele>21.2864</ele>
        <time>2014-07-07T18:14:08Z</time>
      </trkpt>
      <trkpt lat="59.904453" lon="17.642355">
        <ele>21.2864</ele>
        <time>2014-07-07T18:14:09Z</time>
      </trkpt>
      <trkpt lat="59.904397" lon="17.6423229">
        <ele>21.2864</ele>
        <time>2014-07-07T18:14:10Z</time>
      </trkpt>
      <trkpt lat="59.9043425" lon="17.6422904">
        <ele>21.767</ele>
        <time>2014-07-07T18:14:11Z</time>
      </trkpt>
      <trkpt lat="59.9042898" lon="17.6422606">
        <ele>21.767</ele>
        <time>2014-07-07T18:14:12Z</time>
      </trkpt>
      <trkpt lat="59.9042397" lon="17.6422335">
        <ele>21.767</ele>
        <time>2014-07-07T18:14:13Z</time>
      </trkpt>
      <trkpt lat="59.9041924" lon="17.6422077">
        <ele>22.2476</ele>
        <time>2014-07-07T18:14:14Z</time>
      </trkpt>
      <trkpt lat="59.9041479" lon="17.642182">
        <ele>22.2476</ele>
        <time>2014-07-07T18:14:15Z</time>
      </trkpt>
      <trkpt lat="59.9041063" lon="17.6421591">
        <ele>22.2476</ele>
        <time>2014-07-07T18:14:16Z</time>
      </trkpt>
      <trkpt lat="59.9040671" lon="17.6421389">
        <ele>22.2476</ele>
        <time>2014-07-07T18:14:17Z</time>
      </trkpt>
      <trkpt lat="59.9040308" lon="17.6421187">
        <ele>22.7283</ele>
        <time>2014-07-07T18:14:18Z</time>
      </trkpt>
      <trkpt lat="59.9039987" lon="17.6421001">
        <ele>22.7283</ele>
        <time>2014-07-07T18:14:19Z</time>
      </trkpt>
      <trkpt lat="59.9039712" lon="17.6420854">
        <ele>22.7283</ele>
        <time>2014-07-07T18:14:20Z</time>
      </trkpt>
      <trkpt lat="59.9039463" lon="17.6420732">
        <ele>22.7283</ele>
        <time>2014-07-07T18:14:21Z</time>
      </trkpt>
      <trkpt lat="59.9039231" lon="17.6420602">
        <ele>22.7283</ele>
        <time>2014-07-07T18:14:22Z</time>
      </trkpt>
      <trkpt lat="59.9039021" lon="17.6420482">
        <ele>22.7283</ele>
        <time>2014-07-07T18:14:23Z</time>
      </trkpt>
      <trkpt lat="59.903883" lon="17.6420374">
        <ele>22.7283</ele>
        <time>2014-07-07T18:14:24Z</time>
      </trkpt>
      <trkpt lat="59.9038661" lon="17.6420266">
        <ele>22.7283</ele>
        <time>2014-07-07T18:14:25Z</time>
      </trkpt>
      <trkpt lat="59.9038503" lon="17.6420183">
        <ele>22.7283</ele>
        <time>2014-07-07T18:14:26Z</time>
      </trkpt>
      <trkpt lat="59.903835" lon="17.6420125">
        <ele>22.7283</ele>
        <time>2014-07-07T18:14:27Z</time>
      </trkpt>
      <trkpt lat="59.9038215" lon="17.6420063">
        <ele>22.7283</ele>
        <time>2014-07-07T18:14:28Z</time>
      </trkpt>
      <trkpt lat="59.9038109" lon="17.6420016">
        <ele>22.7283</ele>
        <time>2014-07-07T18:14:29Z</time>
      </trkpt>
      <trkpt lat="59.9038034" lon="17.6420011">
        <ele>22.7283</ele>
        <time>2014-07-07T18:14:30Z</time>
      </trkpt>
      <trkpt lat="59.9038018" lon="17.6420031">
        <ele>22.7283</ele>
        <time>2014-07-07T18:14:31Z</time>
      </trkpt>
      <trkpt lat="59.9038034" lon="17.6420042">
        <ele>23.209</ele>
        <time>2014-07-07T18:14:32Z</time>
      </trkpt>
      <trkpt lat="59.9037784" lon="17.6420259">
        <ele>23.6896</ele>
        <time>2014-07-07T18:15:00Z</time>
      </trkpt>
      <trkpt lat="59.9037553" lon="17.6420155">
        <ele>23.6896</ele>
        <time>2014-07-07T18:15:01Z</time>
      </trkpt>
      <trkpt lat="59.9037255" lon="17.6419962">
        <ele>23.6896</ele>
        <time>2014-07-07T18:15:02Z</time>
      </trkpt>
      <trkpt lat="59.9036868" lon="17.6419801">
        <ele>24.1703</ele>
        <time>2014-07-07T18:15:03Z</time>
      </trkpt>
      <trkpt lat="59.9036418" lon="17.6419809">
        <ele>23.6896</ele>
        <time>2014-07-07T18:15:04Z</time>
      </trkpt>
      <trkpt lat="59.9035901" lon="17.6419895">
        <ele>23.6896</ele>
        <time>2014-07-07T18:15:05Z</time>
      </trkpt>
      <trkpt lat="59.9035344" lon="17.6419736">
        <ele>23.6896</ele>
        <time>2014-07-07T18:15:06Z</time>
      </trkpt>
      <trkpt lat="59.9034765" lon="17.6419328">
        <ele>23.6896</ele>
        <time>2014-07-07T18:15:07Z</time>
      </trkpt>
      <trkpt lat="59.9034159" lon="17.641889">
        <ele>23.209</ele>
        <time>2014-07-07T18:15:08Z</time>
      </trkpt>
      <trkpt lat="59.9033499" lon="17.6418477">
        <ele>23.209</ele>
        <time>2014-07-07T18:15:09Z</time>
      </trkpt>
      <trkpt lat="59.9032801" lon="17.6418045">
        <ele>23.209</ele>
        <time>2014-07-07T18:15:10Z</time>
      </trkpt>
      <trkpt lat="59.9032096" lon="17.6417491">
        <ele>23.209</ele>
        <time>2014-07-07T18:15:11Z</time>
      </trkpt>
      <trkpt lat="59.9031429" lon="17.6416745">
        <ele>23.209</ele>
        <time>2014-07-07T18:15:12Z</time>
      </trkpt>
      <trkpt lat="59.9030803" lon="17.6415777">
        <ele>23.209</ele>
        <time>2014-07-07T18:15:13Z</time>
      </trkpt>
      <trkpt lat="59.9030231" lon="17.641466">
        <ele>23.209</ele>
        <time>2014-07-07T18:15:14Z</time>
      </trkpt>
      <trkpt lat="59.9029658" lon="17.6413515">
        <ele>23.209</ele>
        <time>2014-07-07T18:15:15Z</time>
      </trkpt>
      <trkpt lat="59.9029036" lon="17.6412452">
        <ele>23.209</ele>
        <time>2014-07-07T18:15:16Z</time>
      </trkpt>
      <trkpt lat="59.9028337" lon="17.6411518">
        <ele>23.209</ele>
        <time>2014-07-07T18:15:17Z</time>
      </trkpt>
      <trkpt lat="59.9027605" lon="17.6410713">
        <ele>23.209</ele>
        <time>2014-07-07T18:15:18Z</time>
      </trkpt>
      <trkpt lat="59.902686" lon="17.6409959">
        <ele>23.209</ele>
        <time>2014-07-07T18:15:19Z</time>
      </trkpt>
      <trkpt lat="59.9026118" lon="17.6409224">
        <ele>23.209</ele>
        <time>2014-07-07T18:15:20Z</time>
      </trkpt>
      <trkpt lat="59.9025378" lon="17.6408506">
        <ele>23.209</ele>
        <time>2014-07-07T18:15:21Z</time>
      </trkpt>
      <trkpt lat="59.9024647" lon="17.6407796">
        <ele>23.6896</ele>
        <time>2014-07-07T18:15:22Z</time>
      </trkpt>
      <trkpt lat="59.9023929" lon="17.6407097">
        <ele>23.6896</ele>
        <time>2014-07-07T18:15:23Z</time>
      </trkpt>
      <trkpt lat="59.902322" lon="17.6406417">
        <ele>23.6896</ele>
        <time>2014-07-07T18:15:24Z</time>
      </trkpt>
      <trkpt lat="59.9022514" lon="17.6405745">
        <ele>23.6896</ele>
        <time>2014-07-07T18:15:25Z</time>
      </trkpt>
      <trkpt lat="59.9021811" lon="17.6405069">
        <ele>23.6896</ele>
        <time>2014-07-07T18:15:26Z</time>
      </trkpt>
      <trkpt lat="59.9021106" lon="17.6404398">
        <ele>23.6896</ele>
        <time>2014-07-07T18:15:27Z</time>
      </trkpt>
      <trkpt lat="59.9020406" lon="17.6403723">
        <ele>23.6896</ele>
        <time>2014-07-07T18:15:28Z</time>
      </trkpt>
      <trkpt lat="59.9019712" lon="17.6403025">
        <ele>23.6896</ele>
        <time>2014-07-07T18:15:29Z</time>
      </trkpt>
      <trkpt lat="59.9019019" lon="17.6402331">
        <ele>23.6896</ele>
        <time>2014-07-07T18:15:30Z</time>
      </trkpt>
      <trkpt lat="59.9018318" lon="17.6401658">
        <ele>24.1703</ele>
        <time>2014-07-07T18:15:31Z</time>
      </trkpt>
      <trkpt lat="59.9017618" lon="17.6400992">
        <ele>24.1703</ele>
        <time>2014-07-07T18:15:32Z</time>
      </trkpt>
      <trkpt lat="59.9016924" lon="17.6400326">
        <ele>24.1703</ele>
        <time>2014-07-07T18:15:33Z</time>
      </trkpt>
      <trkpt lat="59.901624" lon="17.6399672">
        <ele>24.1703</ele>
        <time>2014-07-07T18:15:34Z</time>
      </trkpt>
      <trkpt lat="59.9015566" lon="17.6399032">
        <ele>24.1703</ele>
        <time>2014-07-07T18:15:35Z</time>
      </trkpt>
      <trkpt lat="59.9014899" lon="17.6398399">
        <ele>24.1703</ele>
        <time>2014-07-07T18:15:36Z</time>
      </trkpt>
      <trkpt lat="59.9014238" lon="17.6397773">
        <ele>24.651</ele>
        <time>2014-07-07T18:15:37Z</time>
      </trkpt>
      <trkpt lat="59.901358" lon="17.639715">
        <ele>24.651</ele>
        <time>2014-07-07T18:15:38Z</time>
      </trkpt>
      <trkpt lat="59.9012919" lon="17.6396513">
        <ele>24.651</ele>
        <time>2014-07-07T18:15:39Z</time>
      </trkpt>
      <trkpt lat="59.9012256" lon="17.6395875">
        <ele>24.651</ele>
        <time>2014-07-07T18:15:40Z</time>
      </trkpt>
      <trkpt lat="59.9011584" lon="17.6395251">
        <ele>24.651</ele>
        <time>2014-07-07T18:15:41Z</time>
      </trkpt>
      <trkpt lat="59.901091" lon="17.6394659">
        <ele>24.651</ele>
        <time>2014-07-07T18:15:42Z</time>
      </trkpt>
      <trkpt lat="59.9010249" lon="17.6394079">
        <ele>24.651</ele>
        <time>2014-07-07T18:15:43Z</time>
      </trkpt>
      <trkpt lat="59.9009605" lon="17.6393499">
        <ele>24.651</ele>
        <time>2014-07-07T18:15:44Z</time>
      </trkpt>
      <trkpt lat="59.9008963" lon="17.6392929">
        <ele>24.651</ele>
        <time>2014-07-07T18:15:45Z</time>
      </trkpt>
      <trkpt lat="59.900832" lon="17.6392374">
        <ele>25.1317</ele>
        <time>2014-07-07T18:15:46Z</time>
      </trkpt>
      <trkpt lat="59.9007677" lon="17.6391829">
        <ele>25.1317</ele>
        <time>2014-07-07T18:15:47Z</time>
      </trkpt>
      <trkpt lat="59.9007044" lon="17.6391281">
        <ele>25.1317</ele>
        <time>2014-07-07T18:15:48Z</time>
      </trkpt>
      <trkpt lat="59.9006415" lon="17.6390751">
        <ele>25.1317</ele>
        <time>2014-07-07T18:15:49Z</time>
      </trkpt>
      <trkpt lat="59.9005782" lon="17.6390251">
        <ele>25.1317</ele>
        <time>2014-07-07T18:15:50Z</time>
      </trkpt>
      <trkpt lat="59.9005151" lon="17.6389747">
        <ele>25.6123</ele>
        <time>2014-07-07T18:15:51Z</time>
      </trkpt>
      <trkpt lat="59.9004528" lon="17.6389231">
        <ele>25.6123</ele>
        <time>2014-07-07T18:15:52Z</time>
      </trkpt>
      <trkpt lat="59.9003902" lon="17.6388719">
        <ele>25.6123</ele>
        <time>2014-07-07T18:15:53Z</time>
      </trkpt>
      <trkpt lat="59.900328" lon="17.6388224">
        <ele>26.0929</ele>
        <time>2014-07-07T18:15:54Z</time>
      </trkpt>
      <trkpt lat="59.9002673" lon="17.6387749">
        <ele>26.0929</ele>
        <time>2014-07-07T18:15:55Z</time>
      </trkpt>
      <trkpt lat="59.9002083" lon="17.6387298">
        <ele>26.0929</ele>
        <time>2014-07-07T18:15:56Z</time>
      </trkpt>
      <trkpt lat="59.9001508" lon="17.6386867">
        <ele>26.5736</ele>
        <time>2014-07-07T18:15:57Z</time>
      </trkpt>
      <trkpt lat="59.9000948" lon="17.6386453">
        <ele>26.5736</ele>
        <time>2014-07-07T18:15:58Z</time>
      </trkpt>
      <trkpt lat="59.9000398" lon="17.6386046">
        <ele>27.0543</ele>
        <time>2014-07-07T18:15:59Z</time>
      </trkpt>
      <trkpt lat="59.8999857" lon="17.6385641">
        <ele>27.0543</ele>
        <time>2014-07-07T18:16:00Z</time>
      </trkpt>
      <trkpt lat="59.8999317" lon="17.6385238">
        <ele>27.5349</ele>
        <time>2014-07-07T18:16:01Z</time>
      </trkpt>
      <trkpt lat="59.8998769" lon="17.6384839">
        <ele>27.5349</ele>
        <time>2014-07-07T18:16:02Z</time>
      </trkpt>
      <trkpt lat="59.899822" lon="17.638444">
        <ele>28.0155</ele>
        <time>2014-07-07T18:16:03Z</time>
      </trkpt>
      <trkpt lat="59.8997674" lon="17.6384039">
        <ele>28.0155</ele>
        <time>2014-07-07T18:16:04Z</time>
      </trkpt>
      <trkpt lat="59.8997127" lon="17.6383642">
        <ele>28.0155</ele>
        <time>2014-07-07T18:16:05Z</time>
      </trkpt>
      <trkpt lat="59.8996583" lon="17.638331">
        <ele>28.4962</ele>
        <time>2014-07-07T18:16:06Z</time>
      </trkpt>
      <trkpt lat="59.8996055" lon="17.6383035">
        <ele>28.4962</ele>
        <time>2014-07-07T18:16:07Z</time>
      </trkpt>
      <trkpt lat="59.8995557" lon="17.6382774">
        <ele>28.4962</ele>
        <time>2014-07-07T18:16:08Z</time>
      </trkpt>
      <trkpt lat="59.8995096" lon="17.6382538">
        <ele>28.9769</ele>
        <time>2014-07-07T18:16:09Z</time>
      </trkpt>
      <trkpt lat="59.8994678" lon="17.638245">
        <ele>28.9769</ele>
        <time>2014-07-07T18:16:10Z</time>
      </trkpt>
      <trkpt lat="59.8994293" lon="17.6382553">
        <ele>28.9769</ele>
        <time>2014-07-07T18:16:11Z</time>
      </trkpt>
      <trkpt lat="59.8993915" lon="17.6382636">
        <ele>28.9769</ele>
        <time>2014-07-07T18:16:12Z</time>
      </trkpt>
      <trkpt lat="59.8993526" lon="17.6382486">
        <ele>28.9769</ele>
        <time>2014-07-07T18:16:13Z</time>
      </trkpt>
      <trkpt lat="59.8993125" lon="17.6382148">
        <ele>28.9769</ele>
        <time>2014-07-07T18:16:14Z</time>
      </trkpt>
      <trkpt lat="59.8992707" lon="17.6381729">
        <ele>28.9769</ele>
        <time>2014-07-07T18:16:15Z</time>
      </trkpt>
      <trkpt lat="59.8992268" lon="17.6381258">
        <ele>29.4575</ele>
        <time>2014-07-07T18:16:16Z</time>
      </trkpt>
      <trkpt lat="59.899181" lon="17.6380782">
        <ele>29.4575</ele>
        <time>2014-07-07T18:16:17Z</time>
      </trkpt>
      <trkpt lat="59.899134" lon="17.6380295">
        <ele>29.4575</ele>
        <time>2014-07-07T18:16:18Z</time>
      </trkpt>
      <trkpt lat="59.8990859" lon="17.6379795">
        <ele>29.4575</ele>
        <time>2014-07-07T18:16:19Z</time>
      </trkpt>
      <trkpt lat="59.8990366" lon="17.6379294">
        <ele>29.4575</ele>
        <time>2014-07-07T18:16:20Z</time>
      </trkpt>
      <trkpt lat="59.8989854" lon="17.6378812">
        <ele>29.4575</ele>
        <time>2014-07-07T18:16:21Z</time>
      </trkpt>
      <trkpt lat="59.898932" lon="17.6378397">
        <ele>29.4575</ele>
        <time>2014-07-07T18:16:22Z</time>
      </trkpt>
      <trkpt lat="59.8988753" lon="17.6378104">
        <ele>29.9381</ele>
        <time>2014-07-07T18:16:23Z</time>
      </trkpt>
      <trkpt lat="59.8988165" lon="17.6377959">
        <ele>29.9381</ele>
        <time>2014-07-07T18:16:24Z</time>
      </trkpt>
      <trkpt lat="59.8987565" lon="17.6377964">
        <ele>29.9381</ele>
        <time>2014-07-07T18:16:25Z</time>
      </trkpt>
      <trkpt lat="59.8986964" lon="17.6378088">
        <ele>29.9381</ele>
        <time>2014-07-07T18:16:26Z</time>
      </trkpt>
      <trkpt lat="59.8986371" lon="17.6378316">
        <ele>29.9381</ele>
        <time>2014-07-07T18:16:27Z</time>
      </trkpt>
      <trkpt lat="59.8985785" lon="17.6378653">
        <ele>29.9381</ele>
        <time>2014-07-07T18:16:28Z</time>
      </trkpt>
      <trkpt lat="59.8985195" lon="17.6379062">
        <ele>29.9381</ele>
        <time>2014-07-07T18:16:29Z</time>
      </trkpt>
      <trkpt lat="59.898458" lon="17.6379428">
        <ele>29.9381</ele>
        <time>2014-07-07T18:16:30Z</time>
      </trkpt>
      <trkpt lat="59.8983944" lon="17.6379628">
        <ele>29.9381</ele>
        <time>2014-07-07T18:16:31Z</time>
      </trkpt>
      <trkpt lat="59.8983306" lon="17.637964">
        <ele>29.9381</ele>
        <time>2014-07-07T18:16:32Z</time>
      </trkpt>
      <trkpt lat="59.898268" lon="17.6379454">
        <ele>29.9381</ele>
        <time>2014-07-07T18:16:33Z</time>
      </trkpt>
      <trkpt lat="59.8982088" lon="17.6379084">
        <ele>29.9381</ele>
        <time>2014-07-07T18:16:34Z</time>
      </trkpt>
      <trkpt lat="59.8981517" lon="17.6378589">
        <ele>29.9381</ele>
        <time>2014-07-07T18:16:35Z</time>
      </trkpt>
      <trkpt lat="59.8980953" lon="17.6378025">
        <ele>29.9381</ele>
        <time>2014-07-07T18:16:36Z</time>
      </trkpt>
      <trkpt lat="59.8980396" lon="17.6377419">
        <ele>29.9381</ele>
        <time>2014-07-07T18:16:37Z</time>
      </trkpt>
      <trkpt lat="59.8979854" lon="17.6376758">
        <ele>29.9381</ele>
        <time>2014-07-07T18:16:38Z</time>
      </trkpt>
      <trkpt lat="59.8979312" lon="17.6376082">
        <ele>30.4188</ele>
        <time>2014-07-07T18:16:39Z</time>
      </trkpt>
      <trkpt lat="59.8978764" lon="17.6375413">
        <ele>30.4188</ele>
        <time>2014-07-07T18:16:40Z</time>
      </trkpt>
      <trkpt lat="59.897822" lon="17.6374729">
        <ele>30.4188</ele>
        <time>2014-07-07T18:16:41Z</time>
      </trkpt>
      <trkpt lat="59.897766" lon="17.6374042">
        <ele>30.4188</ele>
        <time>2014-07-07T18:16:42Z</time>
      </trkpt>
      <trkpt lat="59.8977085" lon="17.6373378">
        <ele>30.4188</ele>
        <time>2014-07-07T18:16:43Z</time>
      </trkpt>
      <trkpt lat="59.8976511" lon="17.6372746">
        <ele>30.4188</ele>
        <time>2014-07-07T18:16:44Z</time>
      </trkpt>
      <trkpt lat="59.8975941" lon="17.6372145">
        <ele>30.4188</ele>
        <time>2014-07-07T18:16:45Z</time>
      </trkpt>
      <trkpt lat="59.8975378" lon="17.6371557">
        <ele>30.4188</ele>
        <time>2014-07-07T18:16:46Z</time>
      </trkpt>
      <trkpt lat="59.897481" lon="17.6370991">
        <ele>30.8995</ele>
        <time>2014-07-07T18:16:47Z</time>
      </trkpt>
      <trkpt lat="59.8974241" lon="17.6370484">
        <ele>30.8995</ele>
        <time>2014-07-07T18:16:48Z</time>
      </trkpt>
      <trkpt lat="59.8973677" lon="17.637005">
        <ele>30.8995</ele>
        <time>2014-07-07T18:16:49Z</time>
      </trkpt>
      <trkpt lat="59.8973107" lon="17.6369666">
        <ele>31.3801</ele>
        <time>2014-07-07T18:16:50Z</time>
      </trkpt>
      <trkpt lat="59.8972521" lon="17.6369321">
        <ele>31.3801</ele>
        <time>2014-07-07T18:16:51Z</time>
      </trkpt>
      <trkpt lat="59.8971941" lon="17.6369013">
        <ele>31.3801</ele>
        <time>2014-07-07T18:16:52Z</time>
      </trkpt>
      <trkpt lat="59.8971375" lon="17.6368739">
        <ele>31.8607</ele>
        <time>2014-07-07T18:16:53Z</time>
      </trkpt>
      <trkpt lat="59.8970795" lon="17.6368487">
        <ele>31.8607</ele>
        <time>2014-07-07T18:16:54Z</time>
      </trkpt>
      <trkpt lat="59.8970217" lon="17.6368232">
        <ele>31.8607</ele>
        <time>2014-07-07T18:16:55Z</time>
      </trkpt>
      <trkpt lat="59.8969665" lon="17.6367874">
        <ele>32.3416</ele>
        <time>2014-07-07T18:16:56Z</time>
      </trkpt>
      <trkpt lat="59.8969124" lon="17.6367415">
        <ele>32.3416</ele>
        <time>2014-07-07T18:16:57Z</time>
      </trkpt>
      <trkpt lat="59.8968578" lon="17.6366993">
        <ele>32.3416</ele>
        <time>2014-07-07T18:16:58Z</time>
      </trkpt>
      <trkpt lat="59.8968012" lon="17.6366654">
        <ele>32.3416</ele>
        <time>2014-07-07T18:16:59Z</time>
      </trkpt>
      <trkpt lat="59.8967423" lon="17.636636">
        <ele>32.8223</ele>
        <time>2014-07-07T18:17:00Z</time>
      </trkpt>
      <trkpt lat="59.8966826" lon="17.636609">
        <ele>32.8223</ele>
        <time>2014-07-07T18:17:01Z</time>
      </trkpt>
      <trkpt lat="59.8966221" lon="17.6365853">
        <ele>32.8223</ele>
        <time>2014-07-07T18:17:02Z</time>
      </trkpt>
      <trkpt lat="59.8965595" lon="17.6365651">
        <ele>32.8223</ele>
        <time>2014-07-07T18:17:03Z</time>
      </trkpt>
      <trkpt lat="59.8964959" lon="17.6365441">
        <ele>32.8223</ele>
        <time>2014-07-07T18:17:04Z</time>
      </trkpt>
      <trkpt lat="59.8964324" lon="17.6365229">
        <ele>32.8223</ele>
        <time>2014-07-07T18:17:05Z</time>
      </trkpt>
      <trkpt lat="59.8963689" lon="17.6365011">
        <ele>32.8223</ele>
        <time>2014-07-07T18:17:06Z</time>
      </trkpt>
      <trkpt lat="59.8963036" lon="17.636476">
        <ele>32.8223</ele>
        <time>2014-07-07T18:17:07Z</time>
      </trkpt>
      <trkpt lat="59.8962373" lon="17.6364496">
        <ele>32.8223</ele>
        <time>2014-07-07T18:17:08Z</time>
      </trkpt>
      <trkpt lat="59.8961715" lon="17.6364253">
        <ele>32.8223</ele>
        <time>2014-07-07T18:17:09Z</time>
      </trkpt>
      <trkpt lat="59.8961042" lon="17.6363997">
        <ele>32.8223</ele>
        <time>2014-07-07T18:17:10Z</time>
      </trkpt>
      <trkpt lat="59.896038" lon="17.6363734">
        <ele>32.8223</ele>
        <time>2014-07-07T18:17:11Z</time>
      </trkpt>
      <trkpt lat="59.8959735" lon="17.6363605">
        <ele>32.8223</ele>
        <time>2014-07-07T18:17:12Z</time>
      </trkpt>
      <trkpt lat="59.8959097" lon="17.6363637">
        <ele>32.8223</ele>
        <time>2014-07-07T18:17:13Z</time>
      </trkpt>
      <trkpt lat="59.895845" lon="17.636372">
        <ele>32.8223</ele>
        <time>2014-07-07T18:17:14Z</time>
      </trkpt>
      <trkpt lat="59.8957732" lon="17.6363848">
        <ele>32.8223</ele>
        <time>2014-07-07T18:17:15Z</time>
      </trkpt>
      <trkpt lat="59.8957038" lon="17.6363956">
        <ele>32.3416</ele>
        <time>2014-07-07T18:17:16Z</time>
      </trkpt>
      <trkpt lat="59.8956333" lon="17.6364067">
        <ele>32.3416</ele>
        <time>2014-07-07T18:17:17Z</time>
      </trkpt>
      <trkpt lat="59.8955624" lon="17.6364261">
        <ele>32.3416</ele>
        <time>2014-07-07T18:17:18Z</time>
      </trkpt>
      <trkpt lat="59.895493" lon="17.6364594">
        <ele>32.3416</ele>
        <time>2014-07-07T18:17:19Z</time>
      </trkpt>
      <trkpt lat="59.8954228" lon="17.636496">
        <ele>32.3416</ele>
        <time>2014-07-07T18:17:20Z</time>
      </trkpt>
      <trkpt lat="59.8953553" lon="17.6365384">
        <ele>31.8607</ele>
        <time>2014-07-07T18:17:21Z</time>
      </trkpt>
      <trkpt lat="59.8952859" lon="17.6365801">
        <ele>31.8607</ele>
        <time>2014-07-07T18:17:22Z</time>
      </trkpt>
      <trkpt lat="59.8952174" lon="17.6366237">
        <ele>31.3801</ele>
        <time>2014-07-07T18:17:23Z</time>
      </trkpt>
      <trkpt lat="59.895149" lon="17.6366691">
        <ele>31.3801</ele>
        <time>2014-07-07T18:17:24Z</time>
      </trkpt>
      <trkpt lat="59.8950806" lon="17.6367174">
        <ele>30.8995</ele>
        <time>2014-07-07T18:17:25Z</time>
      </trkpt>
      <trkpt lat="59.8950131" lon="17.6367669">
        <ele>30.8995</ele>
        <time>2014-07-07T18:17:26Z</time>
      </trkpt>
      <trkpt lat="59.894946" lon="17.6368126">
        <ele>30.8995</ele>
        <time>2014-07-07T18:17:27Z</time>
      </trkpt>
      <trkpt lat="59.8948825" lon="17.6368571">
        <ele>30.4188</ele>
        <time>2014-07-07T18:17:28Z</time>
      </trkpt>
      <trkpt lat="59.8948181" lon="17.636894">
        <ele>30.4188</ele>
        <time>2014-07-07T18:17:29Z</time>
      </trkpt>
      <trkpt lat="59.8947543" lon="17.6369277">
        <ele>30.4188</ele>
        <time>2014-07-07T18:17:30Z</time>
      </trkpt>
      <trkpt lat="59.894693" lon="17.6369672">
        <ele>29.9381</ele>
        <time>2014-07-07T18:17:31Z</time>
      </trkpt>
      <trkpt lat="59.8946278" lon="17.6370016">
        <ele>29.9381</ele>
        <time>2014-07-07T18:17:32Z</time>
      </trkpt>
      <trkpt lat="59.8945668" lon="17.6370374">
        <ele>29.4575</ele>
        <time>2014-07-07T18:17:33Z</time>
      </trkpt>
      <trkpt lat="59.8945028" lon="17.63708">
        <ele>29.4575</ele>
        <time>2014-07-07T18:17:34Z</time>
      </trkpt>
      <trkpt lat="59.8944407" lon="17.6371202">
        <ele>29.4575</ele>
        <time>2014-07-07T18:17:35Z</time>
      </trkpt>
      <trkpt lat="59.8943812" lon="17.6371573">
        <ele>28.9769</ele>
        <time>2014-07-07T18:17:36Z</time>
      </trkpt>
      <trkpt lat="59.8943212" lon="17.6371965">
        <ele>28.9769</ele>
        <time>2014-07-07T18:17:37Z</time>
      </trkpt>
      <trkpt lat="59.8942606" lon="17.6372368">
        <ele>28.9769</ele>
        <time>2014-07-07T18:17:38Z</time>
      </trkpt>
      <trkpt lat="59.8941996" lon="17.6372793">
        <ele>28.9769</ele>
        <time>2014-07-07T18:17:39Z</time>
      </trkpt>
      <trkpt lat="59.8941408" lon="17.6373203">
        <ele>28.4962</ele>
        <time>2014-07-07T18:17:40Z</time>
      </trkpt>
      <trkpt lat="59.8940824" lon="17.6373619">
        <ele>28.4962</ele>
        <time>2014-07-07T18:17:41Z</time>
      </trkpt>
      <trkpt lat="59.8940243" lon="17.6374001">
        <ele>28.0155</ele>
        <time>2014-07-07T18:17:42Z</time>
      </trkpt>
      <trkpt lat="59.893966" lon="17.6374382">
        <ele>28.0155</ele>
        <time>2014-07-07T18:17:43Z</time>
      </trkpt>
      <trkpt lat="59.8939063" lon="17.6374738">
        <ele>27.5349</ele>
        <time>2014-07-07T18:17:44Z</time>
      </trkpt>
      <trkpt lat="59.8938478" lon="17.6375203">
        <ele>27.5349</ele>
        <time>2014-07-07T18:17:45Z</time>
      </trkpt>
      <trkpt lat="59.8937887" lon="17.6375678">
        <ele>27.5349</ele>
        <time>2014-07-07T18:17:46Z</time>
      </trkpt>
      <trkpt lat="59.893729" lon="17.6376134">
        <ele>27.5349</ele>
        <time>2014-07-07T18:17:47Z</time>
      </trkpt>
      <trkpt lat="59.8936683" lon="17.6376607">
        <ele>27.5349</ele>
        <time>2014-07-07T18:17:48Z</time>
      </trkpt>
      <trkpt lat="59.893598" lon="17.6377123">
        <ele>28.0155</ele>
        <time>2014-07-07T18:17:49Z</time>
      </trkpt>
      <trkpt lat="59.8935354" lon="17.6377534">
        <ele>27.5349</ele>
        <time>2014-07-07T18:17:50Z</time>
      </trkpt>
      <trkpt lat="59.8934737" lon="17.6377994">
        <ele>27.5349</ele>
        <time>2014-07-07T18:17:51Z</time>
      </trkpt>
      <trkpt lat="59.8934114" lon="17.6378446">
        <ele>27.5349</ele>
        <time>2014-07-07T18:17:52Z</time>
      </trkpt>
      <trkpt lat="59.8933459" lon="17.6378894">
        <ele>27.5349</ele>
        <time>2014-07-07T18:17:53Z</time>
      </trkpt>
      <trkpt lat="59.8932783" lon="17.6379285">
        <ele>27.0543</ele>
        <time>2014-07-07T18:17:54Z</time>
      </trkpt>
      <trkpt lat="59.8932075" lon="17.6379707">
        <ele>27.0543</ele>
        <time>2014-07-07T18:17:55Z</time>
      </trkpt>
      <trkpt lat="59.8931346" lon="17.6380103">
        <ele>27.0543</ele>
        <time>2014-07-07T18:17:56Z</time>
      </trkpt>
      <trkpt lat="59.8930604" lon="17.638045">
        <ele>26.5736</ele>
        <time>2014-07-07T18:17:57Z</time>
      </trkpt>
      <trkpt lat="59.8929854" lon="17.638079">
        <ele>26.0929</ele>
        <time>2014-07-07T18:17:58Z</time>
      </trkpt>
      <trkpt lat="59.8929091" lon="17.638106">
        <ele>25.6123</ele>
        <time>2014-07-07T18:17:59Z</time>
      </trkpt>
      <trkpt lat="59.8928294" lon="17.6381295">
        <ele>25.6123</ele>
        <time>2014-07-07T18:18:00Z</time>
      </trkpt>
      <trkpt lat="59.8927484" lon="17.6381376">
        <ele>25.1317</ele>
        <time>2014-07-07T18:18:01Z</time>
      </trkpt>
      <trkpt lat="59.8926639" lon="17.6381304">
        <ele>24.651</ele>
        <time>2014-07-07T18:18:02Z</time>
      </trkpt>
      <trkpt lat="59.8925774" lon="17.6381176">
        <ele>24.651</ele>
        <time>2014-07-07T18:18:03Z</time>
      </trkpt>
      <trkpt lat="59.8924848" lon="17.6381228">
        <ele>24.651</ele>
        <time>2014-07-07T18:18:04Z</time>
      </trkpt>
      <trkpt lat="59.8923989" lon="17.6381409">
        <ele>24.1703</ele>
        <time>2014-07-07T18:18:05Z</time>
      </trkpt>
      <trkpt lat="59.8923139" lon="17.6381647">
        <ele>23.6896</ele>
        <time>2014-07-07T18:18:06Z</time>
      </trkpt>
      <trkpt lat="59.8922284" lon="17.6381874">
        <ele>23.6896</ele>
        <time>2014-07-07T18:18:07Z</time>
      </trkpt>
      <trkpt lat="59.8921462" lon="17.6382247">
        <ele>23.209</ele>
        <time>2014-07-07T18:18:08Z</time>
      </trkpt>
      <trkpt lat="59.8920718" lon="17.6382816">
        <ele>23.209</ele>
        <time>2014-07-07T18:18:09Z</time>
      </trkpt>
      <trkpt lat="59.8920037" lon="17.6383414">
        <ele>23.209</ele>
        <time>2014-07-07T18:18:10Z</time>
      </trkpt>
      <trkpt lat="59.8919352" lon="17.6383834">
        <ele>23.209</ele>
        <time>2014-07-07T18:18:11Z</time>
      </trkpt>
      <trkpt lat="59.8918647" lon="17.6384033">
        <ele>23.209</ele>
        <time>2014-07-07T18:18:12Z</time>
      </trkpt>
      <trkpt lat="59.8917923" lon="17.6384195">
        <ele>23.209</ele>
        <time>2014-07-07T18:18:13Z</time>
      </trkpt>
      <trkpt lat="59.8917172" lon="17.6384299">
        <ele>22.7283</ele>
        <time>2014-07-07T18:18:14Z</time>
      </trkpt>
      <trkpt lat="59.8916413" lon="17.6384366">
        <ele>22.7283</ele>
        <time>2014-07-07T18:18:15Z</time>
      </trkpt>
      <trkpt lat="59.8915621" lon="17.6384392">
        <ele>22.7283</ele>
        <time>2014-07-07T18:18:16Z</time>
      </trkpt>
      <trkpt lat="59.8914819" lon="17.6384392">
        <ele>22.2476</ele>
        <time>2014-07-07T18:18:17Z</time>
      </trkpt>
      <trkpt lat="59.8914002" lon="17.6384324">
        <ele>22.7283</ele>
        <time>2014-07-07T18:18:18Z</time>
      </trkpt>
      <trkpt lat="59.8913189" lon="17.6384284">
        <ele>22.7283</ele>
        <time>2014-07-07T18:18:19Z</time>
      </trkpt>
      <trkpt lat="59.8912385" lon="17.6384238">
        <ele>22.7283</ele>
        <time>2014-07-07T18:18:20Z</time>
      </trkpt>
      <trkpt lat="59.8911576" lon="17.6384175">
        <ele>22.7283</ele>
        <time>2014-07-07T18:18:21Z</time>
      </trkpt>
      <trkpt lat="59.8910774" lon="17.6384108">
        <ele>22.7283</ele>
        <time>2014-07-07T18:18:22Z</time>
      </trkpt>
      <trkpt lat="59.8909966" lon="17.6384014">
        <ele>22.7283</ele>
        <time>2014-07-07T18:18:23Z</time>
      </trkpt>
      <trkpt lat="59.8909153" lon="17.6383895">
        <ele>22.7283</ele>
        <time>2014-07-07T18:18:24Z</time>
      </trkpt>
      <trkpt lat="59.8908336" lon="17.6383775">
        <ele>22.2476</ele>
        <time>2014-07-07T18:18:25Z</time>
      </trkpt>
      <trkpt lat="59.8907516" lon="17.6383646">
        <ele>22.2476</ele>
        <time>2014-07-07T18:18:26Z</time>
      </trkpt>
      <trkpt lat="59.8906702" lon="17.6383501">
        <ele>22.2476</ele>
        <time>2014-07-07T18:18:27Z</time>
      </trkpt>
      <trkpt lat="59.8905883" lon="17.6383337">
        <ele>22.2476</ele>
        <time>2014-07-07T18:18:28Z</time>
      </trkpt>
      <trkpt lat="59.8905048" lon="17.6383116">
        <ele>22.2476</ele>
        <time>2014-07-07T18:18:29Z</time>
      </trkpt>
      <trkpt lat="59.8904227" lon="17.63829">
        <ele>22.2476</ele>
        <time>2014-07-07T18:18:30Z</time>
      </trkpt>
      <trkpt lat="59.8903412" lon="17.6382687">
        <ele>22.2476</ele>
        <time>2014-07-07T18:18:31Z</time>
      </trkpt>
      <trkpt lat="59.8902605" lon="17.6382465">
        <ele>22.2476</ele>
        <time>2014-07-07T18:18:32Z</time>
      </trkpt>
      <trkpt lat="59.8901816" lon="17.6382237">
        <ele>21.767</ele>
        <time>2014-07-07T18:18:33Z</time>
      </trkpt>
      <trkpt lat="59.890105" lon="17.6382005">
        <ele>22.2476</ele>
        <time>2014-07-07T18:18:34Z</time>
      </trkpt>
      <trkpt lat="59.8900309" lon="17.6381728">
        <ele>21.767</ele>
        <time>2014-07-07T18:18:35Z</time>
      </trkpt>
      <trkpt lat="59.8899586" lon="17.6381401">
        <ele>22.2476</ele>
        <time>2014-07-07T18:18:36Z</time>
      </trkpt>
      <trkpt lat="59.8898865" lon="17.6380945">
        <ele>22.2476</ele>
        <time>2014-07-07T18:18:37Z</time>
      </trkpt>
      <trkpt lat="59.8898159" lon="17.6380538">
        <ele>22.2476</ele>
        <time>2014-07-07T18:18:38Z</time>
      </trkpt>
      <trkpt lat="59.8897457" lon="17.638017">
        <ele>22.2476</ele>
        <time>2014-07-07T18:18:39Z</time>
      </trkpt>
      <trkpt lat="59.8896746" lon="17.637983">
        <ele>22.2476</ele>
        <time>2014-07-07T18:18:40Z</time>
      </trkpt>
      <trkpt lat="59.8896023" lon="17.6379534">
        <ele>22.2476</ele>
        <time>2014-07-07T18:18:41Z</time>
      </trkpt>
      <trkpt lat="59.8895287" lon="17.6379303">
        <ele>22.2476</ele>
        <time>2014-07-07T18:18:42Z</time>
      </trkpt>
      <trkpt lat="59.889453" lon="17.637912">
        <ele>22.7283</ele>
        <time>2014-07-07T18:18:43Z</time>
      </trkpt>
      <trkpt lat="59.8893795" lon="17.637887">
        <ele>22.7283</ele>
        <time>2014-07-07T18:18:44Z</time>
      </trkpt>
      <trkpt lat="59.8893048" lon="17.6378637">
        <ele>23.209</ele>
        <time>2014-07-07T18:18:45Z</time>
      </trkpt>
      <trkpt lat="59.8892303" lon="17.6378399">
        <ele>23.209</ele>
        <time>2014-07-07T18:18:46Z</time>
      </trkpt>
      <trkpt lat="59.8891542" lon="17.6378229">
        <ele>23.209</ele>
        <time>2014-07-07T18:18:47Z</time>
      </trkpt>
      <trkpt lat="59.8890778" lon="17.6378099">
        <ele>23.209</ele>
        <time>2014-07-07T18:18:48Z</time>
      </trkpt>
      <trkpt lat="59.8890007" lon="17.6378026">
        <ele>23.209</ele>
        <time>2014-07-07T18:18:49Z</time>
      </trkpt>
      <trkpt lat="59.8889225" lon="17.6378012">
        <ele>23.209</ele>
        <time>2014-07-07T18:18:50Z</time>
      </trkpt>
      <trkpt lat="59.8888438" lon="17.6378047">
        <ele>23.209</ele>
        <time>2014-07-07T18:18:51Z</time>
      </trkpt>
      <trkpt lat="59.8887603" lon="17.6378226">
        <ele>23.209</ele>
        <time>2014-07-07T18:18:52Z</time>
      </trkpt>
      <trkpt lat="59.8886804" lon="17.6378316">
        <ele>23.209</ele>
        <time>2014-07-07T18:18:53Z</time>
      </trkpt>
      <trkpt lat="59.8885993" lon="17.6378363">
        <ele>23.209</ele>
        <time>2014-07-07T18:18:54Z</time>
      </trkpt>
      <trkpt lat="59.8885137" lon="17.6378364">
        <ele>23.209</ele>
        <time>2014-07-07T18:18:55Z</time>
      </trkpt>
      <trkpt lat="59.8884321" lon="17.6378416">
        <ele>23.209</ele>
        <time>2014-07-07T18:18:56Z</time>
      </trkpt>
      <trkpt lat="59.8883509" lon="17.6378439">
        <ele>23.209</ele>
        <time>2014-07-07T18:18:57Z</time>
      </trkpt>
      <trkpt lat="59.8882729" lon="17.6378404">
        <ele>23.209</ele>
        <time>2014-07-07T18:18:58Z</time>
      </trkpt>
      <trkpt lat="59.8881983" lon="17.6378368">
        <ele>22.7283</ele>
        <time>2014-07-07T18:18:59Z</time>
      </trkpt>
      <trkpt lat="59.888122" lon="17.637835">
        <ele>22.7283</ele>
        <time>2014-07-07T18:19:00Z</time>
      </trkpt>
      <trkpt lat="59.8880441" lon="17.6378284">
        <ele>22.2476</ele>
        <time>2014-07-07T18:19:01Z</time>
      </trkpt>
      <trkpt lat="59.8879606" lon="17.6378239">
        <ele>22.2476</ele>
        <time>2014-07-07T18:19:02Z</time>
      </trkpt>
      <trkpt lat="59.8878812" lon="17.6378113">
        <ele>22.2476</ele>
        <time>2014-07-07T18:19:03Z</time>
      </trkpt>
      <trkpt lat="59.8878021" lon="17.6377928">
        <ele>22.2476</ele>
        <time>2014-07-07T18:19:04Z</time>
      </trkpt>
      <trkpt lat="59.8877259" lon="17.6377752">
        <ele>22.2476</ele>
        <time>2014-07-07T18:19:05Z</time>
      </trkpt>
      <trkpt lat="59.8876532" lon="17.6377626">
        <ele>22.2476</ele>
        <time>2014-07-07T18:19:06Z</time>
      </trkpt>
      <trkpt lat="59.8875803" lon="17.6377342">
        <ele>22.7283</ele>
        <time>2014-07-07T18:19:07Z</time>
      </trkpt>
      <trkpt lat="59.8875058" lon="17.6377052">
        <ele>22.7283</ele>
        <time>2014-07-07T18:19:08Z</time>
      </trkpt>
      <trkpt lat="59.8874325" lon="17.6376748">
        <ele>22.7283</ele>
        <time>2014-07-07T18:19:09Z</time>
      </trkpt>
      <trkpt lat="59.8873591" lon="17.637643">
        <ele>22.7283</ele>
        <time>2014-07-07T18:19:10Z</time>
      </trkpt>
      <trkpt lat="59.8872856" lon="17.6376115">
        <ele>23.209</ele>
        <time>2014-07-07T18:19:11Z</time>
      </trkpt>
      <trkpt lat="59.8872118" lon="17.6375799">
        <ele>22.7283</ele>
        <time>2014-07-07T18:19:12Z</time>
      </trkpt>
      <trkpt lat="59.8871384" lon="17.6375488">
        <ele>22.7283</ele>
        <time>2014-07-07T18:19:13Z</time>
      </trkpt>
      <trkpt lat="59.8870663" lon="17.6375162">
        <ele>22.7283</ele>
        <time>2014-07-07T18:19:14Z</time>
      </trkpt>
      <trkpt lat="59.886993" lon="17.637483">
        <ele>22.7283</ele>
        <time>2014-07-07T18:19:15Z</time>
      </trkpt>
      <trkpt lat="59.8869187" lon="17.6374501">
        <ele>22.7283</ele>
        <time>2014-07-07T18:19:16Z</time>
      </trkpt>
      <trkpt lat="59.8868441" lon="17.6374154">
        <ele>22.2476</ele>
        <time>2014-07-07T18:19:17Z</time>
      </trkpt>
      <trkpt lat="59.8867685" lon="17.6373794">
        <ele>22.7283</ele>
        <time>2014-07-07T18:19:18Z</time>
      </trkpt>
      <trkpt lat="59.8866914" lon="17.6373452">
        <ele>22.7283</ele>
        <time>2014-07-07T18:19:19Z</time>
      </trkpt>
      <trkpt lat="59.8866138" lon="17.6373105">
        <ele>22.2476</ele>
        <time>2014-07-07T18:19:20Z</time>
      </trkpt>
      <trkpt lat="59.8865369" lon="17.6372752">
        <ele>22.2476</ele>
        <time>2014-07-07T18:19:21Z</time>
      </trkpt>
      <trkpt lat="59.8864603" lon="17.6372393">
        <ele>22.7283</ele>
        <time>2014-07-07T18:19:22Z</time>
      </trkpt>
      <trkpt lat="59.8863848" lon="17.6372043">
        <ele>22.7283</ele>
        <time>2014-07-07T18:19:23Z</time>
      </trkpt>
      <trkpt lat="59.8863106" lon="17.6371666">
        <ele>22.2476</ele>
        <time>2014-07-07T18:19:24Z</time>
      </trkpt>
      <trkpt lat="59.8862361" lon="17.6371267">
        <ele>22.2476</ele>
        <time>2014-07-07T18:19:25Z</time>
      </trkpt>
      <trkpt lat="59.8861636" lon="17.6370867">
        <ele>22.2476</ele>
        <time>2014-07-07T18:19:26Z</time>
      </trkpt>
      <trkpt lat="59.8860916" lon="17.6370401">
        <ele>22.2476</ele>
        <time>2014-07-07T18:19:27Z</time>
      </trkpt>
      <trkpt lat="59.886017" lon="17.6369695">
        <ele>22.2476</ele>
        <time>2014-07-07T18:19:28Z</time>
      </trkpt>
      <trkpt lat="59.8859434" lon="17.636909">
        <ele>22.2476</ele>
        <time>2014-07-07T18:19:29Z</time>
      </trkpt>
      <trkpt lat="59.8858687" lon="17.6368438">
        <ele>22.2476</ele>
        <time>2014-07-07T18:19:30Z</time>
      </trkpt>
      <trkpt lat="59.8857954" lon="17.6367826">
        <ele>22.2476</ele>
        <time>2014-07-07T18:19:31Z</time>
      </trkpt>
      <trkpt lat="59.8857233" lon="17.6367232">
        <ele>22.2476</ele>
        <time>2014-07-07T18:19:32Z</time>
      </trkpt>
      <trkpt lat="59.8856527" lon="17.6366682">
        <ele>22.2476</ele>
        <time>2014-07-07T18:19:33Z</time>
      </trkpt>
      <trkpt lat="59.8855768" lon="17.6366182">
        <ele>22.2476</ele>
        <time>2014-07-07T18:19:34Z</time>
      </trkpt>
      <trkpt lat="59.8855058" lon="17.6365686">
        <ele>21.767</ele>
        <time>2014-07-07T18:19:35Z</time>
      </trkpt>
      <trkpt lat="59.8854374" lon="17.6365144">
        <ele>21.767</ele>
        <time>2014-07-07T18:19:36Z</time>
      </trkpt>
      <trkpt lat="59.8853684" lon="17.6364546">
        <ele>21.767</ele>
        <time>2014-07-07T18:19:37Z</time>
      </trkpt>
      <trkpt lat="59.885302" lon="17.6363978">
        <ele>21.767</ele>
        <time>2014-07-07T18:19:38Z</time>
      </trkpt>
      <trkpt lat="59.8852312" lon="17.6363481">
        <ele>21.767</ele>
        <time>2014-07-07T18:19:39Z</time>
      </trkpt>
      <trkpt lat="59.8851575" lon="17.6363036">
        <ele>21.767</ele>
        <time>2014-07-07T18:19:40Z</time>
      </trkpt>
      <trkpt lat="59.8850897" lon="17.63626">
        <ele>21.767</ele>
        <time>2014-07-07T18:19:41Z</time>
      </trkpt>
      <trkpt lat="59.8850146" lon="17.6362226">
        <ele>22.2476</ele>
        <time>2014-07-07T18:19:42Z</time>
      </trkpt>
      <trkpt lat="59.8849428" lon="17.6361823">
        <ele>21.767</ele>
        <time>2014-07-07T18:19:43Z</time>
      </trkpt>
      <trkpt lat="59.8848737" lon="17.6361365">
        <ele>21.767</ele>
        <time>2014-07-07T18:19:44Z</time>
      </trkpt>
      <trkpt lat="59.8848058" lon="17.6360832">
        <ele>21.767</ele>
        <time>2014-07-07T18:19:45Z</time>
      </trkpt>
      <trkpt lat="59.8847389" lon="17.6360259">
        <ele>21.767</ele>
        <time>2014-07-07T18:19:46Z</time>
      </trkpt>
      <trkpt lat="59.8846728" lon="17.6359731">
        <ele>21.767</ele>
        <time>2014-07-07T18:19:47Z</time>
      </trkpt>
      <trkpt lat="59.8846038" lon="17.635931">
        <ele>21.767</ele>
        <time>2014-07-07T18:19:48Z</time>
      </trkpt>
      <trkpt lat="59.884522" lon="17.6359085">
        <ele>21.767</ele>
        <time>2014-07-07T18:19:49Z</time>
      </trkpt>
      <trkpt lat="59.8844406" lon="17.6358782">
        <ele>21.2864</ele>
        <time>2014-07-07T18:19:50Z</time>
      </trkpt>
      <trkpt lat="59.8843646" lon="17.6358374">
        <ele>21.2864</ele>
        <time>2014-07-07T18:19:51Z</time>
      </trkpt>
      <trkpt lat="59.8842894" lon="17.6357921">
        <ele>21.2864</ele>
        <time>2014-07-07T18:19:52Z</time>
      </trkpt>
      <trkpt lat="59.8842173" lon="17.6357481">
        <ele>21.2864</ele>
        <time>2014-07-07T18:19:53Z</time>
      </trkpt>
      <trkpt lat="59.884146" lon="17.6357212">
        <ele>21.2864</ele>
        <time>2014-07-07T18:19:54Z</time>
      </trkpt>
      <trkpt lat="59.8840495" lon="17.6356775">
        <ele>21.767</ele>
        <time>2014-07-07T18:19:55Z</time>
      </trkpt>
      <trkpt lat="59.8839168" lon="17.6356254">
        <ele>22.2476</ele>
        <time>2014-07-07T18:19:56Z</time>
      </trkpt>
      <trkpt lat="59.883829" lon="17.6356415">
        <ele>22.7283</ele>
        <time>2014-07-07T18:19:57Z</time>
      </trkpt>
      <trkpt lat="59.8837647" lon="17.6356112">
        <ele>22.7283</ele>
        <time>2014-07-07T18:19:58Z</time>
      </trkpt>
      <trkpt lat="59.8837077" lon="17.6355405">
        <ele>23.6896</ele>
        <time>2014-07-07T18:19:59Z</time>
      </trkpt>
      <trkpt lat="59.8836647" lon="17.6355426">
        <ele>24.1703</ele>
        <time>2014-07-07T18:20:00Z</time>
      </trkpt>
      <trkpt lat="59.8836032" lon="17.6354949">
        <ele>24.651</ele>
        <time>2014-07-07T18:20:01Z</time>
      </trkpt>
      <trkpt lat="59.8835596" lon="17.6354827">
        <ele>24.651</ele>
        <time>2014-07-07T18:20:02Z</time>
      </trkpt>
      <trkpt lat="59.8835223" lon="17.6354724">
        <ele>24.651</ele>
        <time>2014-07-07T18:20:03Z</time>
      </trkpt>
      <trkpt lat="59.8834885" lon="17.6354675">
        <ele>24.651</ele>
        <time>2014-07-07T18:20:04Z</time>
      </trkpt>
      <trkpt lat="59.8834529" lon="17.6354682">
        <ele>24.1703</ele>
        <time>2014-07-07T18:20:05Z</time>
      </trkpt>
      <trkpt lat="59.883412" lon="17.6354774">
        <ele>23.6896</ele>
        <time>2014-07-07T18:20:06Z</time>
      </trkpt>
      <trkpt lat="59.8833626" lon="17.635486">
        <ele>23.209</ele>
        <time>2014-07-07T18:20:07Z</time>
      </trkpt>
      <trkpt lat="59.8833041" lon="17.6354884">
        <ele>23.209</ele>
        <time>2014-07-07T18:20:08Z</time>
      </trkpt>
      <trkpt lat="59.8832405" lon="17.6354827">
        <ele>23.209</ele>
        <time>2014-07-07T18:20:09Z</time>
      </trkpt>
      <trkpt lat="59.8831771" lon="17.6354747">
        <ele>23.209</ele>
        <time>2014-07-07T18:20:10Z</time>
      </trkpt>
      <trkpt lat="59.8831104" lon="17.635466">
        <ele>23.209</ele>
        <time>2014-07-07T18:20:11Z</time>
      </trkpt>
      <trkpt lat="59.883037" lon="17.6354683">
        <ele>22.7283</ele>
        <time>2014-07-07T18:20:12Z</time>
      </trkpt>
      <trkpt lat="59.8829632" lon="17.6354685">
        <ele>22.7283</ele>
        <time>2014-07-07T18:20:13Z</time>
      </trkpt>
      <trkpt lat="59.8828898" lon="17.6354797">
        <ele>22.2476</ele>
        <time>2014-07-07T18:20:14Z</time>
      </trkpt>
      <trkpt lat="59.8828161" lon="17.635487">
        <ele>22.2476</ele>
        <time>2014-07-07T18:20:15Z</time>
      </trkpt>
      <trkpt lat="59.8827393" lon="17.6354965">
        <ele>21.767</ele>
        <time>2014-07-07T18:20:16Z</time>
      </trkpt>
      <trkpt lat="59.8826603" lon="17.6355133">
        <ele>21.767</ele>
        <time>2014-07-07T18:20:17Z</time>
      </trkpt>
      <trkpt lat="59.882582" lon="17.6355379">
        <ele>21.767</ele>
        <time>2014-07-07T18:20:18Z</time>
      </trkpt>
      <trkpt lat="59.8825048" lon="17.6355662">
        <ele>21.2864</ele>
        <time>2014-07-07T18:20:19Z</time>
      </trkpt>
      <trkpt lat="59.8824272" lon="17.6355948">
        <ele>21.2864</ele>
        <time>2014-07-07T18:20:20Z</time>
      </trkpt>
      <trkpt lat="59.8823532" lon="17.6356278">
        <ele>20.8057</ele>
        <time>2014-07-07T18:20:21Z</time>
      </trkpt>
      <trkpt lat="59.88228" lon="17.6356654">
        <ele>20.8057</ele>
        <time>2014-07-07T18:20:22Z</time>
      </trkpt>
      <trkpt lat="59.8822007" lon="17.6356969">
        <ele>20.8057</ele>
        <time>2014-07-07T18:20:23Z</time>
      </trkpt>
      <trkpt lat="59.8821195" lon="17.6357265">
        <ele>20.8057</ele>
        <time>2014-07-07T18:20:24Z</time>
      </trkpt>
      <trkpt lat="59.8820367" lon="17.6357531">
        <ele>20.8057</ele>
        <time>2014-07-07T18:20:25Z</time>
      </trkpt>
      <trkpt lat="59.8819548" lon="17.6357756">
        <ele>20.8057</ele>
        <time>2014-07-07T18:20:26Z</time>
      </trkpt>
      <trkpt lat="59.8818738" lon="17.6357975">
        <ele>20.8057</ele>
        <time>2014-07-07T18:20:27Z</time>
      </trkpt>
      <trkpt lat="59.8817938" lon="17.6358205">
        <ele>20.8057</ele>
        <time>2014-07-07T18:20:28Z</time>
      </trkpt>
      <trkpt lat="59.8817134" lon="17.6358397">
        <ele>20.8057</ele>
        <time>2014-07-07T18:20:29Z</time>
      </trkpt>
      <trkpt lat="59.8816331" lon="17.6358472">
        <ele>20.325</ele>
        <time>2014-07-07T18:20:30Z</time>
      </trkpt>
      <trkpt lat="59.8815537" lon="17.6358252">
        <ele>20.325</ele>
        <time>2014-07-07T18:20:31Z</time>
      </trkpt>
      <trkpt lat="59.8814782" lon="17.6357683">
        <ele>20.325</ele>
        <time>2014-07-07T18:20:32Z</time>
      </trkpt>
      <trkpt lat="59.8814062" lon="17.6356956">
        <ele>20.325</ele>
        <time>2014-07-07T18:20:33Z</time>
      </trkpt>
      <trkpt lat="59.8813321" lon="17.6356358">
        <ele>20.325</ele>
        <time>2014-07-07T18:20:34Z</time>
      </trkpt>
      <trkpt lat="59.8812539" lon="17.6356042">
        <ele>20.325</ele>
        <time>2014-07-07T18:20:35Z</time>
      </trkpt>
      <trkpt lat="59.8811736" lon="17.6355929">
        <ele>20.325</ele>
        <time>2014-07-07T18:20:36Z</time>
      </trkpt>
      <trkpt lat="59.8810926" lon="17.6355922">
        <ele>20.325</ele>
        <time>2014-07-07T18:20:37Z</time>
      </trkpt>
      <trkpt lat="59.8810111" lon="17.6355959">
        <ele>20.325</ele>
        <time>2014-07-07T18:20:38Z</time>
      </trkpt>
      <trkpt lat="59.8809295" lon="17.6356016">
        <ele>19.8444</ele>
        <time>2014-07-07T18:20:39Z</time>
      </trkpt>
      <trkpt lat="59.8808471" lon="17.6356087">
        <ele>19.8444</ele>
        <time>2014-07-07T18:20:40Z</time>
      </trkpt>
      <trkpt lat="59.8807642" lon="17.6356161">
        <ele>19.8444</ele>
        <time>2014-07-07T18:20:41Z</time>
      </trkpt>
      <trkpt lat="59.880681" lon="17.6356238">
        <ele>19.8444</ele>
        <time>2014-07-07T18:20:42Z</time>
      </trkpt>
      <trkpt lat="59.8805981" lon="17.6356332">
        <ele>19.8444</ele>
        <time>2014-07-07T18:20:43Z</time>
      </trkpt>
      <trkpt lat="59.8805152" lon="17.6356429">
        <ele>19.8444</ele>
        <time>2014-07-07T18:20:44Z</time>
      </trkpt>
      <trkpt lat="59.8804319" lon="17.6356523">
        <ele>19.3638</ele>
        <time>2014-07-07T18:20:45Z</time>
      </trkpt>
      <trkpt lat="59.8803485" lon="17.6356607">
        <ele>19.3638</ele>
        <time>2014-07-07T18:20:46Z</time>
      </trkpt>
      <trkpt lat="59.8802651" lon="17.6356672">
        <ele>19.3638</ele>
        <time>2014-07-07T18:20:47Z</time>
      </trkpt>
      <trkpt lat="59.8801811" lon="17.6356713">
        <ele>19.3638</ele>
        <time>2014-07-07T18:20:48Z</time>
      </trkpt>
      <trkpt lat="59.8800967" lon="17.635675">
        <ele>19.3638</ele>
        <time>2014-07-07T18:20:49Z</time>
      </trkpt>
      <trkpt lat="59.8800127" lon="17.6356789">
        <ele>18.8831</ele>
        <time>2014-07-07T18:20:50Z</time>
      </trkpt>
      <trkpt lat="59.8799283" lon="17.6356829">
        <ele>18.8831</ele>
        <time>2014-07-07T18:20:51Z</time>
      </trkpt>
      <trkpt lat="59.8798434" lon="17.635687">
        <ele>18.8831</ele>
        <time>2014-07-07T18:20:52Z</time>
      </trkpt>
      <trkpt lat="59.8797587" lon="17.6356917">
        <ele>18.8831</ele>
        <time>2014-07-07T18:20:53Z</time>
      </trkpt>
      <trkpt lat="59.8796744" lon="17.6356964">
        <ele>18.8831</ele>
        <time>2014-07-07T18:20:54Z</time>
      </trkpt>
      <trkpt lat="59.8795906" lon="17.6357005">
        <ele>18.4023</ele>
        <time>2014-07-07T18:20:55Z</time>
      </trkpt>
      <trkpt lat="59.8795072" lon="17.6357053">
        <ele>18.4023</ele>
        <time>2014-07-07T18:20:56Z</time>
      </trkpt>
      <trkpt lat="59.8794238" lon="17.6357119">
        <ele>18.4023</ele>
        <time>2014-07-07T18:20:57Z</time>
      </trkpt>
      <trkpt lat="59.8793404" lon="17.6357192">
        <ele>18.4023</ele>
        <time>2014-07-07T18:20:58Z</time>
      </trkpt>
      <trkpt lat="59.8792573" lon="17.6357238">
        <ele>17.9218</ele>
        <time>2014-07-07T18:20:59Z</time>
      </trkpt>
      <trkpt lat="59.8791746" lon="17.6357252">
        <ele>17.9218</ele>
        <time>2014-07-07T18:21:00Z</time>
      </trkpt>
      <trkpt lat="59.8790928" lon="17.6357275">
        <ele>17.9218</ele>
        <time>2014-07-07T18:21:01Z</time>
      </trkpt>
      <trkpt lat="59.8790114" lon="17.6357312">
        <ele>17.9218</ele>
        <time>2014-07-07T18:21:02Z</time>
      </trkpt>
      <trkpt lat="59.8789317" lon="17.6357352">
        <ele>17.9218</ele>
        <time>2014-07-07T18:21:03Z</time>
      </trkpt>
      <trkpt lat="59.878854" lon="17.6357393">
        <ele>17.4412</ele>
        <time>2014-07-07T18:21:04Z</time>
      </trkpt>
      <trkpt lat="59.8787783" lon="17.6357441">
        <ele>17.4412</ele>
        <time>2014-07-07T18:21:05Z</time>
      </trkpt>
      <trkpt lat="59.8787051" lon="17.6357487">
        <ele>17.4412</ele>
        <time>2014-07-07T18:21:06Z</time>
      </trkpt>
      <trkpt lat="59.878636" lon="17.6357528">
        <ele>17.4412</ele>
        <time>2014-07-07T18:21:07Z</time>
      </trkpt>
      <trkpt lat="59.8785711" lon="17.6357565">
        <ele>16.9604</ele>
        <time>2014-07-07T18:21:08Z</time>
      </trkpt>
      <trkpt lat="59.8785083" lon="17.6357599">
        <ele>16.9604</ele>
        <time>2014-07-07T18:21:09Z</time>
      </trkpt>
      <trkpt lat="59.8784459" lon="17.6357533">
        <ele>16.9604</ele>
        <time>2014-07-07T18:21:10Z</time>
      </trkpt>
      <trkpt lat="59.8783872" lon="17.6357539">
        <ele>16.4797</ele>
        <time>2014-07-07T18:21:11Z</time>
      </trkpt>
      <trkpt lat="59.8783295" lon="17.6357595">
        <ele>16.4797</ele>
        <time>2014-07-07T18:21:12Z</time>
      </trkpt>
      <trkpt lat="59.8782702" lon="17.6357833">
        <ele>16.4797</ele>
        <time>2014-07-07T18:21:13Z</time>
      </trkpt>
      <trkpt lat="59.8782193" lon="17.6358417">
        <ele>15.999</ele>
        <time>2014-07-07T18:21:14Z</time>
      </trkpt>
      <trkpt lat="59.8781788" lon="17.6359319">
        <ele>15.999</ele>
        <time>2014-07-07T18:21:15Z</time>
      </trkpt>
      <trkpt lat="59.8781368" lon="17.6360275">
        <ele>15.999</ele>
        <time>2014-07-07T18:21:16Z</time>
      </trkpt>
      <trkpt lat="59.8780886" lon="17.6361149">
        <ele>15.999</ele>
        <time>2014-07-07T18:21:17Z</time>
      </trkpt>
      <trkpt lat="59.8780427" lon="17.6362013">
        <ele>16.4797</ele>
        <time>2014-07-07T18:21:18Z</time>
      </trkpt>
      <trkpt lat="59.878008" lon="17.6362991">
        <ele>16.4797</ele>
        <time>2014-07-07T18:21:19Z</time>
      </trkpt>
      <trkpt lat="59.8779882" lon="17.6364092">
        <ele>16.9604</ele>
        <time>2014-07-07T18:21:20Z</time>
      </trkpt>
      <trkpt lat="59.8779811" lon="17.6365277">
        <ele>16.9604</ele>
        <time>2014-07-07T18:21:21Z</time>
      </trkpt>
      <trkpt lat="59.8779799" lon="17.6366483">
        <ele>17.4412</ele>
        <time>2014-07-07T18:21:22Z</time>
      </trkpt>
      <trkpt lat="59.8779812" lon="17.6367705">
        <ele>17.9218</ele>
        <time>2014-07-07T18:21:23Z</time>
      </trkpt>
      <trkpt lat="59.8779842" lon="17.6368951">
        <ele>17.9218</ele>
        <time>2014-07-07T18:21:24Z</time>
      </trkpt>
      <trkpt lat="59.8779883" lon="17.6370213">
        <ele>18.4023</ele>
        <time>2014-07-07T18:21:25Z</time>
      </trkpt>
      <trkpt lat="59.8779934" lon="17.6371458">
        <ele>18.8831</ele>
        <time>2014-07-07T18:21:26Z</time>
      </trkpt>
      <trkpt lat="59.8780047" lon="17.6372697">
        <ele>18.8831</ele>
        <time>2014-07-07T18:21:27Z</time>
      </trkpt>
      <trkpt lat="59.8780245" lon="17.6373852">
        <ele>19.3638</ele>
        <time>2014-07-07T18:21:28Z</time>
      </trkpt>
      <trkpt lat="59.8780505" lon="17.6374898">
        <ele>19.3638</ele>
        <time>2014-07-07T18:21:29Z</time>
      </trkpt>
      <trkpt lat="59.8780824" lon="17.6375841">
        <ele>19.8444</ele>
        <time>2014-07-07T18:21:30Z</time>
      </trkpt>
      <trkpt lat="59.8781199" lon="17.6376653">
        <ele>19.8444</ele>
        <time>2014-07-07T18:21:31Z</time>
      </trkpt>
      <trkpt lat="59.8781629" lon="17.6377356">
        <ele>19.8444</ele>
        <time>2014-07-07T18:21:32Z</time>
      </trkpt>
      <trkpt lat="59.8782104" lon="17.6377994">
        <ele>19.8444</ele>
        <time>2014-07-07T18:21:33Z</time>
      </trkpt>
      <trkpt lat="59.8782614" lon="17.6378552">
        <ele>19.8444</ele>
        <time>2014-07-07T18:21:34Z</time>
      </trkpt>
      <trkpt lat="59.8783161" lon="17.6379013">
        <ele>19.8444</ele>
        <time>2014-07-07T18:21:35Z</time>
      </trkpt>
      <trkpt lat="59.8783717" lon="17.6379356">
        <ele>19.3638</ele>
        <time>2014-07-07T18:21:36Z</time>
      </trkpt>
      <trkpt lat="59.8784313" lon="17.6379653">
        <ele>19.3638</ele>
        <time>2014-07-07T18:21:37Z</time>
      </trkpt>
      <trkpt lat="59.878494" lon="17.6379959">
        <ele>19.3638</ele>
        <time>2014-07-07T18:21:38Z</time>
      </trkpt>
      <trkpt lat="59.8785556" lon="17.6380342">
        <ele>18.8831</ele>
        <time>2014-07-07T18:21:39Z</time>
      </trkpt>
      <trkpt lat="59.8786177" lon="17.6380822">
        <ele>18.4023</ele>
        <time>2014-07-07T18:21:40Z</time>
      </trkpt>
      <trkpt lat="59.8786804" lon="17.638137">
        <ele>18.4023</ele>
        <time>2014-07-07T18:21:41Z</time>
      </trkpt>
      <trkpt lat="59.8787363" lon="17.6382071">
        <ele>17.9218</ele>
        <time>2014-07-07T18:21:42Z</time>
      </trkpt>
      <trkpt lat="59.878784" lon="17.6382952">
        <ele>16.9604</ele>
        <time>2014-07-07T18:21:43Z</time>
      </trkpt>
      <trkpt lat="59.8788224" lon="17.6383971">
        <ele>16.4797</ele>
        <time>2014-07-07T18:21:44Z</time>
      </trkpt>
      <trkpt lat="59.8788482" lon="17.6385314">
        <ele>16.4797</ele>
        <time>2014-07-07T18:21:45Z</time>
      </trkpt>
      <trkpt lat="59.8788429" lon="17.638793">
        <ele>16.4797</ele>
        <time>2014-07-07T18:21:46Z</time>
      </trkpt>
      <trkpt lat="59.8788418" lon="17.6389376">
        <ele>16.4797</ele>
        <time>2014-07-07T18:21:47Z</time>
      </trkpt>
      <trkpt lat="59.8788387" lon="17.639093">
        <ele>15.999</ele>
        <time>2014-07-07T18:21:48Z</time>
      </trkpt>
      <trkpt lat="59.8788348" lon="17.6392265">
        <ele>16.4797</ele>
        <time>2014-07-07T18:21:49Z</time>
      </trkpt>
      <trkpt lat="59.8788302" lon="17.6393441">
        <ele>16.4797</ele>
        <time>2014-07-07T18:21:50Z</time>
      </trkpt>
      <trkpt lat="59.8788197" lon="17.6394566">
        <ele>16.4797</ele>
        <time>2014-07-07T18:21:51Z</time>
      </trkpt>
      <trkpt lat="59.8788235" lon="17.639667">
        <ele>17.4412</ele>
        <time>2014-07-07T18:21:52Z</time>
      </trkpt>
      <trkpt lat="59.8788361" lon="17.6397519">
        <ele>18.4023</ele>
        <time>2014-07-07T18:21:53Z</time>
      </trkpt>
      <trkpt lat="59.8788387" lon="17.639853">
        <ele>18.4023</ele>
        <time>2014-07-07T18:21:54Z</time>
      </trkpt>
      <trkpt lat="59.8788442" lon="17.6399539">
        <ele>17.9218</ele>
        <time>2014-07-07T18:21:55Z</time>
      </trkpt>
      <trkpt lat="59.8788527" lon="17.6400698">
        <ele>18.4023</ele>
        <time>2014-07-07T18:21:56Z</time>
      </trkpt>
      <trkpt lat="59.878857" lon="17.6401943">
        <ele>18.4023</ele>
        <time>2014-07-07T18:21:57Z</time>
      </trkpt>
      <trkpt lat="59.8788589" lon="17.640316">
        <ele>18.4023</ele>
        <time>2014-07-07T18:21:58Z</time>
      </trkpt>
      <trkpt lat="59.8788624" lon="17.6404363">
        <ele>18.8831</ele>
        <time>2014-07-07T18:21:59Z</time>
      </trkpt>
      <trkpt lat="59.8788617" lon="17.6405542">
        <ele>18.8831</ele>
        <time>2014-07-07T18:22:00Z</time>
      </trkpt>
      <trkpt lat="59.8788577" lon="17.6406621">
        <ele>18.8831</ele>
        <time>2014-07-07T18:22:01Z</time>
      </trkpt>
      <trkpt lat="59.8788515" lon="17.6407795">
        <ele>19.3638</ele>
        <time>2014-07-07T18:22:02Z</time>
      </trkpt>
      <trkpt lat="59.8788446" lon="17.6409002">
        <ele>20.325</ele>
        <time>2014-07-07T18:22:03Z</time>
      </trkpt>
      <trkpt lat="59.8788333" lon="17.6410236">
        <ele>21.767</ele>
        <time>2014-07-07T18:22:04Z</time>
      </trkpt>
      <trkpt lat="59.8788317" lon="17.6411615">
        <ele>23.209</ele>
        <time>2014-07-07T18:22:05Z</time>
      </trkpt>
      <trkpt lat="59.8788245" lon="17.6412826">
        <ele>23.6896</ele>
        <time>2014-07-07T18:22:06Z</time>
      </trkpt>
      <trkpt lat="59.8788141" lon="17.6414022">
        <ele>23.6896</ele>
        <time>2014-07-07T18:22:07Z</time>
      </trkpt>
      <trkpt lat="59.8788083" lon="17.641525">
        <ele>24.1703</ele>
        <time>2014-07-07T18:22:08Z</time>
      </trkpt>
      <trkpt lat="59.8788099" lon="17.6416556">
        <ele>25.1317</ele>
        <time>2014-07-07T18:22:09Z</time>
      </trkpt>
      <trkpt lat="59.8788131" lon="17.6417706">
        <ele>25.6123</ele>
        <time>2014-07-07T18:22:10Z</time>
      </trkpt>
      <trkpt lat="59.8788161" lon="17.6418971">
        <ele>26.0929</ele>
        <time>2014-07-07T18:22:11Z</time>
      </trkpt>
      <trkpt lat="59.8788243" lon="17.6420278">
        <ele>27.5349</ele>
        <time>2014-07-07T18:22:12Z</time>
      </trkpt>
      <trkpt lat="59.8788301" lon="17.6421548">
        <ele>29.4575</ele>
        <time>2014-07-07T18:22:13Z</time>
      </trkpt>
      <trkpt lat="59.8788359" lon="17.6422865">
        <ele>29.9381</ele>
        <time>2014-07-07T18:22:14Z</time>
      </trkpt>
      <trkpt lat="59.8788439" lon="17.6424217">
        <ele>30.4188</ele>
        <time>2014-07-07T18:22:15Z</time>
      </trkpt>
      <trkpt lat="59.8788473" lon="17.642532">
        <ele>29.4575</ele>
        <time>2014-07-07T18:22:16Z</time>
      </trkpt>
      <trkpt lat="59.8788534" lon="17.642657">
        <ele>29.4575</ele>
        <time>2014-07-07T18:22:17Z</time>
      </trkpt>
      <trkpt lat="59.8788581" lon="17.6427906">
        <ele>29.4575</ele>
        <time>2014-07-07T18:22:18Z</time>
      </trkpt>
      <trkpt lat="59.8788655" lon="17.642933">
        <ele>29.4575</ele>
        <time>2014-07-07T18:22:19Z</time>
      </trkpt>
      <trkpt lat="59.8788714" lon="17.6430599">
        <ele>28.9769</ele>
        <time>2014-07-07T18:22:20Z</time>
      </trkpt>
      <trkpt lat="59.8788768" lon="17.6432078">
        <ele>29.4575</ele>
        <time>2014-07-07T18:22:21Z</time>
      </trkpt>
      <trkpt lat="59.8788856" lon="17.6433532">
        <ele>29.9381</ele>
        <time>2014-07-07T18:22:22Z</time>
      </trkpt>
      <trkpt lat="59.8788931" lon="17.6434882">
        <ele>29.9381</ele>
        <time>2014-07-07T18:22:23Z</time>
      </trkpt>
      <trkpt lat="59.8788983" lon="17.6436318">
        <ele>29.9381</ele>
        <time>2014-07-07T18:22:24Z</time>
      </trkpt>
      <trkpt lat="59.8789028" lon="17.6437588">
        <ele>28.9769</ele>
        <time>2014-07-07T18:22:25Z</time>
      </trkpt>
      <trkpt lat="59.8789104" lon="17.643898">
        <ele>29.4575</ele>
        <time>2014-07-07T18:22:26Z</time>
      </trkpt>
      <trkpt lat="59.8789204" lon="17.6440286">
        <ele>28.9769</ele>
        <time>2014-07-07T18:22:27Z</time>
      </trkpt>
      <trkpt lat="59.8789311" lon="17.6441528">
        <ele>28.0155</ele>
        <time>2014-07-07T18:22:28Z</time>
      </trkpt>
      <trkpt lat="59.8789447" lon="17.6442798">
        <ele>27.5349</ele>
        <time>2014-07-07T18:22:29Z</time>
      </trkpt>
      <trkpt lat="59.8789618" lon="17.6444068">
        <ele>27.5349</ele>
        <time>2014-07-07T18:22:30Z</time>
      </trkpt>
      <trkpt lat="59.8789822" lon="17.6445342">
        <ele>27.5349</ele>
        <time>2014-07-07T18:22:31Z</time>
      </trkpt>
      <trkpt lat="59.8790055" lon="17.6446543">
        <ele>27.0543</ele>
        <time>2014-07-07T18:22:32Z</time>
      </trkpt>
      <trkpt lat="59.879026" lon="17.6447731">
        <ele>26.0929</ele>
        <time>2014-07-07T18:22:33Z</time>
      </trkpt>
      <trkpt lat="59.8790415" lon="17.6448962">
        <ele>25.1317</ele>
        <time>2014-07-07T18:22:34Z</time>
      </trkpt>
      <trkpt lat="59.8790477" lon="17.6450193">
        <ele>24.1703</ele>
        <time>2014-07-07T18:22:35Z</time>
      </trkpt>
      <trkpt lat="59.8790545" lon="17.6451315">
        <ele>23.6896</ele>
        <time>2014-07-07T18:22:36Z</time>
      </trkpt>
      <trkpt lat="59.8790607" lon="17.6452281">
        <ele>22.7283</ele>
        <time>2014-07-07T18:22:37Z</time>
      </trkpt>
      <trkpt lat="59.8790663" lon="17.6453137">
        <ele>22.2476</ele>
        <time>2014-07-07T18:22:38Z</time>
      </trkpt>
      <trkpt lat="59.8790694" lon="17.645384">
        <ele>22.2476</ele>
        <time>2014-07-07T18:22:39Z</time>
      </trkpt>
      <trkpt lat="59.8790755" lon="17.6454385">
        <ele>21.2864</ele>
        <time>2014-07-07T18:22:40Z</time>
      </trkpt>
      <trkpt lat="59.8790834" lon="17.6454956">
        <ele>21.2864</ele>
        <time>2014-07-07T18:22:41Z</time>
      </trkpt>
      <trkpt lat="59.8790859" lon="17.6455432">
        <ele>20.8057</ele>
        <time>2014-07-07T18:22:42Z</time>
      </trkpt>
      <trkpt lat="59.879084" lon="17.6455791">
        <ele>20.325</ele>
        <time>2014-07-07T18:22:43Z</time>
      </trkpt>
      <trkpt lat="59.8790802" lon="17.6456078">
        <ele>19.8444</ele>
        <time>2014-07-07T18:22:44Z</time>
      </trkpt>
      <trkpt lat="59.879078" lon="17.6456288">
        <ele>19.3638</ele>
        <time>2014-07-07T18:22:45Z</time>
      </trkpt>
      <trkpt lat="59.8790747" lon="17.6456448">
        <ele>18.4023</ele>
        <time>2014-07-07T18:22:46Z</time>
      </trkpt>
      <trkpt lat="59.8790732" lon="17.6456627">
        <ele>17.9218</ele>
        <time>2014-07-07T18:22:47Z</time>
      </trkpt>
      <trkpt lat="59.8790735" lon="17.6456972">
        <ele>18.4023</ele>
        <time>2014-07-07T18:22:48Z</time>
      </trkpt>
      <trkpt lat="59.8790737" lon="17.6457193">
        <ele>18.4023</ele>
        <time>2014-07-07T18:22:49Z</time>
      </trkpt>
      <trkpt lat="59.8790741" lon="17.6457322">
        <ele>17.9218</ele>
        <time>2014-07-07T18:22:50Z</time>
      </trkpt>
      <trkpt lat="59.8790735" lon="17.645737">
        <ele>18.4023</ele>
        <time>2014-07-07T18:22:51Z</time>
      </trkpt>
      <trkpt lat="59.8790725" lon="17.6457476">
        <ele>18.4023</ele>
        <time>2014-07-07T18:22:52Z</time>
      </trkpt>
      <trkpt lat="59.879071" lon="17.6457797">
        <ele>18.4023</ele>
        <time>2014-07-07T18:22:53Z</time>
      </trkpt>
      <trkpt lat="59.879071" lon="17.6458215">
        <ele>17.9218</ele>
        <time>2014-07-07T18:22:54Z</time>
      </trkpt>
      <trkpt lat="59.8790756" lon="17.645872">
        <ele>17.4412</ele>
        <time>2014-07-07T18:22:55Z</time>
      </trkpt>
      <trkpt lat="59.8790808" lon="17.6459468">
        <ele>17.4412</ele>
        <time>2014-07-07T18:22:56Z</time>
      </trkpt>
      <trkpt lat="59.8790838" lon="17.6460274">
        <ele>16.9604</ele>
        <time>2014-07-07T18:22:57Z</time>
      </trkpt>
      <trkpt lat="59.8790851" lon="17.646111">
        <ele>16.9604</ele>
        <time>2014-07-07T18:22:58Z</time>
      </trkpt>
      <trkpt lat="59.8790866" lon="17.6462104">
        <ele>16.4797</ele>
        <time>2014-07-07T18:22:59Z</time>
      </trkpt>
      <trkpt lat="59.8790913" lon="17.6463285">
        <ele>16.4797</ele>
        <time>2014-07-07T18:23:00Z</time>
      </trkpt>
      <trkpt lat="59.8790968" lon="17.6464523">
        <ele>16.4797</ele>
        <time>2014-07-07T18:23:01Z</time>
      </trkpt>
      <trkpt lat="59.8791035" lon="17.646569">
        <ele>15.999</ele>
        <time>2014-07-07T18:23:02Z</time>
      </trkpt>
      <trkpt lat="59.8791098" lon="17.6466848">
        <ele>15.0377</ele>
        <time>2014-07-07T18:23:03Z</time>
      </trkpt>
      <trkpt lat="59.8791155" lon="17.6468173">
        <ele>14.557</ele>
        <time>2014-07-07T18:23:04Z</time>
      </trkpt>
      <trkpt lat="59.879118" lon="17.6469556">
        <ele>14.0764</ele>
        <time>2014-07-07T18:23:05Z</time>
      </trkpt>
      <trkpt lat="59.8791151" lon="17.6470905">
        <ele>13.5958</ele>
        <time>2014-07-07T18:23:06Z</time>
      </trkpt>
      <trkpt lat="59.8791143" lon="17.6472185">
        <ele>13.1151</ele>
        <time>2014-07-07T18:23:07Z</time>
      </trkpt>
      <trkpt lat="59.8791154" lon="17.6473501">
        <ele>13.1151</ele>
        <time>2014-07-07T18:23:08Z</time>
      </trkpt>
      <trkpt lat="59.8791184" lon="17.647492">
        <ele>13.5958</ele>
        <time>2014-07-07T18:23:09Z</time>
      </trkpt>
      <trkpt lat="59.8791187" lon="17.6476324">
        <ele>13.5958</ele>
        <time>2014-07-07T18:23:10Z</time>
      </trkpt>
      <trkpt lat="59.8791159" lon="17.6477663">
        <ele>13.1151</ele>
        <time>2014-07-07T18:23:11Z</time>
      </trkpt>
      <trkpt lat="59.8791157" lon="17.6479064">
        <ele>13.1151</ele>
        <time>2014-07-07T18:23:12Z</time>
      </trkpt>
      <trkpt lat="59.8791197" lon="17.6481196">
        <ele>13.1151</ele>
        <time>2014-07-07T18:23:13Z</time>
      </trkpt>
      <trkpt lat="59.879113" lon="17.6483022">
        <ele>13.5958</ele>
        <time>2014-07-07T18:23:14Z</time>
      </trkpt>
      <trkpt lat="59.8791088" lon="17.6484565">
        <ele>13.1151</ele>
        <time>2014-07-07T18:23:15Z</time>
      </trkpt>
      <trkpt lat="59.8791129" lon="17.6486091">
        <ele>13.5958</ele>
        <time>2014-07-07T18:23:16Z</time>
      </trkpt>
      <trkpt lat="59.8791135" lon="17.6487562">
        <ele>13.5958</ele>
        <time>2014-07-07T18:23:17Z</time>
      </trkpt>
      <trkpt lat="59.879113" lon="17.648903">
        <ele>13.5958</ele>
        <time>2014-07-07T18:23:18Z</time>
      </trkpt>
      <trkpt lat="59.8791166" lon="17.6490508">
        <ele>13.5958</ele>
        <time>2014-07-07T18:23:19Z</time>
      </trkpt>
      <trkpt lat="59.8791196" lon="17.6492009">
        <ele>14.0764</ele>
        <time>2014-07-07T18:23:20Z</time>
      </trkpt>
      <trkpt lat="59.8791193" lon="17.6493349">
        <ele>14.0764</ele>
        <time>2014-07-07T18:23:21Z</time>
      </trkpt>
      <trkpt lat="59.8791185" lon="17.6494656">
        <ele>14.0764</ele>
        <time>2014-07-07T18:23:22Z</time>
      </trkpt>
      <trkpt lat="59.8791187" lon="17.6496023">
        <ele>14.557</ele>
        <time>2014-07-07T18:23:23Z</time>
      </trkpt>
      <trkpt lat="59.8791218" lon="17.6497302">
        <ele>15.0377</ele>
        <time>2014-07-07T18:23:24Z</time>
      </trkpt>
      <trkpt lat="59.8791228" lon="17.6498497">
        <ele>14.557</ele>
        <time>2014-07-07T18:23:25Z</time>
      </trkpt>
      <trkpt lat="59.8791197" lon="17.6499722">
        <ele>14.557</ele>
        <time>2014-07-07T18:23:26Z</time>
      </trkpt>
      <trkpt lat="59.87912" lon="17.6501051">
        <ele>15.0377</ele>
        <time>2014-07-07T18:23:27Z</time>
      </trkpt>
      <trkpt lat="59.8791176" lon="17.6502369">
        <ele>15.0377</ele>
        <time>2014-07-07T18:23:28Z</time>
      </trkpt>
      <trkpt lat="59.8791052" lon="17.6504182">
        <ele>15.0377</ele>
        <time>2014-07-07T18:23:29Z</time>
      </trkpt>
      <trkpt lat="59.8790934" lon="17.6505623">
        <ele>15.0377</ele>
        <time>2014-07-07T18:23:30Z</time>
      </trkpt>
      <trkpt lat="59.879084" lon="17.6506903">
        <ele>15.0377</ele>
        <time>2014-07-07T18:23:31Z</time>
      </trkpt>
      <trkpt lat="59.8790813" lon="17.6508227">
        <ele>15.0377</ele>
        <time>2014-07-07T18:23:32Z</time>
      </trkpt>
      <trkpt lat="59.879082" lon="17.6509506">
        <ele>15.0377</ele>
        <time>2014-07-07T18:23:33Z</time>
      </trkpt>
      <trkpt lat="59.8790793" lon="17.651084">
        <ele>15.0377</ele>
        <time>2014-07-07T18:23:34Z</time>
      </trkpt>
      <trkpt lat="59.8790762" lon="17.6512227">
        <ele>15.0377</ele>
        <time>2014-07-07T18:23:35Z</time>
      </trkpt>
      <trkpt lat="59.8790763" lon="17.6513593">
        <ele>15.0377</ele>
        <time>2014-07-07T18:23:36Z</time>
      </trkpt>
      <trkpt lat="59.879077" lon="17.6514949">
        <ele>15.0377</ele>
        <time>2014-07-07T18:23:37Z</time>
      </trkpt>
      <trkpt lat="59.8790777" lon="17.6516427">
        <ele>14.557</ele>
        <time>2014-07-07T18:23:38Z</time>
      </trkpt>
      <trkpt lat="59.8790674" lon="17.6517938">
        <ele>14.557</ele>
        <time>2014-07-07T18:23:39Z</time>
      </trkpt>
      <trkpt lat="59.8790679" lon="17.6519374">
        <ele>15.0377</ele>
        <time>2014-07-07T18:23:40Z</time>
      </trkpt>
      <trkpt lat="59.8790715" lon="17.6520759">
        <ele>15.5184</ele>
        <time>2014-07-07T18:23:41Z</time>
      </trkpt>
      <trkpt lat="59.8790751" lon="17.6522093">
        <ele>15.5184</ele>
        <time>2014-07-07T18:23:42Z</time>
      </trkpt>
      <trkpt lat="59.8790834" lon="17.6523472">
        <ele>15.5184</ele>
        <time>2014-07-07T18:23:43Z</time>
      </trkpt>
      <trkpt lat="59.8790969" lon="17.6524809">
        <ele>15.999</ele>
        <time>2014-07-07T18:23:44Z</time>
      </trkpt>
      <trkpt lat="59.8791039" lon="17.6526142">
        <ele>15.999</ele>
        <time>2014-07-07T18:23:45Z</time>
      </trkpt>
      <trkpt lat="59.8791084" lon="17.6527502">
        <ele>16.4797</ele>
        <time>2014-07-07T18:23:46Z</time>
      </trkpt>
      <trkpt lat="59.8791093" lon="17.6528794">
        <ele>16.4797</ele>
        <time>2014-07-07T18:23:47Z</time>
      </trkpt>
      <trkpt lat="59.8791067" lon="17.6530112">
        <ele>16.9604</ele>
        <time>2014-07-07T18:23:48Z</time>
      </trkpt>
      <trkpt lat="59.8791135" lon="17.6531425">
        <ele>16.9604</ele>
        <time>2014-07-07T18:23:49Z</time>
      </trkpt>
      <trkpt lat="59.8791176" lon="17.6532717">
        <ele>17.4412</ele>
        <time>2014-07-07T18:23:50Z</time>
      </trkpt>
      <trkpt lat="59.8791197" lon="17.6533986">
        <ele>17.4412</ele>
        <time>2014-07-07T18:23:51Z</time>
      </trkpt>
      <trkpt lat="59.8791166" lon="17.6535221">
        <ele>16.9604</ele>
        <time>2014-07-07T18:23:52Z</time>
      </trkpt>
      <trkpt lat="59.8791134" lon="17.6536452">
        <ele>16.9604</ele>
        <time>2014-07-07T18:23:53Z</time>
      </trkpt>
      <trkpt lat="59.8791105" lon="17.6537687">
        <ele>16.4797</ele>
        <time>2014-07-07T18:23:54Z</time>
      </trkpt>
      <trkpt lat="59.8791096" lon="17.6538981">
        <ele>16.4797</ele>
        <time>2014-07-07T18:23:55Z</time>
      </trkpt>
      <trkpt lat="59.8791109" lon="17.6540278">
        <ele>16.4797</ele>
        <time>2014-07-07T18:23:56Z</time>
      </trkpt>
      <trkpt lat="59.8791104" lon="17.6541545">
        <ele>16.4797</ele>
        <time>2014-07-07T18:23:57Z</time>
      </trkpt>
      <trkpt lat="59.879111" lon="17.6542837">
        <ele>16.4797</ele>
        <time>2014-07-07T18:23:58Z</time>
      </trkpt>
      <trkpt lat="59.8791105" lon="17.654422">
        <ele>15.999</ele>
        <time>2014-07-07T18:23:59Z</time>
      </trkpt>
      <trkpt lat="59.8791109" lon="17.654569">
        <ele>15.5184</ele>
        <time>2014-07-07T18:24:00Z</time>
      </trkpt>
      <trkpt lat="59.8791161" lon="17.6547258">
        <ele>15.5184</ele>
        <time>2014-07-07T18:24:01Z</time>
      </trkpt>
      <trkpt lat="59.87912" lon="17.6548831">
        <ele>15.0377</ele>
        <time>2014-07-07T18:24:02Z</time>
      </trkpt>
      <trkpt lat="59.8791244" lon="17.6550466">
        <ele>14.557</ele>
        <time>2014-07-07T18:24:03Z</time>
      </trkpt>
      <trkpt lat="59.8791192" lon="17.6552676">
        <ele>15.999</ele>
        <time>2014-07-07T18:24:04Z</time>
      </trkpt>
      <trkpt lat="59.8791218" lon="17.655431">
        <ele>15.0377</ele>
        <time>2014-07-07T18:24:05Z</time>
      </trkpt>
      <trkpt lat="59.8791233" lon="17.6555966">
        <ele>15.0377</ele>
        <time>2014-07-07T18:24:06Z</time>
      </trkpt>
      <trkpt lat="59.8791119" lon="17.6557427">
        <ele>15.0377</ele>
        <time>2014-07-07T18:24:07Z</time>
      </trkpt>
      <trkpt lat="59.8791229" lon="17.6558931">
        <ele>15.999</ele>
        <time>2014-07-07T18:24:08Z</time>
      </trkpt>
      <trkpt lat="59.8791161" lon="17.6560235">
        <ele>15.999</ele>
        <time>2014-07-07T18:24:09Z</time>
      </trkpt>
      <trkpt lat="59.8791294" lon="17.656179">
        <ele>16.4797</ele>
        <time>2014-07-07T18:24:10Z</time>
      </trkpt>
      <trkpt lat="59.87914" lon="17.656307">
        <ele>16.9604</ele>
        <time>2014-07-07T18:24:11Z</time>
      </trkpt>
      <trkpt lat="59.879146" lon="17.656438">
        <ele>16.9604</ele>
        <time>2014-07-07T18:24:12Z</time>
      </trkpt>
      <trkpt lat="59.8791508" lon="17.6565666">
        <ele>17.4412</ele>
        <time>2014-07-07T18:24:13Z</time>
      </trkpt>
      <trkpt lat="59.8791513" lon="17.6566969">
        <ele>17.9218</ele>
        <time>2014-07-07T18:24:14Z</time>
      </trkpt>
      <trkpt lat="59.879146" lon="17.656824">
        <ele>18.4023</ele>
        <time>2014-07-07T18:24:15Z</time>
      </trkpt>
      <trkpt lat="59.879143" lon="17.6569493">
        <ele>18.8831</ele>
        <time>2014-07-07T18:24:16Z</time>
      </trkpt>
      <trkpt lat="59.8791415" lon="17.657082">
        <ele>19.3638</ele>
        <time>2014-07-07T18:24:17Z</time>
      </trkpt>
      <trkpt lat="59.879156" lon="17.6572186">
        <ele>19.8444</ele>
        <time>2014-07-07T18:24:18Z</time>
      </trkpt>
      <trkpt lat="59.8791609" lon="17.6573567">
        <ele>20.325</ele>
        <time>2014-07-07T18:24:19Z</time>
      </trkpt>
      <trkpt lat="59.8791473" lon="17.6574912">
        <ele>20.325</ele>
        <time>2014-07-07T18:24:20Z</time>
      </trkpt>
      <trkpt lat="59.8791412" lon="17.657623">
        <ele>20.325</ele>
        <time>2014-07-07T18:24:21Z</time>
      </trkpt>
      <trkpt lat="59.8791447" lon="17.6577449">
        <ele>20.8057</ele>
        <time>2014-07-07T18:24:22Z</time>
      </trkpt>
      <trkpt lat="59.8791425" lon="17.6578636">
        <ele>21.2864</ele>
        <time>2014-07-07T18:24:23Z</time>
      </trkpt>
      <trkpt lat="59.8791237" lon="17.6579835">
        <ele>21.767</ele>
        <time>2014-07-07T18:24:24Z</time>
      </trkpt>
      <trkpt lat="59.8791133" lon="17.6581051">
        <ele>22.2476</ele>
        <time>2014-07-07T18:24:25Z</time>
      </trkpt>
      <trkpt lat="59.8791066" lon="17.6582226">
        <ele>22.7283</ele>
        <time>2014-07-07T18:24:26Z</time>
      </trkpt>
      <trkpt lat="59.8790897" lon="17.6583418">
        <ele>22.2476</ele>
        <time>2014-07-07T18:24:27Z</time>
      </trkpt>
      <trkpt lat="59.879055" lon="17.6584515">
        <ele>22.7283</ele>
        <time>2014-07-07T18:24:28Z</time>
      </trkpt>
      <trkpt lat="59.8790089" lon="17.6585515">
        <ele>23.6896</ele>
        <time>2014-07-07T18:24:29Z</time>
      </trkpt>
      <trkpt lat="59.8789611" lon="17.658634">
        <ele>23.6896</ele>
        <time>2014-07-07T18:24:30Z</time>
      </trkpt>
      <trkpt lat="59.8789058" lon="17.6586995">
        <ele>23.209</ele>
        <time>2014-07-07T18:24:31Z</time>
      </trkpt>
      <trkpt lat="59.8788522" lon="17.6587557">
        <ele>23.209</ele>
        <time>2014-07-07T18:24:32Z</time>
      </trkpt>
      <trkpt lat="59.8788058" lon="17.6588119">
        <ele>22.7283</ele>
        <time>2014-07-07T18:24:33Z</time>
      </trkpt>
      <trkpt lat="59.8787679" lon="17.6588911">
        <ele>22.2476</ele>
        <time>2014-07-07T18:24:34Z</time>
      </trkpt>
      <trkpt lat="59.8787444" lon="17.6589866">
        <ele>22.2476</ele>
        <time>2014-07-07T18:24:35Z</time>
      </trkpt>
      <trkpt lat="59.87874" lon="17.6590843">
        <ele>22.2476</ele>
        <time>2014-07-07T18:24:36Z</time>
      </trkpt>
      <trkpt lat="59.8787415" lon="17.6591974">
        <ele>21.767</ele>
        <time>2014-07-07T18:24:37Z</time>
      </trkpt>
      <trkpt lat="59.8787455" lon="17.6593218">
        <ele>21.2864</ele>
        <time>2014-07-07T18:24:38Z</time>
      </trkpt>
      <trkpt lat="59.8787486" lon="17.6594395">
        <ele>20.8057</ele>
        <time>2014-07-07T18:24:39Z</time>
      </trkpt>
      <trkpt lat="59.8787474" lon="17.6595553">
        <ele>20.8057</ele>
        <time>2014-07-07T18:24:40Z</time>
      </trkpt>
      <trkpt lat="59.8787436" lon="17.6596762">
        <ele>20.8057</ele>
        <time>2014-07-07T18:24:41Z</time>
      </trkpt>
      <trkpt lat="59.8787425" lon="17.6597999">
        <ele>20.8057</ele>
        <time>2014-07-07T18:24:42Z</time>
      </trkpt>
      <trkpt lat="59.8787413" lon="17.6599176">
        <ele>21.2864</ele>
        <time>2014-07-07T18:24:43Z</time>
      </trkpt>
      <trkpt lat="59.878739" lon="17.6600304">
        <ele>21.2864</ele>
        <time>2014-07-07T18:24:44Z</time>
      </trkpt>
      <trkpt lat="59.8787368" lon="17.6601387">
        <ele>21.2864</ele>
        <time>2014-07-07T18:24:45Z</time>
      </trkpt>
      <trkpt lat="59.8787368" lon="17.660246">
        <ele>21.2864</ele>
        <time>2014-07-07T18:24:46Z</time>
      </trkpt>
      <trkpt lat="59.8787343" lon="17.6603484">
        <ele>21.2864</ele>
        <time>2014-07-07T18:24:47Z</time>
      </trkpt>
      <trkpt lat="59.8787333" lon="17.6604359">
        <ele>21.2864</ele>
        <time>2014-07-07T18:24:48Z</time>
      </trkpt>
      <trkpt lat="59.8787326" lon="17.6605167">
        <ele>21.767</ele>
        <time>2014-07-07T18:24:49Z</time>
      </trkpt>
      <trkpt lat="59.8787279" lon="17.6605933">
        <ele>21.767</ele>
        <time>2014-07-07T18:24:50Z</time>
      </trkpt>
      <trkpt lat="59.8787188" lon="17.6606785">
        <ele>22.7283</ele>
        <time>2014-07-07T18:24:51Z</time>
      </trkpt>
      <trkpt lat="59.878703" lon="17.6607499">
        <ele>22.7283</ele>
        <time>2014-07-07T18:24:52Z</time>
      </trkpt>
      <trkpt lat="59.8786828" lon="17.6608053">
        <ele>22.7283</ele>
        <time>2014-07-07T18:24:53Z</time>
      </trkpt>
      <trkpt lat="59.8786507" lon="17.6608521">
        <ele>22.7283</ele>
        <time>2014-07-07T18:24:54Z</time>
      </trkpt>
      <trkpt lat="59.8786126" lon="17.6608934">
        <ele>22.7283</ele>
        <time>2014-07-07T18:24:55Z</time>
      </trkpt>
      <trkpt lat="59.8785842" lon="17.6609374">
        <ele>22.7283</ele>
        <time>2014-07-07T18:24:56Z</time>
      </trkpt>
      <trkpt lat="59.878551" lon="17.6609836">
        <ele>22.2476</ele>
        <time>2014-07-07T18:24:57Z</time>
      </trkpt>
      <trkpt lat="59.8785115" lon="17.661012">
        <ele>21.767</ele>
        <time>2014-07-07T18:24:58Z</time>
      </trkpt>
      <trkpt lat="59.8784645" lon="17.6610328">
        <ele>21.2864</ele>
        <time>2014-07-07T18:24:59Z</time>
      </trkpt>
      <trkpt lat="59.8783865" lon="17.6610633">
        <ele>20.8057</ele>
        <time>2014-07-07T18:25:00Z</time>
      </trkpt>
      <trkpt lat="59.8783189" lon="17.6611104">
        <ele>19.8444</ele>
        <time>2014-07-07T18:25:01Z</time>
      </trkpt>
      <trkpt lat="59.8782586" lon="17.6611643">
        <ele>19.3638</ele>
        <time>2014-07-07T18:25:02Z</time>
      </trkpt>
      <trkpt lat="59.8782027" lon="17.6612212">
        <ele>18.8831</ele>
        <time>2014-07-07T18:25:03Z</time>
      </trkpt>
      <trkpt lat="59.8781506" lon="17.6612824">
        <ele>18.4023</ele>
        <time>2014-07-07T18:25:04Z</time>
      </trkpt>
      <trkpt lat="59.8780996" lon="17.6613627">
        <ele>17.9218</ele>
        <time>2014-07-07T18:25:05Z</time>
      </trkpt>
      <trkpt lat="59.8780609" lon="17.6614472">
        <ele>17.4412</ele>
        <time>2014-07-07T18:25:06Z</time>
      </trkpt>
      <trkpt lat="59.8780334" lon="17.6615424">
        <ele>16.9604</ele>
        <time>2014-07-07T18:25:07Z</time>
      </trkpt>
      <trkpt lat="59.8780158" lon="17.6616443">
        <ele>16.9604</ele>
        <time>2014-07-07T18:25:08Z</time>
      </trkpt>
      <trkpt lat="59.8780065" lon="17.6617638">
        <ele>17.4412</ele>
        <time>2014-07-07T18:25:09Z</time>
      </trkpt>
      <trkpt lat="59.8780018" lon="17.6618786">
        <ele>17.9218</ele>
        <time>2014-07-07T18:25:10Z</time>
      </trkpt>
      <trkpt lat="59.8780013" lon="17.661995">
        <ele>17.9218</ele>
        <time>2014-07-07T18:25:11Z</time>
      </trkpt>
      <trkpt lat="59.8780032" lon="17.6621123">
        <ele>18.4023</ele>
        <time>2014-07-07T18:25:12Z</time>
      </trkpt>
      <trkpt lat="59.8780053" lon="17.6622288">
        <ele>18.8831</ele>
        <time>2014-07-07T18:25:13Z</time>
      </trkpt>
      <trkpt lat="59.8780065" lon="17.662346">
        <ele>18.8831</ele>
        <time>2014-07-07T18:25:14Z</time>
      </trkpt>
      <trkpt lat="59.8780059" lon="17.6624649">
        <ele>19.3638</ele>
        <time>2014-07-07T18:25:15Z</time>
      </trkpt>
      <trkpt lat="59.8780054" lon="17.6625842">
        <ele>19.8444</ele>
        <time>2014-07-07T18:25:16Z</time>
      </trkpt>
      <trkpt lat="59.8780049" lon="17.6627048">
        <ele>19.8444</ele>
        <time>2014-07-07T18:25:17Z</time>
      </trkpt>
      <trkpt lat="59.8780033" lon="17.6628261">
        <ele>20.325</ele>
        <time>2014-07-07T18:25:18Z</time>
      </trkpt>
      <trkpt lat="59.8780006" lon="17.6629469">
        <ele>20.8057</ele>
        <time>2014-07-07T18:25:19Z</time>
      </trkpt>
      <trkpt lat="59.8779982" lon="17.6630666">
        <ele>20.8057</ele>
        <time>2014-07-07T18:25:20Z</time>
      </trkpt>
      <trkpt lat="59.8779955" lon="17.6631854">
        <ele>21.2864</ele>
        <time>2014-07-07T18:25:21Z</time>
      </trkpt>
      <trkpt lat="59.8779916" lon="17.6633022">
        <ele>21.767</ele>
        <time>2014-07-07T18:25:22Z</time>
      </trkpt>
      <trkpt lat="59.8779861" lon="17.6634175">
        <ele>21.767</ele>
        <time>2014-07-07T18:25:23Z</time>
      </trkpt>
      <trkpt lat="59.8779745" lon="17.6635273">
        <ele>21.767</ele>
        <time>2014-07-07T18:25:24Z</time>
      </trkpt>
      <trkpt lat="59.8779551" lon="17.6636328">
        <ele>22.2476</ele>
        <time>2014-07-07T18:25:25Z</time>
      </trkpt>
      <trkpt lat="59.8779275" lon="17.6637337">
        <ele>22.2476</ele>
        <time>2014-07-07T18:25:26Z</time>
      </trkpt>
      <trkpt lat="59.8778868" lon="17.6638378">
        <ele>22.7283</ele>
        <time>2014-07-07T18:25:27Z</time>
      </trkpt>
      <trkpt lat="59.8778547" lon="17.6639326">
        <ele>22.7283</ele>
        <time>2014-07-07T18:25:28Z</time>
      </trkpt>
      <trkpt lat="59.8778169" lon="17.6640253">
        <ele>22.7283</ele>
        <time>2014-07-07T18:25:29Z</time>
      </trkpt>
      <trkpt lat="59.8777875" lon="17.6641201">
        <ele>23.209</ele>
        <time>2014-07-07T18:25:30Z</time>
      </trkpt>
      <trkpt lat="59.8777506" lon="17.6642082">
        <ele>23.209</ele>
        <time>2014-07-07T18:25:31Z</time>
      </trkpt>
      <trkpt lat="59.8777138" lon="17.6642965">
        <ele>23.209</ele>
        <time>2014-07-07T18:25:32Z</time>
      </trkpt>
      <trkpt lat="59.8776784" lon="17.6643868">
        <ele>23.209</ele>
        <time>2014-07-07T18:25:33Z</time>
      </trkpt>
      <trkpt lat="59.8776465" lon="17.6644826">
        <ele>23.209</ele>
        <time>2014-07-07T18:25:34Z</time>
      </trkpt>
      <trkpt lat="59.8776169" lon="17.6645822">
        <ele>23.209</ele>
        <time>2014-07-07T18:25:35Z</time>
      </trkpt>
      <trkpt lat="59.8775844" lon="17.6646817">
        <ele>23.209</ele>
        <time>2014-07-07T18:25:36Z</time>
      </trkpt>
      <trkpt lat="59.8775512" lon="17.6647804">
        <ele>23.209</ele>
        <time>2014-07-07T18:25:37Z</time>
      </trkpt>
      <trkpt lat="59.8775147" lon="17.6648772">
        <ele>23.209</ele>
        <time>2014-07-07T18:25:38Z</time>
      </trkpt>
      <trkpt lat="59.8774775" lon="17.6649692">
        <ele>22.7283</ele>
        <time>2014-07-07T18:25:39Z</time>
      </trkpt>
      <trkpt lat="59.8774383" lon="17.6650603">
        <ele>23.209</ele>
        <time>2014-07-07T18:25:40Z</time>
      </trkpt>
      <trkpt lat="59.8773989" lon="17.6651514">
        <ele>23.209</ele>
        <time>2014-07-07T18:25:41Z</time>
      </trkpt>
      <trkpt lat="59.8773579" lon="17.6652393">
        <ele>23.209</ele>
        <time>2014-07-07T18:25:42Z</time>
      </trkpt>
      <trkpt lat="59.8773122" lon="17.6653158">
        <ele>23.209</ele>
        <time>2014-07-07T18:25:43Z</time>
      </trkpt>
      <trkpt lat="59.8772605" lon="17.6653726">
        <ele>23.209</ele>
        <time>2014-07-07T18:25:44Z</time>
      </trkpt>
      <trkpt lat="59.8772056" lon="17.6654132">
        <ele>23.209</ele>
        <time>2014-07-07T18:25:45Z</time>
      </trkpt>
      <trkpt lat="59.8771507" lon="17.6654493">
        <ele>23.209</ele>
        <time>2014-07-07T18:25:46Z</time>
      </trkpt>
      <trkpt lat="59.8770949" lon="17.6654821">
        <ele>23.209</ele>
        <time>2014-07-07T18:25:47Z</time>
      </trkpt>
      <trkpt lat="59.8770392" lon="17.6655149">
        <ele>23.209</ele>
        <time>2014-07-07T18:25:48Z</time>
      </trkpt>
      <trkpt lat="59.8769833" lon="17.6655504">
        <ele>23.209</ele>
        <time>2014-07-07T18:25:49Z</time>
      </trkpt>
      <trkpt lat="59.8769254" lon="17.6655862">
        <ele>23.209</ele>
        <time>2014-07-07T18:25:50Z</time>
      </trkpt>
      <trkpt lat="59.8768669" lon="17.6656217">
        <ele>23.209</ele>
        <time>2014-07-07T18:25:51Z</time>
      </trkpt>
      <trkpt lat="59.8768097" lon="17.6656569">
        <ele>22.7283</ele>
        <time>2014-07-07T18:25:52Z</time>
      </trkpt>
      <trkpt lat="59.8767529" lon="17.6656875">
        <ele>22.7283</ele>
        <time>2014-07-07T18:25:53Z</time>
      </trkpt>
      <trkpt lat="59.8767024" lon="17.6657186">
        <ele>23.209</ele>
        <time>2014-07-07T18:25:54Z</time>
      </trkpt>
      <trkpt lat="59.8766514" lon="17.6657497">
        <ele>22.7283</ele>
        <time>2014-07-07T18:25:55Z</time>
      </trkpt>
      <trkpt lat="59.8765931" lon="17.6657771">
        <ele>23.209</ele>
        <time>2014-07-07T18:25:56Z</time>
      </trkpt>
      <trkpt lat="59.8765333" lon="17.6657995">
        <ele>22.7283</ele>
        <time>2014-07-07T18:25:57Z</time>
      </trkpt>
      <trkpt lat="59.8764753" lon="17.665814">
        <ele>22.7283</ele>
        <time>2014-07-07T18:25:58Z</time>
      </trkpt>
      <trkpt lat="59.8764189" lon="17.665815">
        <ele>22.7283</ele>
        <time>2014-07-07T18:25:59Z</time>
      </trkpt>
      <trkpt lat="59.8763628" lon="17.6658097">
        <ele>22.2476</ele>
        <time>2014-07-07T18:26:00Z</time>
      </trkpt>
      <trkpt lat="59.8763034" lon="17.6658041">
        <ele>22.2476</ele>
        <time>2014-07-07T18:26:01Z</time>
      </trkpt>
      <trkpt lat="59.8762406" lon="17.6658061">
        <ele>21.767</ele>
        <time>2014-07-07T18:26:02Z</time>
      </trkpt>
      <trkpt lat="59.8761754" lon="17.6658192">
        <ele>21.767</ele>
        <time>2014-07-07T18:26:03Z</time>
      </trkpt>
      <trkpt lat="59.8761111" lon="17.6658419">
        <ele>21.2864</ele>
        <time>2014-07-07T18:26:04Z</time>
      </trkpt>
      <trkpt lat="59.8760462" lon="17.6658744">
        <ele>21.2864</ele>
        <time>2014-07-07T18:26:05Z</time>
      </trkpt>
      <trkpt lat="59.8759814" lon="17.665918">
        <ele>21.2864</ele>
        <time>2014-07-07T18:26:06Z</time>
      </trkpt>
      <trkpt lat="59.8759195" lon="17.6659709">
        <ele>21.2864</ele>
        <time>2014-07-07T18:26:07Z</time>
      </trkpt>
      <trkpt lat="59.8758628" lon="17.6660319">
        <ele>21.2864</ele>
        <time>2014-07-07T18:26:08Z</time>
      </trkpt>
      <trkpt lat="59.8758096" lon="17.6660972">
        <ele>21.2864</ele>
        <time>2014-07-07T18:26:09Z</time>
      </trkpt>
      <trkpt lat="59.8757583" lon="17.666165">
        <ele>21.2864</ele>
        <time>2014-07-07T18:26:10Z</time>
      </trkpt>
      <trkpt lat="59.8757117" lon="17.6662388">
        <ele>21.767</ele>
        <time>2014-07-07T18:26:11Z</time>
      </trkpt>
      <trkpt lat="59.8756677" lon="17.666314">
        <ele>21.2864</ele>
        <time>2014-07-07T18:26:12Z</time>
      </trkpt>
      <trkpt lat="59.8756257" lon="17.6663896">
        <ele>21.2864</ele>
        <time>2014-07-07T18:26:13Z</time>
      </trkpt>
      <trkpt lat="59.8755835" lon="17.6664631">
        <ele>21.2864</ele>
        <time>2014-07-07T18:26:14Z</time>
      </trkpt>
      <trkpt lat="59.8755387" lon="17.6665325">
        <ele>21.2864</ele>
        <time>2014-07-07T18:26:15Z</time>
      </trkpt>
      <trkpt lat="59.8754934" lon="17.666596">
        <ele>21.2864</ele>
        <time>2014-07-07T18:26:16Z</time>
      </trkpt>
      <trkpt lat="59.8754497" lon="17.6666567">
        <ele>21.2864</ele>
        <time>2014-07-07T18:26:17Z</time>
      </trkpt>
      <trkpt lat="59.8754107" lon="17.6667252">
        <ele>20.8057</ele>
        <time>2014-07-07T18:26:18Z</time>
      </trkpt>
      <trkpt lat="59.8753802" lon="17.6668107">
        <ele>21.2864</ele>
        <time>2014-07-07T18:26:19Z</time>
      </trkpt>
      <trkpt lat="59.8753677" lon="17.666909">
        <ele>20.8057</ele>
        <time>2014-07-07T18:26:20Z</time>
      </trkpt>
      <trkpt lat="59.8753776" lon="17.6670119">
        <ele>21.2864</ele>
        <time>2014-07-07T18:26:21Z</time>
      </trkpt>
      <trkpt lat="59.8753994" lon="17.6671078">
        <ele>21.767</ele>
        <time>2014-07-07T18:26:22Z</time>
      </trkpt>
      <trkpt lat="59.8754195" lon="17.6671966">
        <ele>22.2476</ele>
        <time>2014-07-07T18:26:23Z</time>
      </trkpt>
      <trkpt lat="59.8754356" lon="17.6672877">
        <ele>22.2476</ele>
        <time>2014-07-07T18:26:24Z</time>
      </trkpt>
      <trkpt lat="59.8754511" lon="17.6673845">
        <ele>22.7283</ele>
        <time>2014-07-07T18:26:25Z</time>
      </trkpt>
      <trkpt lat="59.8754672" lon="17.6674836">
        <ele>23.209</ele>
        <time>2014-07-07T18:26:26Z</time>
      </trkpt>
      <trkpt lat="59.8754853" lon="17.6675835">
        <ele>23.6896</ele>
        <time>2014-07-07T18:26:27Z</time>
      </trkpt>
      <trkpt lat="59.8755066" lon="17.6676824">
        <ele>24.1703</ele>
        <time>2014-07-07T18:26:28Z</time>
      </trkpt>
      <trkpt lat="59.8755286" lon="17.6677781">
        <ele>24.651</ele>
        <time>2014-07-07T18:26:29Z</time>
      </trkpt>
      <trkpt lat="59.8755506" lon="17.6678711">
        <ele>25.6123</ele>
        <time>2014-07-07T18:26:30Z</time>
      </trkpt>
      <trkpt lat="59.8755725" lon="17.6679622">
        <ele>26.0929</ele>
        <time>2014-07-07T18:26:31Z</time>
      </trkpt>
      <trkpt lat="59.8755939" lon="17.6680487">
        <ele>27.0543</ele>
        <time>2014-07-07T18:26:32Z</time>
      </trkpt>
      <trkpt lat="59.8756157" lon="17.6681314">
        <ele>27.5349</ele>
        <time>2014-07-07T18:26:33Z</time>
      </trkpt>
      <trkpt lat="59.8756381" lon="17.6682146">
        <ele>28.4962</ele>
        <time>2014-07-07T18:26:34Z</time>
      </trkpt>
      <trkpt lat="59.8756588" lon="17.6683011">
        <ele>28.9769</ele>
        <time>2014-07-07T18:26:35Z</time>
      </trkpt>
      <trkpt lat="59.875676" lon="17.6683898">
        <ele>29.4575</ele>
        <time>2014-07-07T18:26:36Z</time>
      </trkpt>
      <trkpt lat="59.8756916" lon="17.6684806">
        <ele>29.9381</ele>
        <time>2014-07-07T18:26:37Z</time>
      </trkpt>
      <trkpt lat="59.8757065" lon="17.6685745">
        <ele>30.4188</ele>
        <time>2014-07-07T18:26:38Z</time>
      </trkpt>
      <trkpt lat="59.875718" lon="17.6686719">
        <ele>30.8995</ele>
        <time>2014-07-07T18:26:39Z</time>
      </trkpt>
      <trkpt lat="59.875724" lon="17.6687729">
        <ele>30.8995</ele>
        <time>2014-07-07T18:26:40Z</time>
      </trkpt>
      <trkpt lat="59.8757258" lon="17.6688794">
        <ele>31.3801</ele>
        <time>2014-07-07T18:26:41Z</time>
      </trkpt>
      <trkpt lat="59.8757252" lon="17.6689847">
        <ele>31.3801</ele>
        <time>2014-07-07T18:26:42Z</time>
      </trkpt>
      <trkpt lat="59.8757252" lon="17.6690864">
        <ele>31.8607</ele>
        <time>2014-07-07T18:26:43Z</time>
      </trkpt>
      <trkpt lat="59.8757266" lon="17.6691878">
        <ele>31.8607</ele>
        <time>2014-07-07T18:26:44Z</time>
      </trkpt>
      <trkpt lat="59.8757286" lon="17.6692834">
        <ele>31.8607</ele>
        <time>2014-07-07T18:26:45Z</time>
      </trkpt>
      <trkpt lat="59.8757318" lon="17.6693769">
        <ele>31.8607</ele>
        <time>2014-07-07T18:26:46Z</time>
      </trkpt>
      <trkpt lat="59.875737" lon="17.6694735">
        <ele>32.3416</ele>
        <time>2014-07-07T18:26:47Z</time>
      </trkpt>
      <trkpt lat="59.8757449" lon="17.6695723">
        <ele>32.3416</ele>
        <time>2014-07-07T18:26:48Z</time>
      </trkpt>
      <trkpt lat="59.8757526" lon="17.6696726">
        <ele>32.8223</ele>
        <time>2014-07-07T18:26:49Z</time>
      </trkpt>
      <trkpt lat="59.8757589" lon="17.6697731">
        <ele>32.8223</ele>
        <time>2014-07-07T18:26:50Z</time>
      </trkpt>
      <trkpt lat="59.875768" lon="17.6698762">
        <ele>32.8223</ele>
        <time>2014-07-07T18:26:51Z</time>
      </trkpt>
      <trkpt lat="59.875778" lon="17.6699797">
        <ele>32.8223</ele>
        <time>2014-07-07T18:26:52Z</time>
      </trkpt>
      <trkpt lat="59.8757872" lon="17.6700845">
        <ele>32.8223</ele>
        <time>2014-07-07T18:26:53Z</time>
      </trkpt>
      <trkpt lat="59.8757972" lon="17.6701901">
        <ele>33.3029</ele>
        <time>2014-07-07T18:26:54Z</time>
      </trkpt>
      <trkpt lat="59.8758069" lon="17.6702948">
        <ele>33.3029</ele>
        <time>2014-07-07T18:26:55Z</time>
      </trkpt>
      <trkpt lat="59.8758143" lon="17.670398">
        <ele>33.3029</ele>
        <time>2014-07-07T18:26:56Z</time>
      </trkpt>
      <trkpt lat="59.8758208" lon="17.6705003">
        <ele>33.3029</ele>
        <time>2014-07-07T18:26:57Z</time>
      </trkpt>
      <trkpt lat="59.8758286" lon="17.6706024">
        <ele>33.3029</ele>
        <time>2014-07-07T18:26:58Z</time>
      </trkpt>
      <trkpt lat="59.8758356" lon="17.6707075">
        <ele>32.8223</ele>
        <time>2014-07-07T18:26:59Z</time>
      </trkpt>
      <trkpt lat="59.8758403" lon="17.6708205">
        <ele>32.3416</ele>
        <time>2014-07-07T18:27:00Z</time>
      </trkpt>
      <trkpt lat="59.8758447" lon="17.6709397">
        <ele>32.3416</ele>
        <time>2014-07-07T18:27:01Z</time>
      </trkpt>
      <trkpt lat="59.8758517" lon="17.6710649">
        <ele>31.3801</ele>
        <time>2014-07-07T18:27:02Z</time>
      </trkpt>
      <trkpt lat="59.8758619" lon="17.6712008">
        <ele>30.8995</ele>
        <time>2014-07-07T18:27:03Z</time>
      </trkpt>
      <trkpt lat="59.8758752" lon="17.6713479">
        <ele>29.9381</ele>
        <time>2014-07-07T18:27:04Z</time>
      </trkpt>
      <trkpt lat="59.8758941" lon="17.6715037">
        <ele>28.9769</ele>
        <time>2014-07-07T18:27:05Z</time>
      </trkpt>
      <trkpt lat="59.875925" lon="17.6716642">
        <ele>28.4962</ele>
        <time>2014-07-07T18:27:06Z</time>
      </trkpt>
      <trkpt lat="59.8759661" lon="17.6718199">
        <ele>27.5349</ele>
        <time>2014-07-07T18:27:07Z</time>
      </trkpt>
      <trkpt lat="59.8760084" lon="17.6719671">
        <ele>27.0543</ele>
        <time>2014-07-07T18:27:08Z</time>
      </trkpt>
      <trkpt lat="59.8760624" lon="17.6721363">
        <ele>26.0929</ele>
        <time>2014-07-07T18:27:09Z</time>
      </trkpt>
      <trkpt lat="59.8761064" lon="17.6722808">
        <ele>25.1317</ele>
        <time>2014-07-07T18:27:10Z</time>
      </trkpt>
      <trkpt lat="59.8761441" lon="17.6724184">
        <ele>25.1317</ele>
        <time>2014-07-07T18:27:11Z</time>
      </trkpt>
      <trkpt lat="59.8761733" lon="17.672559">
        <ele>26.0929</ele>
        <time>2014-07-07T18:27:12Z</time>
      </trkpt>
      <trkpt lat="59.8761956" lon="17.6726898">
        <ele>26.5736</ele>
        <time>2014-07-07T18:27:13Z</time>
      </trkpt>
      <trkpt lat="59.8762107" lon="17.6728026">
        <ele>27.5349</ele>
        <time>2014-07-07T18:27:14Z</time>
      </trkpt>
      <trkpt lat="59.8762197" lon="17.6728901">
        <ele>27.5349</ele>
        <time>2014-07-07T18:27:15Z</time>
      </trkpt>
      <trkpt lat="59.876223" lon="17.6729474">
        <ele>28.0155</ele>
        <time>2014-07-07T18:27:16Z</time>
      </trkpt>
      <trkpt lat="59.8762245" lon="17.6729946">
        <ele>28.0155</ele>
        <time>2014-07-07T18:27:17Z</time>
      </trkpt>
      <trkpt lat="59.8762207" lon="17.6730436">
        <ele>28.0155</ele>
        <time>2014-07-07T18:27:18Z</time>
      </trkpt>
      <trkpt lat="59.8762083" lon="17.6730973">
        <ele>28.4962</ele>
        <time>2014-07-07T18:27:19Z</time>
      </trkpt>
      <trkpt lat="59.8761884" lon="17.67315">
        <ele>28.4962</ele>
        <time>2014-07-07T18:27:20Z</time>
      </trkpt>
      <trkpt lat="59.8761646" lon="17.6732049">
        <ele>28.9769</ele>
        <time>2014-07-07T18:27:21Z</time>
      </trkpt>
      <trkpt lat="59.8761417" lon="17.673265">
        <ele>28.9769</ele>
        <time>2014-07-07T18:27:22Z</time>
      </trkpt>
      <trkpt lat="59.8761194" lon="17.6733325">
        <ele>29.4575</ele>
        <time>2014-07-07T18:27:23Z</time>
      </trkpt>
      <trkpt lat="59.8760946" lon="17.6733961">
        <ele>29.4575</ele>
        <time>2014-07-07T18:27:24Z</time>
      </trkpt>
      <trkpt lat="59.8760685" lon="17.6734617">
        <ele>29.4575</ele>
        <time>2014-07-07T18:27:25Z</time>
      </trkpt>
      <trkpt lat="59.8760411" lon="17.6735282">
        <ele>28.9769</ele>
        <time>2014-07-07T18:27:26Z</time>
      </trkpt>
      <trkpt lat="59.8760125" lon="17.6736001">
        <ele>28.9769</ele>
        <time>2014-07-07T18:27:27Z</time>
      </trkpt>
      <trkpt lat="59.8759837" lon="17.6736732">
        <ele>28.9769</ele>
        <time>2014-07-07T18:27:28Z</time>
      </trkpt>
      <trkpt lat="59.8759557" lon="17.6737479">
        <ele>28.9769</ele>
        <time>2014-07-07T18:27:29Z</time>
      </trkpt>
      <trkpt lat="59.8759289" lon="17.673825">
        <ele>28.9769</ele>
        <time>2014-07-07T18:27:30Z</time>
      </trkpt>
      <trkpt lat="59.8759013" lon="17.6739001">
        <ele>28.9769</ele>
        <time>2014-07-07T18:27:31Z</time>
      </trkpt>
      <trkpt lat="59.8758723" lon="17.6739707">
        <ele>28.9769</ele>
        <time>2014-07-07T18:27:32Z</time>
      </trkpt>
      <trkpt lat="59.8758433" lon="17.6740394">
        <ele>28.9769</ele>
        <time>2014-07-07T18:27:33Z</time>
      </trkpt>
      <trkpt lat="59.8758146" lon="17.6741032">
        <ele>28.9769</ele>
        <time>2014-07-07T18:27:34Z</time>
      </trkpt>
      <trkpt lat="59.8757853" lon="17.6741627">
        <ele>28.4962</ele>
        <time>2014-07-07T18:27:35Z</time>
      </trkpt>
      <trkpt lat="59.8757568" lon="17.6742253">
        <ele>28.4962</ele>
        <time>2014-07-07T18:27:36Z</time>
      </trkpt>
      <trkpt lat="59.8757291" lon="17.6742944">
        <ele>28.0155</ele>
        <time>2014-07-07T18:27:37Z</time>
      </trkpt>
      <trkpt lat="59.8757007" lon="17.6743694">
        <ele>27.5349</ele>
        <time>2014-07-07T18:27:38Z</time>
      </trkpt>
      <trkpt lat="59.8756703" lon="17.6744514">
        <ele>27.5349</ele>
        <time>2014-07-07T18:27:39Z</time>
      </trkpt>
      <trkpt lat="59.8756364" lon="17.6745381">
        <ele>27.0543</ele>
        <time>2014-07-07T18:27:40Z</time>
      </trkpt>
      <trkpt lat="59.8755967" lon="17.6746259">
        <ele>26.5736</ele>
        <time>2014-07-07T18:27:41Z</time>
      </trkpt>
      <trkpt lat="59.8755521" lon="17.6747155">
        <ele>26.0929</ele>
        <time>2014-07-07T18:27:42Z</time>
      </trkpt>
      <trkpt lat="59.8754988" lon="17.6747974">
        <ele>25.6123</ele>
        <time>2014-07-07T18:27:43Z</time>
      </trkpt>
      <trkpt lat="59.8754367" lon="17.6748667">
        <ele>25.1317</ele>
        <time>2014-07-07T18:27:44Z</time>
      </trkpt>
      <trkpt lat="59.8753682" lon="17.6749241">
        <ele>24.651</ele>
        <time>2014-07-07T18:27:45Z</time>
      </trkpt>
      <trkpt lat="59.875294" lon="17.6749785">
        <ele>24.1703</ele>
        <time>2014-07-07T18:27:46Z</time>
      </trkpt>
      <trkpt lat="59.8752175" lon="17.6750328">
        <ele>23.6896</ele>
        <time>2014-07-07T18:27:47Z</time>
      </trkpt>
      <trkpt lat="59.8751458" lon="17.675086">
        <ele>23.6896</ele>
        <time>2014-07-07T18:27:48Z</time>
      </trkpt>
      <trkpt lat="59.8750479" lon="17.6751447">
        <ele>23.209</ele>
        <time>2014-07-07T18:27:49Z</time>
      </trkpt>
      <trkpt lat="59.8749544" lon="17.6752106">
        <ele>22.7283</ele>
        <time>2014-07-07T18:27:50Z</time>
      </trkpt>
      <trkpt lat="59.8748715" lon="17.6752739">
        <ele>23.209</ele>
        <time>2014-07-07T18:27:51Z</time>
      </trkpt>
      <trkpt lat="59.8747952" lon="17.6753454">
        <ele>23.6896</ele>
        <time>2014-07-07T18:27:52Z</time>
      </trkpt>
      <trkpt lat="59.8747266" lon="17.6754257">
        <ele>24.1703</ele>
        <time>2014-07-07T18:27:53Z</time>
      </trkpt>
      <trkpt lat="59.8746606" lon="17.6755106">
        <ele>24.1703</ele>
        <time>2014-07-07T18:27:54Z</time>
      </trkpt>
      <trkpt lat="59.8745986" lon="17.6756039">
        <ele>24.1703</ele>
        <time>2014-07-07T18:27:55Z</time>
      </trkpt>
      <trkpt lat="59.8745484" lon="17.6757109">
        <ele>24.1703</ele>
        <time>2014-07-07T18:27:56Z</time>
      </trkpt>
      <trkpt lat="59.8745103" lon="17.6758296">
        <ele>24.1703</ele>
        <time>2014-07-07T18:27:57Z</time>
      </trkpt>
      <trkpt lat="59.8744825" lon="17.6759578">
        <ele>24.1703</ele>
        <time>2014-07-07T18:27:58Z</time>
      </trkpt>
      <trkpt lat="59.8744581" lon="17.6760886">
        <ele>24.1703</ele>
        <time>2014-07-07T18:27:59Z</time>
      </trkpt>
      <trkpt lat="59.8744261" lon="17.6762111">
        <ele>24.1703</ele>
        <time>2014-07-07T18:28:00Z</time>
      </trkpt>
      <trkpt lat="59.8743828" lon="17.6763113">
        <ele>23.6896</ele>
        <time>2014-07-07T18:28:01Z</time>
      </trkpt>
      <trkpt lat="59.8743301" lon="17.6763778">
        <ele>23.6896</ele>
        <time>2014-07-07T18:28:02Z</time>
      </trkpt>
      <trkpt lat="59.8742709" lon="17.676414">
        <ele>23.6896</ele>
        <time>2014-07-07T18:28:03Z</time>
      </trkpt>
      <trkpt lat="59.8742054" lon="17.6764265">
        <ele>24.1703</ele>
        <time>2014-07-07T18:28:04Z</time>
      </trkpt>
      <trkpt lat="59.87414" lon="17.67644">
        <ele>24.1703</ele>
        <time>2014-07-07T18:28:05Z</time>
      </trkpt>
      <trkpt lat="59.8740794" lon="17.6764704">
        <ele>24.1703</ele>
        <time>2014-07-07T18:28:06Z</time>
      </trkpt>
      <trkpt lat="59.8740228" lon="17.6765115">
        <ele>24.1703</ele>
        <time>2014-07-07T18:28:07Z</time>
      </trkpt>
      <trkpt lat="59.8739718" lon="17.6765672">
        <ele>24.1703</ele>
        <time>2014-07-07T18:28:08Z</time>
      </trkpt>
      <trkpt lat="59.8739302" lon="17.6766451">
        <ele>24.1703</ele>
        <time>2014-07-07T18:28:09Z</time>
      </trkpt>
      <trkpt lat="59.8738962" lon="17.6767424">
        <ele>23.6896</ele>
        <time>2014-07-07T18:28:10Z</time>
      </trkpt>
      <trkpt lat="59.8738711" lon="17.6768558">
        <ele>24.1703</ele>
        <time>2014-07-07T18:28:11Z</time>
      </trkpt>
      <trkpt lat="59.8738539" lon="17.6769756">
        <ele>24.1703</ele>
        <time>2014-07-07T18:28:12Z</time>
      </trkpt>
      <trkpt lat="59.8738376" lon="17.6770931">
        <ele>24.651</ele>
        <time>2014-07-07T18:28:13Z</time>
      </trkpt>
      <trkpt lat="59.8738204" lon="17.6772116">
        <ele>24.651</ele>
        <time>2014-07-07T18:28:14Z</time>
      </trkpt>
      <trkpt lat="59.8738028" lon="17.6773318">
        <ele>24.651</ele>
        <time>2014-07-07T18:28:15Z</time>
      </trkpt>
      <trkpt lat="59.8737872" lon="17.6774578">
        <ele>25.1317</ele>
        <time>2014-07-07T18:28:16Z</time>
      </trkpt>
      <trkpt lat="59.8737723" lon="17.6775825">
        <ele>25.1317</ele>
        <time>2014-07-07T18:28:17Z</time>
      </trkpt>
      <trkpt lat="59.8737581" lon="17.6777071">
        <ele>25.6123</ele>
        <time>2014-07-07T18:28:18Z</time>
      </trkpt>
      <trkpt lat="59.8737443" lon="17.6778337">
        <ele>25.6123</ele>
        <time>2014-07-07T18:28:19Z</time>
      </trkpt>
      <trkpt lat="59.8737262" lon="17.677959">
        <ele>26.0929</ele>
        <time>2014-07-07T18:28:20Z</time>
      </trkpt>
      <trkpt lat="59.873694" lon="17.6780701">
        <ele>26.0929</ele>
        <time>2014-07-07T18:28:21Z</time>
      </trkpt>
      <trkpt lat="59.8736428" lon="17.6781451">
        <ele>26.0929</ele>
        <time>2014-07-07T18:28:22Z</time>
      </trkpt>
      <trkpt lat="59.8735806" lon="17.6781825">
        <ele>26.0929</ele>
        <time>2014-07-07T18:28:23Z</time>
      </trkpt>
      <trkpt lat="59.8735143" lon="17.6782038">
        <ele>26.0929</ele>
        <time>2014-07-07T18:28:24Z</time>
      </trkpt>
      <trkpt lat="59.8734462" lon="17.6782229">
        <ele>26.0929</ele>
        <time>2014-07-07T18:28:25Z</time>
      </trkpt>
      <trkpt lat="59.8733764" lon="17.6782421">
        <ele>26.0929</ele>
        <time>2014-07-07T18:28:26Z</time>
      </trkpt>
      <trkpt lat="59.8733055" lon="17.6782593">
        <ele>26.0929</ele>
        <time>2014-07-07T18:28:27Z</time>
      </trkpt>
      <trkpt lat="59.873234" lon="17.6782759">
        <ele>26.0929</ele>
        <time>2014-07-07T18:28:28Z</time>
      </trkpt>
      <trkpt lat="59.8731698" lon="17.6782974">
        <ele>26.0929</ele>
        <time>2014-07-07T18:28:29Z</time>
      </trkpt>
      <trkpt lat="59.873106" lon="17.6783183">
        <ele>26.0929</ele>
        <time>2014-07-07T18:28:30Z</time>
      </trkpt>
      <trkpt lat="59.873032" lon="17.6783415">
        <ele>25.6123</ele>
        <time>2014-07-07T18:28:31Z</time>
      </trkpt>
      <trkpt lat="59.8729573" lon="17.6783622">
        <ele>25.6123</ele>
        <time>2014-07-07T18:28:32Z</time>
      </trkpt>
      <trkpt lat="59.8728886" lon="17.6783757">
        <ele>25.6123</ele>
        <time>2014-07-07T18:28:33Z</time>
      </trkpt>
      <trkpt lat="59.8728251" lon="17.6783912">
        <ele>25.1317</ele>
        <time>2014-07-07T18:28:34Z</time>
      </trkpt>
      <trkpt lat="59.8727625" lon="17.6784084">
        <ele>25.1317</ele>
        <time>2014-07-07T18:28:35Z</time>
      </trkpt>
      <trkpt lat="59.8727005" lon="17.6784201">
        <ele>25.1317</ele>
        <time>2014-07-07T18:28:36Z</time>
      </trkpt>
      <trkpt lat="59.8726398" lon="17.6784284">
        <ele>25.1317</ele>
        <time>2014-07-07T18:28:37Z</time>
      </trkpt>
      <trkpt lat="59.8725819" lon="17.678441">
        <ele>25.1317</ele>
        <time>2014-07-07T18:28:38Z</time>
      </trkpt>
      <trkpt lat="59.8725289" lon="17.678454">
        <ele>25.1317</ele>
        <time>2014-07-07T18:28:39Z</time>
      </trkpt>
      <trkpt lat="59.8724829" lon="17.678466">
        <ele>24.651</ele>
        <time>2014-07-07T18:28:40Z</time>
      </trkpt>
      <trkpt lat="59.8724466" lon="17.6784721">
        <ele>24.651</ele>
        <time>2014-07-07T18:28:41Z</time>
      </trkpt>
      <trkpt lat="59.8724197" lon="17.6784721">
        <ele>24.651</ele>
        <time>2014-07-07T18:28:42Z</time>
      </trkpt>
      <trkpt lat="59.872399" lon="17.6784752">
        <ele>24.651</ele>
        <time>2014-07-07T18:28:43Z</time>
      </trkpt>
      <trkpt lat="59.8723838" lon="17.6784824">
        <ele>24.651</ele>
        <time>2014-07-07T18:28:44Z</time>
      </trkpt>
      <trkpt lat="59.872376" lon="17.6784985">
        <ele>24.651</ele>
        <time>2014-07-07T18:28:45Z</time>
      </trkpt>
      <trkpt lat="59.8723786" lon="17.6785197">
        <ele>24.651</ele>
        <time>2014-07-07T18:28:46Z</time>
      </trkpt>
      <trkpt lat="59.8723887" lon="17.6785397">
        <ele>24.651</ele>
        <time>2014-07-07T18:28:47Z</time>
      </trkpt>
      <trkpt lat="59.8723963" lon="17.6785654">
        <ele>24.651</ele>
        <time>2014-07-07T18:28:48Z</time>
      </trkpt>
      <trkpt lat="59.8723996" lon="17.6785993">
        <ele>24.651</ele>
        <time>2014-07-07T18:28:49Z</time>
      </trkpt>
      <trkpt lat="59.8724022" lon="17.6786363">
        <ele>24.651</ele>
        <time>2014-07-07T18:28:50Z</time>
      </trkpt>
      <trkpt lat="59.8724052" lon="17.6786788">
        <ele>24.651</ele>
        <time>2014-07-07T18:28:51Z</time>
      </trkpt>
      <trkpt lat="59.8724037" lon="17.6787321">
        <ele>24.651</ele>
        <time>2014-07-07T18:28:52Z</time>
      </trkpt>
      <trkpt lat="59.8723891" lon="17.67879">
        <ele>24.651</ele>
        <time>2014-07-07T18:28:53Z</time>
      </trkpt>
      <trkpt lat="59.872361" lon="17.6788423">
        <ele>24.651</ele>
        <time>2014-07-07T18:28:54Z</time>
      </trkpt>
      <trkpt lat="59.8723259" lon="17.6788904">
        <ele>24.651</ele>
        <time>2014-07-07T18:28:55Z</time>
      </trkpt>
      <trkpt lat="59.8722896" lon="17.6789431">
        <ele>24.651</ele>
        <time>2014-07-07T18:28:56Z</time>
      </trkpt>
      <trkpt lat="59.8722533" lon="17.679004">
        <ele>24.651</ele>
        <time>2014-07-07T18:28:57Z</time>
      </trkpt>
      <trkpt lat="59.8722215" lon="17.6790764">
        <ele>24.1703</ele>
        <time>2014-07-07T18:28:58Z</time>
      </trkpt>
      <trkpt lat="59.8722063" lon="17.6791621">
        <ele>24.1703</ele>
        <time>2014-07-07T18:28:59Z</time>
      </trkpt>
      <trkpt lat="59.8722151" lon="17.6792533">
        <ele>24.651</ele>
        <time>2014-07-07T18:29:00Z</time>
      </trkpt>
      <trkpt lat="59.8722368" lon="17.6793411">
        <ele>24.651</ele>
        <time>2014-07-07T18:29:01Z</time>
      </trkpt>
      <trkpt lat="59.8722538" lon="17.6794374">
        <ele>24.651</ele>
        <time>2014-07-07T18:29:02Z</time>
      </trkpt>
      <trkpt lat="59.8722633" lon="17.6795429">
        <ele>24.651</ele>
        <time>2014-07-07T18:29:03Z</time>
      </trkpt>
      <trkpt lat="59.8722719" lon="17.6796542">
        <ele>24.651</ele>
        <time>2014-07-07T18:29:04Z</time>
      </trkpt>
      <trkpt lat="59.8722808" lon="17.6797662">
        <ele>24.1703</ele>
        <time>2014-07-07T18:29:05Z</time>
      </trkpt>
      <trkpt lat="59.8722908" lon="17.6798843">
        <ele>24.1703</ele>
        <time>2014-07-07T18:29:06Z</time>
      </trkpt>
      <trkpt lat="59.872302" lon="17.6800054">
        <ele>23.6896</ele>
        <time>2014-07-07T18:29:07Z</time>
      </trkpt>
      <trkpt lat="59.8723135" lon="17.6801297">
        <ele>23.6896</ele>
        <time>2014-07-07T18:29:08Z</time>
      </trkpt>
      <trkpt lat="59.872325" lon="17.6802571">
        <ele>23.6896</ele>
        <time>2014-07-07T18:29:09Z</time>
      </trkpt>
      <trkpt lat="59.8723357" lon="17.6803845">
        <ele>23.6896</ele>
        <time>2014-07-07T18:29:10Z</time>
      </trkpt>
      <trkpt lat="59.8723457" lon="17.6805139">
        <ele>23.209</ele>
        <time>2014-07-07T18:29:11Z</time>
      </trkpt>
      <trkpt lat="59.8723564" lon="17.6806446">
        <ele>23.209</ele>
        <time>2014-07-07T18:29:12Z</time>
      </trkpt>
      <trkpt lat="59.8723685" lon="17.6807766">
        <ele>23.209</ele>
        <time>2014-07-07T18:29:13Z</time>
      </trkpt>
      <trkpt lat="59.8723815" lon="17.6809099">
        <ele>23.209</ele>
        <time>2014-07-07T18:29:14Z</time>
      </trkpt>
      <trkpt lat="59.8723952" lon="17.6810441">
        <ele>22.7283</ele>
        <time>2014-07-07T18:29:15Z</time>
      </trkpt>
      <trkpt lat="59.8724095" lon="17.68118">
        <ele>22.7283</ele>
        <time>2014-07-07T18:29:16Z</time>
      </trkpt>
      <trkpt lat="59.872425" lon="17.6813168">
        <ele>22.7283</ele>
        <time>2014-07-07T18:29:17Z</time>
      </trkpt>
      <trkpt lat="59.8724411" lon="17.6814539">
        <ele>22.7283</ele>
        <time>2014-07-07T18:29:18Z</time>
      </trkpt>
      <trkpt lat="59.8724569" lon="17.6815924">
        <ele>22.2476</ele>
        <time>2014-07-07T18:29:19Z</time>
      </trkpt>
      <trkpt lat="59.8724721" lon="17.6817322">
        <ele>22.2476</ele>
        <time>2014-07-07T18:29:20Z</time>
      </trkpt>
      <trkpt lat="59.8724874" lon="17.6818728">
        <ele>22.2476</ele>
        <time>2014-07-07T18:29:21Z</time>
      </trkpt>
      <trkpt lat="59.8725026" lon="17.6820137">
        <ele>22.2476</ele>
        <time>2014-07-07T18:29:22Z</time>
      </trkpt>
      <trkpt lat="59.8725182" lon="17.6821524">
        <ele>21.767</ele>
        <time>2014-07-07T18:29:23Z</time>
      </trkpt>
      <trkpt lat="59.8725346" lon="17.6822865">
        <ele>21.767</ele>
        <time>2014-07-07T18:29:24Z</time>
      </trkpt>
      <trkpt lat="59.8725512" lon="17.6824157">
        <ele>21.767</ele>
        <time>2014-07-07T18:29:25Z</time>
      </trkpt>
      <trkpt lat="59.8725683" lon="17.6825405">
        <ele>21.767</ele>
        <time>2014-07-07T18:29:26Z</time>
      </trkpt>
      <trkpt lat="59.8725855" lon="17.6826639">
        <ele>22.2476</ele>
        <time>2014-07-07T18:29:27Z</time>
      </trkpt>
      <trkpt lat="59.8726011" lon="17.6827879">
        <ele>22.2476</ele>
        <time>2014-07-07T18:29:28Z</time>
      </trkpt>
      <trkpt lat="59.8726143" lon="17.6829128">
        <ele>21.767</ele>
        <time>2014-07-07T18:29:29Z</time>
      </trkpt>
      <trkpt lat="59.8726278" lon="17.6830383">
        <ele>21.767</ele>
        <time>2014-07-07T18:29:30Z</time>
      </trkpt>
      <trkpt lat="59.8726445" lon="17.683164">
        <ele>21.767</ele>
        <time>2014-07-07T18:29:31Z</time>
      </trkpt>
      <trkpt lat="59.8726637" lon="17.6832891">
        <ele>21.767</ele>
        <time>2014-07-07T18:29:32Z</time>
      </trkpt>
      <trkpt lat="59.8726902" lon="17.6834103">
        <ele>21.767</ele>
        <time>2014-07-07T18:29:33Z</time>
      </trkpt>
      <trkpt lat="59.8727226" lon="17.6835263">
        <ele>22.2476</ele>
        <time>2014-07-07T18:29:34Z</time>
      </trkpt>
      <trkpt lat="59.8727535" lon="17.6836434">
        <ele>22.2476</ele>
        <time>2014-07-07T18:29:35Z</time>
      </trkpt>
      <trkpt lat="59.8727819" lon="17.683763">
        <ele>22.2476</ele>
        <time>2014-07-07T18:29:36Z</time>
      </trkpt>
      <trkpt lat="59.8728103" lon="17.6838822">
        <ele>22.2476</ele>
        <time>2014-07-07T18:29:37Z</time>
      </trkpt>
      <trkpt lat="59.8728399" lon="17.6840003">
        <ele>22.2476</ele>
        <time>2014-07-07T18:29:38Z</time>
      </trkpt>
      <trkpt lat="59.8728697" lon="17.6841178">
        <ele>22.2476</ele>
        <time>2014-07-07T18:29:39Z</time>
      </trkpt>
      <trkpt lat="59.8728999" lon="17.6842363">
        <ele>22.2476</ele>
        <time>2014-07-07T18:29:40Z</time>
      </trkpt>
      <trkpt lat="59.8729301" lon="17.6843563">
        <ele>22.7283</ele>
        <time>2014-07-07T18:29:41Z</time>
      </trkpt>
      <trkpt lat="59.8729601" lon="17.6844772">
        <ele>22.7283</ele>
        <time>2014-07-07T18:29:42Z</time>
      </trkpt>
      <trkpt lat="59.8729907" lon="17.6845977">
        <ele>22.7283</ele>
        <time>2014-07-07T18:29:43Z</time>
      </trkpt>
      <trkpt lat="59.8730221" lon="17.6847162">
        <ele>22.7283</ele>
        <time>2014-07-07T18:29:44Z</time>
      </trkpt>
      <trkpt lat="59.8730531" lon="17.6848338">
        <ele>22.7283</ele>
        <time>2014-07-07T18:29:45Z</time>
      </trkpt>
      <trkpt lat="59.8730831" lon="17.6849511">
        <ele>22.7283</ele>
        <time>2014-07-07T18:29:46Z</time>
      </trkpt>
      <trkpt lat="59.8731134" lon="17.6850658">
        <ele>22.7283</ele>
        <time>2014-07-07T18:29:47Z</time>
      </trkpt>
      <trkpt lat="59.8731443" lon="17.6851793">
        <ele>22.7283</ele>
        <time>2014-07-07T18:29:48Z</time>
      </trkpt>
      <trkpt lat="59.8731756" lon="17.6852917">
        <ele>22.7283</ele>
        <time>2014-07-07T18:29:49Z</time>
      </trkpt>
      <trkpt lat="59.8732064" lon="17.6854039">
        <ele>22.7283</ele>
        <time>2014-07-07T18:29:50Z</time>
      </trkpt>
      <trkpt lat="59.8732359" lon="17.685517">
        <ele>22.7283</ele>
        <time>2014-07-07T18:29:51Z</time>
      </trkpt>
      <trkpt lat="59.8732646" lon="17.685631">
        <ele>22.7283</ele>
        <time>2014-07-07T18:29:52Z</time>
      </trkpt>
      <trkpt lat="59.8732937" lon="17.6857453">
        <ele>22.7283</ele>
        <time>2014-07-07T18:29:53Z</time>
      </trkpt>
      <trkpt lat="59.8733241" lon="17.6858588">
        <ele>22.7283</ele>
        <time>2014-07-07T18:29:54Z</time>
      </trkpt>
      <trkpt lat="59.8733547" lon="17.6859712">
        <ele>22.7283</ele>
        <time>2014-07-07T18:29:55Z</time>
      </trkpt>
      <trkpt lat="59.8733846" lon="17.6860836">
        <ele>23.209</ele>
        <time>2014-07-07T18:29:56Z</time>
      </trkpt>
      <trkpt lat="59.8734147" lon="17.6861956">
        <ele>23.209</ele>
        <time>2014-07-07T18:29:57Z</time>
      </trkpt>
      <trkpt lat="59.8734454" lon="17.6863066">
        <ele>23.209</ele>
        <time>2014-07-07T18:29:58Z</time>
      </trkpt>
      <trkpt lat="59.8734755" lon="17.6864184">
        <ele>23.209</ele>
        <time>2014-07-07T18:29:59Z</time>
      </trkpt>
      <trkpt lat="59.873504" lon="17.6865313">
        <ele>23.209</ele>
        <time>2014-07-07T18:30:00Z</time>
      </trkpt>
      <trkpt lat="59.8735299" lon="17.6866462">
        <ele>23.209</ele>
        <time>2014-07-07T18:30:01Z</time>
      </trkpt>
      <trkpt lat="59.8735511" lon="17.6867639">
        <ele>23.209</ele>
        <time>2014-07-07T18:30:02Z</time>
      </trkpt>
      <trkpt lat="59.8735696" lon="17.6868819">
        <ele>22.7283</ele>
        <time>2014-07-07T18:30:03Z</time>
      </trkpt>
      <trkpt lat="59.8735908" lon="17.6869959">
        <ele>23.209</ele>
        <time>2014-07-07T18:30:04Z</time>
      </trkpt>
      <trkpt lat="59.8736168" lon="17.6871004">
        <ele>22.7283</ele>
        <time>2014-07-07T18:30:05Z</time>
      </trkpt>
      <trkpt lat="59.8736503" lon="17.6871897">
        <ele>23.209</ele>
        <time>2014-07-07T18:30:06Z</time>
      </trkpt>
      <trkpt lat="59.8736884" lon="17.6872644">
        <ele>23.209</ele>
        <time>2014-07-07T18:30:07Z</time>
      </trkpt>
      <trkpt lat="59.8737229" lon="17.6873407">
        <ele>23.6896</ele>
        <time>2014-07-07T18:30:08Z</time>
      </trkpt>
      <trkpt lat="59.8737495" lon="17.6874229">
        <ele>23.6896</ele>
        <time>2014-07-07T18:30:09Z</time>
      </trkpt>
      <trkpt lat="59.8737732" lon="17.6875087">
        <ele>24.1703</ele>
        <time>2014-07-07T18:30:10Z</time>
      </trkpt>
      <trkpt lat="59.8737939" lon="17.6875977">
        <ele>24.1703</ele>
        <time>2014-07-07T18:30:11Z</time>
      </trkpt>
      <trkpt lat="59.8738187" lon="17.6876963">
        <ele>24.651</ele>
        <time>2014-07-07T18:30:12Z</time>
      </trkpt>
      <trkpt lat="59.8738438" lon="17.6877984">
        <ele>24.651</ele>
        <time>2014-07-07T18:30:13Z</time>
      </trkpt>
      <trkpt lat="59.8738667" lon="17.6879025">
        <ele>24.651</ele>
        <time>2014-07-07T18:30:14Z</time>
      </trkpt>
      <trkpt lat="59.8738922" lon="17.6880036">
        <ele>24.651</ele>
        <time>2014-07-07T18:30:15Z</time>
      </trkpt>
      <trkpt lat="59.8739199" lon="17.6881061">
        <ele>24.651</ele>
        <time>2014-07-07T18:30:16Z</time>
      </trkpt>
      <trkpt lat="59.8739466" lon="17.6882099">
        <ele>24.651</ele>
        <time>2014-07-07T18:30:17Z</time>
      </trkpt>
      <trkpt lat="59.8739691" lon="17.6883183">
        <ele>24.651</ele>
        <time>2014-07-07T18:30:18Z</time>
      </trkpt>
      <trkpt lat="59.8739888" lon="17.6884313">
        <ele>24.651</ele>
        <time>2014-07-07T18:30:19Z</time>
      </trkpt>
      <trkpt lat="59.8740116" lon="17.6885444">
        <ele>24.651</ele>
        <time>2014-07-07T18:30:20Z</time>
      </trkpt>
      <trkpt lat="59.8740395" lon="17.6886566">
        <ele>24.651</ele>
        <time>2014-07-07T18:30:21Z</time>
      </trkpt>
      <trkpt lat="59.8740701" lon="17.6887692">
        <ele>24.651</ele>
        <time>2014-07-07T18:30:22Z</time>
      </trkpt>
      <trkpt lat="59.8741007" lon="17.688885">
        <ele>24.651</ele>
        <time>2014-07-07T18:30:23Z</time>
      </trkpt>
      <trkpt lat="59.8741311" lon="17.6890033">
        <ele>24.651</ele>
        <time>2014-07-07T18:30:24Z</time>
      </trkpt>
      <trkpt lat="59.8741623" lon="17.6891225">
        <ele>24.651</ele>
        <time>2014-07-07T18:30:25Z</time>
      </trkpt>
      <trkpt lat="59.8741944" lon="17.6892421">
        <ele>24.651</ele>
        <time>2014-07-07T18:30:26Z</time>
      </trkpt>
      <trkpt lat="59.8742264" lon="17.6893626">
        <ele>24.651</ele>
        <time>2014-07-07T18:30:27Z</time>
      </trkpt>
      <trkpt lat="59.8742581" lon="17.6894822">
        <ele>24.651</ele>
        <time>2014-07-07T18:30:28Z</time>
      </trkpt>
      <trkpt lat="59.8742901" lon="17.689602">
        <ele>25.1317</ele>
        <time>2014-07-07T18:30:29Z</time>
      </trkpt>
      <trkpt lat="59.8743222" lon="17.6897222">
        <ele>25.1317</ele>
        <time>2014-07-07T18:30:30Z</time>
      </trkpt>
      <trkpt lat="59.874355" lon="17.6898427">
        <ele>25.1317</ele>
        <time>2014-07-07T18:30:31Z</time>
      </trkpt>
      <trkpt lat="59.8743908" lon="17.6899605">
        <ele>25.1317</ele>
        <time>2014-07-07T18:30:32Z</time>
      </trkpt>
      <trkpt lat="59.8744282" lon="17.6900753">
        <ele>25.1317</ele>
        <time>2014-07-07T18:30:33Z</time>
      </trkpt>
      <trkpt lat="59.8744649" lon="17.69019">
        <ele>25.1317</ele>
        <time>2014-07-07T18:30:34Z</time>
      </trkpt>
      <trkpt lat="59.8745005" lon="17.6903055">
        <ele>25.1317</ele>
        <time>2014-07-07T18:30:35Z</time>
      </trkpt>
      <trkpt lat="59.8745353" lon="17.6904206">
        <ele>25.1317</ele>
        <time>2014-07-07T18:30:36Z</time>
      </trkpt>
      <trkpt lat="59.87457" lon="17.690535">
        <ele>25.1317</ele>
        <time>2014-07-07T18:30:37Z</time>
      </trkpt>
      <trkpt lat="59.8746056" lon="17.690648">
        <ele>25.6123</ele>
        <time>2014-07-07T18:30:38Z</time>
      </trkpt>
      <trkpt lat="59.8746428" lon="17.6907588">
        <ele>25.6123</ele>
        <time>2014-07-07T18:30:39Z</time>
      </trkpt>
      <trkpt lat="59.8746818" lon="17.6908664">
        <ele>25.6123</ele>
        <time>2014-07-07T18:30:40Z</time>
      </trkpt>
      <trkpt lat="59.8747209" lon="17.6909725">
        <ele>25.6123</ele>
        <time>2014-07-07T18:30:41Z</time>
      </trkpt>
      <trkpt lat="59.8747622" lon="17.6910743">
        <ele>25.6123</ele>
        <time>2014-07-07T18:30:42Z</time>
      </trkpt>
      <trkpt lat="59.8748052" lon="17.6911736">
        <ele>26.0929</ele>
        <time>2014-07-07T18:30:43Z</time>
      </trkpt>
      <trkpt lat="59.8748482" lon="17.6912735">
        <ele>26.0929</ele>
        <time>2014-07-07T18:30:44Z</time>
      </trkpt>
      <trkpt lat="59.8748927" lon="17.6913701">
        <ele>26.0929</ele>
        <time>2014-07-07T18:30:45Z</time>
      </trkpt>
      <trkpt lat="59.8749407" lon="17.6914586">
        <ele>26.0929</ele>
        <time>2014-07-07T18:30:46Z</time>
      </trkpt>
      <trkpt lat="59.874987" lon="17.6915464">
        <ele>26.0929</ele>
        <time>2014-07-07T18:30:47Z</time>
      </trkpt>
      <trkpt lat="59.8750289" lon="17.6916385">
        <ele>26.5736</ele>
        <time>2014-07-07T18:30:48Z</time>
      </trkpt>
      <trkpt lat="59.8750693" lon="17.6917303">
        <ele>26.5736</ele>
        <time>2014-07-07T18:30:49Z</time>
      </trkpt>
      <trkpt lat="59.8751081" lon="17.6918211">
        <ele>26.5736</ele>
        <time>2014-07-07T18:30:50Z</time>
      </trkpt>
      <trkpt lat="59.8751409" lon="17.6919148">
        <ele>26.5736</ele>
        <time>2014-07-07T18:30:51Z</time>
      </trkpt>
      <trkpt lat="59.8751615" lon="17.6920122">
        <ele>26.5736</ele>
        <time>2014-07-07T18:30:52Z</time>
      </trkpt>
      <trkpt lat="59.8751656" lon="17.6921055">
        <ele>26.0929</ele>
        <time>2014-07-07T18:30:53Z</time>
      </trkpt>
      <trkpt lat="59.8751697" lon="17.6921844">
        <ele>26.0929</ele>
        <time>2014-07-07T18:30:54Z</time>
      </trkpt>
      <trkpt lat="59.8751915" lon="17.6922367">
        <ele>26.0929</ele>
        <time>2014-07-07T18:30:55Z</time>
      </trkpt>
      <trkpt lat="59.8752258" lon="17.6922557">
        <ele>26.0929</ele>
        <time>2014-07-07T18:30:56Z</time>
      </trkpt>
      <trkpt lat="59.8752651" lon="17.6922616">
        <ele>26.0929</ele>
        <time>2014-07-07T18:30:57Z</time>
      </trkpt>
      <trkpt lat="59.8753065" lon="17.6922815">
        <ele>26.0929</ele>
        <time>2014-07-07T18:30:58Z</time>
      </trkpt>
      <trkpt lat="59.8753464" lon="17.6923238">
        <ele>26.0929</ele>
        <time>2014-07-07T18:30:59Z</time>
      </trkpt>
      <trkpt lat="59.8753828" lon="17.6923872">
        <ele>26.0929</ele>
        <time>2014-07-07T18:31:00Z</time>
      </trkpt>
      <trkpt lat="59.8754179" lon="17.692462">
        <ele>26.0929</ele>
        <time>2014-07-07T18:31:01Z</time>
      </trkpt>
      <trkpt lat="59.8754532" lon="17.6925423">
        <ele>26.0929</ele>
        <time>2014-07-07T18:31:02Z</time>
      </trkpt>
      <trkpt lat="59.875489" lon="17.6926275">
        <ele>26.0929</ele>
        <time>2014-07-07T18:31:03Z</time>
      </trkpt>
      <trkpt lat="59.875526" lon="17.6927163">
        <ele>26.0929</ele>
        <time>2014-07-07T18:31:04Z</time>
      </trkpt>
      <trkpt lat="59.8755651" lon="17.6928083">
        <ele>25.6123</ele>
        <time>2014-07-07T18:31:05Z</time>
      </trkpt>
      <trkpt lat="59.8756067" lon="17.6929045">
        <ele>25.6123</ele>
        <time>2014-07-07T18:31:06Z</time>
      </trkpt>
      <trkpt lat="59.8756501" lon="17.6930062">
        <ele>25.6123</ele>
        <time>2014-07-07T18:31:07Z</time>
      </trkpt>
      <trkpt lat="59.8756941" lon="17.6931141">
        <ele>25.1317</ele>
        <time>2014-07-07T18:31:08Z</time>
      </trkpt>
      <trkpt lat="59.8757395" lon="17.6932293">
        <ele>24.651</ele>
        <time>2014-07-07T18:31:09Z</time>
      </trkpt>
      <trkpt lat="59.8757873" lon="17.69335">
        <ele>24.651</ele>
        <time>2014-07-07T18:31:10Z</time>
      </trkpt>
      <trkpt lat="59.8758386" lon="17.6934747">
        <ele>24.1703</ele>
        <time>2014-07-07T18:31:11Z</time>
      </trkpt>
      <trkpt lat="59.8758918" lon="17.6936027">
        <ele>23.6896</ele>
        <time>2014-07-07T18:31:12Z</time>
      </trkpt>
      <trkpt lat="59.8759453" lon="17.6937352">
        <ele>23.209</ele>
        <time>2014-07-07T18:31:13Z</time>
      </trkpt>
      <trkpt lat="59.8759986" lon="17.6938726">
        <ele>22.7283</ele>
        <time>2014-07-07T18:31:14Z</time>
      </trkpt>
      <trkpt lat="59.8760519" lon="17.6940148">
        <ele>22.2476</ele>
        <time>2014-07-07T18:31:15Z</time>
      </trkpt>
      <trkpt lat="59.8761064" lon="17.6941595">
        <ele>21.767</ele>
        <time>2014-07-07T18:31:16Z</time>
      </trkpt>
      <trkpt lat="59.8761623" lon="17.6943057">
        <ele>21.2864</ele>
        <time>2014-07-07T18:31:17Z</time>
      </trkpt>
      <trkpt lat="59.8762181" lon="17.6944548">
        <ele>20.8057</ele>
        <time>2014-07-07T18:31:18Z</time>
      </trkpt>
      <trkpt lat="59.8762732" lon="17.6946081">
        <ele>20.325</ele>
        <time>2014-07-07T18:31:19Z</time>
      </trkpt>
      <trkpt lat="59.8763282" lon="17.6947636">
        <ele>19.8444</ele>
        <time>2014-07-07T18:31:20Z</time>
      </trkpt>
      <trkpt lat="59.8763829" lon="17.6949205">
        <ele>19.8444</ele>
        <time>2014-07-07T18:31:21Z</time>
      </trkpt>
      <trkpt lat="59.8764355" lon="17.6950786">
        <ele>19.3638</ele>
        <time>2014-07-07T18:31:22Z</time>
      </trkpt>
      <trkpt lat="59.8764861" lon="17.6952379">
        <ele>19.3638</ele>
        <time>2014-07-07T18:31:23Z</time>
      </trkpt>
      <trkpt lat="59.8765348" lon="17.6953947">
        <ele>18.8831</ele>
        <time>2014-07-07T18:31:24Z</time>
      </trkpt>
      <trkpt lat="59.8765851" lon="17.6955566">
        <ele>18.8831</ele>
        <time>2014-07-07T18:31:25Z</time>
      </trkpt>
      <trkpt lat="59.8766389" lon="17.6957042">
        <ele>18.4023</ele>
        <time>2014-07-07T18:31:28Z</time>
      </trkpt>
      <trkpt lat="59.876684" lon="17.6958488">
        <ele>18.4023</ele>
        <time>2014-07-07T18:31:29Z</time>
      </trkpt>
      <trkpt lat="59.8767265" lon="17.6959941">
        <ele>18.4023</ele>
        <time>2014-07-07T18:31:30Z</time>
      </trkpt>
      <trkpt lat="59.8767684" lon="17.696136">
        <ele>18.8831</ele>
        <time>2014-07-07T18:31:31Z</time>
      </trkpt>
      <trkpt lat="59.8768079" lon="17.696276">
        <ele>19.3638</ele>
        <time>2014-07-07T18:31:32Z</time>
      </trkpt>
      <trkpt lat="59.8768461" lon="17.6964117">
        <ele>19.3638</ele>
        <time>2014-07-07T18:31:33Z</time>
      </trkpt>
      <trkpt lat="59.8768829" lon="17.6965438">
        <ele>19.8444</ele>
        <time>2014-07-07T18:31:34Z</time>
      </trkpt>
      <trkpt lat="59.8769186" lon="17.6966722">
        <ele>20.325</ele>
        <time>2014-07-07T18:31:35Z</time>
      </trkpt>
      <trkpt lat="59.876953" lon="17.6967978">
        <ele>20.8057</ele>
        <time>2014-07-07T18:31:36Z</time>
      </trkpt>
      <trkpt lat="59.8769864" lon="17.6969214">
        <ele>21.2864</ele>
        <time>2014-07-07T18:31:37Z</time>
      </trkpt>
      <trkpt lat="59.8770187" lon="17.6970413">
        <ele>21.767</ele>
        <time>2014-07-07T18:31:38Z</time>
      </trkpt>
      <trkpt lat="59.8770488" lon="17.6971576">
        <ele>22.2476</ele>
        <time>2014-07-07T18:31:39Z</time>
      </trkpt>
      <trkpt lat="59.8770766" lon="17.697272">
        <ele>22.2476</ele>
        <time>2014-07-07T18:31:40Z</time>
      </trkpt>
      <trkpt lat="59.8771032" lon="17.6973826">
        <ele>22.7283</ele>
        <time>2014-07-07T18:31:41Z</time>
      </trkpt>
      <trkpt lat="59.8771304" lon="17.6974896">
        <ele>23.209</ele>
        <time>2014-07-07T18:31:42Z</time>
      </trkpt>
      <trkpt lat="59.8771576" lon="17.697596">
        <ele>23.6896</ele>
        <time>2014-07-07T18:31:43Z</time>
      </trkpt>
      <trkpt lat="59.877184" lon="17.6977041">
        <ele>23.6896</ele>
        <time>2014-07-07T18:31:44Z</time>
      </trkpt>
      <trkpt lat="59.8772099" lon="17.6978135">
        <ele>24.1703</ele>
        <time>2014-07-07T18:31:45Z</time>
      </trkpt>
      <trkpt lat="59.8772365" lon="17.697924">
        <ele>24.1703</ele>
        <time>2014-07-07T18:31:46Z</time>
      </trkpt>
      <trkpt lat="59.8772636" lon="17.6980371">
        <ele>24.651</ele>
        <time>2014-07-07T18:31:47Z</time>
      </trkpt>
      <trkpt lat="59.8772915" lon="17.6981523">
        <ele>24.651</ele>
        <time>2014-07-07T18:31:48Z</time>
      </trkpt>
      <trkpt lat="59.8773204" lon="17.698269">
        <ele>24.651</ele>
        <time>2014-07-07T18:31:49Z</time>
      </trkpt>
      <trkpt lat="59.8773501" lon="17.6983885">
        <ele>24.651</ele>
        <time>2014-07-07T18:31:50Z</time>
      </trkpt>
      <trkpt lat="59.8773813" lon="17.6985113">
        <ele>24.651</ele>
        <time>2014-07-07T18:31:51Z</time>
      </trkpt>
      <trkpt lat="59.8774129" lon="17.6986337">
        <ele>24.651</ele>
        <time>2014-07-07T18:31:52Z</time>
      </trkpt>
      <trkpt lat="59.8774459" lon="17.6987542">
        <ele>24.651</ele>
        <time>2014-07-07T18:31:53Z</time>
      </trkpt>
      <trkpt lat="59.8774789" lon="17.6988745">
        <ele>24.651</ele>
        <time>2014-07-07T18:31:54Z</time>
      </trkpt>
      <trkpt lat="59.8775121" lon="17.6989947">
        <ele>24.651</ele>
        <time>2014-07-07T18:31:55Z</time>
      </trkpt>
      <trkpt lat="59.8775461" lon="17.6991143">
        <ele>24.651</ele>
        <time>2014-07-07T18:31:56Z</time>
      </trkpt>
      <trkpt lat="59.8775805" lon="17.6992337">
        <ele>24.651</ele>
        <time>2014-07-07T18:31:57Z</time>
      </trkpt>
      <trkpt lat="59.8776154" lon="17.6993519">
        <ele>24.651</ele>
        <time>2014-07-07T18:31:58Z</time>
      </trkpt>
      <trkpt lat="59.8776505" lon="17.6994687">
        <ele>24.651</ele>
        <time>2014-07-07T18:31:59Z</time>
      </trkpt>
      <trkpt lat="59.8776853" lon="17.6995841">
        <ele>24.651</ele>
        <time>2014-07-07T18:32:00Z</time>
      </trkpt>
      <trkpt lat="59.8777205" lon="17.6996969">
        <ele>25.1317</ele>
        <time>2014-07-07T18:32:01Z</time>
      </trkpt>
      <trkpt lat="59.877755" lon="17.6998079">
        <ele>25.1317</ele>
        <time>2014-07-07T18:32:02Z</time>
      </trkpt>
      <trkpt lat="59.8777888" lon="17.6999191">
        <ele>25.1317</ele>
        <time>2014-07-07T18:32:03Z</time>
      </trkpt>
      <trkpt lat="59.8778231" lon="17.7000304">
        <ele>25.1317</ele>
        <time>2014-07-07T18:32:04Z</time>
      </trkpt>
      <trkpt lat="59.8778588" lon="17.7001403">
        <ele>25.1317</ele>
        <time>2014-07-07T18:32:05Z</time>
      </trkpt>
      <trkpt lat="59.8778956" lon="17.7002496">
        <ele>25.1317</ele>
        <time>2014-07-07T18:32:06Z</time>
      </trkpt>
      <trkpt lat="59.8779328" lon="17.7003594">
        <ele>25.1317</ele>
        <time>2014-07-07T18:32:07Z</time>
      </trkpt>
      <trkpt lat="59.8779695" lon="17.70047">
        <ele>25.1317</ele>
        <time>2014-07-07T18:32:08Z</time>
      </trkpt>
      <trkpt lat="59.8780075" lon="17.7005796">
        <ele>25.1317</ele>
        <time>2014-07-07T18:32:09Z</time>
      </trkpt>
      <trkpt lat="59.8780474" lon="17.700688">
        <ele>25.1317</ele>
        <time>2014-07-07T18:32:10Z</time>
      </trkpt>
      <trkpt lat="59.8780883" lon="17.7007962">
        <ele>25.1317</ele>
        <time>2014-07-07T18:32:11Z</time>
      </trkpt>
      <trkpt lat="59.8781304" lon="17.7009045">
        <ele>25.1317</ele>
        <time>2014-07-07T18:32:12Z</time>
      </trkpt>
      <trkpt lat="59.8781733" lon="17.7010136">
        <ele>25.1317</ele>
        <time>2014-07-07T18:32:13Z</time>
      </trkpt>
      <trkpt lat="59.8782171" lon="17.7011231">
        <ele>25.1317</ele>
        <time>2014-07-07T18:32:14Z</time>
      </trkpt>
      <trkpt lat="59.8782618" lon="17.7012323">
        <ele>25.1317</ele>
        <time>2014-07-07T18:32:15Z</time>
      </trkpt>
      <trkpt lat="59.8783067" lon="17.701343">
        <ele>25.1317</ele>
        <time>2014-07-07T18:32:16Z</time>
      </trkpt>
      <trkpt lat="59.878351" lon="17.7014565">
        <ele>24.651</ele>
        <time>2014-07-07T18:32:17Z</time>
      </trkpt>
      <trkpt lat="59.8783959" lon="17.7015721">
        <ele>24.651</ele>
        <time>2014-07-07T18:32:18Z</time>
      </trkpt>
      <trkpt lat="59.878441" lon="17.7016889">
        <ele>24.651</ele>
        <time>2014-07-07T18:32:19Z</time>
      </trkpt>
      <trkpt lat="59.8784856" lon="17.7018074">
        <ele>24.651</ele>
        <time>2014-07-07T18:32:20Z</time>
      </trkpt>
      <trkpt lat="59.8785296" lon="17.7019276">
        <ele>24.651</ele>
        <time>2014-07-07T18:32:21Z</time>
      </trkpt>
      <trkpt lat="59.878573" lon="17.7020493">
        <ele>24.651</ele>
        <time>2014-07-07T18:32:22Z</time>
      </trkpt>
      <trkpt lat="59.8786153" lon="17.7021721">
        <ele>24.651</ele>
        <time>2014-07-07T18:32:23Z</time>
      </trkpt>
      <trkpt lat="59.8786562" lon="17.7022933">
        <ele>24.651</ele>
        <time>2014-07-07T18:32:24Z</time>
      </trkpt>
      <trkpt lat="59.8786963" lon="17.702411">
        <ele>24.651</ele>
        <time>2014-07-07T18:32:25Z</time>
      </trkpt>
      <trkpt lat="59.8787351" lon="17.7025259">
        <ele>24.651</ele>
        <time>2014-07-07T18:32:26Z</time>
      </trkpt>
      <trkpt lat="59.8787732" lon="17.7026393">
        <ele>24.651</ele>
        <time>2014-07-07T18:32:27Z</time>
      </trkpt>
      <trkpt lat="59.8788121" lon="17.7027518">
        <ele>24.651</ele>
        <time>2014-07-07T18:32:28Z</time>
      </trkpt>
      <trkpt lat="59.8788518" lon="17.7028634">
        <ele>24.651</ele>
        <time>2014-07-07T18:32:29Z</time>
      </trkpt>
      <trkpt lat="59.8788919" lon="17.7029741">
        <ele>24.651</ele>
        <time>2014-07-07T18:32:30Z</time>
      </trkpt>
      <trkpt lat="59.8789326" lon="17.7030853">
        <ele>24.651</ele>
        <time>2014-07-07T18:32:31Z</time>
      </trkpt>
      <trkpt lat="59.8789736" lon="17.7031965">
        <ele>24.651</ele>
        <time>2014-07-07T18:32:32Z</time>
      </trkpt>
      <trkpt lat="59.8790145" lon="17.7033074">
        <ele>24.651</ele>
        <time>2014-07-07T18:32:33Z</time>
      </trkpt>
      <trkpt lat="59.8790556" lon="17.7034146">
        <ele>24.651</ele>
        <time>2014-07-07T18:32:34Z</time>
      </trkpt>
      <trkpt lat="59.8790948" lon="17.7035083">
        <ele>24.651</ele>
        <time>2014-07-07T18:32:35Z</time>
      </trkpt>
      <trkpt lat="59.8791321" lon="17.703595">
        <ele>24.651</ele>
        <time>2014-07-07T18:32:36Z</time>
      </trkpt>
      <trkpt lat="59.8791677" lon="17.7036922">
        <ele>24.651</ele>
        <time>2014-07-07T18:32:37Z</time>
      </trkpt>
      <trkpt lat="59.8792045" lon="17.7037982">
        <ele>24.651</ele>
        <time>2014-07-07T18:32:38Z</time>
      </trkpt>
      <trkpt lat="59.879243" lon="17.7039029">
        <ele>24.1703</ele>
        <time>2014-07-07T18:32:39Z</time>
      </trkpt>
      <trkpt lat="59.8792823" lon="17.7040083">
        <ele>24.1703</ele>
        <time>2014-07-07T18:32:40Z</time>
      </trkpt>
      <trkpt lat="59.879321" lon="17.7041157">
        <ele>24.1703</ele>
        <time>2014-07-07T18:32:41Z</time>
      </trkpt>
      <trkpt lat="59.879359" lon="17.7042245">
        <ele>24.1703</ele>
        <time>2014-07-07T18:32:42Z</time>
      </trkpt>
      <trkpt lat="59.8793968" lon="17.7043349">
        <ele>24.1703</ele>
        <time>2014-07-07T18:32:43Z</time>
      </trkpt>
      <trkpt lat="59.8794346" lon="17.7044468">
        <ele>24.1703</ele>
        <time>2014-07-07T18:32:44Z</time>
      </trkpt>
      <trkpt lat="59.8794725" lon="17.7045597">
        <ele>24.1703</ele>
        <time>2014-07-07T18:32:45Z</time>
      </trkpt>
      <trkpt lat="59.8795099" lon="17.7046746">
        <ele>24.1703</ele>
        <time>2014-07-07T18:32:46Z</time>
      </trkpt>
      <trkpt lat="59.8795474" lon="17.7047905">
        <ele>24.1703</ele>
        <time>2014-07-07T18:32:47Z</time>
      </trkpt>
      <trkpt lat="59.8795852" lon="17.7049062">
        <ele>24.1703</ele>
        <time>2014-07-07T18:32:48Z</time>
      </trkpt>
      <trkpt lat="59.8796227" lon="17.7050236">
        <ele>24.1703</ele>
        <time>2014-07-07T18:32:49Z</time>
      </trkpt>
      <trkpt lat="59.8796601" lon="17.7051421">
        <ele>24.1703</ele>
        <time>2014-07-07T18:32:50Z</time>
      </trkpt>
      <trkpt lat="59.8796982" lon="17.7052609">
        <ele>24.1703</ele>
        <time>2014-07-07T18:32:51Z</time>
      </trkpt>
      <trkpt lat="59.8797361" lon="17.7053817">
        <ele>23.6896</ele>
        <time>2014-07-07T18:32:52Z</time>
      </trkpt>
      <trkpt lat="59.8797738" lon="17.705505">
        <ele>23.6896</ele>
        <time>2014-07-07T18:32:53Z</time>
      </trkpt>
      <trkpt lat="59.8798118" lon="17.7056296">
        <ele>23.6896</ele>
        <time>2014-07-07T18:32:54Z</time>
      </trkpt>
      <trkpt lat="59.87985" lon="17.7057552">
        <ele>23.6896</ele>
        <time>2014-07-07T18:32:55Z</time>
      </trkpt>
      <trkpt lat="59.8798883" lon="17.7058816">
        <ele>23.6896</ele>
        <time>2014-07-07T18:32:56Z</time>
      </trkpt>
      <trkpt lat="59.8799262" lon="17.7060088">
        <ele>23.6896</ele>
        <time>2014-07-07T18:32:57Z</time>
      </trkpt>
      <trkpt lat="59.8799635" lon="17.7061362">
        <ele>23.6896</ele>
        <time>2014-07-07T18:32:58Z</time>
      </trkpt>
      <trkpt lat="59.8800001" lon="17.7062654">
        <ele>23.6896</ele>
        <time>2014-07-07T18:32:59Z</time>
      </trkpt>
      <trkpt lat="59.8800359" lon="17.7063959">
        <ele>23.209</ele>
        <time>2014-07-07T18:33:00Z</time>
      </trkpt>
      <trkpt lat="59.8800709" lon="17.7065275">
        <ele>23.209</ele>
        <time>2014-07-07T18:33:01Z</time>
      </trkpt>
      <trkpt lat="59.8801039" lon="17.7066606">
        <ele>23.209</ele>
        <time>2014-07-07T18:33:02Z</time>
      </trkpt>
      <trkpt lat="59.8801339" lon="17.7067953">
        <ele>23.209</ele>
        <time>2014-07-07T18:33:03Z</time>
      </trkpt>
      <trkpt lat="59.8801622" lon="17.70693">
        <ele>23.209</ele>
        <time>2014-07-07T18:33:04Z</time>
      </trkpt>
      <trkpt lat="59.8801895" lon="17.7070651">
        <ele>23.209</ele>
        <time>2014-07-07T18:33:05Z</time>
      </trkpt>
      <trkpt lat="59.8802154" lon="17.7072004">
        <ele>23.209</ele>
        <time>2014-07-07T18:33:06Z</time>
      </trkpt>
      <trkpt lat="59.8802396" lon="17.7073357">
        <ele>23.209</ele>
        <time>2014-07-07T18:33:07Z</time>
      </trkpt>
      <trkpt lat="59.8802628" lon="17.7074721">
        <ele>23.209</ele>
        <time>2014-07-07T18:33:08Z</time>
      </trkpt>
      <trkpt lat="59.8802852" lon="17.7076089">
        <ele>23.209</ele>
        <time>2014-07-07T18:33:09Z</time>
      </trkpt>
      <trkpt lat="59.8803071" lon="17.7077459">
        <ele>23.209</ele>
        <time>2014-07-07T18:33:10Z</time>
      </trkpt>
      <trkpt lat="59.8803288" lon="17.7078821">
        <ele>23.209</ele>
        <time>2014-07-07T18:33:11Z</time>
      </trkpt>
      <trkpt lat="59.880351" lon="17.7080169">
        <ele>23.209</ele>
        <time>2014-07-07T18:33:12Z</time>
      </trkpt>
      <trkpt lat="59.8803738" lon="17.7081507">
        <ele>23.209</ele>
        <time>2014-07-07T18:33:13Z</time>
      </trkpt>
      <trkpt lat="59.8803981" lon="17.7082836">
        <ele>23.209</ele>
        <time>2014-07-07T18:33:14Z</time>
      </trkpt>
      <trkpt lat="59.8804265" lon="17.708412">
        <ele>23.209</ele>
        <time>2014-07-07T18:33:15Z</time>
      </trkpt>
      <trkpt lat="59.8804583" lon="17.7085353">
        <ele>23.209</ele>
        <time>2014-07-07T18:33:16Z</time>
      </trkpt>
      <trkpt lat="59.8804927" lon="17.7086565">
        <ele>23.209</ele>
        <time>2014-07-07T18:33:17Z</time>
      </trkpt>
      <trkpt lat="59.8805267" lon="17.7087755">
        <ele>23.6896</ele>
        <time>2014-07-07T18:33:18Z</time>
      </trkpt>
      <trkpt lat="59.8805608" lon="17.708893">
        <ele>23.6896</ele>
        <time>2014-07-07T18:33:19Z</time>
      </trkpt>
      <trkpt lat="59.8805955" lon="17.7090065">
        <ele>23.6896</ele>
        <time>2014-07-07T18:33:20Z</time>
      </trkpt>
      <trkpt lat="59.8806312" lon="17.709117">
        <ele>24.1703</ele>
        <time>2014-07-07T18:33:21Z</time>
      </trkpt>
      <trkpt lat="59.8806675" lon="17.7092226">
        <ele>24.1703</ele>
        <time>2014-07-07T18:33:22Z</time>
      </trkpt>
      <trkpt lat="59.8807043" lon="17.7093223">
        <ele>24.1703</ele>
        <time>2014-07-07T18:33:23Z</time>
      </trkpt>
      <trkpt lat="59.8807416" lon="17.709419">
        <ele>24.1703</ele>
        <time>2014-07-07T18:33:24Z</time>
      </trkpt>
      <trkpt lat="59.8807798" lon="17.7095136">
        <ele>24.1703</ele>
        <time>2014-07-07T18:33:25Z</time>
      </trkpt>
      <trkpt lat="59.8808228" lon="17.709604">
        <ele>24.1703</ele>
        <time>2014-07-07T18:33:26Z</time>
      </trkpt>
      <trkpt lat="59.8808696" lon="17.7096937">
        <ele>24.1703</ele>
        <time>2014-07-07T18:33:27Z</time>
      </trkpt>
      <trkpt lat="59.8809167" lon="17.7097892">
        <ele>24.651</ele>
        <time>2014-07-07T18:33:28Z</time>
      </trkpt>
      <trkpt lat="59.8809595" lon="17.7098884">
        <ele>24.651</ele>
        <time>2014-07-07T18:33:29Z</time>
      </trkpt>
      <trkpt lat="59.8809965" lon="17.7099974">
        <ele>24.1703</ele>
        <time>2014-07-07T18:33:30Z</time>
      </trkpt>
      <trkpt lat="59.8810312" lon="17.7101168">
        <ele>24.1703</ele>
        <time>2014-07-07T18:33:31Z</time>
      </trkpt>
      <trkpt lat="59.8810658" lon="17.710239">
        <ele>23.6896</ele>
        <time>2014-07-07T18:33:32Z</time>
      </trkpt>
      <trkpt lat="59.8811011" lon="17.7103617">
        <ele>23.6896</ele>
        <time>2014-07-07T18:33:33Z</time>
      </trkpt>
      <trkpt lat="59.8811384" lon="17.7104836">
        <ele>23.6896</ele>
        <time>2014-07-07T18:33:34Z</time>
      </trkpt>
      <trkpt lat="59.8811781" lon="17.7106049">
        <ele>23.209</ele>
        <time>2014-07-07T18:33:35Z</time>
      </trkpt>
      <trkpt lat="59.8812201" lon="17.7107279">
        <ele>22.7283</ele>
        <time>2014-07-07T18:33:36Z</time>
      </trkpt>
      <trkpt lat="59.8812653" lon="17.7108532">
        <ele>22.7283</ele>
        <time>2014-07-07T18:33:37Z</time>
      </trkpt>
      <trkpt lat="59.8813115" lon="17.7109674">
        <ele>22.7283</ele>
        <time>2014-07-07T18:33:38Z</time>
      </trkpt>
      <trkpt lat="59.8813576" lon="17.7110683">
        <ele>22.7283</ele>
        <time>2014-07-07T18:33:39Z</time>
      </trkpt>
      <trkpt lat="59.8814029" lon="17.7111807">
        <ele>22.2476</ele>
        <time>2014-07-07T18:33:40Z</time>
      </trkpt>
      <trkpt lat="59.8814466" lon="17.7113039">
        <ele>22.2476</ele>
        <time>2014-07-07T18:33:41Z</time>
      </trkpt>
      <trkpt lat="59.8814869" lon="17.711427">
        <ele>22.2476</ele>
        <time>2014-07-07T18:33:42Z</time>
      </trkpt>
      <trkpt lat="59.8815231" lon="17.7115528">
        <ele>22.2476</ele>
        <time>2014-07-07T18:33:43Z</time>
      </trkpt>
      <trkpt lat="59.8815549" lon="17.7116808">
        <ele>22.2476</ele>
        <time>2014-07-07T18:33:44Z</time>
      </trkpt>
      <trkpt lat="59.8815823" lon="17.711811">
        <ele>22.2476</ele>
        <time>2014-07-07T18:33:45Z</time>
      </trkpt>
      <trkpt lat="59.8816072" lon="17.7119429">
        <ele>22.2476</ele>
        <time>2014-07-07T18:33:46Z</time>
      </trkpt>
      <trkpt lat="59.8816305" lon="17.7120755">
        <ele>21.767</ele>
        <time>2014-07-07T18:33:47Z</time>
      </trkpt>
      <trkpt lat="59.881652" lon="17.7122102">
        <ele>22.2476</ele>
        <time>2014-07-07T18:33:48Z</time>
      </trkpt>
      <trkpt lat="59.8816723" lon="17.7123463">
        <ele>22.2476</ele>
        <time>2014-07-07T18:33:49Z</time>
      </trkpt>
      <trkpt lat="59.8816917" lon="17.7124827">
        <ele>22.2476</ele>
        <time>2014-07-07T18:33:50Z</time>
      </trkpt>
      <trkpt lat="59.8817106" lon="17.7126198">
        <ele>22.2476</ele>
        <time>2014-07-07T18:33:51Z</time>
      </trkpt>
      <trkpt lat="59.8817289" lon="17.7127576">
        <ele>22.2476</ele>
        <time>2014-07-07T18:33:52Z</time>
      </trkpt>
      <trkpt lat="59.881747" lon="17.7128954">
        <ele>22.2476</ele>
        <time>2014-07-07T18:33:53Z</time>
      </trkpt>
      <trkpt lat="59.8817647" lon="17.7130333">
        <ele>22.2476</ele>
        <time>2014-07-07T18:33:54Z</time>
      </trkpt>
      <trkpt lat="59.8817823" lon="17.713171">
        <ele>22.2476</ele>
        <time>2014-07-07T18:33:55Z</time>
      </trkpt>
      <trkpt lat="59.8818002" lon="17.7133077">
        <ele>22.2476</ele>
        <time>2014-07-07T18:33:56Z</time>
      </trkpt>
      <trkpt lat="59.8818185" lon="17.7134441">
        <ele>22.2476</ele>
        <time>2014-07-07T18:33:57Z</time>
      </trkpt>
      <trkpt lat="59.881837" lon="17.7135806">
        <ele>22.2476</ele>
        <time>2014-07-07T18:33:58Z</time>
      </trkpt>
      <trkpt lat="59.8818554" lon="17.7137159">
        <ele>22.2476</ele>
        <time>2014-07-07T18:33:59Z</time>
      </trkpt>
      <trkpt lat="59.881874" lon="17.7138501">
        <ele>22.2476</ele>
        <time>2014-07-07T18:34:00Z</time>
      </trkpt>
      <trkpt lat="59.8818929" lon="17.7139846">
        <ele>22.2476</ele>
        <time>2014-07-07T18:34:01Z</time>
      </trkpt>
      <trkpt lat="59.8819123" lon="17.7141195">
        <ele>22.2476</ele>
        <time>2014-07-07T18:34:02Z</time>
      </trkpt>
      <trkpt lat="59.8819319" lon="17.714255">
        <ele>22.2476</ele>
        <time>2014-07-07T18:34:03Z</time>
      </trkpt>
      <trkpt lat="59.8819517" lon="17.7143914">
        <ele>22.2476</ele>
        <time>2014-07-07T18:34:04Z</time>
      </trkpt>
      <trkpt lat="59.8819719" lon="17.7145285">
        <ele>22.2476</ele>
        <time>2014-07-07T18:34:05Z</time>
      </trkpt>
      <trkpt lat="59.8819919" lon="17.7146663">
        <ele>22.2476</ele>
        <time>2014-07-07T18:34:06Z</time>
      </trkpt>
      <trkpt lat="59.8820115" lon="17.7148054">
        <ele>22.2476</ele>
        <time>2014-07-07T18:34:07Z</time>
      </trkpt>
      <trkpt lat="59.8820315" lon="17.7149453">
        <ele>22.2476</ele>
        <time>2014-07-07T18:34:08Z</time>
      </trkpt>
      <trkpt lat="59.8820511" lon="17.7150871">
        <ele>22.2476</ele>
        <time>2014-07-07T18:34:09Z</time>
      </trkpt>
      <trkpt lat="59.8820703" lon="17.7152297">
        <ele>22.2476</ele>
        <time>2014-07-07T18:34:10Z</time>
      </trkpt>
      <trkpt lat="59.8820896" lon="17.7153716">
        <ele>22.2476</ele>
        <time>2014-07-07T18:34:11Z</time>
      </trkpt>
      <trkpt lat="59.8821087" lon="17.7155139">
        <ele>22.2476</ele>
        <time>2014-07-07T18:34:12Z</time>
      </trkpt>
      <trkpt lat="59.8821274" lon="17.7156567">
        <ele>22.2476</ele>
        <time>2014-07-07T18:34:13Z</time>
      </trkpt>
      <trkpt lat="59.8821467" lon="17.7157997">
        <ele>22.2476</ele>
        <time>2014-07-07T18:34:14Z</time>
      </trkpt>
      <trkpt lat="59.882166" lon="17.7159429">
        <ele>22.2476</ele>
        <time>2014-07-07T18:34:15Z</time>
      </trkpt>
      <trkpt lat="59.8821851" lon="17.7160859">
        <ele>22.2476</ele>
        <time>2014-07-07T18:34:16Z</time>
      </trkpt>
      <trkpt lat="59.8822039" lon="17.7162283">
        <ele>22.2476</ele>
        <time>2014-07-07T18:34:17Z</time>
      </trkpt>
      <trkpt lat="59.8822225" lon="17.7163701">
        <ele>22.2476</ele>
        <time>2014-07-07T18:34:18Z</time>
      </trkpt>
      <trkpt lat="59.8822406" lon="17.7165117">
        <ele>22.2476</ele>
        <time>2014-07-07T18:34:19Z</time>
      </trkpt>
      <trkpt lat="59.8822577" lon="17.7166536">
        <ele>22.7283</ele>
        <time>2014-07-07T18:34:20Z</time>
      </trkpt>
      <trkpt lat="59.8822737" lon="17.7167955">
        <ele>22.7283</ele>
        <time>2014-07-07T18:34:21Z</time>
      </trkpt>
      <trkpt lat="59.8822893" lon="17.7169373">
        <ele>22.7283</ele>
        <time>2014-07-07T18:34:22Z</time>
      </trkpt>
      <trkpt lat="59.8823043" lon="17.7170799">
        <ele>22.7283</ele>
        <time>2014-07-07T18:34:23Z</time>
      </trkpt>
      <trkpt lat="59.8823174" lon="17.717223">
        <ele>22.7283</ele>
        <time>2014-07-07T18:34:24Z</time>
      </trkpt>
      <trkpt lat="59.8823278" lon="17.717367">
        <ele>22.7283</ele>
        <time>2014-07-07T18:34:25Z</time>
      </trkpt>
      <trkpt lat="59.8823365" lon="17.7175119">
        <ele>22.7283</ele>
        <time>2014-07-07T18:34:26Z</time>
      </trkpt>
      <trkpt lat="59.8823433" lon="17.7176565">
        <ele>22.7283</ele>
        <time>2014-07-07T18:34:27Z</time>
      </trkpt>
      <trkpt lat="59.882347" lon="17.7177995">
        <ele>23.209</ele>
        <time>2014-07-07T18:34:28Z</time>
      </trkpt>
      <trkpt lat="59.8823495" lon="17.7179392">
        <ele>23.209</ele>
        <time>2014-07-07T18:34:29Z</time>
      </trkpt>
      <trkpt lat="59.8823552" lon="17.7180758">
        <ele>23.209</ele>
        <time>2014-07-07T18:34:30Z</time>
      </trkpt>
      <trkpt lat="59.8823674" lon="17.7182107">
        <ele>23.209</ele>
        <time>2014-07-07T18:34:31Z</time>
      </trkpt>
      <trkpt lat="59.8823855" lon="17.7183438">
        <ele>23.209</ele>
        <time>2014-07-07T18:34:32Z</time>
      </trkpt>
      <trkpt lat="59.8824074" lon="17.7184758">
        <ele>22.7283</ele>
        <time>2014-07-07T18:34:33Z</time>
      </trkpt>
      <trkpt lat="59.8824313" lon="17.7186084">
        <ele>22.7283</ele>
        <time>2014-07-07T18:34:34Z</time>
      </trkpt>
      <trkpt lat="59.8824567" lon="17.7187413">
        <ele>22.7283</ele>
        <time>2014-07-07T18:34:35Z</time>
      </trkpt>
      <trkpt lat="59.8824834" lon="17.7188741">
        <ele>22.7283</ele>
        <time>2014-07-07T18:34:36Z</time>
      </trkpt>
      <trkpt lat="59.8825111" lon="17.7190063">
        <ele>22.7283</ele>
        <time>2014-07-07T18:34:37Z</time>
      </trkpt>
      <trkpt lat="59.8825396" lon="17.7191384">
        <ele>22.7283</ele>
        <time>2014-07-07T18:34:38Z</time>
      </trkpt>
      <trkpt lat="59.8825696" lon="17.7192649">
        <ele>23.209</ele>
        <time>2014-07-07T18:34:39Z</time>
      </trkpt>
      <trkpt lat="59.8826006" lon="17.7193812">
        <ele>23.209</ele>
        <time>2014-07-07T18:34:40Z</time>
      </trkpt>
      <trkpt lat="59.882629" lon="17.7194942">
        <ele>23.6896</ele>
        <time>2014-07-07T18:34:41Z</time>
      </trkpt>
      <trkpt lat="59.882658" lon="17.7196082">
        <ele>23.6896</ele>
        <time>2014-07-07T18:34:42Z</time>
      </trkpt>
      <trkpt lat="59.882686" lon="17.7197241">
        <ele>23.6896</ele>
        <time>2014-07-07T18:34:43Z</time>
      </trkpt>
      <trkpt lat="59.8827105" lon="17.7198404">
        <ele>23.6896</ele>
        <time>2014-07-07T18:34:44Z</time>
      </trkpt>
      <trkpt lat="59.8827348" lon="17.7199528">
        <ele>23.6896</ele>
        <time>2014-07-07T18:34:45Z</time>
      </trkpt>
      <trkpt lat="59.8827593" lon="17.7200651">
        <ele>23.6896</ele>
        <time>2014-07-07T18:34:46Z</time>
      </trkpt>
      <trkpt lat="59.8827841" lon="17.7201779">
        <ele>23.6896</ele>
        <time>2014-07-07T18:34:47Z</time>
      </trkpt>
      <trkpt lat="59.8828082" lon="17.7202915">
        <ele>23.6896</ele>
        <time>2014-07-07T18:34:48Z</time>
      </trkpt>
      <trkpt lat="59.882831" lon="17.7204067">
        <ele>24.1703</ele>
        <time>2014-07-07T18:34:49Z</time>
      </trkpt>
      <trkpt lat="59.8828512" lon="17.7205242">
        <ele>24.1703</ele>
        <time>2014-07-07T18:34:50Z</time>
      </trkpt>
      <trkpt lat="59.8828643" lon="17.7206454">
        <ele>24.1703</ele>
        <time>2014-07-07T18:34:51Z</time>
      </trkpt>
      <trkpt lat="59.8828653" lon="17.7207693">
        <ele>24.1703</ele>
        <time>2014-07-07T18:34:52Z</time>
      </trkpt>
      <trkpt lat="59.8828484" lon="17.7208876">
        <ele>24.1703</ele>
        <time>2014-07-07T18:34:53Z</time>
      </trkpt>
      <trkpt lat="59.8828136" lon="17.7209898">
        <ele>24.1703</ele>
        <time>2014-07-07T18:34:54Z</time>
      </trkpt>
      <trkpt lat="59.8827666" lon="17.721073">
        <ele>24.1703</ele>
        <time>2014-07-07T18:34:55Z</time>
      </trkpt>
      <trkpt lat="59.8827136" lon="17.7211427">
        <ele>23.6896</ele>
        <time>2014-07-07T18:34:56Z</time>
      </trkpt>
      <trkpt lat="59.882659" lon="17.7212043">
        <ele>23.6896</ele>
        <time>2014-07-07T18:34:57Z</time>
      </trkpt>
      <trkpt lat="59.8826033" lon="17.7212598">
        <ele>23.6896</ele>
        <time>2014-07-07T18:34:58Z</time>
      </trkpt>
      <trkpt lat="59.8825479" lon="17.7213144">
        <ele>23.6896</ele>
        <time>2014-07-07T18:34:59Z</time>
      </trkpt>
      <trkpt lat="59.8824944" lon="17.7213715">
        <ele>23.6896</ele>
        <time>2014-07-07T18:35:00Z</time>
      </trkpt>
      <trkpt lat="59.8824411" lon="17.7214286">
        <ele>23.209</ele>
        <time>2014-07-07T18:35:01Z</time>
      </trkpt>
      <trkpt lat="59.8823869" lon="17.721485">
        <ele>23.209</ele>
        <time>2014-07-07T18:35:02Z</time>
      </trkpt>
      <trkpt lat="59.8823334" lon="17.7215431">
        <ele>23.209</ele>
        <time>2014-07-07T18:35:03Z</time>
      </trkpt>
      <trkpt lat="59.8822801" lon="17.7216027">
        <ele>23.209</ele>
        <time>2014-07-07T18:35:04Z</time>
      </trkpt>
      <trkpt lat="59.882227" lon="17.7216633">
        <ele>23.209</ele>
        <time>2014-07-07T18:35:05Z</time>
      </trkpt>
      <trkpt lat="59.8821748" lon="17.7217275">
        <ele>23.209</ele>
        <time>2014-07-07T18:35:06Z</time>
      </trkpt>
      <trkpt lat="59.8821236" lon="17.7217953">
        <ele>23.209</ele>
        <time>2014-07-07T18:35:07Z</time>
      </trkpt>
      <trkpt lat="59.882074" lon="17.7218677">
        <ele>23.209</ele>
        <time>2014-07-07T18:35:08Z</time>
      </trkpt>
      <trkpt lat="59.8820263" lon="17.7219471">
        <ele>23.209</ele>
        <time>2014-07-07T18:35:09Z</time>
      </trkpt>
      <trkpt lat="59.8819803" lon="17.7220336">
        <ele>23.209</ele>
        <time>2014-07-07T18:35:10Z</time>
      </trkpt>
      <trkpt lat="59.8819351" lon="17.7221253">
        <ele>23.209</ele>
        <time>2014-07-07T18:35:11Z</time>
      </trkpt>
      <trkpt lat="59.8818905" lon="17.7222206">
        <ele>23.209</ele>
        <time>2014-07-07T18:35:12Z</time>
      </trkpt>
      <trkpt lat="59.881846" lon="17.7223168">
        <ele>23.209</ele>
        <time>2014-07-07T18:35:13Z</time>
      </trkpt>
      <trkpt lat="59.8818009" lon="17.7224123">
        <ele>22.7283</ele>
        <time>2014-07-07T18:35:14Z</time>
      </trkpt>
      <trkpt lat="59.8817557" lon="17.7225071">
        <ele>22.7283</ele>
        <time>2014-07-07T18:35:15Z</time>
      </trkpt>
      <trkpt lat="59.8817103" lon="17.7226022">
        <ele>22.7283</ele>
        <time>2014-07-07T18:35:16Z</time>
      </trkpt>
      <trkpt lat="59.8816661" lon="17.7226976">
        <ele>22.7283</ele>
        <time>2014-07-07T18:35:17Z</time>
      </trkpt>
      <trkpt lat="59.8816222" lon="17.722793">
        <ele>22.7283</ele>
        <time>2014-07-07T18:35:18Z</time>
      </trkpt>
      <trkpt lat="59.8815775" lon="17.7228886">
        <ele>22.7283</ele>
        <time>2014-07-07T18:35:19Z</time>
      </trkpt>
      <trkpt lat="59.8815335" lon="17.7229848">
        <ele>22.7283</ele>
        <time>2014-07-07T18:35:20Z</time>
      </trkpt>
      <trkpt lat="59.8814935" lon="17.7230852">
        <ele>22.7283</ele>
        <time>2014-07-07T18:35:21Z</time>
      </trkpt>
      <trkpt lat="59.8814597" lon="17.7231919">
        <ele>22.7283</ele>
        <time>2014-07-07T18:35:22Z</time>
      </trkpt>
      <trkpt lat="59.8814345" lon="17.7233073">
        <ele>22.7283</ele>
        <time>2014-07-07T18:35:23Z</time>
      </trkpt>
      <trkpt lat="59.8814216" lon="17.7234307">
        <ele>23.209</ele>
        <time>2014-07-07T18:35:24Z</time>
      </trkpt>
      <trkpt lat="59.8814226" lon="17.7235577">
        <ele>23.209</ele>
        <time>2014-07-07T18:35:25Z</time>
      </trkpt>
      <trkpt lat="59.8814352" lon="17.7236836">
        <ele>23.209</ele>
        <time>2014-07-07T18:35:26Z</time>
      </trkpt>
      <trkpt lat="59.8814564" lon="17.7238073">
        <ele>23.209</ele>
        <time>2014-07-07T18:35:27Z</time>
      </trkpt>
      <trkpt lat="59.8814828" lon="17.7239286">
        <ele>23.209</ele>
        <time>2014-07-07T18:35:28Z</time>
      </trkpt>
      <trkpt lat="59.881512" lon="17.7240491">
        <ele>23.209</ele>
        <time>2014-07-07T18:35:29Z</time>
      </trkpt>
      <trkpt lat="59.8815427" lon="17.7241689">
        <ele>23.209</ele>
        <time>2014-07-07T18:35:30Z</time>
      </trkpt>
      <trkpt lat="59.8815744" lon="17.7242885">
        <ele>23.209</ele>
        <time>2014-07-07T18:35:31Z</time>
      </trkpt>
      <trkpt lat="59.8816059" lon="17.7244093">
        <ele>23.209</ele>
        <time>2014-07-07T18:35:32Z</time>
      </trkpt>
      <trkpt lat="59.8816371" lon="17.7245308">
        <ele>23.209</ele>
        <time>2014-07-07T18:35:33Z</time>
      </trkpt>
      <trkpt lat="59.8816689" lon="17.7246506">
        <ele>23.209</ele>
        <time>2014-07-07T18:35:34Z</time>
      </trkpt>
      <trkpt lat="59.8817013" lon="17.7247693">
        <ele>23.209</ele>
        <time>2014-07-07T18:35:35Z</time>
      </trkpt>
      <trkpt lat="59.8817331" lon="17.7248888">
        <ele>23.6896</ele>
        <time>2014-07-07T18:35:36Z</time>
      </trkpt>
      <trkpt lat="59.8817642" lon="17.7250085">
        <ele>23.6896</ele>
        <time>2014-07-07T18:35:37Z</time>
      </trkpt>
      <trkpt lat="59.8817955" lon="17.7251267">
        <ele>23.6896</ele>
        <time>2014-07-07T18:35:38Z</time>
      </trkpt>
      <trkpt lat="59.8818268" lon="17.7252423">
        <ele>23.6896</ele>
        <time>2014-07-07T18:35:39Z</time>
      </trkpt>
      <trkpt lat="59.8818583" lon="17.7253561">
        <ele>24.1703</ele>
        <time>2014-07-07T18:35:40Z</time>
      </trkpt>
      <trkpt lat="59.8818906" lon="17.7254671">
        <ele>24.1703</ele>
        <time>2014-07-07T18:35:41Z</time>
      </trkpt>
      <trkpt lat="59.8819237" lon="17.7255753">
        <ele>24.1703</ele>
        <time>2014-07-07T18:35:42Z</time>
      </trkpt>
      <trkpt lat="59.8819568" lon="17.725682">
        <ele>24.1703</ele>
        <time>2014-07-07T18:35:43Z</time>
      </trkpt>
      <trkpt lat="59.8819901" lon="17.7257877">
        <ele>24.1703</ele>
        <time>2014-07-07T18:35:44Z</time>
      </trkpt>
      <trkpt lat="59.8820247" lon="17.7258932">
        <ele>24.651</ele>
        <time>2014-07-07T18:35:45Z</time>
      </trkpt>
      <trkpt lat="59.88206" lon="17.726">
        <ele>24.651</ele>
        <time>2014-07-07T18:35:46Z</time>
      </trkpt>
      <trkpt lat="59.8820957" lon="17.7261088">
        <ele>24.651</ele>
        <time>2014-07-07T18:35:47Z</time>
      </trkpt>
      <trkpt lat="59.8821324" lon="17.7262191">
        <ele>24.651</ele>
        <time>2014-07-07T18:35:48Z</time>
      </trkpt>
      <trkpt lat="59.8821703" lon="17.7263299">
        <ele>24.651</ele>
        <time>2014-07-07T18:35:49Z</time>
      </trkpt>
      <trkpt lat="59.8822079" lon="17.7264415">
        <ele>24.651</ele>
        <time>2014-07-07T18:35:50Z</time>
      </trkpt>
      <trkpt lat="59.8822443" lon="17.7265544">
        <ele>25.1317</ele>
        <time>2014-07-07T18:35:51Z</time>
      </trkpt>
      <trkpt lat="59.8822802" lon="17.7266677">
        <ele>25.1317</ele>
        <time>2014-07-07T18:35:52Z</time>
      </trkpt>
      <trkpt lat="59.8823169" lon="17.7267801">
        <ele>25.1317</ele>
        <time>2014-07-07T18:35:53Z</time>
      </trkpt>
      <trkpt lat="59.8823529" lon="17.7268926">
        <ele>25.1317</ele>
        <time>2014-07-07T18:35:54Z</time>
      </trkpt>
      <trkpt lat="59.8823873" lon="17.7270066">
        <ele>25.1317</ele>
        <time>2014-07-07T18:35:55Z</time>
      </trkpt>
      <trkpt lat="59.8824199" lon="17.7271211">
        <ele>25.1317</ele>
        <time>2014-07-07T18:35:56Z</time>
      </trkpt>
      <trkpt lat="59.8824515" lon="17.7272358">
        <ele>25.1317</ele>
        <time>2014-07-07T18:35:57Z</time>
      </trkpt>
      <trkpt lat="59.8824824" lon="17.7273501">
        <ele>25.1317</ele>
        <time>2014-07-07T18:35:58Z</time>
      </trkpt>
      <trkpt lat="59.8825116" lon="17.727466">
        <ele>25.1317</ele>
        <time>2014-07-07T18:35:59Z</time>
      </trkpt>
      <trkpt lat="59.88254" lon="17.727584">
        <ele>25.1317</ele>
        <time>2014-07-07T18:36:00Z</time>
      </trkpt>
      <trkpt lat="59.882568" lon="17.7277041">
        <ele>25.1317</ele>
        <time>2014-07-07T18:36:01Z</time>
      </trkpt>
      <trkpt lat="59.8825964" lon="17.727826">
        <ele>25.1317</ele>
        <time>2014-07-07T18:36:02Z</time>
      </trkpt>
      <trkpt lat="59.8826251" lon="17.727951">
        <ele>25.1317</ele>
        <time>2014-07-07T18:36:03Z</time>
      </trkpt>
      <trkpt lat="59.8826518" lon="17.7280813">
        <ele>25.1317</ele>
        <time>2014-07-07T18:36:04Z</time>
      </trkpt>
      <trkpt lat="59.8826769" lon="17.7282181">
        <ele>25.1317</ele>
        <time>2014-07-07T18:36:05Z</time>
      </trkpt>
      <trkpt lat="59.8827011" lon="17.7283588">
        <ele>25.1317</ele>
        <time>2014-07-07T18:36:06Z</time>
      </trkpt>
      <trkpt lat="59.8827245" lon="17.7285019">
        <ele>25.1317</ele>
        <time>2014-07-07T18:36:07Z</time>
      </trkpt>
      <trkpt lat="59.8827471" lon="17.728647">
        <ele>25.1317</ele>
        <time>2014-07-07T18:36:08Z</time>
      </trkpt>
      <trkpt lat="59.8827704" lon="17.7287905">
        <ele>25.1317</ele>
        <time>2014-07-07T18:36:09Z</time>
      </trkpt>
      <trkpt lat="59.8827953" lon="17.728929">
        <ele>25.1317</ele>
        <time>2014-07-07T18:36:10Z</time>
      </trkpt>
      <trkpt lat="59.8828189" lon="17.7290645">
        <ele>25.1317</ele>
        <time>2014-07-07T18:36:11Z</time>
      </trkpt>
      <trkpt lat="59.882841" lon="17.7291987">
        <ele>25.6123</ele>
        <time>2014-07-07T18:36:12Z</time>
      </trkpt>
      <trkpt lat="59.8828592" lon="17.7293332">
        <ele>25.6123</ele>
        <time>2014-07-07T18:36:13Z</time>
      </trkpt>
      <trkpt lat="59.8828741" lon="17.7294684">
        <ele>26.0929</ele>
        <time>2014-07-07T18:36:14Z</time>
      </trkpt>
      <trkpt lat="59.8828856" lon="17.7296018">
        <ele>26.0929</ele>
        <time>2014-07-07T18:36:15Z</time>
      </trkpt>
      <trkpt lat="59.8828917" lon="17.7297329">
        <ele>26.0929</ele>
        <time>2014-07-07T18:36:16Z</time>
      </trkpt>
      <trkpt lat="59.8828902" lon="17.7298609">
        <ele>26.5736</ele>
        <time>2014-07-07T18:36:17Z</time>
      </trkpt>
      <trkpt lat="59.8828823" lon="17.729983">
        <ele>27.0543</ele>
        <time>2014-07-07T18:36:18Z</time>
      </trkpt>
      <trkpt lat="59.8828689" lon="17.7300913">
        <ele>27.0543</ele>
        <time>2014-07-07T18:36:19Z</time>
      </trkpt>
      <trkpt lat="59.8828362" lon="17.7302009">
        <ele>27.0543</ele>
        <time>2014-07-07T18:36:20Z</time>
      </trkpt>
      <trkpt lat="59.8828007" lon="17.7303057">
        <ele>27.0543</ele>
        <time>2014-07-07T18:36:21Z</time>
      </trkpt>
      <trkpt lat="59.8827566" lon="17.73039">
        <ele>27.0543</ele>
        <time>2014-07-07T18:36:22Z</time>
      </trkpt>
      <trkpt lat="59.8827245" lon="17.7304677">
        <ele>27.0543</ele>
        <time>2014-07-07T18:36:23Z</time>
      </trkpt>
      <trkpt lat="59.8826991" lon="17.7305688">
        <ele>27.0543</ele>
        <time>2014-07-07T18:36:24Z</time>
      </trkpt>
      <trkpt lat="59.8826868" lon="17.7306637">
        <ele>27.0543</ele>
        <time>2014-07-07T18:36:25Z</time>
      </trkpt>
      <trkpt lat="59.882684" lon="17.730762">
        <ele>26.5736</ele>
        <time>2014-07-07T18:36:26Z</time>
      </trkpt>
      <trkpt lat="59.8826914" lon="17.7308632">
        <ele>26.5736</ele>
        <time>2014-07-07T18:36:27Z</time>
      </trkpt>
      <trkpt lat="59.8827063" lon="17.7309663">
        <ele>26.5736</ele>
        <time>2014-07-07T18:36:28Z</time>
      </trkpt>
      <trkpt lat="59.8827262" lon="17.7310727">
        <ele>26.0929</ele>
        <time>2014-07-07T18:36:29Z</time>
      </trkpt>
      <trkpt lat="59.8827494" lon="17.7311828">
        <ele>25.6123</ele>
        <time>2014-07-07T18:36:30Z</time>
      </trkpt>
      <trkpt lat="59.8827773" lon="17.7312972">
        <ele>25.1317</ele>
        <time>2014-07-07T18:36:31Z</time>
      </trkpt>
      <trkpt lat="59.8828096" lon="17.7314154">
        <ele>24.651</ele>
        <time>2014-07-07T18:36:32Z</time>
      </trkpt>
      <trkpt lat="59.8828493" lon="17.7315395">
        <ele>23.6896</ele>
        <time>2014-07-07T18:36:33Z</time>
      </trkpt>
      <trkpt lat="59.8828979" lon="17.7316646">
        <ele>23.209</ele>
        <time>2014-07-07T18:36:34Z</time>
      </trkpt>
      <trkpt lat="59.8829543" lon="17.7317897">
        <ele>22.7283</ele>
        <time>2014-07-07T18:36:35Z</time>
      </trkpt>
      <trkpt lat="59.8830149" lon="17.7319156">
        <ele>22.2476</ele>
        <time>2014-07-07T18:36:36Z</time>
      </trkpt>
      <trkpt lat="59.8830762" lon="17.7320436">
        <ele>21.767</ele>
        <time>2014-07-07T18:36:37Z</time>
      </trkpt>
      <trkpt lat="59.8831356" lon="17.7321742">
        <ele>21.767</ele>
        <time>2014-07-07T18:36:38Z</time>
      </trkpt>
      <trkpt lat="59.8831929" lon="17.7323062">
        <ele>21.767</ele>
        <time>2014-07-07T18:36:39Z</time>
      </trkpt>
      <trkpt lat="59.8832476" lon="17.7324389">
        <ele>21.767</ele>
        <time>2014-07-07T18:36:40Z</time>
      </trkpt>
      <trkpt lat="59.883298" lon="17.732575">
        <ele>21.2864</ele>
        <time>2014-07-07T18:36:41Z</time>
      </trkpt>
      <trkpt lat="59.8833419" lon="17.7327186">
        <ele>21.2864</ele>
        <time>2014-07-07T18:36:42Z</time>
      </trkpt>
      <trkpt lat="59.8833781" lon="17.7328679">
        <ele>21.2864</ele>
        <time>2014-07-07T18:36:43Z</time>
      </trkpt>
      <trkpt lat="59.8834083" lon="17.7330173">
        <ele>21.2864</ele>
        <time>2014-07-07T18:36:44Z</time>
      </trkpt>
      <trkpt lat="59.8834348" lon="17.7331641">
        <ele>21.2864</ele>
        <time>2014-07-07T18:36:45Z</time>
      </trkpt>
      <trkpt lat="59.8834584" lon="17.7333102">
        <ele>21.2864</ele>
        <time>2014-07-07T18:36:46Z</time>
      </trkpt>
      <trkpt lat="59.8834807" lon="17.7334557">
        <ele>21.2864</ele>
        <time>2014-07-07T18:36:47Z</time>
      </trkpt>
      <trkpt lat="59.8835027" lon="17.7336009">
        <ele>21.2864</ele>
        <time>2014-07-07T18:36:48Z</time>
      </trkpt>
      <trkpt lat="59.8835238" lon="17.7337463">
        <ele>21.2864</ele>
        <time>2014-07-07T18:36:49Z</time>
      </trkpt>
      <trkpt lat="59.8835434" lon="17.7338913">
        <ele>21.2864</ele>
        <time>2014-07-07T18:36:50Z</time>
      </trkpt>
      <trkpt lat="59.8835599" lon="17.7340359">
        <ele>21.2864</ele>
        <time>2014-07-07T18:36:51Z</time>
      </trkpt>
      <trkpt lat="59.8835699" lon="17.7341809">
        <ele>21.2864</ele>
        <time>2014-07-07T18:36:52Z</time>
      </trkpt>
      <trkpt lat="59.8835714" lon="17.7343258">
        <ele>21.767</ele>
        <time>2014-07-07T18:36:53Z</time>
      </trkpt>
      <trkpt lat="59.8835626" lon="17.734467">
        <ele>21.767</ele>
        <time>2014-07-07T18:36:54Z</time>
      </trkpt>
      <trkpt lat="59.883544" lon="17.7346017">
        <ele>21.767</ele>
        <time>2014-07-07T18:36:55Z</time>
      </trkpt>
      <trkpt lat="59.8835175" lon="17.7347273">
        <ele>21.767</ele>
        <time>2014-07-07T18:36:56Z</time>
      </trkpt>
      <trkpt lat="59.8834833" lon="17.7348409">
        <ele>21.767</ele>
        <time>2014-07-07T18:36:57Z</time>
      </trkpt>
      <trkpt lat="59.883445" lon="17.7349441">
        <ele>21.767</ele>
        <time>2014-07-07T18:36:58Z</time>
      </trkpt>
      <trkpt lat="59.8834067" lon="17.735043">
        <ele>21.767</ele>
        <time>2014-07-07T18:36:59Z</time>
      </trkpt>
      <trkpt lat="59.8833729" lon="17.735143">
        <ele>21.767</ele>
        <time>2014-07-07T18:37:00Z</time>
      </trkpt>
      <trkpt lat="59.8833459" lon="17.7352458">
        <ele>21.767</ele>
        <time>2014-07-07T18:37:01Z</time>
      </trkpt>
      <trkpt lat="59.8833285" lon="17.7353531">
        <ele>22.2476</ele>
        <time>2014-07-07T18:37:02Z</time>
      </trkpt>
      <trkpt lat="59.8833206" lon="17.7354628">
        <ele>22.2476</ele>
        <time>2014-07-07T18:37:03Z</time>
      </trkpt>
      <trkpt lat="59.8833211" lon="17.7355747">
        <ele>22.2476</ele>
        <time>2014-07-07T18:37:04Z</time>
      </trkpt>
      <trkpt lat="59.8833304" lon="17.7356854">
        <ele>22.2476</ele>
        <time>2014-07-07T18:37:05Z</time>
      </trkpt>
      <trkpt lat="59.883347" lon="17.7357917">
        <ele>22.7283</ele>
        <time>2014-07-07T18:37:06Z</time>
      </trkpt>
      <trkpt lat="59.8833666" lon="17.7358941">
        <ele>22.7283</ele>
        <time>2014-07-07T18:37:07Z</time>
      </trkpt>
      <trkpt lat="59.8833866" lon="17.7359948">
        <ele>22.7283</ele>
        <time>2014-07-07T18:37:08Z</time>
      </trkpt>
      <trkpt lat="59.8834073" lon="17.7360939">
        <ele>23.209</ele>
        <time>2014-07-07T18:37:09Z</time>
      </trkpt>
      <trkpt lat="59.8834278" lon="17.7361901">
        <ele>23.209</ele>
        <time>2014-07-07T18:37:10Z</time>
      </trkpt>
      <trkpt lat="59.8834485" lon="17.7362825">
        <ele>23.209</ele>
        <time>2014-07-07T18:37:11Z</time>
      </trkpt>
      <trkpt lat="59.8834704" lon="17.7363716">
        <ele>23.6896</ele>
        <time>2014-07-07T18:37:12Z</time>
      </trkpt>
      <trkpt lat="59.8834928" lon="17.736459">
        <ele>23.6896</ele>
        <time>2014-07-07T18:37:13Z</time>
      </trkpt>
      <trkpt lat="59.883515" lon="17.7365435">
        <ele>24.1703</ele>
        <time>2014-07-07T18:37:14Z</time>
      </trkpt>
      <trkpt lat="59.8835379" lon="17.7366248">
        <ele>24.1703</ele>
        <time>2014-07-07T18:37:15Z</time>
      </trkpt>
      <trkpt lat="59.8835617" lon="17.7367038">
        <ele>24.1703</ele>
        <time>2014-07-07T18:37:16Z</time>
      </trkpt>
      <trkpt lat="59.8835865" lon="17.7367829">
        <ele>24.651</ele>
        <time>2014-07-07T18:37:17Z</time>
      </trkpt>
      <trkpt lat="59.883613" lon="17.7368622">
        <ele>24.651</ele>
        <time>2014-07-07T18:37:18Z</time>
      </trkpt>
      <trkpt lat="59.8836404" lon="17.7369425">
        <ele>24.651</ele>
        <time>2014-07-07T18:37:19Z</time>
      </trkpt>
      <trkpt lat="59.8836682" lon="17.7370254">
        <ele>24.651</ele>
        <time>2014-07-07T18:37:20Z</time>
      </trkpt>
      <trkpt lat="59.8836968" lon="17.7371118">
        <ele>24.651</ele>
        <time>2014-07-07T18:37:21Z</time>
      </trkpt>
      <trkpt lat="59.8837262" lon="17.7372041">
        <ele>24.651</ele>
        <time>2014-07-07T18:37:22Z</time>
      </trkpt>
      <trkpt lat="59.8837553" lon="17.7373033">
        <ele>24.651</ele>
        <time>2014-07-07T18:37:23Z</time>
      </trkpt>
      <trkpt lat="59.8837823" lon="17.7374087">
        <ele>24.651</ele>
        <time>2014-07-07T18:37:24Z</time>
      </trkpt>
      <trkpt lat="59.8838057" lon="17.7375193">
        <ele>24.651</ele>
        <time>2014-07-07T18:37:25Z</time>
      </trkpt>
      <trkpt lat="59.8838254" lon="17.737633">
        <ele>24.651</ele>
        <time>2014-07-07T18:37:26Z</time>
      </trkpt>
      <trkpt lat="59.8838424" lon="17.73775">
        <ele>24.651</ele>
        <time>2014-07-07T18:37:27Z</time>
      </trkpt>
      <trkpt lat="59.8838565" lon="17.7378698">
        <ele>24.651</ele>
        <time>2014-07-07T18:37:28Z</time>
      </trkpt>
      <trkpt lat="59.8838688" lon="17.7379914">
        <ele>24.651</ele>
        <time>2014-07-07T18:37:29Z</time>
      </trkpt>
      <trkpt lat="59.8838802" lon="17.7381132">
        <ele>24.651</ele>
        <time>2014-07-07T18:37:30Z</time>
      </trkpt>
      <trkpt lat="59.8838916" lon="17.7382355">
        <ele>24.651</ele>
        <time>2014-07-07T18:37:31Z</time>
      </trkpt>
      <trkpt lat="59.8839035" lon="17.7383577">
        <ele>24.651</ele>
        <time>2014-07-07T18:37:32Z</time>
      </trkpt>
      <trkpt lat="59.8839159" lon="17.7384799">
        <ele>24.651</ele>
        <time>2014-07-07T18:37:33Z</time>
      </trkpt>
      <trkpt lat="59.8839275" lon="17.7386023">
        <ele>24.651</ele>
        <time>2014-07-07T18:37:34Z</time>
      </trkpt>
      <trkpt lat="59.8839383" lon="17.7387248">
        <ele>24.651</ele>
        <time>2014-07-07T18:37:35Z</time>
      </trkpt>
      <trkpt lat="59.8839494" lon="17.7388472">
        <ele>24.651</ele>
        <time>2014-07-07T18:37:36Z</time>
      </trkpt>
      <trkpt lat="59.8839606" lon="17.7389694">
        <ele>24.651</ele>
        <time>2014-07-07T18:37:37Z</time>
      </trkpt>
      <trkpt lat="59.883972" lon="17.7390926">
        <ele>24.651</ele>
        <time>2014-07-07T18:37:38Z</time>
      </trkpt>
      <trkpt lat="59.8839838" lon="17.739216">
        <ele>25.1317</ele>
        <time>2014-07-07T18:37:39Z</time>
      </trkpt>
      <trkpt lat="59.8839962" lon="17.7393384">
        <ele>25.1317</ele>
        <time>2014-07-07T18:37:40Z</time>
      </trkpt>
      <trkpt lat="59.8840096" lon="17.7394557">
        <ele>25.1317</ele>
        <time>2014-07-07T18:37:41Z</time>
      </trkpt>
      <trkpt lat="59.8840261" lon="17.7395657">
        <ele>25.6123</ele>
        <time>2014-07-07T18:37:42Z</time>
      </trkpt>
      <trkpt lat="59.8840455" lon="17.7396703">
        <ele>25.6123</ele>
        <time>2014-07-07T18:37:43Z</time>
      </trkpt>
      <trkpt lat="59.8840718" lon="17.739763">
        <ele>25.6123</ele>
        <time>2014-07-07T18:37:44Z</time>
      </trkpt>
      <trkpt lat="59.8841096" lon="17.739833">
        <ele>25.6123</ele>
        <time>2014-07-07T18:37:45Z</time>
      </trkpt>
      <trkpt lat="59.8841568" lon="17.7398728">
        <ele>25.6123</ele>
        <time>2014-07-07T18:37:46Z</time>
      </trkpt>
      <trkpt lat="59.8842103" lon="17.7398809">
        <ele>25.6123</ele>
        <time>2014-07-07T18:37:47Z</time>
      </trkpt>
      <trkpt lat="59.8842646" lon="17.7398643">
        <ele>25.1317</ele>
        <time>2014-07-07T18:37:48Z</time>
      </trkpt>
      <trkpt lat="59.8843205" lon="17.7398331">
        <ele>25.1317</ele>
        <time>2014-07-07T18:37:49Z</time>
      </trkpt>
      <trkpt lat="59.8843769" lon="17.7397962">
        <ele>25.1317</ele>
        <time>2014-07-07T18:37:50Z</time>
      </trkpt>
      <trkpt lat="59.8844341" lon="17.7397614">
        <ele>24.651</ele>
        <time>2014-07-07T18:37:51Z</time>
      </trkpt>
      <trkpt lat="59.884492" lon="17.7397288">
        <ele>24.651</ele>
        <time>2014-07-07T18:37:52Z</time>
      </trkpt>
      <trkpt lat="59.8845504" lon="17.7396946">
        <ele>24.651</ele>
        <time>2014-07-07T18:37:53Z</time>
      </trkpt>
      <trkpt lat="59.8846085" lon="17.7396578">
        <ele>24.1703</ele>
        <time>2014-07-07T18:37:54Z</time>
      </trkpt>
      <trkpt lat="59.8846676" lon="17.7396174">
        <ele>24.1703</ele>
        <time>2014-07-07T18:37:55Z</time>
      </trkpt>
      <trkpt lat="59.8847286" lon="17.7395776">
        <ele>23.6896</ele>
        <time>2014-07-07T18:37:56Z</time>
      </trkpt>
      <trkpt lat="59.8847918" lon="17.7395388">
        <ele>23.6896</ele>
        <time>2014-07-07T18:37:57Z</time>
      </trkpt>
      <trkpt lat="59.8848567" lon="17.7394978">
        <ele>23.209</ele>
        <time>2014-07-07T18:37:58Z</time>
      </trkpt>
      <trkpt lat="59.8849246" lon="17.7394568">
        <ele>22.7283</ele>
        <time>2014-07-07T18:37:59Z</time>
      </trkpt>
      <trkpt lat="59.8849971" lon="17.7394289">
        <ele>22.7283</ele>
        <time>2014-07-07T18:38:00Z</time>
      </trkpt>
      <trkpt lat="59.8850737" lon="17.7394263">
        <ele>22.2476</ele>
        <time>2014-07-07T18:38:01Z</time>
      </trkpt>
      <trkpt lat="59.8851512" lon="17.7394636">
        <ele>21.767</ele>
        <time>2014-07-07T18:38:02Z</time>
      </trkpt>
      <trkpt lat="59.8852203" lon="17.7395639">
        <ele>21.2864</ele>
        <time>2014-07-07T18:38:03Z</time>
      </trkpt>
      <trkpt lat="59.8852668" lon="17.739701">
        <ele>21.2864</ele>
        <time>2014-07-07T18:38:04Z</time>
      </trkpt>
      <trkpt lat="59.8852974" lon="17.7398489">
        <ele>21.2864</ele>
        <time>2014-07-07T18:38:05Z</time>
      </trkpt>
      <trkpt lat="59.8853219" lon="17.739995">
        <ele>21.2864</ele>
        <time>2014-07-07T18:38:06Z</time>
      </trkpt>
      <trkpt lat="59.8853447" lon="17.7401387">
        <ele>21.2864</ele>
        <time>2014-07-07T18:38:07Z</time>
      </trkpt>
      <trkpt lat="59.8853684" lon="17.7402808">
        <ele>21.2864</ele>
        <time>2014-07-07T18:38:08Z</time>
      </trkpt>
      <trkpt lat="59.8853923" lon="17.7404188">
        <ele>21.2864</ele>
        <time>2014-07-07T18:38:09Z</time>
      </trkpt>
      <trkpt lat="59.8854187" lon="17.7405515">
        <ele>21.2864</ele>
        <time>2014-07-07T18:38:10Z</time>
      </trkpt>
      <trkpt lat="59.8854454" lon="17.7406825">
        <ele>20.8057</ele>
        <time>2014-07-07T18:38:11Z</time>
      </trkpt>
      <trkpt lat="59.885476" lon="17.7408089">
        <ele>20.8057</ele>
        <time>2014-07-07T18:38:12Z</time>
      </trkpt>
      <trkpt lat="59.885513" lon="17.7409266">
        <ele>20.8057</ele>
        <time>2014-07-07T18:38:13Z</time>
      </trkpt>
      <trkpt lat="59.885557" lon="17.7410347">
        <ele>20.325</ele>
        <time>2014-07-07T18:38:14Z</time>
      </trkpt>
      <trkpt lat="59.8856086" lon="17.7411288">
        <ele>20.325</ele>
        <time>2014-07-07T18:38:15Z</time>
      </trkpt>
      <trkpt lat="59.8856673" lon="17.7412088">
        <ele>20.325</ele>
        <time>2014-07-07T18:38:16Z</time>
      </trkpt>
      <trkpt lat="59.8857316" lon="17.7412795">
        <ele>19.8444</ele>
        <time>2014-07-07T18:38:17Z</time>
      </trkpt>
      <trkpt lat="59.8857994" lon="17.7413461">
        <ele>19.8444</ele>
        <time>2014-07-07T18:38:18Z</time>
      </trkpt>
      <trkpt lat="59.8858697" lon="17.7414112">
        <ele>19.3638</ele>
        <time>2014-07-07T18:38:19Z</time>
      </trkpt>
      <trkpt lat="59.8859427" lon="17.7414787">
        <ele>18.8831</ele>
        <time>2014-07-07T18:38:20Z</time>
      </trkpt>
      <trkpt lat="59.8860183" lon="17.7415523">
        <ele>18.4023</ele>
        <time>2014-07-07T18:38:21Z</time>
      </trkpt>
      <trkpt lat="59.8860963" lon="17.7416328">
        <ele>18.4023</ele>
        <time>2014-07-07T18:38:22Z</time>
      </trkpt>
      <trkpt lat="59.8861749" lon="17.741718">
        <ele>17.9218</ele>
        <time>2014-07-07T18:38:23Z</time>
      </trkpt>
      <trkpt lat="59.8862532" lon="17.7418071">
        <ele>17.9218</ele>
        <time>2014-07-07T18:38:24Z</time>
      </trkpt>
      <trkpt lat="59.8863314" lon="17.7418983">
        <ele>17.9218</ele>
        <time>2014-07-07T18:38:25Z</time>
      </trkpt>
      <trkpt lat="59.8864091" lon="17.7419903">
        <ele>17.4412</ele>
        <time>2014-07-07T18:38:26Z</time>
      </trkpt>
      <trkpt lat="59.8864862" lon="17.7420823">
        <ele>17.4412</ele>
        <time>2014-07-07T18:38:27Z</time>
      </trkpt>
      <trkpt lat="59.8865619" lon="17.7421754">
        <ele>17.4412</ele>
        <time>2014-07-07T18:38:28Z</time>
      </trkpt>
      <trkpt lat="59.8866366" lon="17.7422691">
        <ele>17.9218</ele>
        <time>2014-07-07T18:38:29Z</time>
      </trkpt>
      <trkpt lat="59.8867104" lon="17.742363">
        <ele>17.9218</ele>
        <time>2014-07-07T18:38:30Z</time>
      </trkpt>
      <trkpt lat="59.8867825" lon="17.7424581">
        <ele>17.9218</ele>
        <time>2014-07-07T18:38:31Z</time>
      </trkpt>
      <trkpt lat="59.8868516" lon="17.7425555">
        <ele>18.4023</ele>
        <time>2014-07-07T18:38:32Z</time>
      </trkpt>
      <trkpt lat="59.8869192" lon="17.7426561">
        <ele>18.4023</ele>
        <time>2014-07-07T18:38:33Z</time>
      </trkpt>
      <trkpt lat="59.8869868" lon="17.7427609">
        <ele>17.9218</ele>
        <time>2014-07-07T18:38:34Z</time>
      </trkpt>
      <trkpt lat="59.8870545" lon="17.742869">
        <ele>18.4023</ele>
        <time>2014-07-07T18:38:35Z</time>
      </trkpt>
      <trkpt lat="59.8871217" lon="17.7429777">
        <ele>18.4023</ele>
        <time>2014-07-07T18:38:36Z</time>
      </trkpt>
      <trkpt lat="59.8871891" lon="17.7430858">
        <ele>18.4023</ele>
        <time>2014-07-07T18:38:37Z</time>
      </trkpt>
      <trkpt lat="59.8872564" lon="17.7431932">
        <ele>18.4023</ele>
        <time>2014-07-07T18:38:38Z</time>
      </trkpt>
      <trkpt lat="59.8873227" lon="17.7433016">
        <ele>18.4023</ele>
        <time>2014-07-07T18:38:39Z</time>
      </trkpt>
      <trkpt lat="59.8873875" lon="17.7434117">
        <ele>18.4023</ele>
        <time>2014-07-07T18:38:40Z</time>
      </trkpt>
      <trkpt lat="59.8874512" lon="17.7435212">
        <ele>18.8831</ele>
        <time>2014-07-07T18:38:41Z</time>
      </trkpt>
      <trkpt lat="59.8875131" lon="17.7436254">
        <ele>18.8831</ele>
        <time>2014-07-07T18:38:42Z</time>
      </trkpt>
      <trkpt lat="59.8875736" lon="17.7437232">
        <ele>18.8831</ele>
        <time>2014-07-07T18:38:43Z</time>
      </trkpt>
      <trkpt lat="59.8876316" lon="17.7438186">
        <ele>18.8831</ele>
        <time>2014-07-07T18:38:44Z</time>
      </trkpt>
      <trkpt lat="59.887686" lon="17.7439137">
        <ele>19.3638</ele>
        <time>2014-07-07T18:38:45Z</time>
      </trkpt>
      <trkpt lat="59.8877395" lon="17.744006">
        <ele>19.3638</ele>
        <time>2014-07-07T18:38:46Z</time>
      </trkpt>
      <trkpt lat="59.8877928" lon="17.744095">
        <ele>19.8444</ele>
        <time>2014-07-07T18:38:47Z</time>
      </trkpt>
      <trkpt lat="59.8878451" lon="17.7441822">
        <ele>19.8444</ele>
        <time>2014-07-07T18:38:48Z</time>
      </trkpt>
      <trkpt lat="59.8878984" lon="17.7442682">
        <ele>19.8444</ele>
        <time>2014-07-07T18:38:49Z</time>
      </trkpt>
      <trkpt lat="59.8879513" lon="17.7443562">
        <ele>19.8444</ele>
        <time>2014-07-07T18:38:50Z</time>
      </trkpt>
      <trkpt lat="59.8880029" lon="17.7444459">
        <ele>20.325</ele>
        <time>2014-07-07T18:38:51Z</time>
      </trkpt>
      <trkpt lat="59.8880544" lon="17.7445354">
        <ele>20.325</ele>
        <time>2014-07-07T18:38:52Z</time>
      </trkpt>
      <trkpt lat="59.8881065" lon="17.7446241">
        <ele>20.325</ele>
        <time>2014-07-07T18:38:53Z</time>
      </trkpt>
      <trkpt lat="59.888158" lon="17.7447125">
        <ele>20.325</ele>
        <time>2014-07-07T18:38:54Z</time>
      </trkpt>
      <trkpt lat="59.8882093" lon="17.7447999">
        <ele>20.8057</ele>
        <time>2014-07-07T18:38:55Z</time>
      </trkpt>
      <trkpt lat="59.8882605" lon="17.7448862">
        <ele>20.8057</ele>
        <time>2014-07-07T18:38:56Z</time>
      </trkpt>
      <trkpt lat="59.8883116" lon="17.7449717">
        <ele>20.8057</ele>
        <time>2014-07-07T18:38:57Z</time>
      </trkpt>
      <trkpt lat="59.888362" lon="17.7450576">
        <ele>21.2864</ele>
        <time>2014-07-07T18:38:58Z</time>
      </trkpt>
      <trkpt lat="59.8884121" lon="17.7451431">
        <ele>21.2864</ele>
        <time>2014-07-07T18:38:59Z</time>
      </trkpt>
      <trkpt lat="59.8884621" lon="17.7452279">
        <ele>21.2864</ele>
        <time>2014-07-07T18:39:00Z</time>
      </trkpt>
      <trkpt lat="59.8885121" lon="17.7453119">
        <ele>21.2864</ele>
        <time>2014-07-07T18:39:01Z</time>
      </trkpt>
      <trkpt lat="59.8885615" lon="17.7453963">
        <ele>21.2864</ele>
        <time>2014-07-07T18:39:02Z</time>
      </trkpt>
      <trkpt lat="59.8886106" lon="17.7454803">
        <ele>21.767</ele>
        <time>2014-07-07T18:39:03Z</time>
      </trkpt>
      <trkpt lat="59.8886593" lon="17.7455638">
        <ele>21.767</ele>
        <time>2014-07-07T18:39:04Z</time>
      </trkpt>
      <trkpt lat="59.8887082" lon="17.7456466">
        <ele>21.767</ele>
        <time>2014-07-07T18:39:05Z</time>
      </trkpt>
      <trkpt lat="59.8887573" lon="17.7457294">
        <ele>21.767</ele>
        <time>2014-07-07T18:39:06Z</time>
      </trkpt>
      <trkpt lat="59.8888058" lon="17.7458134">
        <ele>21.767</ele>
        <time>2014-07-07T18:39:07Z</time>
      </trkpt>
      <trkpt lat="59.8888545" lon="17.7458969">
        <ele>22.2476</ele>
        <time>2014-07-07T18:39:08Z</time>
      </trkpt>
      <trkpt lat="59.8889031" lon="17.7459805">
        <ele>22.2476</ele>
        <time>2014-07-07T18:39:09Z</time>
      </trkpt>
      <trkpt lat="59.8889518" lon="17.7460644">
        <ele>22.2476</ele>
        <time>2014-07-07T18:39:10Z</time>
      </trkpt>
      <trkpt lat="59.8890008" lon="17.7461475">
        <ele>22.2476</ele>
        <time>2014-07-07T18:39:11Z</time>
      </trkpt>
      <trkpt lat="59.8890499" lon="17.7462302">
        <ele>22.7283</ele>
        <time>2014-07-07T18:39:12Z</time>
      </trkpt>
      <trkpt lat="59.8890989" lon="17.7463129">
        <ele>22.7283</ele>
        <time>2014-07-07T18:39:13Z</time>
      </trkpt>
      <trkpt lat="59.8891473" lon="17.7463966">
        <ele>22.7283</ele>
        <time>2014-07-07T18:39:14Z</time>
      </trkpt>
      <trkpt lat="59.8891951" lon="17.7464811">
        <ele>22.7283</ele>
        <time>2014-07-07T18:39:15Z</time>
      </trkpt>
      <trkpt lat="59.8892435" lon="17.7465648">
        <ele>22.7283</ele>
        <time>2014-07-07T18:39:16Z</time>
      </trkpt>
      <trkpt lat="59.8892928" lon="17.746647">
        <ele>23.209</ele>
        <time>2014-07-07T18:39:17Z</time>
      </trkpt>
      <trkpt lat="59.8893422" lon="17.74673">
        <ele>23.209</ele>
        <time>2014-07-07T18:39:18Z</time>
      </trkpt>
      <trkpt lat="59.8893912" lon="17.7468142">
        <ele>23.209</ele>
        <time>2014-07-07T18:39:19Z</time>
      </trkpt>
      <trkpt lat="59.8894395" lon="17.7468985">
        <ele>23.209</ele>
        <time>2014-07-07T18:39:20Z</time>
      </trkpt>
      <trkpt lat="59.889488" lon="17.7469819">
        <ele>23.6896</ele>
        <time>2014-07-07T18:39:21Z</time>
      </trkpt>
      <trkpt lat="59.8895363" lon="17.7470649">
        <ele>23.6896</ele>
        <time>2014-07-07T18:39:22Z</time>
      </trkpt>
      <trkpt lat="59.8895844" lon="17.7471478">
        <ele>23.6896</ele>
        <time>2014-07-07T18:39:23Z</time>
      </trkpt>
      <trkpt lat="59.8896317" lon="17.7472301">
        <ele>23.6896</ele>
        <time>2014-07-07T18:39:24Z</time>
      </trkpt>
      <trkpt lat="59.8896792" lon="17.7473109">
        <ele>24.1703</ele>
        <time>2014-07-07T18:39:25Z</time>
      </trkpt>
      <trkpt lat="59.8897268" lon="17.7473908">
        <ele>24.1703</ele>
        <time>2014-07-07T18:39:26Z</time>
      </trkpt>
      <trkpt lat="59.8897739" lon="17.7474713">
        <ele>24.1703</ele>
        <time>2014-07-07T18:39:27Z</time>
      </trkpt>
      <trkpt lat="59.8898202" lon="17.7475508">
        <ele>24.1703</ele>
        <time>2014-07-07T18:39:28Z</time>
      </trkpt>
      <trkpt lat="59.8898657" lon="17.7476295">
        <ele>24.651</ele>
        <time>2014-07-07T18:39:29Z</time>
      </trkpt>
      <trkpt lat="59.88991" lon="17.7477072">
        <ele>24.651</ele>
        <time>2014-07-07T18:39:30Z</time>
      </trkpt>
      <trkpt lat="59.8899539" lon="17.7477826">
        <ele>25.1317</ele>
        <time>2014-07-07T18:39:31Z</time>
      </trkpt>
      <trkpt lat="59.8899972" lon="17.7478554">
        <ele>25.1317</ele>
        <time>2014-07-07T18:39:32Z</time>
      </trkpt>
      <trkpt lat="59.8900399" lon="17.7479277">
        <ele>25.6123</ele>
        <time>2014-07-07T18:39:33Z</time>
      </trkpt>
      <trkpt lat="59.8900821" lon="17.7479994">
        <ele>25.6123</ele>
        <time>2014-07-07T18:39:34Z</time>
      </trkpt>
      <trkpt lat="59.8901236" lon="17.7480703">
        <ele>26.0929</ele>
        <time>2014-07-07T18:39:35Z</time>
      </trkpt>
      <trkpt lat="59.8901647" lon="17.7481397">
        <ele>26.0929</ele>
        <time>2014-07-07T18:39:36Z</time>
      </trkpt>
      <trkpt lat="59.8902061" lon="17.7482066">
        <ele>26.5736</ele>
        <time>2014-07-07T18:39:37Z</time>
      </trkpt>
      <trkpt lat="59.8902481" lon="17.7482703">
        <ele>26.5736</ele>
        <time>2014-07-07T18:39:38Z</time>
      </trkpt>
      <trkpt lat="59.8902901" lon="17.748333">
        <ele>27.0543</ele>
        <time>2014-07-07T18:39:39Z</time>
      </trkpt>
      <trkpt lat="59.890331" lon="17.7483962">
        <ele>27.0543</ele>
        <time>2014-07-07T18:39:40Z</time>
      </trkpt>
      <trkpt lat="59.8903712" lon="17.7484568">
        <ele>27.0543</ele>
        <time>2014-07-07T18:39:41Z</time>
      </trkpt>
      <trkpt lat="59.8904133" lon="17.7485104">
        <ele>27.5349</ele>
        <time>2014-07-07T18:39:42Z</time>
      </trkpt>
      <trkpt lat="59.8904582" lon="17.7485529">
        <ele>27.5349</ele>
        <time>2014-07-07T18:39:43Z</time>
      </trkpt>
      <trkpt lat="59.8905066" lon="17.7485769">
        <ele>27.5349</ele>
        <time>2014-07-07T18:39:44Z</time>
      </trkpt>
      <trkpt lat="59.8905579" lon="17.7485739">
        <ele>27.0543</ele>
        <time>2014-07-07T18:39:45Z</time>
      </trkpt>
      <trkpt lat="59.8906108" lon="17.7485459">
        <ele>27.0543</ele>
        <time>2014-07-07T18:39:46Z</time>
      </trkpt>
      <trkpt lat="59.8906634" lon="17.7484998">
        <ele>26.5736</ele>
        <time>2014-07-07T18:39:47Z</time>
      </trkpt>
      <trkpt lat="59.8907167" lon="17.7484407">
        <ele>26.5736</ele>
        <time>2014-07-07T18:39:48Z</time>
      </trkpt>
      <trkpt lat="59.8907691" lon="17.7483725">
        <ele>26.0929</ele>
        <time>2014-07-07T18:39:49Z</time>
      </trkpt>
      <trkpt lat="59.8908221" lon="17.7482988">
        <ele>26.0929</ele>
        <time>2014-07-07T18:39:50Z</time>
      </trkpt>
      <trkpt lat="59.8908755" lon="17.748224">
        <ele>25.6123</ele>
        <time>2014-07-07T18:39:51Z</time>
      </trkpt>
      <trkpt lat="59.8909298" lon="17.7481517">
        <ele>25.6123</ele>
        <time>2014-07-07T18:39:52Z</time>
      </trkpt>
      <trkpt lat="59.8909848" lon="17.7480795">
        <ele>25.6123</ele>
        <time>2014-07-07T18:39:53Z</time>
      </trkpt>
      <trkpt lat="59.8910412" lon="17.748007">
        <ele>25.6123</ele>
        <time>2014-07-07T18:39:54Z</time>
      </trkpt>
      <trkpt lat="59.8910987" lon="17.747936">
        <ele>25.6123</ele>
        <time>2014-07-07T18:39:55Z</time>
      </trkpt>
      <trkpt lat="59.891157" lon="17.7478637">
        <ele>25.6123</ele>
        <time>2014-07-07T18:39:56Z</time>
      </trkpt>
      <trkpt lat="59.8912155" lon="17.747789">
        <ele>25.6123</ele>
        <time>2014-07-07T18:39:57Z</time>
      </trkpt>
      <trkpt lat="59.8912741" lon="17.7477124">
        <ele>25.6123</ele>
        <time>2014-07-07T18:39:58Z</time>
      </trkpt>
      <trkpt lat="59.8913322" lon="17.7476335">
        <ele>25.6123</ele>
        <time>2014-07-07T18:39:59Z</time>
      </trkpt>
      <trkpt lat="59.8913898" lon="17.7475533">
        <ele>25.6123</ele>
        <time>2014-07-07T18:40:00Z</time>
      </trkpt>
      <trkpt lat="59.8914472" lon="17.7474737">
        <ele>26.0929</ele>
        <time>2014-07-07T18:40:01Z</time>
      </trkpt>
      <trkpt lat="59.8915038" lon="17.7473934">
        <ele>26.0929</ele>
        <time>2014-07-07T18:40:02Z</time>
      </trkpt>
      <trkpt lat="59.8915597" lon="17.7473115">
        <ele>26.0929</ele>
        <time>2014-07-07T18:40:03Z</time>
      </trkpt>
      <trkpt lat="59.8916155" lon="17.7472269">
        <ele>26.0929</ele>
        <time>2014-07-07T18:40:04Z</time>
      </trkpt>
      <trkpt lat="59.8916721" lon="17.747141">
        <ele>26.0929</ele>
        <time>2014-07-07T18:40:05Z</time>
      </trkpt>
      <trkpt lat="59.89173" lon="17.747055">
        <ele>26.0929</ele>
        <time>2014-07-07T18:40:06Z</time>
      </trkpt>
      <trkpt lat="59.891789" lon="17.7469679">
        <ele>26.0929</ele>
        <time>2014-07-07T18:40:07Z</time>
      </trkpt>
      <trkpt lat="59.8918486" lon="17.7468788">
        <ele>26.0929</ele>
        <time>2014-07-07T18:40:08Z</time>
      </trkpt>
      <trkpt lat="59.8919083" lon="17.7467889">
        <ele>26.0929</ele>
        <time>2014-07-07T18:40:09Z</time>
      </trkpt>
      <trkpt lat="59.8919684" lon="17.7467002">
        <ele>26.0929</ele>
        <time>2014-07-07T18:40:10Z</time>
      </trkpt>
      <trkpt lat="59.892029" lon="17.7466122">
        <ele>26.0929</ele>
        <time>2014-07-07T18:40:11Z</time>
      </trkpt>
      <trkpt lat="59.8920884" lon="17.7465204">
        <ele>26.0929</ele>
        <time>2014-07-07T18:40:12Z</time>
      </trkpt>
      <trkpt lat="59.8921451" lon="17.746422">
        <ele>26.5736</ele>
        <time>2014-07-07T18:40:13Z</time>
      </trkpt>
      <trkpt lat="59.8921975" lon="17.746316">
        <ele>26.5736</ele>
        <time>2014-07-07T18:40:14Z</time>
      </trkpt>
      <trkpt lat="59.8922446" lon="17.7462023">
        <ele>26.5736</ele>
        <time>2014-07-07T18:40:15Z</time>
      </trkpt>
      <trkpt lat="59.8922896" lon="17.7460857">
        <ele>27.0543</ele>
        <time>2014-07-07T18:40:16Z</time>
      </trkpt>
      <trkpt lat="59.8923329" lon="17.7459688">
        <ele>27.0543</ele>
        <time>2014-07-07T18:40:17Z</time>
      </trkpt>
      <trkpt lat="59.892374" lon="17.7458496">
        <ele>27.0543</ele>
        <time>2014-07-07T18:40:18Z</time>
      </trkpt>
      <trkpt lat="59.8924144" lon="17.745728">
        <ele>27.0543</ele>
        <time>2014-07-07T18:40:19Z</time>
      </trkpt>
      <trkpt lat="59.8924546" lon="17.7456054">
        <ele>27.5349</ele>
        <time>2014-07-07T18:40:20Z</time>
      </trkpt>
      <trkpt lat="59.8924942" lon="17.7454824">
        <ele>27.5349</ele>
        <time>2014-07-07T18:40:21Z</time>
      </trkpt>
      <trkpt lat="59.8925331" lon="17.7453592">
        <ele>28.0155</ele>
        <time>2014-07-07T18:40:22Z</time>
      </trkpt>
      <trkpt lat="59.8925719" lon="17.7452363">
        <ele>28.0155</ele>
        <time>2014-07-07T18:40:23Z</time>
      </trkpt>
      <trkpt lat="59.8926102" lon="17.7451134">
        <ele>28.4962</ele>
        <time>2014-07-07T18:40:24Z</time>
      </trkpt>
      <trkpt lat="59.8926476" lon="17.7449908">
        <ele>28.4962</ele>
        <time>2014-07-07T18:40:25Z</time>
      </trkpt>
      <trkpt lat="59.8926848" lon="17.7448711">
        <ele>28.9769</ele>
        <time>2014-07-07T18:40:26Z</time>
      </trkpt>
      <trkpt lat="59.8927219" lon="17.7447546">
        <ele>29.4575</ele>
        <time>2014-07-07T18:40:27Z</time>
      </trkpt>
      <trkpt lat="59.8927577" lon="17.7446423">
        <ele>29.4575</ele>
        <time>2014-07-07T18:40:28Z</time>
      </trkpt>
      <trkpt lat="59.8927915" lon="17.7445339">
        <ele>29.9381</ele>
        <time>2014-07-07T18:40:29Z</time>
      </trkpt>
      <trkpt lat="59.8928236" lon="17.7444299">
        <ele>30.4188</ele>
        <time>2014-07-07T18:40:30Z</time>
      </trkpt>
      <trkpt lat="59.8928554" lon="17.7443315">
        <ele>30.8995</ele>
        <time>2014-07-07T18:40:31Z</time>
      </trkpt>
      <trkpt lat="59.8928854" lon="17.7442365">
        <ele>31.3801</ele>
        <time>2014-07-07T18:40:32Z</time>
      </trkpt>
      <trkpt lat="59.8929149" lon="17.7441458">
        <ele>31.8607</ele>
        <time>2014-07-07T18:40:33Z</time>
      </trkpt>
      <trkpt lat="59.8929444" lon="17.7440599">
        <ele>32.3416</ele>
        <time>2014-07-07T18:40:34Z</time>
      </trkpt>
      <trkpt lat="59.8929713" lon="17.743974">
        <ele>32.3416</ele>
        <time>2014-07-07T18:40:35Z</time>
      </trkpt>
      <trkpt lat="59.892998" lon="17.743888">
        <ele>32.8223</ele>
        <time>2014-07-07T18:40:36Z</time>
      </trkpt>
      <trkpt lat="59.8930225" lon="17.7438051">
        <ele>33.3029</ele>
        <time>2014-07-07T18:40:37Z</time>
      </trkpt>
      <trkpt lat="59.8930479" lon="17.743722">
        <ele>33.7834</ele>
        <time>2014-07-07T18:40:38Z</time>
      </trkpt>
      <trkpt lat="59.8930718" lon="17.7436401">
        <ele>33.7834</ele>
        <time>2014-07-07T18:40:39Z</time>
      </trkpt>
      <trkpt lat="59.8930959" lon="17.7435576">
        <ele>33.7834</ele>
        <time>2014-07-07T18:40:40Z</time>
      </trkpt>
      <trkpt lat="59.8931205" lon="17.7434757">
        <ele>33.3029</ele>
        <time>2014-07-07T18:40:41Z</time>
      </trkpt>
      <trkpt lat="59.8931482" lon="17.7433894">
        <ele>33.7834</ele>
        <time>2014-07-07T18:40:42Z</time>
      </trkpt>
      <trkpt lat="59.8931772" lon="17.7432993">
        <ele>33.7834</ele>
        <time>2014-07-07T18:40:43Z</time>
      </trkpt>
      <trkpt lat="59.8932084" lon="17.7432036">
        <ele>33.7834</ele>
        <time>2014-07-07T18:40:44Z</time>
      </trkpt>
      <trkpt lat="59.8932365" lon="17.7431098">
        <ele>33.7834</ele>
        <time>2014-07-07T18:40:45Z</time>
      </trkpt>
      <trkpt lat="59.8932671" lon="17.7430196">
        <ele>33.3029</ele>
        <time>2014-07-07T18:40:46Z</time>
      </trkpt>
      <trkpt lat="59.8933019" lon="17.7429238">
        <ele>33.3029</ele>
        <time>2014-07-07T18:40:47Z</time>
      </trkpt>
      <trkpt lat="59.8933339" lon="17.7428201">
        <ele>33.3029</ele>
        <time>2014-07-07T18:40:48Z</time>
      </trkpt>
      <trkpt lat="59.8933668" lon="17.7427114">
        <ele>32.8223</ele>
        <time>2014-07-07T18:40:49Z</time>
      </trkpt>
      <trkpt lat="59.8934005" lon="17.7425976">
        <ele>32.3416</ele>
        <time>2014-07-07T18:40:50Z</time>
      </trkpt>
      <trkpt lat="59.8934365" lon="17.7424795">
        <ele>31.8607</ele>
        <time>2014-07-07T18:40:51Z</time>
      </trkpt>
      <trkpt lat="59.8934754" lon="17.7423575">
        <ele>31.3801</ele>
        <time>2014-07-07T18:40:52Z</time>
      </trkpt>
      <trkpt lat="59.8935166" lon="17.7422314">
        <ele>30.8995</ele>
        <time>2014-07-07T18:40:53Z</time>
      </trkpt>
      <trkpt lat="59.8935591" lon="17.7421037">
        <ele>30.8995</ele>
        <time>2014-07-07T18:40:54Z</time>
      </trkpt>
      <trkpt lat="59.893607" lon="17.7419504">
        <ele>30.4188</ele>
        <time>2014-07-07T18:40:55Z</time>
      </trkpt>
      <trkpt lat="59.8936492" lon="17.7418147">
        <ele>30.4188</ele>
        <time>2014-07-07T18:40:56Z</time>
      </trkpt>
      <trkpt lat="59.8936904" lon="17.7416838">
        <ele>29.9381</ele>
        <time>2014-07-07T18:40:57Z</time>
      </trkpt>
      <trkpt lat="59.8937305" lon="17.7415564">
        <ele>29.9381</ele>
        <time>2014-07-07T18:40:58Z</time>
      </trkpt>
      <trkpt lat="59.8937686" lon="17.7414309">
        <ele>29.9381</ele>
        <time>2014-07-07T18:40:59Z</time>
      </trkpt>
      <trkpt lat="59.8938054" lon="17.7413081">
        <ele>29.9381</ele>
        <time>2014-07-07T18:41:00Z</time>
      </trkpt>
      <trkpt lat="59.8938408" lon="17.7411871">
        <ele>29.9381</ele>
        <time>2014-07-07T18:41:01Z</time>
      </trkpt>
      <trkpt lat="59.8938752" lon="17.7410678">
        <ele>29.9381</ele>
        <time>2014-07-07T18:41:02Z</time>
      </trkpt>
      <trkpt lat="59.8939094" lon="17.7409477">
        <ele>29.9381</ele>
        <time>2014-07-07T18:41:03Z</time>
      </trkpt>
      <trkpt lat="59.8939454" lon="17.7408291">
        <ele>29.4575</ele>
        <time>2014-07-07T18:41:04Z</time>
      </trkpt>
      <trkpt lat="59.8939836" lon="17.7407119">
        <ele>29.4575</ele>
        <time>2014-07-07T18:41:05Z</time>
      </trkpt>
      <trkpt lat="59.8940213" lon="17.7405938">
        <ele>29.4575</ele>
        <time>2014-07-07T18:41:06Z</time>
      </trkpt>
      <trkpt lat="59.8940586" lon="17.7404758">
        <ele>29.9381</ele>
        <time>2014-07-07T18:41:07Z</time>
      </trkpt>
      <trkpt lat="59.8940943" lon="17.7403591">
        <ele>29.9381</ele>
        <time>2014-07-07T18:41:08Z</time>
      </trkpt>
      <trkpt lat="59.894128" lon="17.7402458">
        <ele>30.4188</ele>
        <time>2014-07-07T18:41:09Z</time>
      </trkpt>
      <trkpt lat="59.8941602" lon="17.7401412">
        <ele>30.4188</ele>
        <time>2014-07-07T18:41:10Z</time>
      </trkpt>
      <trkpt lat="59.8941954" lon="17.7400448">
        <ele>30.8995</ele>
        <time>2014-07-07T18:41:11Z</time>
      </trkpt>
      <trkpt lat="59.8942273" lon="17.7399622">
        <ele>30.8995</ele>
        <time>2014-07-07T18:41:12Z</time>
      </trkpt>
      <trkpt lat="59.8942557" lon="17.7398897">
        <ele>30.8995</ele>
        <time>2014-07-07T18:41:13Z</time>
      </trkpt>
      <trkpt lat="59.8942855" lon="17.7398271">
        <ele>30.8995</ele>
        <time>2014-07-07T18:41:14Z</time>
      </trkpt>
      <trkpt lat="59.8943141" lon="17.7397713">
        <ele>30.4188</ele>
        <time>2014-07-07T18:41:15Z</time>
      </trkpt>
      <trkpt lat="59.8943425" lon="17.7397221">
        <ele>30.4188</ele>
        <time>2014-07-07T18:41:16Z</time>
      </trkpt>
      <trkpt lat="59.894369" lon="17.7396796">
        <ele>30.4188</ele>
        <time>2014-07-07T18:41:17Z</time>
      </trkpt>
      <trkpt lat="59.8943922" lon="17.7396604">
        <ele>30.4188</ele>
        <time>2014-07-07T18:41:18Z</time>
      </trkpt>
      <trkpt lat="59.8944113" lon="17.7396728">
        <ele>29.9381</ele>
        <time>2014-07-07T18:41:19Z</time>
      </trkpt>
      <trkpt lat="59.8944305" lon="17.7397015">
        <ele>29.9381</ele>
        <time>2014-07-07T18:41:20Z</time>
      </trkpt>
      <trkpt lat="59.8944505" lon="17.7397335">
        <ele>30.4188</ele>
        <time>2014-07-07T18:41:21Z</time>
      </trkpt>
      <trkpt lat="59.8944643" lon="17.7397629">
        <ele>30.4188</ele>
        <time>2014-07-07T18:41:22Z</time>
      </trkpt>
      <trkpt lat="59.8944754" lon="17.7397899">
        <ele>30.8995</ele>
        <time>2014-07-07T18:41:23Z</time>
      </trkpt>
      <trkpt lat="59.8944839" lon="17.7398153">
        <ele>30.4188</ele>
        <time>2014-07-07T18:41:24Z</time>
      </trkpt>
      <trkpt lat="59.8944932" lon="17.7398403">
        <ele>30.4188</ele>
        <time>2014-07-07T18:41:25Z</time>
      </trkpt>
      <trkpt lat="59.8945059" lon="17.7398669">
        <ele>30.8995</ele>
        <time>2014-07-07T18:41:26Z</time>
      </trkpt>
      <trkpt lat="59.8945216" lon="17.7398884">
        <ele>30.8995</ele>
        <time>2014-07-07T18:41:27Z</time>
      </trkpt>
      <trkpt lat="59.8945377" lon="17.7399084">
        <ele>30.8995</ele>
        <time>2014-07-07T18:41:28Z</time>
      </trkpt>
      <trkpt lat="59.8945588" lon="17.7399291">
        <ele>31.3801</ele>
        <time>2014-07-07T18:41:29Z</time>
      </trkpt>
      <trkpt lat="59.8945798" lon="17.7399458">
        <ele>31.3801</ele>
        <time>2014-07-07T18:41:30Z</time>
      </trkpt>
      <trkpt lat="59.8945994" lon="17.7399557">
        <ele>31.3801</ele>
        <time>2014-07-07T18:41:31Z</time>
      </trkpt>
      <trkpt lat="59.8946178" lon="17.7399613">
        <ele>31.3801</ele>
        <time>2014-07-07T18:41:32Z</time>
      </trkpt>
      <trkpt lat="59.8946347" lon="17.7399603">
        <ele>31.3801</ele>
        <time>2014-07-07T18:41:33Z</time>
      </trkpt>
      <trkpt lat="59.8946486" lon="17.7399548">
        <ele>31.3801</ele>
        <time>2014-07-07T18:41:34Z</time>
      </trkpt>
      <trkpt lat="59.894661" lon="17.7399443">
        <ele>31.3801</ele>
        <time>2014-07-07T18:41:35Z</time>
      </trkpt>
      <trkpt lat="59.8946688" lon="17.7399344">
        <ele>30.8995</ele>
        <time>2014-07-07T18:41:36Z</time>
      </trkpt>
      <trkpt lat="59.8946714" lon="17.7399283">
        <ele>30.8995</ele>
        <time>2014-07-07T18:41:37Z</time>
      </trkpt>
      <trkpt lat="59.8946717" lon="17.7399267">
        <ele>30.8995</ele>
        <time>2014-07-07T18:41:38Z</time>
      </trkpt>
      <trkpt lat="59.8954052" lon="17.7391154">
        <ele>27.5349</ele>
        <time>2014-07-07T19:07:42Z</time>
      </trkpt>
      <trkpt lat="59.8954395" lon="17.739108">
        <ele>28.0155</ele>
        <time>2014-07-07T19:07:43Z</time>
      </trkpt>
      <trkpt lat="59.8954729" lon="17.7391015">
        <ele>28.0155</ele>
        <time>2014-07-07T19:07:44Z</time>
      </trkpt>
      <trkpt lat="59.8955057" lon="17.7390969">
        <ele>27.5349</ele>
        <time>2014-07-07T19:07:45Z</time>
      </trkpt>
      <trkpt lat="59.8955385" lon="17.7390891">
        <ele>28.0155</ele>
        <time>2014-07-07T19:07:46Z</time>
      </trkpt>
      <trkpt lat="59.8956328" lon="17.739072">
        <ele>28.0155</ele>
        <time>2014-07-07T19:07:49Z</time>
      </trkpt>
      <trkpt lat="59.8956627" lon="17.7390689">
        <ele>28.0155</ele>
        <time>2014-07-07T19:07:50Z</time>
      </trkpt>
      <trkpt lat="59.8956922" lon="17.7390663">
        <ele>28.0155</ele>
        <time>2014-07-07T19:07:51Z</time>
      </trkpt>
      <trkpt lat="59.8957244" lon="17.7390591">
        <ele>28.0155</ele>
        <time>2014-07-07T19:07:52Z</time>
      </trkpt>
      <trkpt lat="59.8957608" lon="17.7390474">
        <ele>28.0155</ele>
        <time>2014-07-07T19:07:53Z</time>
      </trkpt>
      <trkpt lat="59.8957999" lon="17.7390357">
        <ele>27.5349</ele>
        <time>2014-07-07T19:07:54Z</time>
      </trkpt>
      <trkpt lat="59.8958417" lon="17.7390238">
        <ele>27.5349</ele>
        <time>2014-07-07T19:07:55Z</time>
      </trkpt>
      <trkpt lat="59.8958861" lon="17.7390088">
        <ele>27.5349</ele>
        <time>2014-07-07T19:07:56Z</time>
      </trkpt>
      <trkpt lat="59.895932" lon="17.7389911">
        <ele>27.5349</ele>
        <time>2014-07-07T19:07:57Z</time>
      </trkpt>
      <trkpt lat="59.8959788" lon="17.7389697">
        <ele>27.5349</ele>
        <time>2014-07-07T19:07:58Z</time>
      </trkpt>
      <trkpt lat="59.8960265" lon="17.7389482">
        <ele>27.0543</ele>
        <time>2014-07-07T19:07:59Z</time>
      </trkpt>
      <trkpt lat="59.8960752" lon="17.7389284">
        <ele>27.0543</ele>
        <time>2014-07-07T19:08:00Z</time>
      </trkpt>
      <trkpt lat="59.8961243" lon="17.7389102">
        <ele>27.0543</ele>
        <time>2014-07-07T19:08:01Z</time>
      </trkpt>
      <trkpt lat="59.8961726" lon="17.7388948">
        <ele>27.0543</ele>
        <time>2014-07-07T19:08:02Z</time>
      </trkpt>
      <trkpt lat="59.8962218" lon="17.7388798">
        <ele>27.5349</ele>
        <time>2014-07-07T19:08:03Z</time>
      </trkpt>
      <trkpt lat="59.8962718" lon="17.738858">
        <ele>28.4962</ele>
        <time>2014-07-07T19:08:04Z</time>
      </trkpt>
      <trkpt lat="59.8963172" lon="17.7388371">
        <ele>28.9769</ele>
        <time>2014-07-07T19:08:05Z</time>
      </trkpt>
      <trkpt lat="59.8963596" lon="17.7388131">
        <ele>28.9769</ele>
        <time>2014-07-07T19:08:06Z</time>
      </trkpt>
      <trkpt lat="59.8964" lon="17.7387807">
        <ele>28.9769</ele>
        <time>2014-07-07T19:08:07Z</time>
      </trkpt>
      <trkpt lat="59.8964388" lon="17.7387307">
        <ele>29.4575</ele>
        <time>2014-07-07T19:08:08Z</time>
      </trkpt>
      <trkpt lat="59.8964749" lon="17.7386633">
        <ele>29.4575</ele>
        <time>2014-07-07T19:08:09Z</time>
      </trkpt>
      <trkpt lat="59.8965096" lon="17.7385865">
        <ele>29.4575</ele>
        <time>2014-07-07T19:08:10Z</time>
      </trkpt>
      <trkpt lat="59.8965441" lon="17.7385009">
        <ele>29.9381</ele>
        <time>2014-07-07T19:08:11Z</time>
      </trkpt>
      <trkpt lat="59.8965755" lon="17.7384067">
        <ele>30.4188</ele>
        <time>2014-07-07T19:08:12Z</time>
      </trkpt>
      <trkpt lat="59.896603" lon="17.7383028">
        <ele>30.4188</ele>
        <time>2014-07-07T19:08:13Z</time>
      </trkpt>
      <trkpt lat="59.8966282" lon="17.7381934">
        <ele>30.8995</ele>
        <time>2014-07-07T19:08:14Z</time>
      </trkpt>
      <trkpt lat="59.8966517" lon="17.7380803">
        <ele>30.8995</ele>
        <time>2014-07-07T19:08:15Z</time>
      </trkpt>
      <trkpt lat="59.8966766" lon="17.7379676">
        <ele>30.8995</ele>
        <time>2014-07-07T19:08:16Z</time>
      </trkpt>
      <trkpt lat="59.8967049" lon="17.7378588">
        <ele>30.8995</ele>
        <time>2014-07-07T19:08:17Z</time>
      </trkpt>
      <trkpt lat="59.8967372" lon="17.7377552">
        <ele>30.8995</ele>
        <time>2014-07-07T19:08:18Z</time>
      </trkpt>
      <trkpt lat="59.8967723" lon="17.7376543">
        <ele>30.8995</ele>
        <time>2014-07-07T19:08:19Z</time>
      </trkpt>
      <trkpt lat="59.8968077" lon="17.7375527">
        <ele>30.8995</ele>
        <time>2014-07-07T19:08:20Z</time>
      </trkpt>
      <trkpt lat="59.8968434" lon="17.7374499">
        <ele>30.8995</ele>
        <time>2014-07-07T19:08:21Z</time>
      </trkpt>
      <trkpt lat="59.8968803" lon="17.7373455">
        <ele>30.8995</ele>
        <time>2014-07-07T19:08:22Z</time>
      </trkpt>
      <trkpt lat="59.8969185" lon="17.7372357">
        <ele>30.8995</ele>
        <time>2014-07-07T19:08:23Z</time>
      </trkpt>
      <trkpt lat="59.8969579" lon="17.73712">
        <ele>30.4188</ele>
        <time>2014-07-07T19:08:24Z</time>
      </trkpt>
      <trkpt lat="59.8969977" lon="17.7370001">
        <ele>30.4188</ele>
        <time>2014-07-07T19:08:25Z</time>
      </trkpt>
      <trkpt lat="59.8970366" lon="17.7368766">
        <ele>29.9381</ele>
        <time>2014-07-07T19:08:26Z</time>
      </trkpt>
      <trkpt lat="59.8970739" lon="17.7367497">
        <ele>29.9381</ele>
        <time>2014-07-07T19:08:27Z</time>
      </trkpt>
      <trkpt lat="59.8971076" lon="17.7366188">
        <ele>29.9381</ele>
        <time>2014-07-07T19:08:28Z</time>
      </trkpt>
      <trkpt lat="59.8971359" lon="17.7364841">
        <ele>29.4575</ele>
        <time>2014-07-07T19:08:29Z</time>
      </trkpt>
      <trkpt lat="59.8971584" lon="17.7363473">
        <ele>29.4575</ele>
        <time>2014-07-07T19:08:30Z</time>
      </trkpt>
      <trkpt lat="59.8971747" lon="17.7362089">
        <ele>29.4575</ele>
        <time>2014-07-07T19:08:31Z</time>
      </trkpt>
      <trkpt lat="59.8971858" lon="17.7360686">
        <ele>29.9381</ele>
        <time>2014-07-07T19:08:32Z</time>
      </trkpt>
      <trkpt lat="59.8971936" lon="17.7359272">
        <ele>29.9381</ele>
        <time>2014-07-07T19:08:33Z</time>
      </trkpt>
      <trkpt lat="59.8971977" lon="17.7357847">
        <ele>29.9381</ele>
        <time>2014-07-07T19:08:34Z</time>
      </trkpt>
      <trkpt lat="59.8971994" lon="17.7356421">
        <ele>29.9381</ele>
        <time>2014-07-07T19:08:35Z</time>
      </trkpt>
      <trkpt lat="59.8972019" lon="17.7355019">
        <ele>30.4188</ele>
        <time>2014-07-07T19:08:36Z</time>
      </trkpt>
      <trkpt lat="59.8972045" lon="17.7353717">
        <ele>30.4188</ele>
        <time>2014-07-07T19:08:37Z</time>
      </trkpt>
      <trkpt lat="59.8972056" lon="17.7352501">
        <ele>30.4188</ele>
        <time>2014-07-07T19:08:38Z</time>
      </trkpt>
      <trkpt lat="59.897208" lon="17.7351368">
        <ele>30.8995</ele>
        <time>2014-07-07T19:08:39Z</time>
      </trkpt>
      <trkpt lat="59.8972117" lon="17.7350279">
        <ele>31.3801</ele>
        <time>2014-07-07T19:08:40Z</time>
      </trkpt>
      <trkpt lat="59.8972175" lon="17.734922">
        <ele>31.8607</ele>
        <time>2014-07-07T19:08:41Z</time>
      </trkpt>
      <trkpt lat="59.8972272" lon="17.7348175">
        <ele>31.8607</ele>
        <time>2014-07-07T19:08:42Z</time>
      </trkpt>
      <trkpt lat="59.8972398" lon="17.7347146">
        <ele>32.3416</ele>
        <time>2014-07-07T19:08:43Z</time>
      </trkpt>
      <trkpt lat="59.897254" lon="17.7346133">
        <ele>32.3416</ele>
        <time>2014-07-07T19:08:44Z</time>
      </trkpt>
      <trkpt lat="59.8972716" lon="17.7345143">
        <ele>32.8223</ele>
        <time>2014-07-07T19:08:45Z</time>
      </trkpt>
      <trkpt lat="59.8972931" lon="17.7344178">
        <ele>32.8223</ele>
        <time>2014-07-07T19:08:46Z</time>
      </trkpt>
      <trkpt lat="59.897317" lon="17.734324">
        <ele>33.3029</ele>
        <time>2014-07-07T19:08:47Z</time>
      </trkpt>
      <trkpt lat="59.8973417" lon="17.7342322">
        <ele>33.3029</ele>
        <time>2014-07-07T19:08:48Z</time>
      </trkpt>
      <trkpt lat="59.897366" lon="17.73414">
        <ele>33.7834</ele>
        <time>2014-07-07T19:08:49Z</time>
      </trkpt>
      <trkpt lat="59.89739" lon="17.7340457">
        <ele>33.7834</ele>
        <time>2014-07-07T19:08:50Z</time>
      </trkpt>
      <trkpt lat="59.8974122" lon="17.7339471">
        <ele>33.7834</ele>
        <time>2014-07-07T19:08:51Z</time>
      </trkpt>
      <trkpt lat="59.897432" lon="17.7338441">
        <ele>33.7834</ele>
        <time>2014-07-07T19:08:52Z</time>
      </trkpt>
      <trkpt lat="59.8974506" lon="17.733738">
        <ele>34.2642</ele>
        <time>2014-07-07T19:08:53Z</time>
      </trkpt>
      <trkpt lat="59.8974677" lon="17.7336287">
        <ele>34.2642</ele>
        <time>2014-07-07T19:08:54Z</time>
      </trkpt>
      <trkpt lat="59.8974842" lon="17.7335179">
        <ele>34.2642</ele>
        <time>2014-07-07T19:08:55Z</time>
      </trkpt>
      <trkpt lat="59.8974992" lon="17.7334039">
        <ele>34.2642</ele>
        <time>2014-07-07T19:08:56Z</time>
      </trkpt>
      <trkpt lat="59.8975114" lon="17.7332858">
        <ele>34.2642</ele>
        <time>2014-07-07T19:08:57Z</time>
      </trkpt>
      <trkpt lat="59.8975208" lon="17.7331641">
        <ele>34.2642</ele>
        <time>2014-07-07T19:08:58Z</time>
      </trkpt>
      <trkpt lat="59.897529" lon="17.7330383">
        <ele>34.2642</ele>
        <time>2014-07-07T19:08:59Z</time>
      </trkpt>
      <trkpt lat="59.8975361" lon="17.7329086">
        <ele>34.2642</ele>
        <time>2014-07-07T19:09:00Z</time>
      </trkpt>
      <trkpt lat="59.8975425" lon="17.7327756">
        <ele>34.2642</ele>
        <time>2014-07-07T19:09:01Z</time>
      </trkpt>
      <trkpt lat="59.8975489" lon="17.73264">
        <ele>34.2642</ele>
        <time>2014-07-07T19:09:02Z</time>
      </trkpt>
      <trkpt lat="59.8975556" lon="17.732506">
        <ele>34.2642</ele>
        <time>2014-07-07T19:09:03Z</time>
      </trkpt>
      <trkpt lat="59.8975619" lon="17.7323744">
        <ele>34.2642</ele>
        <time>2014-07-07T19:09:04Z</time>
      </trkpt>
      <trkpt lat="59.8975676" lon="17.7322436">
        <ele>34.2642</ele>
        <time>2014-07-07T19:09:05Z</time>
      </trkpt>
      <trkpt lat="59.8975738" lon="17.7321141">
        <ele>33.7834</ele>
        <time>2014-07-07T19:09:06Z</time>
      </trkpt>
      <trkpt lat="59.8975796" lon="17.7319867">
        <ele>33.7834</ele>
        <time>2014-07-07T19:09:07Z</time>
      </trkpt>
      <trkpt lat="59.8975834" lon="17.7318604">
        <ele>34.2642</ele>
        <time>2014-07-07T19:09:08Z</time>
      </trkpt>
      <trkpt lat="59.8975867" lon="17.7317342">
        <ele>34.2642</ele>
        <time>2014-07-07T19:09:09Z</time>
      </trkpt>
      <trkpt lat="59.8975914" lon="17.7316069">
        <ele>34.2642</ele>
        <time>2014-07-07T19:09:10Z</time>
      </trkpt>
      <trkpt lat="59.8975945" lon="17.7314794">
        <ele>34.2642</ele>
        <time>2014-07-07T19:09:11Z</time>
      </trkpt>
      <trkpt lat="59.8975945" lon="17.7313511">
        <ele>34.7449</ele>
        <time>2014-07-07T19:09:12Z</time>
      </trkpt>
      <trkpt lat="59.8975923" lon="17.7312226">
        <ele>34.7449</ele>
        <time>2014-07-07T19:09:13Z</time>
      </trkpt>
      <trkpt lat="59.8975867" lon="17.7310915">
        <ele>34.7449</ele>
        <time>2014-07-07T19:09:14Z</time>
      </trkpt>
      <trkpt lat="59.8975769" lon="17.7309589">
        <ele>34.7449</ele>
        <time>2014-07-07T19:09:15Z</time>
      </trkpt>
      <trkpt lat="59.8975609" lon="17.7308242">
        <ele>34.7449</ele>
        <time>2014-07-07T19:09:16Z</time>
      </trkpt>
      <trkpt lat="59.897541" lon="17.7306843">
        <ele>34.2642</ele>
        <time>2014-07-07T19:09:17Z</time>
      </trkpt>
      <trkpt lat="59.8975198" lon="17.7305387">
        <ele>34.2642</ele>
        <time>2014-07-07T19:09:18Z</time>
      </trkpt>
      <trkpt lat="59.8974983" lon="17.7303846">
        <ele>34.2642</ele>
        <time>2014-07-07T19:09:19Z</time>
      </trkpt>
      <trkpt lat="59.8974814" lon="17.7302209">
        <ele>34.2642</ele>
        <time>2014-07-07T19:09:20Z</time>
      </trkpt>
      <trkpt lat="59.8974742" lon="17.7300429">
        <ele>33.3029</ele>
        <time>2014-07-07T19:09:21Z</time>
      </trkpt>
      <trkpt lat="59.8974776" lon="17.7298535">
        <ele>32.8223</ele>
        <time>2014-07-07T19:09:22Z</time>
      </trkpt>
      <trkpt lat="59.8974918" lon="17.7296618">
        <ele>31.8607</ele>
        <time>2014-07-07T19:09:23Z</time>
      </trkpt>
      <trkpt lat="59.8975146" lon="17.7294722">
        <ele>31.3801</ele>
        <time>2014-07-07T19:09:24Z</time>
      </trkpt>
      <trkpt lat="59.8975435" lon="17.7292857">
        <ele>30.8995</ele>
        <time>2014-07-07T19:09:25Z</time>
      </trkpt>
      <trkpt lat="59.8975778" lon="17.7291039">
        <ele>30.4188</ele>
        <time>2014-07-07T19:09:26Z</time>
      </trkpt>
      <trkpt lat="59.8976137" lon="17.7289262">
        <ele>29.9381</ele>
        <time>2014-07-07T19:09:27Z</time>
      </trkpt>
      <trkpt lat="59.8976492" lon="17.7287518">
        <ele>29.9381</ele>
        <time>2014-07-07T19:09:28Z</time>
      </trkpt>
      <trkpt lat="59.8976842" lon="17.7285807">
        <ele>29.4575</ele>
        <time>2014-07-07T19:09:29Z</time>
      </trkpt>
      <trkpt lat="59.8977194" lon="17.728413">
        <ele>29.4575</ele>
        <time>2014-07-07T19:09:30Z</time>
      </trkpt>
      <trkpt lat="59.8977565" lon="17.72825">
        <ele>28.9769</ele>
        <time>2014-07-07T19:09:31Z</time>
      </trkpt>
      <trkpt lat="59.897796" lon="17.7280923">
        <ele>28.9769</ele>
        <time>2014-07-07T19:09:32Z</time>
      </trkpt>
      <trkpt lat="59.8978395" lon="17.727942">
        <ele>28.9769</ele>
        <time>2014-07-07T19:09:33Z</time>
      </trkpt>
      <trkpt lat="59.897887" lon="17.7278">
        <ele>28.4962</ele>
        <time>2014-07-07T19:09:34Z</time>
      </trkpt>
      <trkpt lat="59.8979364" lon="17.7276629">
        <ele>28.4962</ele>
        <time>2014-07-07T19:09:35Z</time>
      </trkpt>
      <trkpt lat="59.8979865" lon="17.7275285">
        <ele>28.4962</ele>
        <time>2014-07-07T19:09:36Z</time>
      </trkpt>
      <trkpt lat="59.8980364" lon="17.7273964">
        <ele>28.4962</ele>
        <time>2014-07-07T19:09:37Z</time>
      </trkpt>
      <trkpt lat="59.8980867" lon="17.727265">
        <ele>28.4962</ele>
        <time>2014-07-07T19:09:38Z</time>
      </trkpt>
      <trkpt lat="59.8981364" lon="17.7271311">
        <ele>28.4962</ele>
        <time>2014-07-07T19:09:39Z</time>
      </trkpt>
      <trkpt lat="59.898184" lon="17.7269924">
        <ele>28.4962</ele>
        <time>2014-07-07T19:09:40Z</time>
      </trkpt>
      <trkpt lat="59.8982299" lon="17.7268495">
        <ele>28.4962</ele>
        <time>2014-07-07T19:09:41Z</time>
      </trkpt>
      <trkpt lat="59.8982731" lon="17.7267017">
        <ele>28.4962</ele>
        <time>2014-07-07T19:09:42Z</time>
      </trkpt>
      <trkpt lat="59.8983145" lon="17.7265495">
        <ele>28.4962</ele>
        <time>2014-07-07T19:09:43Z</time>
      </trkpt>
      <trkpt lat="59.8983554" lon="17.7263956">
        <ele>28.4962</ele>
        <time>2014-07-07T19:09:44Z</time>
      </trkpt>
      <trkpt lat="59.8983953" lon="17.7262417">
        <ele>28.4962</ele>
        <time>2014-07-07T19:09:45Z</time>
      </trkpt>
      <trkpt lat="59.8984332" lon="17.7260876">
        <ele>28.4962</ele>
        <time>2014-07-07T19:09:46Z</time>
      </trkpt>
      <trkpt lat="59.898469" lon="17.7259332">
        <ele>28.4962</ele>
        <time>2014-07-07T19:09:47Z</time>
      </trkpt>
      <trkpt lat="59.8985029" lon="17.7257778">
        <ele>28.4962</ele>
        <time>2014-07-07T19:09:48Z</time>
      </trkpt>
      <trkpt lat="59.8985341" lon="17.7256201">
        <ele>28.4962</ele>
        <time>2014-07-07T19:09:49Z</time>
      </trkpt>
      <trkpt lat="59.8985631" lon="17.7254608">
        <ele>28.9769</ele>
        <time>2014-07-07T19:09:50Z</time>
      </trkpt>
      <trkpt lat="59.8985901" lon="17.7253028">
        <ele>28.9769</ele>
        <time>2014-07-07T19:09:51Z</time>
      </trkpt>
      <trkpt lat="59.8986156" lon="17.7251492">
        <ele>28.9769</ele>
        <time>2014-07-07T19:09:52Z</time>
      </trkpt>
      <trkpt lat="59.8986409" lon="17.7250007">
        <ele>28.9769</ele>
        <time>2014-07-07T19:09:53Z</time>
      </trkpt>
      <trkpt lat="59.8986658" lon="17.7248568">
        <ele>28.9769</ele>
        <time>2014-07-07T19:09:54Z</time>
      </trkpt>
      <trkpt lat="59.8986899" lon="17.7247151">
        <ele>29.4575</ele>
        <time>2014-07-07T19:09:55Z</time>
      </trkpt>
      <trkpt lat="59.8987128" lon="17.7245734">
        <ele>29.4575</ele>
        <time>2014-07-07T19:09:56Z</time>
      </trkpt>
      <trkpt lat="59.8987353" lon="17.7244321">
        <ele>29.4575</ele>
        <time>2014-07-07T19:09:57Z</time>
      </trkpt>
      <trkpt lat="59.8987576" lon="17.7242924">
        <ele>29.4575</ele>
        <time>2014-07-07T19:09:58Z</time>
      </trkpt>
      <trkpt lat="59.8987797" lon="17.7241538">
        <ele>29.9381</ele>
        <time>2014-07-07T19:09:59Z</time>
      </trkpt>
      <trkpt lat="59.8988018" lon="17.7240166">
        <ele>29.9381</ele>
        <time>2014-07-07T19:10:00Z</time>
      </trkpt>
      <trkpt lat="59.8988238" lon="17.7238809">
        <ele>29.9381</ele>
        <time>2014-07-07T19:10:01Z</time>
      </trkpt>
      <trkpt lat="59.898846" lon="17.7237472">
        <ele>30.4188</ele>
        <time>2014-07-07T19:10:02Z</time>
      </trkpt>
      <trkpt lat="59.8988676" lon="17.723614">
        <ele>30.4188</ele>
        <time>2014-07-07T19:10:03Z</time>
      </trkpt>
      <trkpt lat="59.8988889" lon="17.7234809">
        <ele>30.4188</ele>
        <time>2014-07-07T19:10:04Z</time>
      </trkpt>
      <trkpt lat="59.8989097" lon="17.7233482">
        <ele>30.8995</ele>
        <time>2014-07-07T19:10:05Z</time>
      </trkpt>
      <trkpt lat="59.8989306" lon="17.7232152">
        <ele>30.8995</ele>
        <time>2014-07-07T19:10:06Z</time>
      </trkpt>
      <trkpt lat="59.8989525" lon="17.7230822">
        <ele>30.8995</ele>
        <time>2014-07-07T19:10:07Z</time>
      </trkpt>
      <trkpt lat="59.8989745" lon="17.7229483">
        <ele>31.3801</ele>
        <time>2014-07-07T19:10:08Z</time>
      </trkpt>
      <trkpt lat="59.8989964" lon="17.7228128">
        <ele>31.3801</ele>
        <time>2014-07-07T19:10:09Z</time>
      </trkpt>
      <trkpt lat="59.8990184" lon="17.7226758">
        <ele>31.3801</ele>
        <time>2014-07-07T19:10:10Z</time>
      </trkpt>
      <trkpt lat="59.8990398" lon="17.7225367">
        <ele>31.3801</ele>
        <time>2014-07-07T19:10:11Z</time>
      </trkpt>
      <trkpt lat="59.8990606" lon="17.7223965">
        <ele>31.3801</ele>
        <time>2014-07-07T19:10:12Z</time>
      </trkpt>
      <trkpt lat="59.8990817" lon="17.7222554">
        <ele>31.3801</ele>
        <time>2014-07-07T19:10:13Z</time>
      </trkpt>
      <trkpt lat="59.8991014" lon="17.7221139">
        <ele>31.3801</ele>
        <time>2014-07-07T19:10:14Z</time>
      </trkpt>
      <trkpt lat="59.8991211" lon="17.7219735">
        <ele>31.3801</ele>
        <time>2014-07-07T19:10:15Z</time>
      </trkpt>
      <trkpt lat="59.8991429" lon="17.7218352">
        <ele>31.3801</ele>
        <time>2014-07-07T19:10:16Z</time>
      </trkpt>
      <trkpt lat="59.8991649" lon="17.7216964">
        <ele>31.3801</ele>
        <time>2014-07-07T19:10:17Z</time>
      </trkpt>
      <trkpt lat="59.8991862" lon="17.7215568">
        <ele>31.3801</ele>
        <time>2014-07-07T19:10:18Z</time>
      </trkpt>
      <trkpt lat="59.8992076" lon="17.7214163">
        <ele>31.3801</ele>
        <time>2014-07-07T19:10:19Z</time>
      </trkpt>
      <trkpt lat="59.8992293" lon="17.7212747">
        <ele>31.8607</ele>
        <time>2014-07-07T19:10:20Z</time>
      </trkpt>
      <trkpt lat="59.8992532" lon="17.7211328">
        <ele>31.8607</ele>
        <time>2014-07-07T19:10:21Z</time>
      </trkpt>
      <trkpt lat="59.899279" lon="17.7209917">
        <ele>31.8607</ele>
        <time>2014-07-07T19:10:22Z</time>
      </trkpt>
      <trkpt lat="59.8993043" lon="17.7208501">
        <ele>31.8607</ele>
        <time>2014-07-07T19:10:23Z</time>
      </trkpt>
      <trkpt lat="59.8993294" lon="17.7207074">
        <ele>31.8607</ele>
        <time>2014-07-07T19:10:24Z</time>
      </trkpt>
      <trkpt lat="59.8993542" lon="17.7205635">
        <ele>31.8607</ele>
        <time>2014-07-07T19:10:25Z</time>
      </trkpt>
      <trkpt lat="59.8993805" lon="17.72042">
        <ele>31.8607</ele>
        <time>2014-07-07T19:10:26Z</time>
      </trkpt>
      <trkpt lat="59.8994096" lon="17.7202785">
        <ele>31.8607</ele>
        <time>2014-07-07T19:10:27Z</time>
      </trkpt>
      <trkpt lat="59.8994395" lon="17.7201368">
        <ele>31.8607</ele>
        <time>2014-07-07T19:10:28Z</time>
      </trkpt>
      <trkpt lat="59.8994677" lon="17.7199957">
        <ele>31.8607</ele>
        <time>2014-07-07T19:10:29Z</time>
      </trkpt>
      <trkpt lat="59.8994946" lon="17.7198565">
        <ele>31.8607</ele>
        <time>2014-07-07T19:10:30Z</time>
      </trkpt>
      <trkpt lat="59.8995225" lon="17.7197215">
        <ele>31.8607</ele>
        <time>2014-07-07T19:10:31Z</time>
      </trkpt>
      <trkpt lat="59.8995521" lon="17.71959">
        <ele>31.8607</ele>
        <time>2014-07-07T19:10:32Z</time>
      </trkpt>
      <trkpt lat="59.8995822" lon="17.7194595">
        <ele>32.3416</ele>
        <time>2014-07-07T19:10:33Z</time>
      </trkpt>
      <trkpt lat="59.8996118" lon="17.7193291">
        <ele>32.3416</ele>
        <time>2014-07-07T19:10:34Z</time>
      </trkpt>
      <trkpt lat="59.8996422" lon="17.7191994">
        <ele>32.3416</ele>
        <time>2014-07-07T19:10:35Z</time>
      </trkpt>
      <trkpt lat="59.8996754" lon="17.7190707">
        <ele>32.3416</ele>
        <time>2014-07-07T19:10:36Z</time>
      </trkpt>
      <trkpt lat="59.8997121" lon="17.718942">
        <ele>32.8223</ele>
        <time>2014-07-07T19:10:37Z</time>
      </trkpt>
      <trkpt lat="59.8997515" lon="17.7188142">
        <ele>32.8223</ele>
        <time>2014-07-07T19:10:38Z</time>
      </trkpt>
      <trkpt lat="59.8997924" lon="17.7186878">
        <ele>32.8223</ele>
        <time>2014-07-07T19:10:39Z</time>
      </trkpt>
      <trkpt lat="59.8998326" lon="17.718562">
        <ele>32.8223</ele>
        <time>2014-07-07T19:10:40Z</time>
      </trkpt>
      <trkpt lat="59.8998708" lon="17.7184363">
        <ele>32.8223</ele>
        <time>2014-07-07T19:10:41Z</time>
      </trkpt>
      <trkpt lat="59.89991" lon="17.7183142">
        <ele>32.8223</ele>
        <time>2014-07-07T19:10:42Z</time>
      </trkpt>
      <trkpt lat="59.8999488" lon="17.7181942">
        <ele>32.8223</ele>
        <time>2014-07-07T19:10:43Z</time>
      </trkpt>
      <trkpt lat="59.8999849" lon="17.7180723">
        <ele>32.8223</ele>
        <time>2014-07-07T19:10:44Z</time>
      </trkpt>
      <trkpt lat="59.9000173" lon="17.7179461">
        <ele>32.8223</ele>
        <time>2014-07-07T19:10:45Z</time>
      </trkpt>
      <trkpt lat="59.9000459" lon="17.7178155">
        <ele>32.8223</ele>
        <time>2014-07-07T19:10:46Z</time>
      </trkpt>
      <trkpt lat="59.9000715" lon="17.7176803">
        <ele>32.8223</ele>
        <time>2014-07-07T19:10:47Z</time>
      </trkpt>
      <trkpt lat="59.900092" lon="17.7175402">
        <ele>32.8223</ele>
        <time>2014-07-07T19:10:48Z</time>
      </trkpt>
      <trkpt lat="59.9001063" lon="17.7173943">
        <ele>32.3416</ele>
        <time>2014-07-07T19:10:49Z</time>
      </trkpt>
      <trkpt lat="59.9001158" lon="17.7172435">
        <ele>32.3416</ele>
        <time>2014-07-07T19:10:50Z</time>
      </trkpt>
      <trkpt lat="59.9001238" lon="17.7170906">
        <ele>31.8607</ele>
        <time>2014-07-07T19:10:51Z</time>
      </trkpt>
      <trkpt lat="59.9001303" lon="17.7169368">
        <ele>31.8607</ele>
        <time>2014-07-07T19:10:52Z</time>
      </trkpt>
      <trkpt lat="59.9001369" lon="17.7167851">
        <ele>31.8607</ele>
        <time>2014-07-07T19:10:53Z</time>
      </trkpt>
      <trkpt lat="59.9001441" lon="17.716637">
        <ele>31.8607</ele>
        <time>2014-07-07T19:10:54Z</time>
      </trkpt>
      <trkpt lat="59.9001518" lon="17.7164921">
        <ele>31.8607</ele>
        <time>2014-07-07T19:10:55Z</time>
      </trkpt>
      <trkpt lat="59.9001605" lon="17.716349">
        <ele>31.8607</ele>
        <time>2014-07-07T19:10:56Z</time>
      </trkpt>
      <trkpt lat="59.9001709" lon="17.7162081">
        <ele>32.3416</ele>
        <time>2014-07-07T19:10:57Z</time>
      </trkpt>
      <trkpt lat="59.9001836" lon="17.7160706">
        <ele>32.3416</ele>
        <time>2014-07-07T19:10:58Z</time>
      </trkpt>
      <trkpt lat="59.9001991" lon="17.7159366">
        <ele>32.3416</ele>
        <time>2014-07-07T19:10:59Z</time>
      </trkpt>
      <trkpt lat="59.9002163" lon="17.7158045">
        <ele>32.3416</ele>
        <time>2014-07-07T19:11:00Z</time>
      </trkpt>
      <trkpt lat="59.9002365" lon="17.7156728">
        <ele>32.3416</ele>
        <time>2014-07-07T19:11:01Z</time>
      </trkpt>
      <trkpt lat="59.9002602" lon="17.7155409">
        <ele>32.3416</ele>
        <time>2014-07-07T19:11:02Z</time>
      </trkpt>
      <trkpt lat="59.9002861" lon="17.7154088">
        <ele>32.3416</ele>
        <time>2014-07-07T19:11:03Z</time>
      </trkpt>
      <trkpt lat="59.9003144" lon="17.7152767">
        <ele>32.3416</ele>
        <time>2014-07-07T19:11:04Z</time>
      </trkpt>
      <trkpt lat="59.9003446" lon="17.7151451">
        <ele>32.3416</ele>
        <time>2014-07-07T19:11:05Z</time>
      </trkpt>
      <trkpt lat="59.9003758" lon="17.7150125">
        <ele>32.3416</ele>
        <time>2014-07-07T19:11:06Z</time>
      </trkpt>
      <trkpt lat="59.9004078" lon="17.7148783">
        <ele>32.3416</ele>
        <time>2014-07-07T19:11:07Z</time>
      </trkpt>
      <trkpt lat="59.9004415" lon="17.7147437">
        <ele>31.8607</ele>
        <time>2014-07-07T19:11:08Z</time>
      </trkpt>
      <trkpt lat="59.9004772" lon="17.7146114">
        <ele>31.8607</ele>
        <time>2014-07-07T19:11:09Z</time>
      </trkpt>
      <trkpt lat="59.9005151" lon="17.7144817">
        <ele>31.8607</ele>
        <time>2014-07-07T19:11:10Z</time>
      </trkpt>
      <trkpt lat="59.9005553" lon="17.714355">
        <ele>31.8607</ele>
        <time>2014-07-07T19:11:11Z</time>
      </trkpt>
      <trkpt lat="59.900596" lon="17.7142292">
        <ele>31.3801</ele>
        <time>2014-07-07T19:11:12Z</time>
      </trkpt>
      <trkpt lat="59.9006364" lon="17.7141034">
        <ele>31.3801</ele>
        <time>2014-07-07T19:11:13Z</time>
      </trkpt>
      <trkpt lat="59.9006767" lon="17.7139791">
        <ele>31.3801</ele>
        <time>2014-07-07T19:11:14Z</time>
      </trkpt>
      <trkpt lat="59.9007172" lon="17.7138573">
        <ele>31.3801</ele>
        <time>2014-07-07T19:11:15Z</time>
      </trkpt>
      <trkpt lat="59.9007574" lon="17.713738">
        <ele>31.3801</ele>
        <time>2014-07-07T19:11:16Z</time>
      </trkpt>
      <trkpt lat="59.9007968" lon="17.7136209">
        <ele>31.3801</ele>
        <time>2014-07-07T19:11:17Z</time>
      </trkpt>
      <trkpt lat="59.9008346" lon="17.7135056">
        <ele>31.3801</ele>
        <time>2014-07-07T19:11:18Z</time>
      </trkpt>
      <trkpt lat="59.9008715" lon="17.7133935">
        <ele>31.3801</ele>
        <time>2014-07-07T19:11:19Z</time>
      </trkpt>
      <trkpt lat="59.9009072" lon="17.7132848">
        <ele>31.8607</ele>
        <time>2014-07-07T19:11:20Z</time>
      </trkpt>
      <trkpt lat="59.9009414" lon="17.7131793">
        <ele>31.8607</ele>
        <time>2014-07-07T19:11:21Z</time>
      </trkpt>
      <trkpt lat="59.9009746" lon="17.7130783">
        <ele>31.8607</ele>
        <time>2014-07-07T19:11:22Z</time>
      </trkpt>
      <trkpt lat="59.9010056" lon="17.7129801">
        <ele>31.8607</ele>
        <time>2014-07-07T19:11:23Z</time>
      </trkpt>
      <trkpt lat="59.9010327" lon="17.7128833">
        <ele>32.3416</ele>
        <time>2014-07-07T19:11:24Z</time>
      </trkpt>
      <trkpt lat="59.901058" lon="17.7127914">
        <ele>32.3416</ele>
        <time>2014-07-07T19:11:25Z</time>
      </trkpt>
      <trkpt lat="59.901087" lon="17.7127156">
        <ele>32.3416</ele>
        <time>2014-07-07T19:11:26Z</time>
      </trkpt>
      <trkpt lat="59.9011268" lon="17.7126773">
        <ele>32.8223</ele>
        <time>2014-07-07T19:11:27Z</time>
      </trkpt>
      <trkpt lat="59.9011738" lon="17.7126881">
        <ele>32.8223</ele>
        <time>2014-07-07T19:11:28Z</time>
      </trkpt>
      <trkpt lat="59.90122" lon="17.7127315">
        <ele>32.8223</ele>
        <time>2014-07-07T19:11:29Z</time>
      </trkpt>
      <trkpt lat="59.901266" lon="17.712789">
        <ele>32.8223</ele>
        <time>2014-07-07T19:11:30Z</time>
      </trkpt>
      <trkpt lat="59.9013142" lon="17.7128527">
        <ele>32.8223</ele>
        <time>2014-07-07T19:11:31Z</time>
      </trkpt>
      <trkpt lat="59.9013656" lon="17.7129173">
        <ele>32.8223</ele>
        <time>2014-07-07T19:11:32Z</time>
      </trkpt>
      <trkpt lat="59.901419" lon="17.7129831">
        <ele>32.8223</ele>
        <time>2014-07-07T19:11:33Z</time>
      </trkpt>
      <trkpt lat="59.9014739" lon="17.7130503">
        <ele>32.8223</ele>
        <time>2014-07-07T19:11:34Z</time>
      </trkpt>
      <trkpt lat="59.9015309" lon="17.7131177">
        <ele>32.8223</ele>
        <time>2014-07-07T19:11:35Z</time>
      </trkpt>
      <trkpt lat="59.9015889" lon="17.7131864">
        <ele>32.8223</ele>
        <time>2014-07-07T19:11:36Z</time>
      </trkpt>
      <trkpt lat="59.9016485" lon="17.7132537">
        <ele>32.8223</ele>
        <time>2014-07-07T19:11:37Z</time>
      </trkpt>
      <trkpt lat="59.9017089" lon="17.7133217">
        <ele>32.8223</ele>
        <time>2014-07-07T19:11:38Z</time>
      </trkpt>
      <trkpt lat="59.9017696" lon="17.7133915">
        <ele>32.8223</ele>
        <time>2014-07-07T19:11:39Z</time>
      </trkpt>
      <trkpt lat="59.9018311" lon="17.7134601">
        <ele>32.8223</ele>
        <time>2014-07-07T19:11:40Z</time>
      </trkpt>
      <trkpt lat="59.9018926" lon="17.7135285">
        <ele>32.8223</ele>
        <time>2014-07-07T19:11:41Z</time>
      </trkpt>
      <trkpt lat="59.9019536" lon="17.7135963">
        <ele>32.8223</ele>
        <time>2014-07-07T19:11:42Z</time>
      </trkpt>
      <trkpt lat="59.9020124" lon="17.713662">
        <ele>33.3029</ele>
        <time>2014-07-07T19:11:43Z</time>
      </trkpt>
      <trkpt lat="59.9020696" lon="17.7137268">
        <ele>33.3029</ele>
        <time>2014-07-07T19:11:44Z</time>
      </trkpt>
      <trkpt lat="59.9021264" lon="17.7137916">
        <ele>33.3029</ele>
        <time>2014-07-07T19:11:45Z</time>
      </trkpt>
      <trkpt lat="59.9021832" lon="17.7138551">
        <ele>33.3029</ele>
        <time>2014-07-07T19:11:46Z</time>
      </trkpt>
      <trkpt lat="59.90224" lon="17.7139173">
        <ele>33.3029</ele>
        <time>2014-07-07T19:11:47Z</time>
      </trkpt>
      <trkpt lat="59.9022953" lon="17.7139826">
        <ele>33.3029</ele>
        <time>2014-07-07T19:11:48Z</time>
      </trkpt>
      <trkpt lat="59.9023493" lon="17.7140505">
        <ele>33.3029</ele>
        <time>2014-07-07T19:11:49Z</time>
      </trkpt>
      <trkpt lat="59.9024027" lon="17.714118">
        <ele>33.3029</ele>
        <time>2014-07-07T19:11:50Z</time>
      </trkpt>
      <trkpt lat="59.902456" lon="17.714185">
        <ele>33.3029</ele>
        <time>2014-07-07T19:11:51Z</time>
      </trkpt>
      <trkpt lat="59.9025097" lon="17.7142491">
        <ele>33.3029</ele>
        <time>2014-07-07T19:11:52Z</time>
      </trkpt>
      <trkpt lat="59.9025642" lon="17.7143101">
        <ele>33.3029</ele>
        <time>2014-07-07T19:11:53Z</time>
      </trkpt>
      <trkpt lat="59.9026185" lon="17.714371">
        <ele>33.3029</ele>
        <time>2014-07-07T19:11:54Z</time>
      </trkpt>
      <trkpt lat="59.9026716" lon="17.7144343">
        <ele>33.3029</ele>
        <time>2014-07-07T19:11:55Z</time>
      </trkpt>
      <trkpt lat="59.9027243" lon="17.7145002">
        <ele>33.3029</ele>
        <time>2014-07-07T19:11:56Z</time>
      </trkpt>
      <trkpt lat="59.9027766" lon="17.7145666">
        <ele>33.3029</ele>
        <time>2014-07-07T19:11:57Z</time>
      </trkpt>
      <trkpt lat="59.9028289" lon="17.7146323">
        <ele>33.3029</ele>
        <time>2014-07-07T19:11:58Z</time>
      </trkpt>
      <trkpt lat="59.9028807" lon="17.7146987">
        <ele>33.3029</ele>
        <time>2014-07-07T19:11:59Z</time>
      </trkpt>
      <trkpt lat="59.902932" lon="17.714766">
        <ele>33.3029</ele>
        <time>2014-07-07T19:12:00Z</time>
      </trkpt>
      <trkpt lat="59.9029838" lon="17.714832">
        <ele>33.3029</ele>
        <time>2014-07-07T19:12:01Z</time>
      </trkpt>
      <trkpt lat="59.9030357" lon="17.7148948">
        <ele>33.3029</ele>
        <time>2014-07-07T19:12:02Z</time>
      </trkpt>
      <trkpt lat="59.9030873" lon="17.7149555">
        <ele>33.3029</ele>
        <time>2014-07-07T19:12:03Z</time>
      </trkpt>
      <trkpt lat="59.9031383" lon="17.7150181">
        <ele>33.3029</ele>
        <time>2014-07-07T19:12:04Z</time>
      </trkpt>
      <trkpt lat="59.9031883" lon="17.7150859">
        <ele>33.3029</ele>
        <time>2014-07-07T19:12:05Z</time>
      </trkpt>
      <trkpt lat="59.9032377" lon="17.7151566">
        <ele>33.7834</ele>
        <time>2014-07-07T19:12:06Z</time>
      </trkpt>
      <trkpt lat="59.9032872" lon="17.71523">
        <ele>33.7834</ele>
        <time>2014-07-07T19:12:07Z</time>
      </trkpt>
      <trkpt lat="59.9033349" lon="17.7153082">
        <ele>33.7834</ele>
        <time>2014-07-07T19:12:08Z</time>
      </trkpt>
      <trkpt lat="59.9033781" lon="17.7153942">
        <ele>33.7834</ele>
        <time>2014-07-07T19:12:09Z</time>
      </trkpt>
      <trkpt lat="59.9034184" lon="17.7154834">
        <ele>33.7834</ele>
        <time>2014-07-07T19:12:10Z</time>
      </trkpt>
      <trkpt lat="59.9034595" lon="17.7155663">
        <ele>33.7834</ele>
        <time>2014-07-07T19:12:11Z</time>
      </trkpt>
      <trkpt lat="59.9035023" lon="17.7156428">
        <ele>33.7834</ele>
        <time>2014-07-07T19:12:12Z</time>
      </trkpt>
      <trkpt lat="59.9035465" lon="17.7157156">
        <ele>34.2642</ele>
        <time>2014-07-07T19:12:13Z</time>
      </trkpt>
      <trkpt lat="59.9035903" lon="17.7157895">
        <ele>34.2642</ele>
        <time>2014-07-07T19:12:14Z</time>
      </trkpt>
      <trkpt lat="59.9036309" lon="17.7158713">
        <ele>34.2642</ele>
        <time>2014-07-07T19:12:15Z</time>
      </trkpt>
      <trkpt lat="59.9036631" lon="17.7159694">
        <ele>33.7834</ele>
        <time>2014-07-07T19:12:16Z</time>
      </trkpt>
      <trkpt lat="59.9036822" lon="17.7160868">
        <ele>33.3029</ele>
        <time>2014-07-07T19:12:17Z</time>
      </trkpt>
      <trkpt lat="59.9036991" lon="17.7162102">
        <ele>32.3416</ele>
        <time>2014-07-07T19:12:18Z</time>
      </trkpt>
      <trkpt lat="59.9037305" lon="17.7163245">
        <ele>31.8607</ele>
        <time>2014-07-07T19:12:19Z</time>
      </trkpt>
      <trkpt lat="59.9037806" lon="17.7164177">
        <ele>31.8607</ele>
        <time>2014-07-07T19:12:20Z</time>
      </trkpt>
      <trkpt lat="59.9038379" lon="17.7164825">
        <ele>31.8607</ele>
        <time>2014-07-07T19:12:21Z</time>
      </trkpt>
      <trkpt lat="59.9038959" lon="17.7165272">
        <ele>31.8607</ele>
        <time>2014-07-07T19:12:22Z</time>
      </trkpt>
      <trkpt lat="59.9039515" lon="17.7165689">
        <ele>31.8607</ele>
        <time>2014-07-07T19:12:23Z</time>
      </trkpt>
      <trkpt lat="59.9040022" lon="17.7166176">
        <ele>32.3416</ele>
        <time>2014-07-07T19:12:24Z</time>
      </trkpt>
      <trkpt lat="59.9040473" lon="17.7166744">
        <ele>32.3416</ele>
        <time>2014-07-07T19:12:25Z</time>
      </trkpt>
      <trkpt lat="59.9040872" lon="17.716737">
        <ele>32.8223</ele>
        <time>2014-07-07T19:12:26Z</time>
      </trkpt>
      <trkpt lat="59.9041252" lon="17.7167986">
        <ele>32.8223</ele>
        <time>2014-07-07T19:12:27Z</time>
      </trkpt>
      <trkpt lat="59.9041632" lon="17.71685">
        <ele>32.8223</ele>
        <time>2014-07-07T19:12:28Z</time>
      </trkpt>
      <trkpt lat="59.9042017" lon="17.7168904">
        <ele>33.3029</ele>
        <time>2014-07-07T19:12:29Z</time>
      </trkpt>
      <trkpt lat="59.9042415" lon="17.7169238">
        <ele>33.3029</ele>
        <time>2014-07-07T19:12:30Z</time>
      </trkpt>
      <trkpt lat="59.9042836" lon="17.716955">
        <ele>33.3029</ele>
        <time>2014-07-07T19:12:31Z</time>
      </trkpt>
      <trkpt lat="59.904328" lon="17.7169859">
        <ele>34.2642</ele>
        <time>2014-07-07T19:12:32Z</time>
      </trkpt>
      <trkpt lat="59.9043732" lon="17.7170162">
        <ele>34.2642</ele>
        <time>2014-07-07T19:12:33Z</time>
      </trkpt>
      <trkpt lat="59.9044192" lon="17.717054">
        <ele>34.7449</ele>
        <time>2014-07-07T19:12:34Z</time>
      </trkpt>
      <trkpt lat="59.9044624" lon="17.7171037">
        <ele>35.2255</ele>
        <time>2014-07-07T19:12:35Z</time>
      </trkpt>
      <trkpt lat="59.904504" lon="17.717161">
        <ele>35.2255</ele>
        <time>2014-07-07T19:12:36Z</time>
      </trkpt>
      <trkpt lat="59.904545" lon="17.7172239">
        <ele>35.2255</ele>
        <time>2014-07-07T19:12:37Z</time>
      </trkpt>
      <trkpt lat="59.9045883" lon="17.717291">
        <ele>35.7061</ele>
        <time>2014-07-07T19:12:38Z</time>
      </trkpt>
      <trkpt lat="59.904632" lon="17.7173568">
        <ele>36.1868</ele>
        <time>2014-07-07T19:12:39Z</time>
      </trkpt>
      <trkpt lat="59.9046712" lon="17.7174219">
        <ele>36.6675</ele>
        <time>2014-07-07T19:12:40Z</time>
      </trkpt>
      <trkpt lat="59.9047093" lon="17.7174861">
        <ele>36.6675</ele>
        <time>2014-07-07T19:12:41Z</time>
      </trkpt>
      <trkpt lat="59.9047475" lon="17.7175478">
        <ele>36.6675</ele>
        <time>2014-07-07T19:12:42Z</time>
      </trkpt>
      <trkpt lat="59.9047855" lon="17.7176088">
        <ele>36.6675</ele>
        <time>2014-07-07T19:12:43Z</time>
      </trkpt>
      <trkpt lat="59.9048231" lon="17.7176705">
        <ele>36.6675</ele>
        <time>2014-07-07T19:12:44Z</time>
      </trkpt>
      <trkpt lat="59.9048618" lon="17.7177324">
        <ele>37.1481</ele>
        <time>2014-07-07T19:12:45Z</time>
      </trkpt>
      <trkpt lat="59.9049008" lon="17.7177961">
        <ele>37.1481</ele>
        <time>2014-07-07T19:12:46Z</time>
      </trkpt>
      <trkpt lat="59.9049419" lon="17.7178569">
        <ele>37.1481</ele>
        <time>2014-07-07T19:12:47Z</time>
      </trkpt>
      <trkpt lat="59.9049855" lon="17.7179154">
        <ele>37.6287</ele>
        <time>2014-07-07T19:12:48Z</time>
      </trkpt>
      <trkpt lat="59.905028" lon="17.7179764">
        <ele>37.6287</ele>
        <time>2014-07-07T19:12:49Z</time>
      </trkpt>
      <trkpt lat="59.905071" lon="17.7180381">
        <ele>37.6287</ele>
        <time>2014-07-07T19:12:50Z</time>
      </trkpt>
      <trkpt lat="59.9051149" lon="17.7181015">
        <ele>37.6287</ele>
        <time>2014-07-07T19:12:51Z</time>
      </trkpt>
      <trkpt lat="59.9051581" lon="17.7181676">
        <ele>37.6287</ele>
        <time>2014-07-07T19:12:52Z</time>
      </trkpt>
      <trkpt lat="59.9052011" lon="17.718235">
        <ele>37.1481</ele>
        <time>2014-07-07T19:12:53Z</time>
      </trkpt>
      <trkpt lat="59.905244" lon="17.7183014">
        <ele>37.1481</ele>
        <time>2014-07-07T19:12:54Z</time>
      </trkpt>
      <trkpt lat="59.9052843" lon="17.7183678">
        <ele>37.1481</ele>
        <time>2014-07-07T19:12:55Z</time>
      </trkpt>
      <trkpt lat="59.9053237" lon="17.7184329">
        <ele>37.1481</ele>
        <time>2014-07-07T19:12:56Z</time>
      </trkpt>
      <trkpt lat="59.9053646" lon="17.7184987">
        <ele>37.1481</ele>
        <time>2014-07-07T19:12:57Z</time>
      </trkpt>
      <trkpt lat="59.9054056" lon="17.7185655">
        <ele>37.1481</ele>
        <time>2014-07-07T19:12:58Z</time>
      </trkpt>
      <trkpt lat="59.905447" lon="17.7186312">
        <ele>37.1481</ele>
        <time>2014-07-07T19:12:59Z</time>
      </trkpt>
      <trkpt lat="59.9054899" lon="17.7186976">
        <ele>37.1481</ele>
        <time>2014-07-07T19:13:00Z</time>
      </trkpt>
      <trkpt lat="59.9055319" lon="17.718767">
        <ele>37.6287</ele>
        <time>2014-07-07T19:13:01Z</time>
      </trkpt>
      <trkpt lat="59.9055734" lon="17.7188391">
        <ele>37.1481</ele>
        <time>2014-07-07T19:13:02Z</time>
      </trkpt>
      <trkpt lat="59.9056169" lon="17.7189111">
        <ele>37.1481</ele>
        <time>2014-07-07T19:13:03Z</time>
      </trkpt>
      <trkpt lat="59.9056611" lon="17.7189839">
        <ele>37.1481</ele>
        <time>2014-07-07T19:13:04Z</time>
      </trkpt>
      <trkpt lat="59.9057045" lon="17.7190566">
        <ele>37.1481</ele>
        <time>2014-07-07T19:13:05Z</time>
      </trkpt>
      <trkpt lat="59.9057475" lon="17.7191261">
        <ele>37.1481</ele>
        <time>2014-07-07T19:13:06Z</time>
      </trkpt>
      <trkpt lat="59.9057915" lon="17.7191939">
        <ele>37.1481</ele>
        <time>2014-07-07T19:13:07Z</time>
      </trkpt>
      <trkpt lat="59.9058348" lon="17.7192618">
        <ele>37.1481</ele>
        <time>2014-07-07T19:13:08Z</time>
      </trkpt>
      <trkpt lat="59.905877" lon="17.7193276">
        <ele>37.1481</ele>
        <time>2014-07-07T19:13:09Z</time>
      </trkpt>
      <trkpt lat="59.9059184" lon="17.7193921">
        <ele>37.6287</ele>
        <time>2014-07-07T19:13:10Z</time>
      </trkpt>
      <trkpt lat="59.9059586" lon="17.719455">
        <ele>37.1481</ele>
        <time>2014-07-07T19:13:11Z</time>
      </trkpt>
      <trkpt lat="59.9059977" lon="17.7195191">
        <ele>37.6287</ele>
        <time>2014-07-07T19:13:12Z</time>
      </trkpt>
      <trkpt lat="59.9060287" lon="17.7195954">
        <ele>37.1481</ele>
        <time>2014-07-07T19:13:13Z</time>
      </trkpt>
      <trkpt lat="59.9060472" lon="17.719684">
        <ele>37.1481</ele>
        <time>2014-07-07T19:13:14Z</time>
      </trkpt>
      <trkpt lat="59.9060541" lon="17.7197767">
        <ele>36.6675</ele>
        <time>2014-07-07T19:13:15Z</time>
      </trkpt>
      <trkpt lat="59.906061" lon="17.7198689">
        <ele>36.6675</ele>
        <time>2014-07-07T19:13:16Z</time>
      </trkpt>
      <trkpt lat="59.9060737" lon="17.719958">
        <ele>36.6675</ele>
        <time>2014-07-07T19:13:17Z</time>
      </trkpt>
      <trkpt lat="59.906094" lon="17.7200408">
        <ele>36.1868</ele>
        <time>2014-07-07T19:13:18Z</time>
      </trkpt>
      <trkpt lat="59.9061228" lon="17.7201113">
        <ele>36.1868</ele>
        <time>2014-07-07T19:13:19Z</time>
      </trkpt>
      <trkpt lat="59.9061608" lon="17.7201553">
        <ele>36.1868</ele>
        <time>2014-07-07T19:13:20Z</time>
      </trkpt>
      <trkpt lat="59.9062022" lon="17.7201556">
        <ele>36.1868</ele>
        <time>2014-07-07T19:13:21Z</time>
      </trkpt>
      <trkpt lat="59.9062409" lon="17.7201168">
        <ele>36.1868</ele>
        <time>2014-07-07T19:13:22Z</time>
      </trkpt>
      <trkpt lat="59.9062809" lon="17.7200676">
        <ele>36.1868</ele>
        <time>2014-07-07T19:13:23Z</time>
      </trkpt>
      <trkpt lat="59.9063292" lon="17.7200415">
        <ele>36.1868</ele>
        <time>2014-07-07T19:13:24Z</time>
      </trkpt>
      <trkpt lat="59.9063815" lon="17.7200565">
        <ele>36.1868</ele>
        <time>2014-07-07T19:13:25Z</time>
      </trkpt>
      <trkpt lat="59.9064323" lon="17.7201028">
        <ele>36.1868</ele>
        <time>2014-07-07T19:13:26Z</time>
      </trkpt>
      <trkpt lat="59.9064826" lon="17.7201631">
        <ele>36.1868</ele>
        <time>2014-07-07T19:13:27Z</time>
      </trkpt>
      <trkpt lat="59.9065338" lon="17.7202285">
        <ele>36.6675</ele>
        <time>2014-07-07T19:13:28Z</time>
      </trkpt>
      <trkpt lat="59.9065847" lon="17.7202978">
        <ele>36.6675</ele>
        <time>2014-07-07T19:13:29Z</time>
      </trkpt>
      <trkpt lat="59.9066359" lon="17.7203697">
        <ele>36.6675</ele>
        <time>2014-07-07T19:13:30Z</time>
      </trkpt>
      <trkpt lat="59.9066872" lon="17.7204447">
        <ele>36.6675</ele>
        <time>2014-07-07T19:13:31Z</time>
      </trkpt>
      <trkpt lat="59.9067394" lon="17.7205226">
        <ele>36.6675</ele>
        <time>2014-07-07T19:13:32Z</time>
      </trkpt>
      <trkpt lat="59.9067923" lon="17.720603">
        <ele>36.6675</ele>
        <time>2014-07-07T19:13:33Z</time>
      </trkpt>
      <trkpt lat="59.9068449" lon="17.7206881">
        <ele>37.1481</ele>
        <time>2014-07-07T19:13:34Z</time>
      </trkpt>
      <trkpt lat="59.9068964" lon="17.720778">
        <ele>37.1481</ele>
        <time>2014-07-07T19:13:35Z</time>
      </trkpt>
      <trkpt lat="59.906947" lon="17.7208717">
        <ele>37.1481</ele>
        <time>2014-07-07T19:13:36Z</time>
      </trkpt>
      <trkpt lat="59.906997" lon="17.720968">
        <ele>37.1481</ele>
        <time>2014-07-07T19:13:37Z</time>
      </trkpt>
      <trkpt lat="59.9070471" lon="17.7210645">
        <ele>37.6287</ele>
        <time>2014-07-07T19:13:38Z</time>
      </trkpt>
      <trkpt lat="59.9070959" lon="17.7211617">
        <ele>37.6287</ele>
        <time>2014-07-07T19:13:39Z</time>
      </trkpt>
      <trkpt lat="59.9071433" lon="17.7212608">
        <ele>37.6287</ele>
        <time>2014-07-07T19:13:40Z</time>
      </trkpt>
      <trkpt lat="59.9071889" lon="17.7213636">
        <ele>37.6287</ele>
        <time>2014-07-07T19:13:41Z</time>
      </trkpt>
      <trkpt lat="59.9072348" lon="17.7214674">
        <ele>38.1094</ele>
        <time>2014-07-07T19:13:42Z</time>
      </trkpt>
      <trkpt lat="59.9072799" lon="17.7215719">
        <ele>38.1094</ele>
        <time>2014-07-07T19:13:43Z</time>
      </trkpt>
      <trkpt lat="59.9073233" lon="17.7216783">
        <ele>38.1094</ele>
        <time>2014-07-07T19:13:44Z</time>
      </trkpt>
      <trkpt lat="59.9073661" lon="17.721785">
        <ele>38.5901</ele>
        <time>2014-07-07T19:13:45Z</time>
      </trkpt>
      <trkpt lat="59.9074088" lon="17.7218921">
        <ele>38.5901</ele>
        <time>2014-07-07T19:13:46Z</time>
      </trkpt>
      <trkpt lat="59.9074512" lon="17.7220009">
        <ele>38.5901</ele>
        <time>2014-07-07T19:13:47Z</time>
      </trkpt>
      <trkpt lat="59.9074926" lon="17.7221118">
        <ele>38.5901</ele>
        <time>2014-07-07T19:13:48Z</time>
      </trkpt>
      <trkpt lat="59.907533" lon="17.7222251">
        <ele>39.0707</ele>
        <time>2014-07-07T19:13:49Z</time>
      </trkpt>
      <trkpt lat="59.9075724" lon="17.7223398">
        <ele>39.0707</ele>
        <time>2014-07-07T19:13:50Z</time>
      </trkpt>
      <trkpt lat="59.9076108" lon="17.7224553">
        <ele>39.0707</ele>
        <time>2014-07-07T19:13:51Z</time>
      </trkpt>
      <trkpt lat="59.9076486" lon="17.7225713">
        <ele>39.0707</ele>
        <time>2014-07-07T19:13:52Z</time>
      </trkpt>
      <trkpt lat="59.907686" lon="17.7226874">
        <ele>39.0707</ele>
        <time>2014-07-07T19:13:53Z</time>
      </trkpt>
      <trkpt lat="59.9077221" lon="17.7228053">
        <ele>39.0707</ele>
        <time>2014-07-07T19:13:54Z</time>
      </trkpt>
      <trkpt lat="59.9077564" lon="17.7229255">
        <ele>39.5513</ele>
        <time>2014-07-07T19:13:55Z</time>
      </trkpt>
      <trkpt lat="59.9077901" lon="17.7230478">
        <ele>39.5513</ele>
        <time>2014-07-07T19:13:56Z</time>
      </trkpt>
      <trkpt lat="59.9078241" lon="17.7231712">
        <ele>39.5513</ele>
        <time>2014-07-07T19:13:57Z</time>
      </trkpt>
      <trkpt lat="59.9078572" lon="17.723296">
        <ele>39.5513</ele>
        <time>2014-07-07T19:13:58Z</time>
      </trkpt>
      <trkpt lat="59.9078899" lon="17.7234224">
        <ele>39.5513</ele>
        <time>2014-07-07T19:13:59Z</time>
      </trkpt>
      <trkpt lat="59.9079224" lon="17.7235493">
        <ele>39.5513</ele>
        <time>2014-07-07T19:14:00Z</time>
      </trkpt>
      <trkpt lat="59.9079545" lon="17.7236771">
        <ele>39.5513</ele>
        <time>2014-07-07T19:14:01Z</time>
      </trkpt>
      <trkpt lat="59.9079853" lon="17.7238034">
        <ele>39.5513</ele>
        <time>2014-07-07T19:14:02Z</time>
      </trkpt>
      <trkpt lat="59.9080152" lon="17.7239278">
        <ele>39.5513</ele>
        <time>2014-07-07T19:14:03Z</time>
      </trkpt>
      <trkpt lat="59.9080462" lon="17.7240507">
        <ele>40.0321</ele>
        <time>2014-07-07T19:14:04Z</time>
      </trkpt>
      <trkpt lat="59.9080765" lon="17.7241725">
        <ele>39.5513</ele>
        <time>2014-07-07T19:14:05Z</time>
      </trkpt>
      <trkpt lat="59.9081059" lon="17.7242927">
        <ele>39.5513</ele>
        <time>2014-07-07T19:14:06Z</time>
      </trkpt>
      <trkpt lat="59.9081345" lon="17.7244108">
        <ele>39.5513</ele>
        <time>2014-07-07T19:14:07Z</time>
      </trkpt>
      <trkpt lat="59.908164" lon="17.7245288">
        <ele>39.5513</ele>
        <time>2014-07-07T19:14:08Z</time>
      </trkpt>
      <trkpt lat="59.9081941" lon="17.7246475">
        <ele>39.5513</ele>
        <time>2014-07-07T19:14:09Z</time>
      </trkpt>
      <trkpt lat="59.908225" lon="17.7247682">
        <ele>39.5513</ele>
        <time>2014-07-07T19:14:10Z</time>
      </trkpt>
      <trkpt lat="59.9082557" lon="17.7248915">
        <ele>39.5513</ele>
        <time>2014-07-07T19:14:11Z</time>
      </trkpt>
      <trkpt lat="59.9082863" lon="17.7250173">
        <ele>39.5513</ele>
        <time>2014-07-07T19:14:12Z</time>
      </trkpt>
      <trkpt lat="59.9083174" lon="17.7251441">
        <ele>39.5513</ele>
        <time>2014-07-07T19:14:13Z</time>
      </trkpt>
      <trkpt lat="59.9083493" lon="17.7252712">
        <ele>39.5513</ele>
        <time>2014-07-07T19:14:14Z</time>
      </trkpt>
      <trkpt lat="59.9083815" lon="17.7253986">
        <ele>39.5513</ele>
        <time>2014-07-07T19:14:15Z</time>
      </trkpt>
      <trkpt lat="59.9084137" lon="17.7255269">
        <ele>39.5513</ele>
        <time>2014-07-07T19:14:16Z</time>
      </trkpt>
      <trkpt lat="59.9084459" lon="17.7256558">
        <ele>39.5513</ele>
        <time>2014-07-07T19:14:17Z</time>
      </trkpt>
      <trkpt lat="59.9084787" lon="17.7257855">
        <ele>39.5513</ele>
        <time>2014-07-07T19:14:18Z</time>
      </trkpt>
      <trkpt lat="59.9085114" lon="17.725917">
        <ele>39.5513</ele>
        <time>2014-07-07T19:14:19Z</time>
      </trkpt>
      <trkpt lat="59.9085447" lon="17.7260497">
        <ele>39.5513</ele>
        <time>2014-07-07T19:14:20Z</time>
      </trkpt>
      <trkpt lat="59.9085784" lon="17.7261839">
        <ele>39.5513</ele>
        <time>2014-07-07T19:14:21Z</time>
      </trkpt>
      <trkpt lat="59.9086117" lon="17.7263186">
        <ele>39.5513</ele>
        <time>2014-07-07T19:14:22Z</time>
      </trkpt>
      <trkpt lat="59.9086427" lon="17.7264512">
        <ele>39.5513</ele>
        <time>2014-07-07T19:14:23Z</time>
      </trkpt>
      <trkpt lat="59.9086722" lon="17.7265812">
        <ele>39.0707</ele>
        <time>2014-07-07T19:14:24Z</time>
      </trkpt>
      <trkpt lat="59.9086992" lon="17.7267102">
        <ele>39.0707</ele>
        <time>2014-07-07T19:14:25Z</time>
      </trkpt>
      <trkpt lat="59.9087258" lon="17.726839">
        <ele>38.5901</ele>
        <time>2014-07-07T19:14:26Z</time>
      </trkpt>
      <trkpt lat="59.9087519" lon="17.7269671">
        <ele>38.5901</ele>
        <time>2014-07-07T19:14:27Z</time>
      </trkpt>
      <trkpt lat="59.9087772" lon="17.7270946">
        <ele>38.1094</ele>
        <time>2014-07-07T19:14:28Z</time>
      </trkpt>
      <trkpt lat="59.9088023" lon="17.7272226">
        <ele>38.1094</ele>
        <time>2014-07-07T19:14:29Z</time>
      </trkpt>
      <trkpt lat="59.9088286" lon="17.7273514">
        <ele>38.1094</ele>
        <time>2014-07-07T19:14:30Z</time>
      </trkpt>
      <trkpt lat="59.9088553" lon="17.7274798">
        <ele>38.1094</ele>
        <time>2014-07-07T19:14:31Z</time>
      </trkpt>
      <trkpt lat="59.9088818" lon="17.7276082">
        <ele>37.6287</ele>
        <time>2014-07-07T19:14:32Z</time>
      </trkpt>
      <trkpt lat="59.9089076" lon="17.7277375">
        <ele>37.6287</ele>
        <time>2014-07-07T19:14:33Z</time>
      </trkpt>
      <trkpt lat="59.9089342" lon="17.7278681">
        <ele>37.6287</ele>
        <time>2014-07-07T19:14:34Z</time>
      </trkpt>
      <trkpt lat="59.9089613" lon="17.7279998">
        <ele>37.6287</ele>
        <time>2014-07-07T19:14:35Z</time>
      </trkpt>
      <trkpt lat="59.9089879" lon="17.7281323">
        <ele>37.1481</ele>
        <time>2014-07-07T19:14:36Z</time>
      </trkpt>
      <trkpt lat="59.9090146" lon="17.7282656">
        <ele>37.1481</ele>
        <time>2014-07-07T19:14:37Z</time>
      </trkpt>
      <trkpt lat="59.909043" lon="17.7283982">
        <ele>37.1481</ele>
        <time>2014-07-07T19:14:38Z</time>
      </trkpt>
      <trkpt lat="59.9090739" lon="17.7285295">
        <ele>37.1481</ele>
        <time>2014-07-07T19:14:39Z</time>
      </trkpt>
      <trkpt lat="59.9091058" lon="17.7286605">
        <ele>37.1481</ele>
        <time>2014-07-07T19:14:40Z</time>
      </trkpt>
      <trkpt lat="59.9091379" lon="17.7287916">
        <ele>37.1481</ele>
        <time>2014-07-07T19:14:41Z</time>
      </trkpt>
      <trkpt lat="59.9091703" lon="17.7289226">
        <ele>37.6287</ele>
        <time>2014-07-07T19:14:42Z</time>
      </trkpt>
      <trkpt lat="59.9092022" lon="17.7290521">
        <ele>37.6287</ele>
        <time>2014-07-07T19:14:43Z</time>
      </trkpt>
      <trkpt lat="59.9092331" lon="17.7291788">
        <ele>37.1481</ele>
        <time>2014-07-07T19:14:44Z</time>
      </trkpt>
      <trkpt lat="59.9092633" lon="17.7293009">
        <ele>37.1481</ele>
        <time>2014-07-07T19:14:45Z</time>
      </trkpt>
      <trkpt lat="59.9092922" lon="17.7294185">
        <ele>37.1481</ele>
        <time>2014-07-07T19:14:46Z</time>
      </trkpt>
      <trkpt lat="59.9093202" lon="17.7295344">
        <ele>37.1481</ele>
        <time>2014-07-07T19:14:47Z</time>
      </trkpt>
      <trkpt lat="59.9093482" lon="17.7296494">
        <ele>37.1481</ele>
        <time>2014-07-07T19:14:48Z</time>
      </trkpt>
      <trkpt lat="59.9093767" lon="17.7297631">
        <ele>37.1481</ele>
        <time>2014-07-07T19:14:49Z</time>
      </trkpt>
      <trkpt lat="59.9094052" lon="17.7298763">
        <ele>37.1481</ele>
        <time>2014-07-07T19:14:50Z</time>
      </trkpt>
      <trkpt lat="59.909434" lon="17.7299897">
        <ele>37.6287</ele>
        <time>2014-07-07T19:14:51Z</time>
      </trkpt>
      <trkpt lat="59.9094621" lon="17.7301033">
        <ele>37.6287</ele>
        <time>2014-07-07T19:14:52Z</time>
      </trkpt>
      <trkpt lat="59.9094902" lon="17.7302166">
        <ele>37.6287</ele>
        <time>2014-07-07T19:14:53Z</time>
      </trkpt>
      <trkpt lat="59.9095182" lon="17.730329">
        <ele>37.6287</ele>
        <time>2014-07-07T19:14:54Z</time>
      </trkpt>
      <trkpt lat="59.9095456" lon="17.7304414">
        <ele>37.6287</ele>
        <time>2014-07-07T19:14:55Z</time>
      </trkpt>
      <trkpt lat="59.9095738" lon="17.7305537">
        <ele>38.1094</ele>
        <time>2014-07-07T19:14:56Z</time>
      </trkpt>
      <trkpt lat="59.9096015" lon="17.7306657">
        <ele>38.1094</ele>
        <time>2014-07-07T19:14:57Z</time>
      </trkpt>
      <trkpt lat="59.9096295" lon="17.730778">
        <ele>38.1094</ele>
        <time>2014-07-07T19:14:58Z</time>
      </trkpt>
      <trkpt lat="59.9096574" lon="17.7308898">
        <ele>38.1094</ele>
        <time>2014-07-07T19:14:59Z</time>
      </trkpt>
      <trkpt lat="59.9096849" lon="17.7310007">
        <ele>38.1094</ele>
        <time>2014-07-07T19:15:00Z</time>
      </trkpt>
      <trkpt lat="59.9097135" lon="17.7311112">
        <ele>38.5901</ele>
        <time>2014-07-07T19:15:01Z</time>
      </trkpt>
      <trkpt lat="59.9097423" lon="17.7312222">
        <ele>38.5901</ele>
        <time>2014-07-07T19:15:02Z</time>
      </trkpt>
      <trkpt lat="59.9097702" lon="17.731335">
        <ele>38.5901</ele>
        <time>2014-07-07T19:15:03Z</time>
      </trkpt>
      <trkpt lat="59.9097976" lon="17.7314479">
        <ele>38.5901</ele>
        <time>2014-07-07T19:15:04Z</time>
      </trkpt>
      <trkpt lat="59.9098254" lon="17.7315609">
        <ele>38.5901</ele>
        <time>2014-07-07T19:15:05Z</time>
      </trkpt>
      <trkpt lat="59.9098542" lon="17.7316738">
        <ele>38.5901</ele>
        <time>2014-07-07T19:15:06Z</time>
      </trkpt>
      <trkpt lat="59.9098831" lon="17.7317877">
        <ele>39.0707</ele>
        <time>2014-07-07T19:15:07Z</time>
      </trkpt>
      <trkpt lat="59.9099127" lon="17.7319027">
        <ele>39.0707</ele>
        <time>2014-07-07T19:15:08Z</time>
      </trkpt>
      <trkpt lat="59.9099432" lon="17.7320196">
        <ele>39.0707</ele>
        <time>2014-07-07T19:15:09Z</time>
      </trkpt>
      <trkpt lat="59.9099735" lon="17.7321394">
        <ele>39.0707</ele>
        <time>2014-07-07T19:15:10Z</time>
      </trkpt>
      <trkpt lat="59.9100032" lon="17.7322621">
        <ele>39.0707</ele>
        <time>2014-07-07T19:15:11Z</time>
      </trkpt>
      <trkpt lat="59.9100345" lon="17.7323859">
        <ele>39.0707</ele>
        <time>2014-07-07T19:15:12Z</time>
      </trkpt>
      <trkpt lat="59.9100656" lon="17.7325112">
        <ele>39.0707</ele>
        <time>2014-07-07T19:15:13Z</time>
      </trkpt>
      <trkpt lat="59.9100955" lon="17.7326388">
        <ele>39.0707</ele>
        <time>2014-07-07T19:15:14Z</time>
      </trkpt>
      <trkpt lat="59.9101262" lon="17.7327678">
        <ele>39.0707</ele>
        <time>2014-07-07T19:15:15Z</time>
      </trkpt>
      <trkpt lat="59.9101583" lon="17.7328978">
        <ele>38.5901</ele>
        <time>2014-07-07T19:15:16Z</time>
      </trkpt>
      <trkpt lat="59.9101909" lon="17.7330287">
        <ele>38.5901</ele>
        <time>2014-07-07T19:15:17Z</time>
      </trkpt>
      <trkpt lat="59.9102235" lon="17.7331608">
        <ele>38.5901</ele>
        <time>2014-07-07T19:15:18Z</time>
      </trkpt>
      <trkpt lat="59.9102561" lon="17.7332929">
        <ele>38.5901</ele>
        <time>2014-07-07T19:15:19Z</time>
      </trkpt>
      <trkpt lat="59.9102888" lon="17.7334237">
        <ele>38.5901</ele>
        <time>2014-07-07T19:15:20Z</time>
      </trkpt>
      <trkpt lat="59.9103218" lon="17.7335542">
        <ele>38.5901</ele>
        <time>2014-07-07T19:15:21Z</time>
      </trkpt>
      <trkpt lat="59.9103545" lon="17.7336852">
        <ele>38.5901</ele>
        <time>2014-07-07T19:15:22Z</time>
      </trkpt>
      <trkpt lat="59.9103872" lon="17.7338167">
        <ele>38.5901</ele>
        <time>2014-07-07T19:15:23Z</time>
      </trkpt>
      <trkpt lat="59.9104203" lon="17.7339482">
        <ele>38.5901</ele>
        <time>2014-07-07T19:15:24Z</time>
      </trkpt>
      <trkpt lat="59.9104527" lon="17.734079">
        <ele>38.5901</ele>
        <time>2014-07-07T19:15:25Z</time>
      </trkpt>
      <trkpt lat="59.9104845" lon="17.7342083">
        <ele>38.5901</ele>
        <time>2014-07-07T19:15:26Z</time>
      </trkpt>
      <trkpt lat="59.9105157" lon="17.7343344">
        <ele>38.5901</ele>
        <time>2014-07-07T19:15:27Z</time>
      </trkpt>
      <trkpt lat="59.9105463" lon="17.7344587">
        <ele>38.5901</ele>
        <time>2014-07-07T19:15:28Z</time>
      </trkpt>
      <trkpt lat="59.9105768" lon="17.7345815">
        <ele>38.5901</ele>
        <time>2014-07-07T19:15:29Z</time>
      </trkpt>
      <trkpt lat="59.9106069" lon="17.7347029">
        <ele>38.5901</ele>
        <time>2014-07-07T19:15:30Z</time>
      </trkpt>
      <trkpt lat="59.9106373" lon="17.7348233">
        <ele>38.5901</ele>
        <time>2014-07-07T19:15:31Z</time>
      </trkpt>
      <trkpt lat="59.9106678" lon="17.7349419">
        <ele>38.5901</ele>
        <time>2014-07-07T19:15:32Z</time>
      </trkpt>
      <trkpt lat="59.9106986" lon="17.7350593">
        <ele>38.5901</ele>
        <time>2014-07-07T19:15:33Z</time>
      </trkpt>
      <trkpt lat="59.9107291" lon="17.735176">
        <ele>38.5901</ele>
        <time>2014-07-07T19:15:34Z</time>
      </trkpt>
      <trkpt lat="59.9107595" lon="17.7352926">
        <ele>38.5901</ele>
        <time>2014-07-07T19:15:35Z</time>
      </trkpt>
      <trkpt lat="59.9107908" lon="17.735408">
        <ele>38.5901</ele>
        <time>2014-07-07T19:15:36Z</time>
      </trkpt>
      <trkpt lat="59.9108233" lon="17.7355217">
        <ele>38.5901</ele>
        <time>2014-07-07T19:15:37Z</time>
      </trkpt>
      <trkpt lat="59.9108556" lon="17.735635">
        <ele>38.5901</ele>
        <time>2014-07-07T19:15:38Z</time>
      </trkpt>
      <trkpt lat="59.9108882" lon="17.7357472">
        <ele>38.5901</ele>
        <time>2014-07-07T19:15:39Z</time>
      </trkpt>
      <trkpt lat="59.9109213" lon="17.7358586">
        <ele>39.0707</ele>
        <time>2014-07-07T19:15:40Z</time>
      </trkpt>
      <trkpt lat="59.9109557" lon="17.7359686">
        <ele>39.0707</ele>
        <time>2014-07-07T19:15:41Z</time>
      </trkpt>
      <trkpt lat="59.9109913" lon="17.7360782">
        <ele>39.0707</ele>
        <time>2014-07-07T19:15:42Z</time>
      </trkpt>
      <trkpt lat="59.9110268" lon="17.7361882">
        <ele>39.0707</ele>
        <time>2014-07-07T19:15:43Z</time>
      </trkpt>
      <trkpt lat="59.9110624" lon="17.7362986">
        <ele>39.0707</ele>
        <time>2014-07-07T19:15:44Z</time>
      </trkpt>
      <trkpt lat="59.9110986" lon="17.7364088">
        <ele>39.0707</ele>
        <time>2014-07-07T19:15:45Z</time>
      </trkpt>
      <trkpt lat="59.9111353" lon="17.7365182">
        <ele>39.5513</ele>
        <time>2014-07-07T19:15:46Z</time>
      </trkpt>
      <trkpt lat="59.9111727" lon="17.7366268">
        <ele>39.5513</ele>
        <time>2014-07-07T19:15:47Z</time>
      </trkpt>
      <trkpt lat="59.9112114" lon="17.7367341">
        <ele>39.5513</ele>
        <time>2014-07-07T19:15:48Z</time>
      </trkpt>
      <trkpt lat="59.9112516" lon="17.7368394">
        <ele>39.5513</ele>
        <time>2014-07-07T19:15:49Z</time>
      </trkpt>
      <trkpt lat="59.9112916" lon="17.7369439">
        <ele>39.5513</ele>
        <time>2014-07-07T19:15:50Z</time>
      </trkpt>
      <trkpt lat="59.9113299" lon="17.7370488">
        <ele>39.5513</ele>
        <time>2014-07-07T19:15:51Z</time>
      </trkpt>
      <trkpt lat="59.9113669" lon="17.7371533">
        <ele>39.5513</ele>
        <time>2014-07-07T19:15:52Z</time>
      </trkpt>
      <trkpt lat="59.911403" lon="17.7372559">
        <ele>39.5513</ele>
        <time>2014-07-07T19:15:53Z</time>
      </trkpt>
      <trkpt lat="59.9114393" lon="17.7373578">
        <ele>39.5513</ele>
        <time>2014-07-07T19:15:54Z</time>
      </trkpt>
      <trkpt lat="59.9114757" lon="17.73746">
        <ele>39.5513</ele>
        <time>2014-07-07T19:15:55Z</time>
      </trkpt>
      <trkpt lat="59.9115124" lon="17.737562">
        <ele>39.5513</ele>
        <time>2014-07-07T19:15:56Z</time>
      </trkpt>
      <trkpt lat="59.9115495" lon="17.7376633">
        <ele>39.5513</ele>
        <time>2014-07-07T19:15:57Z</time>
      </trkpt>
      <trkpt lat="59.9115865" lon="17.7377644">
        <ele>39.5513</ele>
        <time>2014-07-07T19:15:58Z</time>
      </trkpt>
      <trkpt lat="59.9116231" lon="17.7378661">
        <ele>40.0321</ele>
        <time>2014-07-07T19:15:59Z</time>
      </trkpt>
      <trkpt lat="59.9116591" lon="17.7379682">
        <ele>40.0321</ele>
        <time>2014-07-07T19:16:00Z</time>
      </trkpt>
      <trkpt lat="59.9116958" lon="17.7380702">
        <ele>40.0321</ele>
        <time>2014-07-07T19:16:01Z</time>
      </trkpt>
      <trkpt lat="59.9117331" lon="17.7381717">
        <ele>40.0321</ele>
        <time>2014-07-07T19:16:02Z</time>
      </trkpt>
      <trkpt lat="59.9117704" lon="17.738273">
        <ele>40.5128</ele>
        <time>2014-07-07T19:16:03Z</time>
      </trkpt>
      <trkpt lat="59.9118064" lon="17.7383738">
        <ele>40.5128</ele>
        <time>2014-07-07T19:16:04Z</time>
      </trkpt>
      <trkpt lat="59.9118429" lon="17.7384741">
        <ele>40.5128</ele>
        <time>2014-07-07T19:16:05Z</time>
      </trkpt>
      <trkpt lat="59.9118786" lon="17.7385743">
        <ele>40.5128</ele>
        <time>2014-07-07T19:16:06Z</time>
      </trkpt>
      <trkpt lat="59.9119145" lon="17.7386753">
        <ele>40.5128</ele>
        <time>2014-07-07T19:16:07Z</time>
      </trkpt>
      <trkpt lat="59.9119512" lon="17.7387762">
        <ele>40.5128</ele>
        <time>2014-07-07T19:16:08Z</time>
      </trkpt>
      <trkpt lat="59.9119885" lon="17.7388766">
        <ele>40.5128</ele>
        <time>2014-07-07T19:16:09Z</time>
      </trkpt>
      <trkpt lat="59.9120254" lon="17.7389775">
        <ele>40.5128</ele>
        <time>2014-07-07T19:16:10Z</time>
      </trkpt>
      <trkpt lat="59.9120615" lon="17.739079">
        <ele>40.9934</ele>
        <time>2014-07-07T19:16:11Z</time>
      </trkpt>
      <trkpt lat="59.9120973" lon="17.7391798">
        <ele>40.9934</ele>
        <time>2014-07-07T19:16:12Z</time>
      </trkpt>
      <trkpt lat="59.9121335" lon="17.7392807">
        <ele>40.9934</ele>
        <time>2014-07-07T19:16:13Z</time>
      </trkpt>
      <trkpt lat="59.9121703" lon="17.7393812">
        <ele>40.9934</ele>
        <time>2014-07-07T19:16:14Z</time>
      </trkpt>
      <trkpt lat="59.9122074" lon="17.7394823">
        <ele>40.9934</ele>
        <time>2014-07-07T19:16:15Z</time>
      </trkpt>
      <trkpt lat="59.9122447" lon="17.7395843">
        <ele>40.9934</ele>
        <time>2014-07-07T19:16:16Z</time>
      </trkpt>
      <trkpt lat="59.9122826" lon="17.7396868">
        <ele>40.9934</ele>
        <time>2014-07-07T19:16:17Z</time>
      </trkpt>
      <trkpt lat="59.912321" lon="17.7397904">
        <ele>40.9934</ele>
        <time>2014-07-07T19:16:18Z</time>
      </trkpt>
      <trkpt lat="59.9123594" lon="17.7398954">
        <ele>40.9934</ele>
        <time>2014-07-07T19:16:19Z</time>
      </trkpt>
      <trkpt lat="59.9123972" lon="17.7400011">
        <ele>41.474</ele>
        <time>2014-07-07T19:16:20Z</time>
      </trkpt>
      <trkpt lat="59.9124359" lon="17.7401078">
        <ele>41.474</ele>
        <time>2014-07-07T19:16:21Z</time>
      </trkpt>
      <trkpt lat="59.912475" lon="17.7402141">
        <ele>41.474</ele>
        <time>2014-07-07T19:16:22Z</time>
      </trkpt>
      <trkpt lat="59.9125146" lon="17.7403199">
        <ele>41.474</ele>
        <time>2014-07-07T19:16:23Z</time>
      </trkpt>
      <trkpt lat="59.912554" lon="17.740427">
        <ele>41.9547</ele>
        <time>2014-07-07T19:16:24Z</time>
      </trkpt>
      <trkpt lat="59.9125929" lon="17.7405346">
        <ele>41.9547</ele>
        <time>2014-07-07T19:16:25Z</time>
      </trkpt>
      <trkpt lat="59.9126322" lon="17.7406427">
        <ele>41.9547</ele>
        <time>2014-07-07T19:16:26Z</time>
      </trkpt>
      <trkpt lat="59.9126713" lon="17.740752">
        <ele>41.9547</ele>
        <time>2014-07-07T19:16:27Z</time>
      </trkpt>
      <trkpt lat="59.9127107" lon="17.740862">
        <ele>41.9547</ele>
        <time>2014-07-07T19:16:28Z</time>
      </trkpt>
      <trkpt lat="59.912751" lon="17.7409731">
        <ele>41.9547</ele>
        <time>2014-07-07T19:16:29Z</time>
      </trkpt>
      <trkpt lat="59.9127909" lon="17.7410865">
        <ele>41.9547</ele>
        <time>2014-07-07T19:16:30Z</time>
      </trkpt>
      <trkpt lat="59.9128312" lon="17.7412011">
        <ele>41.474</ele>
        <time>2014-07-07T19:16:31Z</time>
      </trkpt>
      <trkpt lat="59.9128717" lon="17.7413166">
        <ele>41.474</ele>
        <time>2014-07-07T19:16:32Z</time>
      </trkpt>
      <trkpt lat="59.9129125" lon="17.7414331">
        <ele>41.474</ele>
        <time>2014-07-07T19:16:33Z</time>
      </trkpt>
      <trkpt lat="59.9129534" lon="17.7415495">
        <ele>41.474</ele>
        <time>2014-07-07T19:16:34Z</time>
      </trkpt>
      <trkpt lat="59.9129932" lon="17.7416682">
        <ele>41.474</ele>
        <time>2014-07-07T19:16:35Z</time>
      </trkpt>
      <trkpt lat="59.9130311" lon="17.74179">
        <ele>41.474</ele>
        <time>2014-07-07T19:16:36Z</time>
      </trkpt>
      <trkpt lat="59.913069" lon="17.7419115">
        <ele>41.474</ele>
        <time>2014-07-07T19:16:37Z</time>
      </trkpt>
      <trkpt lat="59.9131074" lon="17.7420309">
        <ele>41.474</ele>
        <time>2014-07-07T19:16:38Z</time>
      </trkpt>
      <trkpt lat="59.9131452" lon="17.7421501">
        <ele>41.474</ele>
        <time>2014-07-07T19:16:39Z</time>
      </trkpt>
      <trkpt lat="59.9131819" lon="17.7422697">
        <ele>41.474</ele>
        <time>2014-07-07T19:16:40Z</time>
      </trkpt>
      <trkpt lat="59.9132193" lon="17.7423903">
        <ele>41.474</ele>
        <time>2014-07-07T19:16:41Z</time>
      </trkpt>
      <trkpt lat="59.9132569" lon="17.7425106">
        <ele>41.474</ele>
        <time>2014-07-07T19:16:42Z</time>
      </trkpt>
      <trkpt lat="59.9132934" lon="17.7426321">
        <ele>41.474</ele>
        <time>2014-07-07T19:16:43Z</time>
      </trkpt>
      <trkpt lat="59.9133281" lon="17.7427556">
        <ele>41.474</ele>
        <time>2014-07-07T19:16:44Z</time>
      </trkpt>
      <trkpt lat="59.913361" lon="17.7428807">
        <ele>41.474</ele>
        <time>2014-07-07T19:16:45Z</time>
      </trkpt>
      <trkpt lat="59.9133918" lon="17.7430076">
        <ele>41.474</ele>
        <time>2014-07-07T19:16:46Z</time>
      </trkpt>
      <trkpt lat="59.9134224" lon="17.7431343">
        <ele>41.474</ele>
        <time>2014-07-07T19:16:47Z</time>
      </trkpt>
      <trkpt lat="59.9134549" lon="17.7432587">
        <ele>41.474</ele>
        <time>2014-07-07T19:16:48Z</time>
      </trkpt>
      <trkpt lat="59.9134906" lon="17.7433796">
        <ele>41.474</ele>
        <time>2014-07-07T19:16:49Z</time>
      </trkpt>
      <trkpt lat="59.913528" lon="17.7434978">
        <ele>41.474</ele>
        <time>2014-07-07T19:16:50Z</time>
      </trkpt>
      <trkpt lat="59.9135658" lon="17.7436153">
        <ele>41.474</ele>
        <time>2014-07-07T19:16:51Z</time>
      </trkpt>
      <trkpt lat="59.9136041" lon="17.7437315">
        <ele>41.474</ele>
        <time>2014-07-07T19:16:52Z</time>
      </trkpt>
      <trkpt lat="59.9136426" lon="17.743847">
        <ele>41.474</ele>
        <time>2014-07-07T19:16:53Z</time>
      </trkpt>
      <trkpt lat="59.9136811" lon="17.743963">
        <ele>41.474</ele>
        <time>2014-07-07T19:16:54Z</time>
      </trkpt>
      <trkpt lat="59.9137187" lon="17.7440806">
        <ele>41.474</ele>
        <time>2014-07-07T19:16:55Z</time>
      </trkpt>
      <trkpt lat="59.9137559" lon="17.7441986">
        <ele>41.474</ele>
        <time>2014-07-07T19:16:56Z</time>
      </trkpt>
      <trkpt lat="59.9137927" lon="17.7443158">
        <ele>41.474</ele>
        <time>2014-07-07T19:16:57Z</time>
      </trkpt>
      <trkpt lat="59.9138296" lon="17.7444325">
        <ele>41.474</ele>
        <time>2014-07-07T19:16:58Z</time>
      </trkpt>
      <trkpt lat="59.9138671" lon="17.744548">
        <ele>41.474</ele>
        <time>2014-07-07T19:16:59Z</time>
      </trkpt>
      <trkpt lat="59.9139041" lon="17.7446634">
        <ele>41.474</ele>
        <time>2014-07-07T19:17:00Z</time>
      </trkpt>
      <trkpt lat="59.9139404" lon="17.7447804">
        <ele>41.474</ele>
        <time>2014-07-07T19:17:01Z</time>
      </trkpt>
      <trkpt lat="59.9139765" lon="17.7448975">
        <ele>41.474</ele>
        <time>2014-07-07T19:17:02Z</time>
      </trkpt>
      <trkpt lat="59.9140124" lon="17.745015">
        <ele>41.474</ele>
        <time>2014-07-07T19:17:03Z</time>
      </trkpt>
      <trkpt lat="59.9140486" lon="17.7451323">
        <ele>41.474</ele>
        <time>2014-07-07T19:17:04Z</time>
      </trkpt>
      <trkpt lat="59.9140853" lon="17.7452487">
        <ele>41.474</ele>
        <time>2014-07-07T19:17:05Z</time>
      </trkpt>
      <trkpt lat="59.9141225" lon="17.7453647">
        <ele>41.474</ele>
        <time>2014-07-07T19:17:06Z</time>
      </trkpt>
      <trkpt lat="59.9141595" lon="17.7454806">
        <ele>41.474</ele>
        <time>2014-07-07T19:17:07Z</time>
      </trkpt>
      <trkpt lat="59.9141967" lon="17.7455972">
        <ele>41.474</ele>
        <time>2014-07-07T19:17:08Z</time>
      </trkpt>
      <trkpt lat="59.9142338" lon="17.7457144">
        <ele>41.474</ele>
        <time>2014-07-07T19:17:09Z</time>
      </trkpt>
      <trkpt lat="59.9142712" lon="17.7458323">
        <ele>41.9547</ele>
        <time>2014-07-07T19:17:10Z</time>
      </trkpt>
      <trkpt lat="59.9143085" lon="17.7459512">
        <ele>41.474</ele>
        <time>2014-07-07T19:17:11Z</time>
      </trkpt>
      <trkpt lat="59.9143462" lon="17.7460708">
        <ele>41.474</ele>
        <time>2014-07-07T19:17:12Z</time>
      </trkpt>
      <trkpt lat="59.9143844" lon="17.746191">
        <ele>41.474</ele>
        <time>2014-07-07T19:17:13Z</time>
      </trkpt>
      <trkpt lat="59.9144232" lon="17.7463125">
        <ele>41.474</ele>
        <time>2014-07-07T19:17:14Z</time>
      </trkpt>
      <trkpt lat="59.9144616" lon="17.746435">
        <ele>41.474</ele>
        <time>2014-07-07T19:17:15Z</time>
      </trkpt>
      <trkpt lat="59.9145013" lon="17.746557">
        <ele>41.474</ele>
        <time>2014-07-07T19:17:16Z</time>
      </trkpt>
      <trkpt lat="59.9145426" lon="17.7466764">
        <ele>41.474</ele>
        <time>2014-07-07T19:17:17Z</time>
      </trkpt>
      <trkpt lat="59.9145838" lon="17.7467951">
        <ele>41.474</ele>
        <time>2014-07-07T19:17:18Z</time>
      </trkpt>
      <trkpt lat="59.914624" lon="17.746914">
        <ele>41.474</ele>
        <time>2014-07-07T19:17:19Z</time>
      </trkpt>
      <trkpt lat="59.9146639" lon="17.7470291">
        <ele>41.474</ele>
        <time>2014-07-07T19:17:20Z</time>
      </trkpt>
      <trkpt lat="59.9147026" lon="17.7471403">
        <ele>41.474</ele>
        <time>2014-07-07T19:17:21Z</time>
      </trkpt>
      <trkpt lat="59.9147392" lon="17.7472496">
        <ele>41.474</ele>
        <time>2014-07-07T19:17:22Z</time>
      </trkpt>
      <trkpt lat="59.9147748" lon="17.747355">
        <ele>41.474</ele>
        <time>2014-07-07T19:17:23Z</time>
      </trkpt>
      <trkpt lat="59.9148095" lon="17.7474585">
        <ele>41.474</ele>
        <time>2014-07-07T19:17:24Z</time>
      </trkpt>
      <trkpt lat="59.9148437" lon="17.7475612">
        <ele>41.474</ele>
        <time>2014-07-07T19:17:25Z</time>
      </trkpt>
      <trkpt lat="59.9148779" lon="17.747663">
        <ele>41.9547</ele>
        <time>2014-07-07T19:17:26Z</time>
      </trkpt>
      <trkpt lat="59.9149119" lon="17.7477638">
        <ele>41.9547</ele>
        <time>2014-07-07T19:17:27Z</time>
      </trkpt>
      <trkpt lat="59.9149449" lon="17.7478641">
        <ele>41.9547</ele>
        <time>2014-07-07T19:17:28Z</time>
      </trkpt>
      <trkpt lat="59.9149774" lon="17.7479642">
        <ele>41.9547</ele>
        <time>2014-07-07T19:17:29Z</time>
      </trkpt>
      <trkpt lat="59.9150095" lon="17.7480647">
        <ele>41.9547</ele>
        <time>2014-07-07T19:17:30Z</time>
      </trkpt>
      <trkpt lat="59.9150416" lon="17.7481655">
        <ele>42.4354</ele>
        <time>2014-07-07T19:17:31Z</time>
      </trkpt>
      <trkpt lat="59.9150737" lon="17.7482665">
        <ele>42.4354</ele>
        <time>2014-07-07T19:17:32Z</time>
      </trkpt>
      <trkpt lat="59.9151057" lon="17.7483677">
        <ele>42.4354</ele>
        <time>2014-07-07T19:17:33Z</time>
      </trkpt>
      <trkpt lat="59.9151369" lon="17.7484697">
        <ele>42.4354</ele>
        <time>2014-07-07T19:17:34Z</time>
      </trkpt>
      <trkpt lat="59.9151684" lon="17.7485733">
        <ele>42.4354</ele>
        <time>2014-07-07T19:17:35Z</time>
      </trkpt>
      <trkpt lat="59.9152005" lon="17.7486785">
        <ele>42.4354</ele>
        <time>2014-07-07T19:17:36Z</time>
      </trkpt>
      <trkpt lat="59.9152328" lon="17.7487851">
        <ele>42.4354</ele>
        <time>2014-07-07T19:17:37Z</time>
      </trkpt>
      <trkpt lat="59.9152657" lon="17.7488925">
        <ele>42.4354</ele>
        <time>2014-07-07T19:17:38Z</time>
      </trkpt>
      <trkpt lat="59.9152996" lon="17.7490002">
        <ele>42.916</ele>
        <time>2014-07-07T19:17:39Z</time>
      </trkpt>
      <trkpt lat="59.9153343" lon="17.7491083">
        <ele>42.916</ele>
        <time>2014-07-07T19:17:40Z</time>
      </trkpt>
      <trkpt lat="59.915369" lon="17.7492175">
        <ele>42.916</ele>
        <time>2014-07-07T19:17:41Z</time>
      </trkpt>
      <trkpt lat="59.9154038" lon="17.7493265">
        <ele>42.916</ele>
        <time>2014-07-07T19:17:42Z</time>
      </trkpt>
      <trkpt lat="59.9154393" lon="17.7494373">
        <ele>42.916</ele>
        <time>2014-07-07T19:17:43Z</time>
      </trkpt>
      <trkpt lat="59.9154752" lon="17.7495501">
        <ele>43.3966</ele>
        <time>2014-07-07T19:17:44Z</time>
      </trkpt>
      <trkpt lat="59.9155119" lon="17.7496653">
        <ele>43.3966</ele>
        <time>2014-07-07T19:17:45Z</time>
      </trkpt>
      <trkpt lat="59.9155483" lon="17.7497827">
        <ele>43.3966</ele>
        <time>2014-07-07T19:17:46Z</time>
      </trkpt>
      <trkpt lat="59.915586" lon="17.7499015">
        <ele>43.3966</ele>
        <time>2014-07-07T19:17:47Z</time>
      </trkpt>
      <trkpt lat="59.9156244" lon="17.7500221">
        <ele>43.3966</ele>
        <time>2014-07-07T19:17:48Z</time>
      </trkpt>
      <trkpt lat="59.9156637" lon="17.7501441">
        <ele>43.3966</ele>
        <time>2014-07-07T19:17:49Z</time>
      </trkpt>
      <trkpt lat="59.9157032" lon="17.7502672">
        <ele>43.3966</ele>
        <time>2014-07-07T19:17:50Z</time>
      </trkpt>
      <trkpt lat="59.9157425" lon="17.7503906">
        <ele>43.3966</ele>
        <time>2014-07-07T19:17:51Z</time>
      </trkpt>
      <trkpt lat="59.9157818" lon="17.7505143">
        <ele>43.3966</ele>
        <time>2014-07-07T19:17:52Z</time>
      </trkpt>
      <trkpt lat="59.9158212" lon="17.7506371">
        <ele>43.3966</ele>
        <time>2014-07-07T19:17:53Z</time>
      </trkpt>
      <trkpt lat="59.9158943" lon="17.7508615">
        <ele>42.916</ele>
        <time>2014-07-07T19:17:54Z</time>
      </trkpt>
      <trkpt lat="59.9159319" lon="17.7509851">
        <ele>42.916</ele>
        <time>2014-07-07T19:17:55Z</time>
      </trkpt>
      <trkpt lat="59.9159694" lon="17.7511059">
        <ele>42.916</ele>
        <time>2014-07-07T19:17:56Z</time>
      </trkpt>
      <trkpt lat="59.9160077" lon="17.7512271">
        <ele>42.916</ele>
        <time>2014-07-07T19:17:57Z</time>
      </trkpt>
      <trkpt lat="59.9160459" lon="17.7513493">
        <ele>42.916</ele>
        <time>2014-07-07T19:17:58Z</time>
      </trkpt>
      <trkpt lat="59.9160844" lon="17.7514722">
        <ele>42.916</ele>
        <time>2014-07-07T19:17:59Z</time>
      </trkpt>
      <trkpt lat="59.9161236" lon="17.7515959">
        <ele>42.916</ele>
        <time>2014-07-07T19:18:00Z</time>
      </trkpt>
      <trkpt lat="59.916163" lon="17.7517203">
        <ele>42.916</ele>
        <time>2014-07-07T19:18:01Z</time>
      </trkpt>
      <trkpt lat="59.9162025" lon="17.751846">
        <ele>42.916</ele>
        <time>2014-07-07T19:18:02Z</time>
      </trkpt>
      <trkpt lat="59.9162423" lon="17.7519726">
        <ele>42.916</ele>
        <time>2014-07-07T19:18:03Z</time>
      </trkpt>
      <trkpt lat="59.9162828" lon="17.7520994">
        <ele>42.916</ele>
        <time>2014-07-07T19:18:04Z</time>
      </trkpt>
      <trkpt lat="59.9163237" lon="17.7522265">
        <ele>42.916</ele>
        <time>2014-07-07T19:18:05Z</time>
      </trkpt>
      <trkpt lat="59.9163641" lon="17.7523539">
        <ele>43.3966</ele>
        <time>2014-07-07T19:18:06Z</time>
      </trkpt>
      <trkpt lat="59.916404" lon="17.7524808">
        <ele>43.3966</ele>
        <time>2014-07-07T19:18:07Z</time>
      </trkpt>
      <trkpt lat="59.9164433" lon="17.752608">
        <ele>43.3966</ele>
        <time>2014-07-07T19:18:08Z</time>
      </trkpt>
      <trkpt lat="59.916483" lon="17.7527341">
        <ele>43.3966</ele>
        <time>2014-07-07T19:18:09Z</time>
      </trkpt>
      <trkpt lat="59.9165226" lon="17.7528583">
        <ele>43.3966</ele>
        <time>2014-07-07T19:18:10Z</time>
      </trkpt>
      <trkpt lat="59.916562" lon="17.7529816">
        <ele>43.8773</ele>
        <time>2014-07-07T19:18:11Z</time>
      </trkpt>
      <trkpt lat="59.9166008" lon="17.7531043">
        <ele>43.8773</ele>
        <time>2014-07-07T19:18:12Z</time>
      </trkpt>
      <trkpt lat="59.9166395" lon="17.7532259">
        <ele>43.8773</ele>
        <time>2014-07-07T19:18:13Z</time>
      </trkpt>
      <trkpt lat="59.9166783" lon="17.7533466">
        <ele>44.358</ele>
        <time>2014-07-07T19:18:14Z</time>
      </trkpt>
      <trkpt lat="59.916717" lon="17.7534674">
        <ele>44.358</ele>
        <time>2014-07-07T19:18:15Z</time>
      </trkpt>
      <trkpt lat="59.9167558" lon="17.753588">
        <ele>44.358</ele>
        <time>2014-07-07T19:18:16Z</time>
      </trkpt>
      <trkpt lat="59.9167946" lon="17.7537077">
        <ele>44.358</ele>
        <time>2014-07-07T19:18:17Z</time>
      </trkpt>
      <trkpt lat="59.9168339" lon="17.753826">
        <ele>44.8386</ele>
        <time>2014-07-07T19:18:18Z</time>
      </trkpt>
      <trkpt lat="59.9168738" lon="17.7539431">
        <ele>44.8386</ele>
        <time>2014-07-07T19:18:19Z</time>
      </trkpt>
      <trkpt lat="59.916914" lon="17.7540596">
        <ele>44.8386</ele>
        <time>2014-07-07T19:18:20Z</time>
      </trkpt>
      <trkpt lat="59.916954" lon="17.7541751">
        <ele>45.3192</ele>
        <time>2014-07-07T19:18:21Z</time>
      </trkpt>
      <trkpt lat="59.916994" lon="17.7542897">
        <ele>45.3192</ele>
        <time>2014-07-07T19:18:22Z</time>
      </trkpt>
      <trkpt lat="59.9170342" lon="17.754403">
        <ele>45.3192</ele>
        <time>2014-07-07T19:18:23Z</time>
      </trkpt>
      <trkpt lat="59.9170743" lon="17.7545152">
        <ele>45.3192</ele>
        <time>2014-07-07T19:18:24Z</time>
      </trkpt>
      <trkpt lat="59.9171142" lon="17.7546268">
        <ele>45.3192</ele>
        <time>2014-07-07T19:18:25Z</time>
      </trkpt>
      <trkpt lat="59.9171547" lon="17.754738">
        <ele>45.7999</ele>
        <time>2014-07-07T19:18:26Z</time>
      </trkpt>
      <trkpt lat="59.917196" lon="17.7548483">
        <ele>45.7999</ele>
        <time>2014-07-07T19:18:27Z</time>
      </trkpt>
      <trkpt lat="59.9172374" lon="17.7549577">
        <ele>45.7999</ele>
        <time>2014-07-07T19:18:28Z</time>
      </trkpt>
      <trkpt lat="59.9172785" lon="17.7550667">
        <ele>45.7999</ele>
        <time>2014-07-07T19:18:29Z</time>
      </trkpt>
      <trkpt lat="59.9173199" lon="17.7551753">
        <ele>46.2806</ele>
        <time>2014-07-07T19:18:30Z</time>
      </trkpt>
      <trkpt lat="59.9173622" lon="17.755282">
        <ele>46.2806</ele>
        <time>2014-07-07T19:18:31Z</time>
      </trkpt>
      <trkpt lat="59.9174048" lon="17.7553877">
        <ele>46.2806</ele>
        <time>2014-07-07T19:18:32Z</time>
      </trkpt>
      <trkpt lat="59.9174477" lon="17.7554929">
        <ele>46.2806</ele>
        <time>2014-07-07T19:18:33Z</time>
      </trkpt>
      <trkpt lat="59.9174902" lon="17.7555969">
        <ele>46.2806</ele>
        <time>2014-07-07T19:18:34Z</time>
      </trkpt>
      <trkpt lat="59.9175325" lon="17.7556994">
        <ele>46.2806</ele>
        <time>2014-07-07T19:18:35Z</time>
      </trkpt>
      <trkpt lat="59.9175747" lon="17.7558009">
        <ele>46.7612</ele>
        <time>2014-07-07T19:18:36Z</time>
      </trkpt>
      <trkpt lat="59.9176168" lon="17.7559009">
        <ele>46.7612</ele>
        <time>2014-07-07T19:18:37Z</time>
      </trkpt>
      <trkpt lat="59.9176596" lon="17.7559994">
        <ele>46.7612</ele>
        <time>2014-07-07T19:18:38Z</time>
      </trkpt>
      <trkpt lat="59.9177029" lon="17.7560969">
        <ele>46.7612</ele>
        <time>2014-07-07T19:18:39Z</time>
      </trkpt>
      <trkpt lat="59.9177467" lon="17.7561933">
        <ele>46.7612</ele>
        <time>2014-07-07T19:18:40Z</time>
      </trkpt>
      <trkpt lat="59.9177908" lon="17.7562905">
        <ele>46.7612</ele>
        <time>2014-07-07T19:18:41Z</time>
      </trkpt>
      <trkpt lat="59.917835" lon="17.7563881">
        <ele>47.2418</ele>
        <time>2014-07-07T19:18:42Z</time>
      </trkpt>
      <trkpt lat="59.9178793" lon="17.7564859">
        <ele>47.2418</ele>
        <time>2014-07-07T19:18:43Z</time>
      </trkpt>
      <trkpt lat="59.9179243" lon="17.7565838">
        <ele>47.2418</ele>
        <time>2014-07-07T19:18:44Z</time>
      </trkpt>
      <trkpt lat="59.9179698" lon="17.7566812">
        <ele>47.2418</ele>
        <time>2014-07-07T19:18:45Z</time>
      </trkpt>
      <trkpt lat="59.9180155" lon="17.756778">
        <ele>47.2418</ele>
        <time>2014-07-07T19:18:46Z</time>
      </trkpt>
      <trkpt lat="59.9180616" lon="17.7568749">
        <ele>47.2418</ele>
        <time>2014-07-07T19:18:47Z</time>
      </trkpt>
      <trkpt lat="59.9181085" lon="17.7569718">
        <ele>47.2418</ele>
        <time>2014-07-07T19:18:48Z</time>
      </trkpt>
      <trkpt lat="59.9181555" lon="17.7570683">
        <ele>47.7225</ele>
        <time>2014-07-07T19:18:49Z</time>
      </trkpt>
      <trkpt lat="59.9182034" lon="17.7571636">
        <ele>47.7225</ele>
        <time>2014-07-07T19:18:50Z</time>
      </trkpt>
      <trkpt lat="59.9182516" lon="17.7572588">
        <ele>47.7225</ele>
        <time>2014-07-07T19:18:51Z</time>
      </trkpt>
      <trkpt lat="59.9182999" lon="17.7573535">
        <ele>47.7225</ele>
        <time>2014-07-07T19:18:52Z</time>
      </trkpt>
      <trkpt lat="59.9183482" lon="17.757447">
        <ele>47.7225</ele>
        <time>2014-07-07T19:18:53Z</time>
      </trkpt>
      <trkpt lat="59.9183968" lon="17.7575397">
        <ele>47.7225</ele>
        <time>2014-07-07T19:18:54Z</time>
      </trkpt>
      <trkpt lat="59.9184452" lon="17.7576318">
        <ele>48.2034</ele>
        <time>2014-07-07T19:18:55Z</time>
      </trkpt>
      <trkpt lat="59.9184939" lon="17.7577229">
        <ele>48.2034</ele>
        <time>2014-07-07T19:18:56Z</time>
      </trkpt>
      <trkpt lat="59.9185434" lon="17.7578121">
        <ele>48.2034</ele>
        <time>2014-07-07T19:18:57Z</time>
      </trkpt>
      <trkpt lat="59.9185932" lon="17.7579013">
        <ele>48.2034</ele>
        <time>2014-07-07T19:18:58Z</time>
      </trkpt>
      <trkpt lat="59.9186433" lon="17.7579908">
        <ele>48.2034</ele>
        <time>2014-07-07T19:18:59Z</time>
      </trkpt>
      <trkpt lat="59.9186939" lon="17.7580798">
        <ele>48.2034</ele>
        <time>2014-07-07T19:19:00Z</time>
      </trkpt>
      <trkpt lat="59.9187449" lon="17.7581683">
        <ele>48.2034</ele>
        <time>2014-07-07T19:19:01Z</time>
      </trkpt>
      <trkpt lat="59.9187966" lon="17.7582564">
        <ele>48.684</ele>
        <time>2014-07-07T19:19:02Z</time>
      </trkpt>
      <trkpt lat="59.9188484" lon="17.7583445">
        <ele>48.684</ele>
        <time>2014-07-07T19:19:03Z</time>
      </trkpt>
      <trkpt lat="59.9188999" lon="17.7584332">
        <ele>48.684</ele>
        <time>2014-07-07T19:19:04Z</time>
      </trkpt>
      <trkpt lat="59.9189524" lon="17.7585215">
        <ele>48.684</ele>
        <time>2014-07-07T19:19:05Z</time>
      </trkpt>
      <trkpt lat="59.9190054" lon="17.758608">
        <ele>48.684</ele>
        <time>2014-07-07T19:19:06Z</time>
      </trkpt>
      <trkpt lat="59.9190591" lon="17.7586946">
        <ele>48.684</ele>
        <time>2014-07-07T19:19:07Z</time>
      </trkpt>
      <trkpt lat="59.9191133" lon="17.7587812">
        <ele>48.684</ele>
        <time>2014-07-07T19:19:08Z</time>
      </trkpt>
      <trkpt lat="59.9191676" lon="17.7588691">
        <ele>49.1646</ele>
        <time>2014-07-07T19:19:09Z</time>
      </trkpt>
      <trkpt lat="59.9192212" lon="17.7589587">
        <ele>49.1646</ele>
        <time>2014-07-07T19:19:10Z</time>
      </trkpt>
      <trkpt lat="59.9192753" lon="17.7590488">
        <ele>49.1646</ele>
        <time>2014-07-07T19:19:11Z</time>
      </trkpt>
      <trkpt lat="59.91933" lon="17.7591396">
        <ele>49.1646</ele>
        <time>2014-07-07T19:19:12Z</time>
      </trkpt>
      <trkpt lat="59.9193847" lon="17.759231">
        <ele>49.1646</ele>
        <time>2014-07-07T19:19:13Z</time>
      </trkpt>
      <trkpt lat="59.91944" lon="17.759322">
        <ele>49.1646</ele>
        <time>2014-07-07T19:19:14Z</time>
      </trkpt>
      <trkpt lat="59.9194956" lon="17.7594131">
        <ele>49.1646</ele>
        <time>2014-07-07T19:19:15Z</time>
      </trkpt>
      <trkpt lat="59.9195518" lon="17.7595053">
        <ele>49.1646</ele>
        <time>2014-07-07T19:19:16Z</time>
      </trkpt>
      <trkpt lat="59.9196084" lon="17.7595985">
        <ele>49.1646</ele>
        <time>2014-07-07T19:19:17Z</time>
      </trkpt>
      <trkpt lat="59.9196654" lon="17.7596914">
        <ele>48.684</ele>
        <time>2014-07-07T19:19:18Z</time>
      </trkpt>
      <trkpt lat="59.9197234" lon="17.7597821">
        <ele>48.684</ele>
        <time>2014-07-07T19:19:19Z</time>
      </trkpt>
      <trkpt lat="59.9197814" lon="17.7598725">
        <ele>48.684</ele>
        <time>2014-07-07T19:19:20Z</time>
      </trkpt>
      <trkpt lat="59.9198387" lon="17.7599634">
        <ele>48.684</ele>
        <time>2014-07-07T19:19:21Z</time>
      </trkpt>
      <trkpt lat="59.9198954" lon="17.7600555">
        <ele>48.684</ele>
        <time>2014-07-07T19:19:22Z</time>
      </trkpt>
      <trkpt lat="59.9199513" lon="17.7601483">
        <ele>48.684</ele>
        <time>2014-07-07T19:19:23Z</time>
      </trkpt>
      <trkpt lat="59.9200074" lon="17.7602408">
        <ele>48.684</ele>
        <time>2014-07-07T19:19:24Z</time>
      </trkpt>
      <trkpt lat="59.9200638" lon="17.7603337">
        <ele>49.1646</ele>
        <time>2014-07-07T19:19:25Z</time>
      </trkpt>
      <trkpt lat="59.9201198" lon="17.7604268">
        <ele>49.1646</ele>
        <time>2014-07-07T19:19:26Z</time>
      </trkpt>
      <trkpt lat="59.9201761" lon="17.7605197">
        <ele>49.1646</ele>
        <time>2014-07-07T19:19:27Z</time>
      </trkpt>
      <trkpt lat="59.920231" lon="17.7606151">
        <ele>48.684</ele>
        <time>2014-07-07T19:19:28Z</time>
      </trkpt>
      <trkpt lat="59.9202869" lon="17.7607143">
        <ele>49.1646</ele>
        <time>2014-07-07T19:19:29Z</time>
      </trkpt>
      <trkpt lat="59.9203427" lon="17.7608143">
        <ele>48.684</ele>
        <time>2014-07-07T19:19:30Z</time>
      </trkpt>
      <trkpt lat="59.9203985" lon="17.7609153">
        <ele>48.684</ele>
        <time>2014-07-07T19:19:31Z</time>
      </trkpt>
      <trkpt lat="59.9204543" lon="17.7610186">
        <ele>48.684</ele>
        <time>2014-07-07T19:19:32Z</time>
      </trkpt>
      <trkpt lat="59.9205104" lon="17.7611246">
        <ele>48.684</ele>
        <time>2014-07-07T19:19:33Z</time>
      </trkpt>
      <trkpt lat="59.9205666" lon="17.7612319">
        <ele>48.684</ele>
        <time>2014-07-07T19:19:34Z</time>
      </trkpt>
      <trkpt lat="59.9206227" lon="17.7613411">
        <ele>48.684</ele>
        <time>2014-07-07T19:19:35Z</time>
      </trkpt>
      <trkpt lat="59.9206795" lon="17.7614515">
        <ele>48.684</ele>
        <time>2014-07-07T19:19:36Z</time>
      </trkpt>
      <trkpt lat="59.9207371" lon="17.7615638">
        <ele>48.684</ele>
        <time>2014-07-07T19:19:37Z</time>
      </trkpt>
      <trkpt lat="59.9207947" lon="17.7616803">
        <ele>48.2034</ele>
        <time>2014-07-07T19:19:38Z</time>
      </trkpt>
      <trkpt lat="59.9208526" lon="17.7618007">
        <ele>48.2034</ele>
        <time>2014-07-07T19:19:39Z</time>
      </trkpt>
      <trkpt lat="59.920911" lon="17.7619225">
        <ele>48.2034</ele>
        <time>2014-07-07T19:19:40Z</time>
      </trkpt>
      <trkpt lat="59.92097" lon="17.762046">
        <ele>48.2034</ele>
        <time>2014-07-07T19:19:41Z</time>
      </trkpt>
      <trkpt lat="59.9210298" lon="17.762173">
        <ele>47.7225</ele>
        <time>2014-07-07T19:19:42Z</time>
      </trkpt>
      <trkpt lat="59.921091" lon="17.7623043">
        <ele>47.7225</ele>
        <time>2014-07-07T19:19:43Z</time>
      </trkpt>
      <trkpt lat="59.9211544" lon="17.762439">
        <ele>47.7225</ele>
        <time>2014-07-07T19:19:44Z</time>
      </trkpt>
      <trkpt lat="59.9212193" lon="17.7625757">
        <ele>47.2418</ele>
        <time>2014-07-07T19:19:45Z</time>
      </trkpt>
      <trkpt lat="59.9212847" lon="17.762715">
        <ele>47.2418</ele>
        <time>2014-07-07T19:19:46Z</time>
      </trkpt>
      <trkpt lat="59.9213509" lon="17.7628583">
        <ele>47.2418</ele>
        <time>2014-07-07T19:19:47Z</time>
      </trkpt>
      <trkpt lat="59.9214182" lon="17.7630041">
        <ele>46.7612</ele>
        <time>2014-07-07T19:19:48Z</time>
      </trkpt>
      <trkpt lat="59.9214865" lon="17.7631522">
        <ele>46.7612</ele>
        <time>2014-07-07T19:19:49Z</time>
      </trkpt>
      <trkpt lat="59.9215552" lon="17.7633031">
        <ele>46.2806</ele>
        <time>2014-07-07T19:19:50Z</time>
      </trkpt>
      <trkpt lat="59.921624" lon="17.7634563">
        <ele>46.2806</ele>
        <time>2014-07-07T19:19:51Z</time>
      </trkpt>
      <trkpt lat="59.9216923" lon="17.7636125">
        <ele>45.7999</ele>
        <time>2014-07-07T19:19:52Z</time>
      </trkpt>
      <trkpt lat="59.9217606" lon="17.763771">
        <ele>45.7999</ele>
        <time>2014-07-07T19:19:53Z</time>
      </trkpt>
      <trkpt lat="59.9218289" lon="17.7639316">
        <ele>45.3192</ele>
        <time>2014-07-07T19:19:54Z</time>
      </trkpt>
      <trkpt lat="59.921897" lon="17.7640951">
        <ele>45.3192</ele>
        <time>2014-07-07T19:19:55Z</time>
      </trkpt>
      <trkpt lat="59.9219649" lon="17.7642613">
        <ele>44.8386</ele>
        <time>2014-07-07T19:19:56Z</time>
      </trkpt>
      <trkpt lat="59.9220322" lon="17.7644305">
        <ele>44.8386</ele>
        <time>2014-07-07T19:19:57Z</time>
      </trkpt>
      <trkpt lat="59.9220983" lon="17.7646033">
        <ele>44.358</ele>
        <time>2014-07-07T19:19:58Z</time>
      </trkpt>
      <trkpt lat="59.9221646" lon="17.7647786">
        <ele>44.358</ele>
        <time>2014-07-07T19:19:59Z</time>
      </trkpt>
      <trkpt lat="59.9222315" lon="17.7649559">
        <ele>44.358</ele>
        <time>2014-07-07T19:20:00Z</time>
      </trkpt>
      <trkpt lat="59.9222979" lon="17.7651358">
        <ele>43.8773</ele>
        <time>2014-07-07T19:20:01Z</time>
      </trkpt>
      <trkpt lat="59.9223635" lon="17.765318">
        <ele>43.8773</ele>
        <time>2014-07-07T19:20:02Z</time>
      </trkpt>
      <trkpt lat="59.9224283" lon="17.765501">
        <ele>43.3966</ele>
        <time>2014-07-07T19:20:03Z</time>
      </trkpt>
      <trkpt lat="59.9224922" lon="17.7656848">
        <ele>43.3966</ele>
        <time>2014-07-07T19:20:04Z</time>
      </trkpt>
      <trkpt lat="59.9225554" lon="17.7658693">
        <ele>43.3966</ele>
        <time>2014-07-07T19:20:05Z</time>
      </trkpt>
      <trkpt lat="59.9226183" lon="17.7660546">
        <ele>42.916</ele>
        <time>2014-07-07T19:20:06Z</time>
      </trkpt>
      <trkpt lat="59.9226805" lon="17.7662401">
        <ele>42.916</ele>
        <time>2014-07-07T19:20:07Z</time>
      </trkpt>
      <trkpt lat="59.9227407" lon="17.7664255">
        <ele>42.916</ele>
        <time>2014-07-07T19:20:08Z</time>
      </trkpt>
      <trkpt lat="59.9227989" lon="17.76661">
        <ele>42.916</ele>
        <time>2014-07-07T19:20:09Z</time>
      </trkpt>
      <trkpt lat="59.9228561" lon="17.7667934">
        <ele>42.916</ele>
        <time>2014-07-07T19:20:10Z</time>
      </trkpt>
      <trkpt lat="59.9229117" lon="17.7669762">
        <ele>42.916</ele>
        <time>2014-07-07T19:20:11Z</time>
      </trkpt>
      <trkpt lat="59.9229661" lon="17.7671576">
        <ele>42.916</ele>
        <time>2014-07-07T19:20:12Z</time>
      </trkpt>
      <trkpt lat="59.92302" lon="17.7673365">
        <ele>42.916</ele>
        <time>2014-07-07T19:20:13Z</time>
      </trkpt>
      <trkpt lat="59.9230729" lon="17.7675137">
        <ele>42.916</ele>
        <time>2014-07-07T19:20:14Z</time>
      </trkpt>
      <trkpt lat="59.9231231" lon="17.7676901">
        <ele>42.4354</ele>
        <time>2014-07-07T19:20:15Z</time>
      </trkpt>
      <trkpt lat="59.9231719" lon="17.7678661">
        <ele>42.4354</ele>
        <time>2014-07-07T19:20:16Z</time>
      </trkpt>
      <trkpt lat="59.9232203" lon="17.7680422">
        <ele>42.4354</ele>
        <time>2014-07-07T19:20:17Z</time>
      </trkpt>
      <trkpt lat="59.9232684" lon="17.7682184">
        <ele>41.9547</ele>
        <time>2014-07-07T19:20:18Z</time>
      </trkpt>
      <trkpt lat="59.9233158" lon="17.768395">
        <ele>41.9547</ele>
        <time>2014-07-07T19:20:19Z</time>
      </trkpt>
      <trkpt lat="59.9233619" lon="17.7685726">
        <ele>41.9547</ele>
        <time>2014-07-07T19:20:20Z</time>
      </trkpt>
      <trkpt lat="59.9234071" lon="17.7687514">
        <ele>41.9547</ele>
        <time>2014-07-07T19:20:21Z</time>
      </trkpt>
      <trkpt lat="59.9234526" lon="17.7689309">
        <ele>41.474</ele>
        <time>2014-07-07T19:20:22Z</time>
      </trkpt>
      <trkpt lat="59.9234979" lon="17.7691109">
        <ele>41.474</ele>
        <time>2014-07-07T19:20:23Z</time>
      </trkpt>
      <trkpt lat="59.9235426" lon="17.7692912">
        <ele>41.474</ele>
        <time>2014-07-07T19:20:24Z</time>
      </trkpt>
      <trkpt lat="59.9235862" lon="17.7694709">
        <ele>40.9934</ele>
        <time>2014-07-07T19:20:25Z</time>
      </trkpt>
      <trkpt lat="59.9236287" lon="17.7696501">
        <ele>40.9934</ele>
        <time>2014-07-07T19:20:26Z</time>
      </trkpt>
      <trkpt lat="59.9236706" lon="17.7698297">
        <ele>40.5128</ele>
        <time>2014-07-07T19:20:27Z</time>
      </trkpt>
      <trkpt lat="59.923711" lon="17.7700099">
        <ele>40.5128</ele>
        <time>2014-07-07T19:20:28Z</time>
      </trkpt>
      <trkpt lat="59.9237509" lon="17.7701904">
        <ele>40.0321</ele>
        <time>2014-07-07T19:20:29Z</time>
      </trkpt>
      <trkpt lat="59.9237909" lon="17.7703708">
        <ele>39.5513</ele>
        <time>2014-07-07T19:20:30Z</time>
      </trkpt>
      <trkpt lat="59.9238303" lon="17.7705518">
        <ele>39.5513</ele>
        <time>2014-07-07T19:20:31Z</time>
      </trkpt>
      <trkpt lat="59.9238691" lon="17.7707347">
        <ele>39.0707</ele>
        <time>2014-07-07T19:20:32Z</time>
      </trkpt>
      <trkpt lat="59.9239079" lon="17.7709211">
        <ele>38.5901</ele>
        <time>2014-07-07T19:20:33Z</time>
      </trkpt>
      <trkpt lat="59.923947" lon="17.7711109">
        <ele>38.5901</ele>
        <time>2014-07-07T19:20:34Z</time>
      </trkpt>
      <trkpt lat="59.9239859" lon="17.7713047">
        <ele>38.1094</ele>
        <time>2014-07-07T19:20:35Z</time>
      </trkpt>
      <trkpt lat="59.9240248" lon="17.7715032">
        <ele>37.6287</ele>
        <time>2014-07-07T19:20:36Z</time>
      </trkpt>
      <trkpt lat="59.9240634" lon="17.7717073">
        <ele>37.1481</ele>
        <time>2014-07-07T19:20:37Z</time>
      </trkpt>
      <trkpt lat="59.9241017" lon="17.7719169">
        <ele>36.6675</ele>
        <time>2014-07-07T19:20:38Z</time>
      </trkpt>
      <trkpt lat="59.9241404" lon="17.7721314">
        <ele>36.1868</ele>
        <time>2014-07-07T19:20:39Z</time>
      </trkpt>
      <trkpt lat="59.9241794" lon="17.7723513">
        <ele>35.7061</ele>
        <time>2014-07-07T19:20:40Z</time>
      </trkpt>
      <trkpt lat="59.9242182" lon="17.7725728">
        <ele>35.2255</ele>
        <time>2014-07-07T19:20:41Z</time>
      </trkpt>
      <trkpt lat="59.9242555" lon="17.7727929">
        <ele>34.7449</ele>
        <time>2014-07-07T19:20:42Z</time>
      </trkpt>
      <trkpt lat="59.9242908" lon="17.773011">
        <ele>34.2642</ele>
        <time>2014-07-07T19:20:43Z</time>
      </trkpt>
      <trkpt lat="59.9243242" lon="17.7732261">
        <ele>33.7834</ele>
        <time>2014-07-07T19:20:44Z</time>
      </trkpt>
      <trkpt lat="59.9243564" lon="17.7734378">
        <ele>33.7834</ele>
        <time>2014-07-07T19:20:45Z</time>
      </trkpt>
      <trkpt lat="59.9243875" lon="17.7736458">
        <ele>33.3029</ele>
        <time>2014-07-07T19:20:46Z</time>
      </trkpt>
      <trkpt lat="59.9244174" lon="17.7738497">
        <ele>33.3029</ele>
        <time>2014-07-07T19:20:47Z</time>
      </trkpt>
      <trkpt lat="59.9244443" lon="17.7740504">
        <ele>32.8223</ele>
        <time>2014-07-07T19:20:48Z</time>
      </trkpt>
      <trkpt lat="59.9244687" lon="17.774247">
        <ele>32.8223</ele>
        <time>2014-07-07T19:20:49Z</time>
      </trkpt>
      <trkpt lat="59.9244927" lon="17.774439">
        <ele>32.8223</ele>
        <time>2014-07-07T19:20:50Z</time>
      </trkpt>
      <trkpt lat="59.9245163" lon="17.7746277">
        <ele>32.3416</ele>
        <time>2014-07-07T19:20:51Z</time>
      </trkpt>
      <trkpt lat="59.9245379" lon="17.7748145">
        <ele>32.3416</ele>
        <time>2014-07-07T19:20:52Z</time>
      </trkpt>
      <trkpt lat="59.924558" lon="17.774999">
        <ele>32.3416</ele>
        <time>2014-07-07T19:20:53Z</time>
      </trkpt>
      <trkpt lat="59.9245773" lon="17.7751804">
        <ele>32.3416</ele>
        <time>2014-07-07T19:20:54Z</time>
      </trkpt>
      <trkpt lat="59.9245962" lon="17.7753594">
        <ele>32.3416</ele>
        <time>2014-07-07T19:20:55Z</time>
      </trkpt>
      <trkpt lat="59.9246143" lon="17.7755363">
        <ele>32.3416</ele>
        <time>2014-07-07T19:20:56Z</time>
      </trkpt>
      <trkpt lat="59.9246322" lon="17.7757117">
        <ele>32.3416</ele>
        <time>2014-07-07T19:20:57Z</time>
      </trkpt>
      <trkpt lat="59.9246497" lon="17.7758862">
        <ele>32.3416</ele>
        <time>2014-07-07T19:20:58Z</time>
      </trkpt>
      <trkpt lat="59.9246662" lon="17.7760595">
        <ele>32.3416</ele>
        <time>2014-07-07T19:20:59Z</time>
      </trkpt>
      <trkpt lat="59.9246823" lon="17.7762314">
        <ele>32.3416</ele>
        <time>2014-07-07T19:21:00Z</time>
      </trkpt>
      <trkpt lat="59.9246978" lon="17.7764015">
        <ele>32.3416</ele>
        <time>2014-07-07T19:21:01Z</time>
      </trkpt>
      <trkpt lat="59.9247123" lon="17.7765702">
        <ele>32.8223</ele>
        <time>2014-07-07T19:21:02Z</time>
      </trkpt>
      <trkpt lat="59.9247258" lon="17.776737">
        <ele>32.8223</ele>
        <time>2014-07-07T19:21:03Z</time>
      </trkpt>
      <trkpt lat="59.9247389" lon="17.7769017">
        <ele>32.8223</ele>
        <time>2014-07-07T19:21:04Z</time>
      </trkpt>
      <trkpt lat="59.9247523" lon="17.7770648">
        <ele>32.8223</ele>
        <time>2014-07-07T19:21:05Z</time>
      </trkpt>
      <trkpt lat="59.9247662" lon="17.7772269">
        <ele>32.8223</ele>
        <time>2014-07-07T19:21:06Z</time>
      </trkpt>
      <trkpt lat="59.9247807" lon="17.7773882">
        <ele>32.8223</ele>
        <time>2014-07-07T19:21:07Z</time>
      </trkpt>
      <trkpt lat="59.9247957" lon="17.7775487">
        <ele>32.8223</ele>
        <time>2014-07-07T19:21:08Z</time>
      </trkpt>
      <trkpt lat="59.9248108" lon="17.7777086">
        <ele>32.8223</ele>
        <time>2014-07-07T19:21:09Z</time>
      </trkpt>
      <trkpt lat="59.9248248" lon="17.7778672">
        <ele>32.8223</ele>
        <time>2014-07-07T19:21:10Z</time>
      </trkpt>
      <trkpt lat="59.9248377" lon="17.7780248">
        <ele>32.8223</ele>
        <time>2014-07-07T19:21:11Z</time>
      </trkpt>
      <trkpt lat="59.9248496" lon="17.7781818">
        <ele>32.8223</ele>
        <time>2014-07-07T19:21:12Z</time>
      </trkpt>
      <trkpt lat="59.9248605" lon="17.7783387">
        <ele>32.8223</ele>
        <time>2014-07-07T19:21:13Z</time>
      </trkpt>
      <trkpt lat="59.9248702" lon="17.7784957">
        <ele>32.8223</ele>
        <time>2014-07-07T19:21:14Z</time>
      </trkpt>
      <trkpt lat="59.924879" lon="17.7786521">
        <ele>32.8223</ele>
        <time>2014-07-07T19:21:15Z</time>
      </trkpt>
      <trkpt lat="59.9248869" lon="17.7788086">
        <ele>32.8223</ele>
        <time>2014-07-07T19:21:16Z</time>
      </trkpt>
      <trkpt lat="59.924895" lon="17.7789655">
        <ele>32.8223</ele>
        <time>2014-07-07T19:21:17Z</time>
      </trkpt>
      <trkpt lat="59.9249036" lon="17.779122">
        <ele>32.8223</ele>
        <time>2014-07-07T19:21:18Z</time>
      </trkpt>
      <trkpt lat="59.9249128" lon="17.7792785">
        <ele>32.8223</ele>
        <time>2014-07-07T19:21:19Z</time>
      </trkpt>
      <trkpt lat="59.9249221" lon="17.7794356">
        <ele>32.8223</ele>
        <time>2014-07-07T19:21:20Z</time>
      </trkpt>
      <trkpt lat="59.9249325" lon="17.7795932">
        <ele>32.8223</ele>
        <time>2014-07-07T19:21:21Z</time>
      </trkpt>
      <trkpt lat="59.9249435" lon="17.7797511">
        <ele>32.8223</ele>
        <time>2014-07-07T19:21:22Z</time>
      </trkpt>
      <trkpt lat="59.9249557" lon="17.7799088">
        <ele>32.8223</ele>
        <time>2014-07-07T19:21:23Z</time>
      </trkpt>
      <trkpt lat="59.9249677" lon="17.7800663">
        <ele>32.8223</ele>
        <time>2014-07-07T19:21:24Z</time>
      </trkpt>
      <trkpt lat="59.92498" lon="17.7802232">
        <ele>32.8223</ele>
        <time>2014-07-07T19:21:25Z</time>
      </trkpt>
      <trkpt lat="59.9249921" lon="17.780379">
        <ele>32.8223</ele>
        <time>2014-07-07T19:21:26Z</time>
      </trkpt>
      <trkpt lat="59.925005" lon="17.7805335">
        <ele>32.8223</ele>
        <time>2014-07-07T19:21:27Z</time>
      </trkpt>
      <trkpt lat="59.9250188" lon="17.7806877">
        <ele>32.8223</ele>
        <time>2014-07-07T19:21:28Z</time>
      </trkpt>
      <trkpt lat="59.9250335" lon="17.780841">
        <ele>32.8223</ele>
        <time>2014-07-07T19:21:29Z</time>
      </trkpt>
      <trkpt lat="59.925049" lon="17.7809934">
        <ele>32.8223</ele>
        <time>2014-07-07T19:21:30Z</time>
      </trkpt>
      <trkpt lat="59.9250649" lon="17.7811446">
        <ele>32.8223</ele>
        <time>2014-07-07T19:21:31Z</time>
      </trkpt>
      <trkpt lat="59.9250808" lon="17.781295">
        <ele>32.8223</ele>
        <time>2014-07-07T19:21:32Z</time>
      </trkpt>
      <trkpt lat="59.9250978" lon="17.781445">
        <ele>32.8223</ele>
        <time>2014-07-07T19:21:33Z</time>
      </trkpt>
      <trkpt lat="59.9251153" lon="17.7815937">
        <ele>32.8223</ele>
        <time>2014-07-07T19:21:34Z</time>
      </trkpt>
      <trkpt lat="59.9251323" lon="17.7817406">
        <ele>32.8223</ele>
        <time>2014-07-07T19:21:35Z</time>
      </trkpt>
      <trkpt lat="59.9251496" lon="17.7818856">
        <ele>32.8223</ele>
        <time>2014-07-07T19:21:36Z</time>
      </trkpt>
      <trkpt lat="59.9251676" lon="17.7820291">
        <ele>32.8223</ele>
        <time>2014-07-07T19:21:37Z</time>
      </trkpt>
      <trkpt lat="59.9251859" lon="17.7821718">
        <ele>32.8223</ele>
        <time>2014-07-07T19:21:38Z</time>
      </trkpt>
      <trkpt lat="59.9252055" lon="17.7823129">
        <ele>32.8223</ele>
        <time>2014-07-07T19:21:39Z</time>
      </trkpt>
      <trkpt lat="59.925226" lon="17.7824527">
        <ele>32.8223</ele>
        <time>2014-07-07T19:21:40Z</time>
      </trkpt>
      <trkpt lat="59.9252463" lon="17.7825916">
        <ele>32.8223</ele>
        <time>2014-07-07T19:21:41Z</time>
      </trkpt>
      <trkpt lat="59.9252665" lon="17.7827295">
        <ele>32.8223</ele>
        <time>2014-07-07T19:21:42Z</time>
      </trkpt>
      <trkpt lat="59.9252866" lon="17.7828667">
        <ele>32.8223</ele>
        <time>2014-07-07T19:21:43Z</time>
      </trkpt>
      <trkpt lat="59.9253071" lon="17.783003">
        <ele>32.8223</ele>
        <time>2014-07-07T19:21:44Z</time>
      </trkpt>
      <trkpt lat="59.9253284" lon="17.7831369">
        <ele>32.8223</ele>
        <time>2014-07-07T19:21:45Z</time>
      </trkpt>
      <trkpt lat="59.9253496" lon="17.7832686">
        <ele>32.8223</ele>
        <time>2014-07-07T19:21:46Z</time>
      </trkpt>
      <trkpt lat="59.925371" lon="17.7833989">
        <ele>32.8223</ele>
        <time>2014-07-07T19:21:47Z</time>
      </trkpt>
      <trkpt lat="59.925393" lon="17.7835276">
        <ele>32.8223</ele>
        <time>2014-07-07T19:21:48Z</time>
      </trkpt>
      <trkpt lat="59.9254153" lon="17.7836545">
        <ele>32.8223</ele>
        <time>2014-07-07T19:21:49Z</time>
      </trkpt>
      <trkpt lat="59.9254373" lon="17.7837799">
        <ele>32.8223</ele>
        <time>2014-07-07T19:21:50Z</time>
      </trkpt>
      <trkpt lat="59.9254588" lon="17.7839032">
        <ele>32.8223</ele>
        <time>2014-07-07T19:21:51Z</time>
      </trkpt>
      <trkpt lat="59.9254805" lon="17.7840229">
        <ele>32.8223</ele>
        <time>2014-07-07T19:21:52Z</time>
      </trkpt>
      <trkpt lat="59.9255018" lon="17.7841379">
        <ele>33.3029</ele>
        <time>2014-07-07T19:21:53Z</time>
      </trkpt>
      <trkpt lat="59.9255225" lon="17.7842498">
        <ele>33.3029</ele>
        <time>2014-07-07T19:21:54Z</time>
      </trkpt>
      <trkpt lat="59.9255438" lon="17.7843612">
        <ele>33.3029</ele>
        <time>2014-07-07T19:21:55Z</time>
      </trkpt>
      <trkpt lat="59.925566" lon="17.784474">
        <ele>33.3029</ele>
        <time>2014-07-07T19:21:56Z</time>
      </trkpt>
      <trkpt lat="59.9255889" lon="17.7845879">
        <ele>33.3029</ele>
        <time>2014-07-07T19:21:57Z</time>
      </trkpt>
      <trkpt lat="59.9256122" lon="17.7847028">
        <ele>33.3029</ele>
        <time>2014-07-07T19:21:58Z</time>
      </trkpt>
      <trkpt lat="59.9256354" lon="17.7848189">
        <ele>33.3029</ele>
        <time>2014-07-07T19:21:59Z</time>
      </trkpt>
      <trkpt lat="59.9256591" lon="17.7849362">
        <ele>33.3029</ele>
        <time>2014-07-07T19:22:00Z</time>
      </trkpt>
      <trkpt lat="59.9256831" lon="17.7850552">
        <ele>33.3029</ele>
        <time>2014-07-07T19:22:01Z</time>
      </trkpt>
      <trkpt lat="59.9257069" lon="17.7851752">
        <ele>33.3029</ele>
        <time>2014-07-07T19:22:02Z</time>
      </trkpt>
      <trkpt lat="59.9257313" lon="17.7852956">
        <ele>33.3029</ele>
        <time>2014-07-07T19:22:03Z</time>
      </trkpt>
      <trkpt lat="59.9257565" lon="17.7854169">
        <ele>33.7834</ele>
        <time>2014-07-07T19:22:04Z</time>
      </trkpt>
      <trkpt lat="59.9257813" lon="17.7855406">
        <ele>33.7834</ele>
        <time>2014-07-07T19:22:05Z</time>
      </trkpt>
      <trkpt lat="59.9258059" lon="17.7856664">
        <ele>33.7834</ele>
        <time>2014-07-07T19:22:06Z</time>
      </trkpt>
      <trkpt lat="59.9258307" lon="17.7857937">
        <ele>33.7834</ele>
        <time>2014-07-07T19:22:07Z</time>
      </trkpt>
      <trkpt lat="59.9258556" lon="17.7859222">
        <ele>33.7834</ele>
        <time>2014-07-07T19:22:08Z</time>
      </trkpt>
      <trkpt lat="59.9258809" lon="17.7860519">
        <ele>33.7834</ele>
        <time>2014-07-07T19:22:09Z</time>
      </trkpt>
      <trkpt lat="59.9259062" lon="17.7861829">
        <ele>33.3029</ele>
        <time>2014-07-07T19:22:10Z</time>
      </trkpt>
      <trkpt lat="59.9259318" lon="17.7863151">
        <ele>33.3029</ele>
        <time>2014-07-07T19:22:11Z</time>
      </trkpt>
      <trkpt lat="59.925958" lon="17.7864476">
        <ele>33.3029</ele>
        <time>2014-07-07T19:22:12Z</time>
      </trkpt>
      <trkpt lat="59.9259841" lon="17.7865792">
        <ele>33.3029</ele>
        <time>2014-07-07T19:22:13Z</time>
      </trkpt>
      <trkpt lat="59.9260104" lon="17.7867104">
        <ele>33.3029</ele>
        <time>2014-07-07T19:22:14Z</time>
      </trkpt>
      <trkpt lat="59.9260363" lon="17.7868418">
        <ele>33.3029</ele>
        <time>2014-07-07T19:22:15Z</time>
      </trkpt>
      <trkpt lat="59.9260615" lon="17.7869735">
        <ele>33.3029</ele>
        <time>2014-07-07T19:22:16Z</time>
      </trkpt>
      <trkpt lat="59.9260874" lon="17.7871048">
        <ele>33.3029</ele>
        <time>2014-07-07T19:22:17Z</time>
      </trkpt>
      <trkpt lat="59.9261139" lon="17.7872355">
        <ele>33.3029</ele>
        <time>2014-07-07T19:22:18Z</time>
      </trkpt>
      <trkpt lat="59.92614" lon="17.7873666">
        <ele>33.3029</ele>
        <time>2014-07-07T19:22:19Z</time>
      </trkpt>
      <trkpt lat="59.9261659" lon="17.7874986">
        <ele>33.3029</ele>
        <time>2014-07-07T19:22:20Z</time>
      </trkpt>
      <trkpt lat="59.9261918" lon="17.7876312">
        <ele>32.8223</ele>
        <time>2014-07-07T19:22:21Z</time>
      </trkpt>
      <trkpt lat="59.9262177" lon="17.787764">
        <ele>32.8223</ele>
        <time>2014-07-07T19:22:22Z</time>
      </trkpt>
      <trkpt lat="59.926244" lon="17.7878979">
        <ele>32.8223</ele>
        <time>2014-07-07T19:22:23Z</time>
      </trkpt>
      <trkpt lat="59.9262708" lon="17.7880321">
        <ele>32.8223</ele>
        <time>2014-07-07T19:22:24Z</time>
      </trkpt>
      <trkpt lat="59.9262975" lon="17.7881669">
        <ele>32.8223</ele>
        <time>2014-07-07T19:22:25Z</time>
      </trkpt>
      <trkpt lat="59.9263244" lon="17.7883026">
        <ele>32.3416</ele>
        <time>2014-07-07T19:22:26Z</time>
      </trkpt>
      <trkpt lat="59.9263509" lon="17.78844">
        <ele>32.3416</ele>
        <time>2014-07-07T19:22:27Z</time>
      </trkpt>
      <trkpt lat="59.9263773" lon="17.7885772">
        <ele>32.3416</ele>
        <time>2014-07-07T19:22:28Z</time>
      </trkpt>
      <trkpt lat="59.926404" lon="17.7887123">
        <ele>32.3416</ele>
        <time>2014-07-07T19:22:29Z</time>
      </trkpt>
      <trkpt lat="59.92643" lon="17.7888453">
        <ele>32.3416</ele>
        <time>2014-07-07T19:22:30Z</time>
      </trkpt>
      <trkpt lat="59.9264549" lon="17.7889755">
        <ele>31.8607</ele>
        <time>2014-07-07T19:22:31Z</time>
      </trkpt>
      <trkpt lat="59.9264801" lon="17.7891044">
        <ele>31.8607</ele>
        <time>2014-07-07T19:22:32Z</time>
      </trkpt>
      <trkpt lat="59.9265055" lon="17.7892336">
        <ele>31.8607</ele>
        <time>2014-07-07T19:22:33Z</time>
      </trkpt>
      <trkpt lat="59.9265311" lon="17.7893635">
        <ele>31.8607</ele>
        <time>2014-07-07T19:22:34Z</time>
      </trkpt>
      <trkpt lat="59.926557" lon="17.7894939">
        <ele>31.8607</ele>
        <time>2014-07-07T19:22:35Z</time>
      </trkpt>
      <trkpt lat="59.9265833" lon="17.7896246">
        <ele>31.3801</ele>
        <time>2014-07-07T19:22:36Z</time>
      </trkpt>
      <trkpt lat="59.9266093" lon="17.7897568">
        <ele>31.3801</ele>
        <time>2014-07-07T19:22:37Z</time>
      </trkpt>
      <trkpt lat="59.9266352" lon="17.7898902">
        <ele>31.3801</ele>
        <time>2014-07-07T19:22:38Z</time>
      </trkpt>
      <trkpt lat="59.9266601" lon="17.7900225">
        <ele>31.3801</ele>
        <time>2014-07-07T19:22:39Z</time>
      </trkpt>
      <trkpt lat="59.9266852" lon="17.7901546">
        <ele>31.3801</ele>
        <time>2014-07-07T19:22:40Z</time>
      </trkpt>
      <trkpt lat="59.9267123" lon="17.7902862">
        <ele>31.3801</ele>
        <time>2014-07-07T19:22:41Z</time>
      </trkpt>
      <trkpt lat="59.9267399" lon="17.790418">
        <ele>31.3801</ele>
        <time>2014-07-07T19:22:42Z</time>
      </trkpt>
      <trkpt lat="59.9267667" lon="17.7905503">
        <ele>31.3801</ele>
        <time>2014-07-07T19:22:43Z</time>
      </trkpt>
      <trkpt lat="59.9267927" lon="17.7906825">
        <ele>31.3801</ele>
        <time>2014-07-07T19:22:44Z</time>
      </trkpt>
      <trkpt lat="59.9268184" lon="17.7908149">
        <ele>31.3801</ele>
        <time>2014-07-07T19:22:45Z</time>
      </trkpt>
      <trkpt lat="59.9268434" lon="17.7909464">
        <ele>31.3801</ele>
        <time>2014-07-07T19:22:46Z</time>
      </trkpt>
      <trkpt lat="59.9268687" lon="17.7910761">
        <ele>31.3801</ele>
        <time>2014-07-07T19:22:47Z</time>
      </trkpt>
      <trkpt lat="59.926894" lon="17.7912043">
        <ele>31.8607</ele>
        <time>2014-07-07T19:22:48Z</time>
      </trkpt>
      <trkpt lat="59.9269191" lon="17.7913313">
        <ele>31.8607</ele>
        <time>2014-07-07T19:22:49Z</time>
      </trkpt>
      <trkpt lat="59.9269443" lon="17.7914568">
        <ele>31.8607</ele>
        <time>2014-07-07T19:22:50Z</time>
      </trkpt>
      <trkpt lat="59.9269687" lon="17.7915805">
        <ele>32.3416</ele>
        <time>2014-07-07T19:22:51Z</time>
      </trkpt>
      <trkpt lat="59.9269927" lon="17.7917023">
        <ele>32.3416</ele>
        <time>2014-07-07T19:22:52Z</time>
      </trkpt>
      <trkpt lat="59.9270168" lon="17.791822">
        <ele>32.3416</ele>
        <time>2014-07-07T19:22:53Z</time>
      </trkpt>
      <trkpt lat="59.9270403" lon="17.7919402">
        <ele>32.8223</ele>
        <time>2014-07-07T19:22:54Z</time>
      </trkpt>
      <trkpt lat="59.9270631" lon="17.7920571">
        <ele>32.8223</ele>
        <time>2014-07-07T19:22:55Z</time>
      </trkpt>
      <trkpt lat="59.9270859" lon="17.7921722">
        <ele>33.3029</ele>
        <time>2014-07-07T19:22:56Z</time>
      </trkpt>
      <trkpt lat="59.9271086" lon="17.7922852">
        <ele>33.3029</ele>
        <time>2014-07-07T19:22:57Z</time>
      </trkpt>
      <trkpt lat="59.9271312" lon="17.792397">
        <ele>33.7834</ele>
        <time>2014-07-07T19:22:58Z</time>
      </trkpt>
      <trkpt lat="59.9271548" lon="17.7925084">
        <ele>33.7834</ele>
        <time>2014-07-07T19:22:59Z</time>
      </trkpt>
      <trkpt lat="59.927179" lon="17.7926202">
        <ele>33.7834</ele>
        <time>2014-07-07T19:23:00Z</time>
      </trkpt>
      <trkpt lat="59.9272023" lon="17.7927291">
        <ele>34.2642</ele>
        <time>2014-07-07T19:23:01Z</time>
      </trkpt>
      <trkpt lat="59.9272257" lon="17.7928363">
        <ele>34.2642</ele>
        <time>2014-07-07T19:23:02Z</time>
      </trkpt>
      <trkpt lat="59.9272506" lon="17.7929446">
        <ele>34.7449</ele>
        <time>2014-07-07T19:23:03Z</time>
      </trkpt>
      <trkpt lat="59.9272759" lon="17.7930536">
        <ele>34.7449</ele>
        <time>2014-07-07T19:23:04Z</time>
      </trkpt>
      <trkpt lat="59.9273023" lon="17.7931631">
        <ele>35.2255</ele>
        <time>2014-07-07T19:23:05Z</time>
      </trkpt>
      <trkpt lat="59.9273292" lon="17.7932736">
        <ele>35.2255</ele>
        <time>2014-07-07T19:23:06Z</time>
      </trkpt>
      <trkpt lat="59.9273562" lon="17.7933857">
        <ele>35.7061</ele>
        <time>2014-07-07T19:23:07Z</time>
      </trkpt>
      <trkpt lat="59.9273837" lon="17.7934967">
        <ele>35.7061</ele>
        <time>2014-07-07T19:23:08Z</time>
      </trkpt>
      <trkpt lat="59.9274118" lon="17.793606">
        <ele>36.1868</ele>
        <time>2014-07-07T19:23:09Z</time>
      </trkpt>
      <trkpt lat="59.9274401" lon="17.7937157">
        <ele>36.6675</ele>
        <time>2014-07-07T19:23:10Z</time>
      </trkpt>
      <trkpt lat="59.9274688" lon="17.7938261">
        <ele>36.6675</ele>
        <time>2014-07-07T19:23:11Z</time>
      </trkpt>
      <trkpt lat="59.9274986" lon="17.7939371">
        <ele>37.1481</ele>
        <time>2014-07-07T19:23:12Z</time>
      </trkpt>
      <trkpt lat="59.9275288" lon="17.7940489">
        <ele>37.1481</ele>
        <time>2014-07-07T19:23:13Z</time>
      </trkpt>
      <trkpt lat="59.9275598" lon="17.7941616">
        <ele>37.6287</ele>
        <time>2014-07-07T19:23:14Z</time>
      </trkpt>
      <trkpt lat="59.9275914" lon="17.7942753">
        <ele>37.6287</ele>
        <time>2014-07-07T19:23:15Z</time>
      </trkpt>
      <trkpt lat="59.9276236" lon="17.7943902">
        <ele>38.1094</ele>
        <time>2014-07-07T19:23:16Z</time>
      </trkpt>
      <trkpt lat="59.9276562" lon="17.7945052">
        <ele>38.1094</ele>
        <time>2014-07-07T19:23:17Z</time>
      </trkpt>
      <trkpt lat="59.9276894" lon="17.7946211">
        <ele>38.5901</ele>
        <time>2014-07-07T19:23:18Z</time>
      </trkpt>
      <trkpt lat="59.9277247" lon="17.7947374">
        <ele>38.5901</ele>
        <time>2014-07-07T19:23:19Z</time>
      </trkpt>
      <trkpt lat="59.9277613" lon="17.7948534">
        <ele>39.0707</ele>
        <time>2014-07-07T19:23:20Z</time>
      </trkpt>
      <trkpt lat="59.927798" lon="17.794971">
        <ele>39.0707</ele>
        <time>2014-07-07T19:23:21Z</time>
      </trkpt>
      <trkpt lat="59.9278326" lon="17.7950844">
        <ele>39.5513</ele>
        <time>2014-07-07T19:23:22Z</time>
      </trkpt>
      <trkpt lat="59.9278668" lon="17.7951906">
        <ele>39.5513</ele>
        <time>2014-07-07T19:23:23Z</time>
      </trkpt>
      <trkpt lat="59.9278996" lon="17.7952943">
        <ele>39.5513</ele>
        <time>2014-07-07T19:23:24Z</time>
      </trkpt>
      <trkpt lat="59.9279313" lon="17.7953948">
        <ele>39.5513</ele>
        <time>2014-07-07T19:23:25Z</time>
      </trkpt>
      <trkpt lat="59.9279627" lon="17.795492">
        <ele>39.5513</ele>
        <time>2014-07-07T19:23:26Z</time>
      </trkpt>
      <trkpt lat="59.9279939" lon="17.7955859">
        <ele>39.5513</ele>
        <time>2014-07-07T19:23:27Z</time>
      </trkpt>
      <trkpt lat="59.9280261" lon="17.7956775">
        <ele>40.0321</ele>
        <time>2014-07-07T19:23:28Z</time>
      </trkpt>
      <trkpt lat="59.9280581" lon="17.7957676">
        <ele>40.0321</ele>
        <time>2014-07-07T19:23:29Z</time>
      </trkpt>
      <trkpt lat="59.9280896" lon="17.7958564">
        <ele>40.0321</ele>
        <time>2014-07-07T19:23:30Z</time>
      </trkpt>
      <trkpt lat="59.9281204" lon="17.7959434">
        <ele>40.5128</ele>
        <time>2014-07-07T19:23:31Z</time>
      </trkpt>
      <trkpt lat="59.9281519" lon="17.7960282">
        <ele>40.5128</ele>
        <time>2014-07-07T19:23:32Z</time>
      </trkpt>
      <trkpt lat="59.9281835" lon="17.7961123">
        <ele>40.5128</ele>
        <time>2014-07-07T19:23:33Z</time>
      </trkpt>
      <trkpt lat="59.9282149" lon="17.7961969">
        <ele>40.5128</ele>
        <time>2014-07-07T19:23:34Z</time>
      </trkpt>
      <trkpt lat="59.9282466" lon="17.7962813">
        <ele>40.9934</ele>
        <time>2014-07-07T19:23:35Z</time>
      </trkpt>
      <trkpt lat="59.9282792" lon="17.7963654">
        <ele>40.9934</ele>
        <time>2014-07-07T19:23:36Z</time>
      </trkpt>
      <trkpt lat="59.9283131" lon="17.7964504">
        <ele>40.9934</ele>
        <time>2014-07-07T19:23:37Z</time>
      </trkpt>
      <trkpt lat="59.9283478" lon="17.7965373">
        <ele>40.9934</ele>
        <time>2014-07-07T19:23:38Z</time>
      </trkpt>
      <trkpt lat="59.9283833" lon="17.7966249">
        <ele>41.474</ele>
        <time>2014-07-07T19:23:39Z</time>
      </trkpt>
      <trkpt lat="59.9284191" lon="17.7967134">
        <ele>41.474</ele>
        <time>2014-07-07T19:23:40Z</time>
      </trkpt>
      <trkpt lat="59.9284549" lon="17.7968032">
        <ele>41.474</ele>
        <time>2014-07-07T19:23:41Z</time>
      </trkpt>
      <trkpt lat="59.9284923" lon="17.7968928">
        <ele>41.474</ele>
        <time>2014-07-07T19:23:42Z</time>
      </trkpt>
      <trkpt lat="59.9285311" lon="17.7969829">
        <ele>41.9547</ele>
        <time>2014-07-07T19:23:43Z</time>
      </trkpt>
      <trkpt lat="59.9285705" lon="17.7970731">
        <ele>41.9547</ele>
        <time>2014-07-07T19:23:44Z</time>
      </trkpt>
      <trkpt lat="59.9286104" lon="17.7971636">
        <ele>41.9547</ele>
        <time>2014-07-07T19:23:45Z</time>
      </trkpt>
      <trkpt lat="59.9286504" lon="17.7972548">
        <ele>41.9547</ele>
        <time>2014-07-07T19:23:46Z</time>
      </trkpt>
      <trkpt lat="59.9286912" lon="17.7973466">
        <ele>41.9547</ele>
        <time>2014-07-07T19:23:47Z</time>
      </trkpt>
      <trkpt lat="59.9287326" lon="17.7974398">
        <ele>42.4354</ele>
        <time>2014-07-07T19:23:48Z</time>
      </trkpt>
      <trkpt lat="59.9287751" lon="17.7975339">
        <ele>42.4354</ele>
        <time>2014-07-07T19:23:49Z</time>
      </trkpt>
      <trkpt lat="59.9288187" lon="17.7976269">
        <ele>42.4354</ele>
        <time>2014-07-07T19:23:50Z</time>
      </trkpt>
      <trkpt lat="59.9288633" lon="17.7977206">
        <ele>42.4354</ele>
        <time>2014-07-07T19:23:51Z</time>
      </trkpt>
      <trkpt lat="59.9289083" lon="17.7978158">
        <ele>42.4354</ele>
        <time>2014-07-07T19:23:52Z</time>
      </trkpt>
      <trkpt lat="59.9289541" lon="17.7979097">
        <ele>42.4354</ele>
        <time>2014-07-07T19:23:53Z</time>
      </trkpt>
      <trkpt lat="59.9290009" lon="17.7980025">
        <ele>42.4354</ele>
        <time>2014-07-07T19:23:54Z</time>
      </trkpt>
      <trkpt lat="59.9290481" lon="17.7980941">
        <ele>42.4354</ele>
        <time>2014-07-07T19:23:55Z</time>
      </trkpt>
      <trkpt lat="59.9290942" lon="17.7981824">
        <ele>41.9547</ele>
        <time>2014-07-07T19:23:56Z</time>
      </trkpt>
      <trkpt lat="59.9291404" lon="17.798263">
        <ele>42.4354</ele>
        <time>2014-07-07T19:23:57Z</time>
      </trkpt>
      <trkpt lat="59.9291905" lon="17.798344">
        <ele>43.3966</ele>
        <time>2014-07-07T19:23:58Z</time>
      </trkpt>
      <trkpt lat="59.9292355" lon="17.7984292">
        <ele>42.916</ele>
        <time>2014-07-07T19:23:59Z</time>
      </trkpt>
      <trkpt lat="59.9292801" lon="17.7985152">
        <ele>42.916</ele>
        <time>2014-07-07T19:24:00Z</time>
      </trkpt>
      <trkpt lat="59.9293243" lon="17.7985981">
        <ele>43.3966</ele>
        <time>2014-07-07T19:24:01Z</time>
      </trkpt>
      <trkpt lat="59.9293698" lon="17.7986804">
        <ele>43.3966</ele>
        <time>2014-07-07T19:24:02Z</time>
      </trkpt>
      <trkpt lat="59.9294148" lon="17.7987613">
        <ele>43.3966</ele>
        <time>2014-07-07T19:24:03Z</time>
      </trkpt>
      <trkpt lat="59.9294603" lon="17.7988413">
        <ele>43.3966</ele>
        <time>2014-07-07T19:24:04Z</time>
      </trkpt>
      <trkpt lat="59.929506" lon="17.7989209">
        <ele>42.916</ele>
        <time>2014-07-07T19:24:05Z</time>
      </trkpt>
      <trkpt lat="59.9295524" lon="17.7990019">
        <ele>42.916</ele>
        <time>2014-07-07T19:24:06Z</time>
      </trkpt>
      <trkpt lat="59.9295992" lon="17.7990825">
        <ele>42.916</ele>
        <time>2014-07-07T19:24:07Z</time>
      </trkpt>
      <trkpt lat="59.9296474" lon="17.7991628">
        <ele>42.916</ele>
        <time>2014-07-07T19:24:08Z</time>
      </trkpt>
      <trkpt lat="59.9296956" lon="17.7992446">
        <ele>42.916</ele>
        <time>2014-07-07T19:24:09Z</time>
      </trkpt>
      <trkpt lat="59.9297439" lon="17.7993284">
        <ele>42.916</ele>
        <time>2014-07-07T19:24:10Z</time>
      </trkpt>
      <trkpt lat="59.9297939" lon="17.7994107">
        <ele>42.916</ele>
        <time>2014-07-07T19:24:11Z</time>
      </trkpt>
      <trkpt lat="59.9298436" lon="17.7994921">
        <ele>42.916</ele>
        <time>2014-07-07T19:24:12Z</time>
      </trkpt>
      <trkpt lat="59.9298941" lon="17.7995717">
        <ele>42.916</ele>
        <time>2014-07-07T19:24:13Z</time>
      </trkpt>
      <trkpt lat="59.9299461" lon="17.7996497">
        <ele>42.4354</ele>
        <time>2014-07-07T19:24:14Z</time>
      </trkpt>
      <trkpt lat="59.9299976" lon="17.7997268">
        <ele>42.4354</ele>
        <time>2014-07-07T19:24:15Z</time>
      </trkpt>
      <trkpt lat="59.930049" lon="17.7998033">
        <ele>42.4354</ele>
        <time>2014-07-07T19:24:16Z</time>
      </trkpt>
      <trkpt lat="59.9301011" lon="17.7998806">
        <ele>42.4354</ele>
        <time>2014-07-07T19:24:17Z</time>
      </trkpt>
      <trkpt lat="59.9301538" lon="17.7999594">
        <ele>42.4354</ele>
        <time>2014-07-07T19:24:18Z</time>
      </trkpt>
      <trkpt lat="59.9302079" lon="17.8000391">
        <ele>41.9547</ele>
        <time>2014-07-07T19:24:19Z</time>
      </trkpt>
      <trkpt lat="59.9302636" lon="17.8001205">
        <ele>41.9547</ele>
        <time>2014-07-07T19:24:20Z</time>
      </trkpt>
      <trkpt lat="59.9303197" lon="17.8002034">
        <ele>41.9547</ele>
        <time>2014-07-07T19:24:21Z</time>
      </trkpt>
      <trkpt lat="59.9303773" lon="17.8002874">
        <ele>41.9547</ele>
        <time>2014-07-07T19:24:22Z</time>
      </trkpt>
      <trkpt lat="59.9304358" lon="17.8003732">
        <ele>41.9547</ele>
        <time>2014-07-07T19:24:23Z</time>
      </trkpt>
      <trkpt lat="59.930495" lon="17.8004597">
        <ele>41.474</ele>
        <time>2014-07-07T19:24:24Z</time>
      </trkpt>
      <trkpt lat="59.9305549" lon="17.8005473">
        <ele>41.474</ele>
        <time>2014-07-07T19:24:25Z</time>
      </trkpt>
      <trkpt lat="59.9306152" lon="17.8006359">
        <ele>41.474</ele>
        <time>2014-07-07T19:24:26Z</time>
      </trkpt>
      <trkpt lat="59.9306762" lon="17.800725">
        <ele>40.9934</ele>
        <time>2014-07-07T19:24:27Z</time>
      </trkpt>
      <trkpt lat="59.9307381" lon="17.8008151">
        <ele>40.9934</ele>
        <time>2014-07-07T19:24:28Z</time>
      </trkpt>
      <trkpt lat="59.9307996" lon="17.8009063">
        <ele>40.9934</ele>
        <time>2014-07-07T19:24:29Z</time>
      </trkpt>
      <trkpt lat="59.9308611" lon="17.8009975">
        <ele>40.9934</ele>
        <time>2014-07-07T19:24:30Z</time>
      </trkpt>
      <trkpt lat="59.9309223" lon="17.801089">
        <ele>40.9934</ele>
        <time>2014-07-07T19:24:31Z</time>
      </trkpt>
      <trkpt lat="59.9309833" lon="17.8011809">
        <ele>40.9934</ele>
        <time>2014-07-07T19:24:32Z</time>
      </trkpt>
      <trkpt lat="59.9310444" lon="17.8012741">
        <ele>40.9934</ele>
        <time>2014-07-07T19:24:33Z</time>
      </trkpt>
      <trkpt lat="59.9311068" lon="17.8013674">
        <ele>40.9934</ele>
        <time>2014-07-07T19:24:34Z</time>
      </trkpt>
      <trkpt lat="59.9311699" lon="17.8014602">
        <ele>40.9934</ele>
        <time>2014-07-07T19:24:35Z</time>
      </trkpt>
      <trkpt lat="59.9312326" lon="17.8015529">
        <ele>40.5128</ele>
        <time>2014-07-07T19:24:36Z</time>
      </trkpt>
      <trkpt lat="59.9312952" lon="17.8016462">
        <ele>40.5128</ele>
        <time>2014-07-07T19:24:37Z</time>
      </trkpt>
      <trkpt lat="59.9313582" lon="17.8017408">
        <ele>40.5128</ele>
        <time>2014-07-07T19:24:38Z</time>
      </trkpt>
      <trkpt lat="59.931421" lon="17.8018393">
        <ele>40.5128</ele>
        <time>2014-07-07T19:24:39Z</time>
      </trkpt>
      <trkpt lat="59.9314837" lon="17.8019398">
        <ele>40.0321</ele>
        <time>2014-07-07T19:24:40Z</time>
      </trkpt>
      <trkpt lat="59.931547" lon="17.8020391">
        <ele>40.0321</ele>
        <time>2014-07-07T19:24:41Z</time>
      </trkpt>
      <trkpt lat="59.9316118" lon="17.8021376">
        <ele>40.0321</ele>
        <time>2014-07-07T19:24:42Z</time>
      </trkpt>
      <trkpt lat="59.9316781" lon="17.8022371">
        <ele>39.5513</ele>
        <time>2014-07-07T19:24:43Z</time>
      </trkpt>
      <trkpt lat="59.9317454" lon="17.8023391">
        <ele>39.5513</ele>
        <time>2014-07-07T19:24:44Z</time>
      </trkpt>
      <trkpt lat="59.9318133" lon="17.8024421">
        <ele>39.5513</ele>
        <time>2014-07-07T19:24:45Z</time>
      </trkpt>
      <trkpt lat="59.9318816" lon="17.8025462">
        <ele>39.0707</ele>
        <time>2014-07-07T19:24:46Z</time>
      </trkpt>
      <trkpt lat="59.931951" lon="17.802651">
        <ele>39.0707</ele>
        <time>2014-07-07T19:24:47Z</time>
      </trkpt>
      <trkpt lat="59.9320211" lon="17.8027539">
        <ele>38.5901</ele>
        <time>2014-07-07T19:24:48Z</time>
      </trkpt>
      <trkpt lat="59.9320919" lon="17.8028557">
        <ele>38.5901</ele>
        <time>2014-07-07T19:24:49Z</time>
      </trkpt>
      <trkpt lat="59.9321629" lon="17.8029596">
        <ele>38.1094</ele>
        <time>2014-07-07T19:24:50Z</time>
      </trkpt>
      <trkpt lat="59.932234" lon="17.8030664">
        <ele>38.1094</ele>
        <time>2014-07-07T19:24:51Z</time>
      </trkpt>
      <trkpt lat="59.9323065" lon="17.8031771">
        <ele>37.6287</ele>
        <time>2014-07-07T19:24:52Z</time>
      </trkpt>
      <trkpt lat="59.932381" lon="17.8032903">
        <ele>37.1481</ele>
        <time>2014-07-07T19:24:53Z</time>
      </trkpt>
      <trkpt lat="59.932457" lon="17.8034066">
        <ele>36.6675</ele>
        <time>2014-07-07T19:24:54Z</time>
      </trkpt>
      <trkpt lat="59.9325346" lon="17.8035259">
        <ele>36.6675</ele>
        <time>2014-07-07T19:24:55Z</time>
      </trkpt>
      <trkpt lat="59.9326135" lon="17.8036482">
        <ele>36.1868</ele>
        <time>2014-07-07T19:24:56Z</time>
      </trkpt>
      <trkpt lat="59.9326939" lon="17.8037751">
        <ele>35.7061</ele>
        <time>2014-07-07T19:24:57Z</time>
      </trkpt>
      <trkpt lat="59.9327765" lon="17.8039066">
        <ele>34.7449</ele>
        <time>2014-07-07T19:24:58Z</time>
      </trkpt>
      <trkpt lat="59.9328609" lon="17.8040418">
        <ele>34.2642</ele>
        <time>2014-07-07T19:24:59Z</time>
      </trkpt>
      <trkpt lat="59.932945" lon="17.8041815">
        <ele>33.7834</ele>
        <time>2014-07-07T19:25:00Z</time>
      </trkpt>
      <trkpt lat="59.9330272" lon="17.8043273">
        <ele>33.3029</ele>
        <time>2014-07-07T19:25:01Z</time>
      </trkpt>
      <trkpt lat="59.9331084" lon="17.8044762">
        <ele>32.8223</ele>
        <time>2014-07-07T19:25:02Z</time>
      </trkpt>
      <trkpt lat="59.9331892" lon="17.8046256">
        <ele>32.3416</ele>
        <time>2014-07-07T19:25:03Z</time>
      </trkpt>
      <trkpt lat="59.9332683" lon="17.8047765">
        <ele>31.8607</ele>
        <time>2014-07-07T19:25:04Z</time>
      </trkpt>
      <trkpt lat="59.9333454" lon="17.8049296">
        <ele>31.3801</ele>
        <time>2014-07-07T19:25:05Z</time>
      </trkpt>
      <trkpt lat="59.9334202" lon="17.8050834">
        <ele>31.3801</ele>
        <time>2014-07-07T19:25:06Z</time>
      </trkpt>
      <trkpt lat="59.9334936" lon="17.8052374">
        <ele>30.8995</ele>
        <time>2014-07-07T19:25:07Z</time>
      </trkpt>
      <trkpt lat="59.9335645" lon="17.8053917">
        <ele>30.4188</ele>
        <time>2014-07-07T19:25:08Z</time>
      </trkpt>
      <trkpt lat="59.9336331" lon="17.8055456">
        <ele>30.4188</ele>
        <time>2014-07-07T19:25:09Z</time>
      </trkpt>
      <trkpt lat="59.9336999" lon="17.8056983">
        <ele>29.9381</ele>
        <time>2014-07-07T19:25:10Z</time>
      </trkpt>
      <trkpt lat="59.9337642" lon="17.8058502">
        <ele>29.9381</ele>
        <time>2014-07-07T19:25:11Z</time>
      </trkpt>
      <trkpt lat="59.9338258" lon="17.8060013">
        <ele>29.4575</ele>
        <time>2014-07-07T19:25:12Z</time>
      </trkpt>
      <trkpt lat="59.9338854" lon="17.8061512">
        <ele>29.4575</ele>
        <time>2014-07-07T19:25:13Z</time>
      </trkpt>
      <trkpt lat="59.9339432" lon="17.8063002">
        <ele>29.4575</ele>
        <time>2014-07-07T19:25:14Z</time>
      </trkpt>
      <trkpt lat="59.9339993" lon="17.8064493">
        <ele>28.9769</ele>
        <time>2014-07-07T19:25:15Z</time>
      </trkpt>
      <trkpt lat="59.9340541" lon="17.8065993">
        <ele>28.9769</ele>
        <time>2014-07-07T19:25:16Z</time>
      </trkpt>
      <trkpt lat="59.9341075" lon="17.8067494">
        <ele>28.9769</ele>
        <time>2014-07-07T19:25:17Z</time>
      </trkpt>
      <trkpt lat="59.9341597" lon="17.8069002">
        <ele>28.9769</ele>
        <time>2014-07-07T19:25:18Z</time>
      </trkpt>
      <trkpt lat="59.9342104" lon="17.8070504">
        <ele>28.4962</ele>
        <time>2014-07-07T19:25:19Z</time>
      </trkpt>
      <trkpt lat="59.9342597" lon="17.8071996">
        <ele>28.4962</ele>
        <time>2014-07-07T19:25:20Z</time>
      </trkpt>
      <trkpt lat="59.9343074" lon="17.8073492">
        <ele>28.4962</ele>
        <time>2014-07-07T19:25:21Z</time>
      </trkpt>
      <trkpt lat="59.934352" lon="17.8074999">
        <ele>28.0155</ele>
        <time>2014-07-07T19:25:22Z</time>
      </trkpt>
      <trkpt lat="59.934396" lon="17.8076511">
        <ele>28.0155</ele>
        <time>2014-07-07T19:25:23Z</time>
      </trkpt>
      <trkpt lat="59.9344396" lon="17.8078021">
        <ele>27.5349</ele>
        <time>2014-07-07T19:25:24Z</time>
      </trkpt>
      <trkpt lat="59.9344828" lon="17.8079534">
        <ele>27.5349</ele>
        <time>2014-07-07T19:25:25Z</time>
      </trkpt>
      <trkpt lat="59.9345249" lon="17.8081057">
        <ele>27.5349</ele>
        <time>2014-07-07T19:25:26Z</time>
      </trkpt>
      <trkpt lat="59.9345657" lon="17.808259">
        <ele>27.0543</ele>
        <time>2014-07-07T19:25:27Z</time>
      </trkpt>
      <trkpt lat="59.9346048" lon="17.8084128">
        <ele>27.0543</ele>
        <time>2014-07-07T19:25:28Z</time>
      </trkpt>
      <trkpt lat="59.9346431" lon="17.8085666">
        <ele>26.5736</ele>
        <time>2014-07-07T19:25:29Z</time>
      </trkpt>
      <trkpt lat="59.9346807" lon="17.8087209">
        <ele>26.5736</ele>
        <time>2014-07-07T19:25:30Z</time>
      </trkpt>
      <trkpt lat="59.934717" lon="17.8088758">
        <ele>26.5736</ele>
        <time>2014-07-07T19:25:31Z</time>
      </trkpt>
      <trkpt lat="59.9347524" lon="17.8090309">
        <ele>26.0929</ele>
        <time>2014-07-07T19:25:32Z</time>
      </trkpt>
      <trkpt lat="59.9347872" lon="17.8091861">
        <ele>26.0929</ele>
        <time>2014-07-07T19:25:33Z</time>
      </trkpt>
      <trkpt lat="59.9348211" lon="17.8093421">
        <ele>26.0929</ele>
        <time>2014-07-07T19:25:34Z</time>
      </trkpt>
      <trkpt lat="59.9348533" lon="17.8094999">
        <ele>26.0929</ele>
        <time>2014-07-07T19:25:35Z</time>
      </trkpt>
      <trkpt lat="59.9348845" lon="17.8096586">
        <ele>25.6123</ele>
        <time>2014-07-07T19:25:36Z</time>
      </trkpt>
      <trkpt lat="59.9349152" lon="17.809818">
        <ele>25.6123</ele>
        <time>2014-07-07T19:25:37Z</time>
      </trkpt>
      <trkpt lat="59.9349455" lon="17.8099777">
        <ele>25.6123</ele>
        <time>2014-07-07T19:25:38Z</time>
      </trkpt>
      <trkpt lat="59.9349747" lon="17.8101382">
        <ele>25.6123</ele>
        <time>2014-07-07T19:25:39Z</time>
      </trkpt>
      <trkpt lat="59.9350027" lon="17.8102984">
        <ele>25.6123</ele>
        <time>2014-07-07T19:25:40Z</time>
      </trkpt>
      <trkpt lat="59.9350296" lon="17.8104585">
        <ele>25.6123</ele>
        <time>2014-07-07T19:25:41Z</time>
      </trkpt>
      <trkpt lat="59.9350549" lon="17.8106194">
        <ele>25.6123</ele>
        <time>2014-07-07T19:25:42Z</time>
      </trkpt>
      <trkpt lat="59.9350796" lon="17.810781">
        <ele>25.1317</ele>
        <time>2014-07-07T19:25:43Z</time>
      </trkpt>
      <trkpt lat="59.9351036" lon="17.8109436">
        <ele>25.1317</ele>
        <time>2014-07-07T19:25:44Z</time>
      </trkpt>
      <trkpt lat="59.9351269" lon="17.8111075">
        <ele>25.1317</ele>
        <time>2014-07-07T19:25:45Z</time>
      </trkpt>
      <trkpt lat="59.9351493" lon="17.8112725">
        <ele>25.1317</ele>
        <time>2014-07-07T19:25:46Z</time>
      </trkpt>
      <trkpt lat="59.9351706" lon="17.8114385">
        <ele>25.1317</ele>
        <time>2014-07-07T19:25:47Z</time>
      </trkpt>
      <trkpt lat="59.9351912" lon="17.8116048">
        <ele>25.1317</ele>
        <time>2014-07-07T19:25:48Z</time>
      </trkpt>
      <trkpt lat="59.9352113" lon="17.8117706">
        <ele>25.1317</ele>
        <time>2014-07-07T19:25:49Z</time>
      </trkpt>
      <trkpt lat="59.9352296" lon="17.8119368">
        <ele>25.1317</ele>
        <time>2014-07-07T19:25:50Z</time>
      </trkpt>
      <trkpt lat="59.9352466" lon="17.8121037">
        <ele>25.1317</ele>
        <time>2014-07-07T19:25:51Z</time>
      </trkpt>
      <trkpt lat="59.935263" lon="17.8122679">
        <ele>25.1317</ele>
        <time>2014-07-07T19:25:52Z</time>
      </trkpt>
      <trkpt lat="59.9352787" lon="17.8124279">
        <ele>25.1317</ele>
        <time>2014-07-07T19:25:53Z</time>
      </trkpt>
      <trkpt lat="59.9352937" lon="17.8125843">
        <ele>25.1317</ele>
        <time>2014-07-07T19:25:54Z</time>
      </trkpt>
      <trkpt lat="59.9353078" lon="17.8127366">
        <ele>25.1317</ele>
        <time>2014-07-07T19:25:55Z</time>
      </trkpt>
      <trkpt lat="59.9353217" lon="17.8128838">
        <ele>25.1317</ele>
        <time>2014-07-07T19:25:56Z</time>
      </trkpt>
      <trkpt lat="59.9353357" lon="17.8130271">
        <ele>25.1317</ele>
        <time>2014-07-07T19:25:57Z</time>
      </trkpt>
      <trkpt lat="59.9353493" lon="17.8131681">
        <ele>25.1317</ele>
        <time>2014-07-07T19:25:58Z</time>
      </trkpt>
      <trkpt lat="59.9353626" lon="17.8133075">
        <ele>25.1317</ele>
        <time>2014-07-07T19:25:59Z</time>
      </trkpt>
      <trkpt lat="59.935376" lon="17.8134453">
        <ele>25.1317</ele>
        <time>2014-07-07T19:26:00Z</time>
      </trkpt>
      <trkpt lat="59.9353891" lon="17.8135826">
        <ele>25.6123</ele>
        <time>2014-07-07T19:26:01Z</time>
      </trkpt>
      <trkpt lat="59.9354026" lon="17.8137191">
        <ele>25.6123</ele>
        <time>2014-07-07T19:26:02Z</time>
      </trkpt>
      <trkpt lat="59.9354166" lon="17.8138551">
        <ele>25.6123</ele>
        <time>2014-07-07T19:26:03Z</time>
      </trkpt>
      <trkpt lat="59.9354301" lon="17.8139909">
        <ele>25.6123</ele>
        <time>2014-07-07T19:26:04Z</time>
      </trkpt>
      <trkpt lat="59.9354434" lon="17.8141265">
        <ele>26.0929</ele>
        <time>2014-07-07T19:26:05Z</time>
      </trkpt>
      <trkpt lat="59.9354575" lon="17.8142621">
        <ele>26.0929</ele>
        <time>2014-07-07T19:26:06Z</time>
      </trkpt>
      <trkpt lat="59.9354725" lon="17.8143975">
        <ele>26.0929</ele>
        <time>2014-07-07T19:26:07Z</time>
      </trkpt>
      <trkpt lat="59.935488" lon="17.8145331">
        <ele>26.0929</ele>
        <time>2014-07-07T19:26:08Z</time>
      </trkpt>
      <trkpt lat="59.9355035" lon="17.8146683">
        <ele>26.5736</ele>
        <time>2014-07-07T19:26:09Z</time>
      </trkpt>
      <trkpt lat="59.935519" lon="17.8148023">
        <ele>26.5736</ele>
        <time>2014-07-07T19:26:10Z</time>
      </trkpt>
      <trkpt lat="59.9355356" lon="17.8149347">
        <ele>26.5736</ele>
        <time>2014-07-07T19:26:11Z</time>
      </trkpt>
      <trkpt lat="59.9355533" lon="17.8150661">
        <ele>26.5736</ele>
        <time>2014-07-07T19:26:12Z</time>
      </trkpt>
      <trkpt lat="59.9355717" lon="17.8151972">
        <ele>26.5736</ele>
        <time>2014-07-07T19:26:13Z</time>
      </trkpt>
      <trkpt lat="59.9355906" lon="17.8153282">
        <ele>26.5736</ele>
        <time>2014-07-07T19:26:14Z</time>
      </trkpt>
      <trkpt lat="59.9356102" lon="17.8154596">
        <ele>27.0543</ele>
        <time>2014-07-07T19:26:15Z</time>
      </trkpt>
      <trkpt lat="59.9356308" lon="17.8155912">
        <ele>27.0543</ele>
        <time>2014-07-07T19:26:16Z</time>
      </trkpt>
      <trkpt lat="59.9356521" lon="17.815723">
        <ele>27.0543</ele>
        <time>2014-07-07T19:26:17Z</time>
      </trkpt>
      <trkpt lat="59.935674" lon="17.8158547">
        <ele>27.0543</ele>
        <time>2014-07-07T19:26:18Z</time>
      </trkpt>
      <trkpt lat="59.9356965" lon="17.8159859">
        <ele>27.0543</ele>
        <time>2014-07-07T19:26:19Z</time>
      </trkpt>
      <trkpt lat="59.9357191" lon="17.8161168">
        <ele>27.0543</ele>
        <time>2014-07-07T19:26:20Z</time>
      </trkpt>
      <trkpt lat="59.9357423" lon="17.8162477">
        <ele>27.0543</ele>
        <time>2014-07-07T19:26:21Z</time>
      </trkpt>
      <trkpt lat="59.9357662" lon="17.8163775">
        <ele>27.0543</ele>
        <time>2014-07-07T19:26:22Z</time>
      </trkpt>
      <trkpt lat="59.935791" lon="17.8165072">
        <ele>27.5349</ele>
        <time>2014-07-07T19:26:23Z</time>
      </trkpt>
      <trkpt lat="59.9358165" lon="17.8166379">
        <ele>27.5349</ele>
        <time>2014-07-07T19:26:24Z</time>
      </trkpt>
      <trkpt lat="59.9358436" lon="17.8167683">
        <ele>27.5349</ele>
        <time>2014-07-07T19:26:25Z</time>
      </trkpt>
      <trkpt lat="59.9358718" lon="17.8168987">
        <ele>27.5349</ele>
        <time>2014-07-07T19:26:26Z</time>
      </trkpt>
      <trkpt lat="59.9359003" lon="17.8170299">
        <ele>27.5349</ele>
        <time>2014-07-07T19:26:27Z</time>
      </trkpt>
      <trkpt lat="59.9359288" lon="17.817161">
        <ele>27.5349</ele>
        <time>2014-07-07T19:26:28Z</time>
      </trkpt>
      <trkpt lat="59.9359578" lon="17.8172905">
        <ele>27.5349</ele>
        <time>2014-07-07T19:26:29Z</time>
      </trkpt>
      <trkpt lat="59.9359874" lon="17.8174189">
        <ele>28.0155</ele>
        <time>2014-07-07T19:26:30Z</time>
      </trkpt>
      <trkpt lat="59.9360179" lon="17.8175469">
        <ele>28.0155</ele>
        <time>2014-07-07T19:26:31Z</time>
      </trkpt>
      <trkpt lat="59.9360479" lon="17.8176732">
        <ele>27.5349</ele>
        <time>2014-07-07T19:26:32Z</time>
      </trkpt>
      <trkpt lat="59.9360785" lon="17.8177979">
        <ele>27.5349</ele>
        <time>2014-07-07T19:26:33Z</time>
      </trkpt>
      <trkpt lat="59.9361105" lon="17.8179214">
        <ele>27.5349</ele>
        <time>2014-07-07T19:26:34Z</time>
      </trkpt>
      <trkpt lat="59.9361431" lon="17.8180437">
        <ele>27.5349</ele>
        <time>2014-07-07T19:26:35Z</time>
      </trkpt>
      <trkpt lat="59.936176" lon="17.8181658">
        <ele>27.5349</ele>
        <time>2014-07-07T19:26:36Z</time>
      </trkpt>
      <trkpt lat="59.9362094" lon="17.8182877">
        <ele>27.5349</ele>
        <time>2014-07-07T19:26:37Z</time>
      </trkpt>
      <trkpt lat="59.9362434" lon="17.8184095">
        <ele>27.5349</ele>
        <time>2014-07-07T19:26:38Z</time>
      </trkpt>
      <trkpt lat="59.9362789" lon="17.8185312">
        <ele>27.5349</ele>
        <time>2014-07-07T19:26:39Z</time>
      </trkpt>
      <trkpt lat="59.9363153" lon="17.818654">
        <ele>27.5349</ele>
        <time>2014-07-07T19:26:40Z</time>
      </trkpt>
      <trkpt lat="59.9363526" lon="17.8187765">
        <ele>27.5349</ele>
        <time>2014-07-07T19:26:41Z</time>
      </trkpt>
      <trkpt lat="59.9363917" lon="17.8188968">
        <ele>27.5349</ele>
        <time>2014-07-07T19:26:42Z</time>
      </trkpt>
      <trkpt lat="59.9364309" lon="17.8190158">
        <ele>27.5349</ele>
        <time>2014-07-07T19:26:43Z</time>
      </trkpt>
      <trkpt lat="59.9364684" lon="17.8191346">
        <ele>27.5349</ele>
        <time>2014-07-07T19:26:44Z</time>
      </trkpt>
      <trkpt lat="59.9365048" lon="17.8192523">
        <ele>27.0543</ele>
        <time>2014-07-07T19:26:45Z</time>
      </trkpt>
      <trkpt lat="59.9365426" lon="17.8193672">
        <ele>27.0543</ele>
        <time>2014-07-07T19:26:46Z</time>
      </trkpt>
      <trkpt lat="59.9365809" lon="17.8194797">
        <ele>27.0543</ele>
        <time>2014-07-07T19:26:47Z</time>
      </trkpt>
      <trkpt lat="59.9366196" lon="17.8195898">
        <ele>27.0543</ele>
        <time>2014-07-07T19:26:48Z</time>
      </trkpt>
      <trkpt lat="59.9366587" lon="17.8196986">
        <ele>27.0543</ele>
        <time>2014-07-07T19:26:49Z</time>
      </trkpt>
      <trkpt lat="59.936699" lon="17.8198084">
        <ele>26.5736</ele>
        <time>2014-07-07T19:26:50Z</time>
      </trkpt>
      <trkpt lat="59.9367399" lon="17.8199167">
        <ele>26.5736</ele>
        <time>2014-07-07T19:26:51Z</time>
      </trkpt>
      <trkpt lat="59.9367815" lon="17.820023">
        <ele>26.5736</ele>
        <time>2014-07-07T19:26:52Z</time>
      </trkpt>
      <trkpt lat="59.9368238" lon="17.8201292">
        <ele>26.5736</ele>
        <time>2014-07-07T19:26:53Z</time>
      </trkpt>
      <trkpt lat="59.936866" lon="17.8202353">
        <ele>26.0929</ele>
        <time>2014-07-07T19:26:54Z</time>
      </trkpt>
      <trkpt lat="59.936908" lon="17.8203403">
        <ele>26.0929</ele>
        <time>2014-07-07T19:26:55Z</time>
      </trkpt>
      <trkpt lat="59.9369513" lon="17.8204411">
        <ele>26.0929</ele>
        <time>2014-07-07T19:26:56Z</time>
      </trkpt>
      <trkpt lat="59.9369978" lon="17.8205336">
        <ele>26.0929</ele>
        <time>2014-07-07T19:26:57Z</time>
      </trkpt>
      <trkpt lat="59.9370483" lon="17.8206203">
        <ele>26.0929</ele>
        <time>2014-07-07T19:26:58Z</time>
      </trkpt>
      <trkpt lat="59.9371004" lon="17.8207078">
        <ele>26.0929</ele>
        <time>2014-07-07T19:26:59Z</time>
      </trkpt>
      <trkpt lat="59.9371529" lon="17.8207995">
        <ele>25.6123</ele>
        <time>2014-07-07T19:27:00Z</time>
      </trkpt>
      <trkpt lat="59.9372071" lon="17.8208978">
        <ele>25.6123</ele>
        <time>2014-07-07T19:27:01Z</time>
      </trkpt>
      <trkpt lat="59.9372622" lon="17.8210032">
        <ele>25.6123</ele>
        <time>2014-07-07T19:27:02Z</time>
      </trkpt>
      <trkpt lat="59.9373182" lon="17.821115">
        <ele>25.6123</ele>
        <time>2014-07-07T19:27:03Z</time>
      </trkpt>
      <trkpt lat="59.9373751" lon="17.8212299">
        <ele>25.1317</ele>
        <time>2014-07-07T19:27:04Z</time>
      </trkpt>
      <trkpt lat="59.9374322" lon="17.8213455">
        <ele>25.1317</ele>
        <time>2014-07-07T19:27:05Z</time>
      </trkpt>
      <trkpt lat="59.937489" lon="17.8214621">
        <ele>25.1317</ele>
        <time>2014-07-07T19:27:06Z</time>
      </trkpt>
      <trkpt lat="59.9375439" lon="17.8215826">
        <ele>25.1317</ele>
        <time>2014-07-07T19:27:07Z</time>
      </trkpt>
      <trkpt lat="59.9375989" lon="17.8217014">
        <ele>24.651</ele>
        <time>2014-07-07T19:27:08Z</time>
      </trkpt>
      <trkpt lat="59.9376604" lon="17.8217987">
        <ele>24.651</ele>
        <time>2014-07-07T19:27:09Z</time>
      </trkpt>
      <trkpt lat="59.9377299" lon="17.8218213">
        <ele>24.1703</ele>
        <time>2014-07-07T19:27:10Z</time>
      </trkpt>
      <trkpt lat="59.9378005" lon="17.8217972">
        <ele>24.1703</ele>
        <time>2014-07-07T19:27:11Z</time>
      </trkpt>
      <trkpt lat="59.9378552" lon="17.821706">
        <ele>24.1703</ele>
        <time>2014-07-07T19:27:12Z</time>
      </trkpt>
      <trkpt lat="59.9379002" lon="17.8215753">
        <ele>24.1703</ele>
        <time>2014-07-07T19:27:13Z</time>
      </trkpt>
      <trkpt lat="59.9379391" lon="17.8214434">
        <ele>24.651</ele>
        <time>2014-07-07T19:27:14Z</time>
      </trkpt>
      <trkpt lat="59.9379875" lon="17.8213254">
        <ele>24.651</ele>
        <time>2014-07-07T19:27:15Z</time>
      </trkpt>
      <trkpt lat="59.9380462" lon="17.8212237">
        <ele>25.1317</ele>
        <time>2014-07-07T19:27:16Z</time>
      </trkpt>
      <trkpt lat="59.9381049" lon="17.8211235">
        <ele>25.1317</ele>
        <time>2014-07-07T19:27:17Z</time>
      </trkpt>
      <trkpt lat="59.9381592" lon="17.8210154">
        <ele>25.6123</ele>
        <time>2014-07-07T19:27:18Z</time>
      </trkpt>
      <trkpt lat="59.9382112" lon="17.8209032">
        <ele>25.6123</ele>
        <time>2014-07-07T19:27:19Z</time>
      </trkpt>
      <trkpt lat="59.9382624" lon="17.8207922">
        <ele>26.0929</ele>
        <time>2014-07-07T19:27:20Z</time>
      </trkpt>
      <trkpt lat="59.9383132" lon="17.8206824">
        <ele>26.0929</ele>
        <time>2014-07-07T19:27:21Z</time>
      </trkpt>
      <trkpt lat="59.938364" lon="17.8205736">
        <ele>26.5736</ele>
        <time>2014-07-07T19:27:22Z</time>
      </trkpt>
      <trkpt lat="59.938414" lon="17.8204647">
        <ele>26.5736</ele>
        <time>2014-07-07T19:27:23Z</time>
      </trkpt>
      <trkpt lat="59.938463" lon="17.8203543">
        <ele>27.0543</ele>
        <time>2014-07-07T19:27:24Z</time>
      </trkpt>
      <trkpt lat="59.9385121" lon="17.820244">
        <ele>27.0543</ele>
        <time>2014-07-07T19:27:25Z</time>
      </trkpt>
      <trkpt lat="59.9385623" lon="17.8201354">
        <ele>27.0543</ele>
        <time>2014-07-07T19:27:26Z</time>
      </trkpt>
      <trkpt lat="59.9386131" lon="17.8200267">
        <ele>27.5349</ele>
        <time>2014-07-07T19:27:27Z</time>
      </trkpt>
      <trkpt lat="59.9386637" lon="17.8199173">
        <ele>27.5349</ele>
        <time>2014-07-07T19:27:28Z</time>
      </trkpt>
      <trkpt lat="59.938714" lon="17.8198085">
        <ele>27.5349</ele>
        <time>2014-07-07T19:27:29Z</time>
      </trkpt>
      <trkpt lat="59.9387643" lon="17.8197001">
        <ele>28.0155</ele>
        <time>2014-07-07T19:27:30Z</time>
      </trkpt>
      <trkpt lat="59.9388156" lon="17.8195925">
        <ele>28.0155</ele>
        <time>2014-07-07T19:27:31Z</time>
      </trkpt>
      <trkpt lat="59.9388674" lon="17.819484">
        <ele>28.0155</ele>
        <time>2014-07-07T19:27:32Z</time>
      </trkpt>
      <trkpt lat="59.9389197" lon="17.8193725">
        <ele>28.0155</ele>
        <time>2014-07-07T19:27:33Z</time>
      </trkpt>
      <trkpt lat="59.9389726" lon="17.8192579">
        <ele>28.0155</ele>
        <time>2014-07-07T19:27:34Z</time>
      </trkpt>
      <trkpt lat="59.9390265" lon="17.8191416">
        <ele>28.0155</ele>
        <time>2014-07-07T19:27:35Z</time>
      </trkpt>
      <trkpt lat="59.9390834" lon="17.8190264">
        <ele>28.0155</ele>
        <time>2014-07-07T19:27:36Z</time>
      </trkpt>
      <trkpt lat="59.9391445" lon="17.818916">
        <ele>28.0155</ele>
        <time>2014-07-07T19:27:37Z</time>
      </trkpt>
      <trkpt lat="59.9392115" lon="17.818816">
        <ele>28.0155</ele>
        <time>2014-07-07T19:27:38Z</time>
      </trkpt>
      <trkpt lat="59.9392839" lon="17.8187289">
        <ele>27.5349</ele>
        <time>2014-07-07T19:27:39Z</time>
      </trkpt>
      <trkpt lat="59.9393595" lon="17.818654">
        <ele>27.5349</ele>
        <time>2014-07-07T19:27:40Z</time>
      </trkpt>
      <trkpt lat="59.9394381" lon="17.8185922">
        <ele>27.5349</ele>
        <time>2014-07-07T19:27:41Z</time>
      </trkpt>
      <trkpt lat="59.9395191" lon="17.8185449">
        <ele>27.5349</ele>
        <time>2014-07-07T19:27:42Z</time>
      </trkpt>
      <trkpt lat="59.939602" lon="17.8185139">
        <ele>27.5349</ele>
        <time>2014-07-07T19:27:43Z</time>
      </trkpt>
      <trkpt lat="59.9396864" lon="17.818499">
        <ele>27.5349</ele>
        <time>2014-07-07T19:27:44Z</time>
      </trkpt>
      <trkpt lat="59.9397708" lon="17.818502">
        <ele>27.5349</ele>
        <time>2014-07-07T19:27:45Z</time>
      </trkpt>
      <trkpt lat="59.9398547" lon="17.8185214">
        <ele>27.5349</ele>
        <time>2014-07-07T19:27:46Z</time>
      </trkpt>
      <trkpt lat="59.939933" lon="17.8185455">
        <ele>27.0543</ele>
        <time>2014-07-07T19:27:47Z</time>
      </trkpt>
      <trkpt lat="59.94001" lon="17.8185824">
        <ele>27.0543</ele>
        <time>2014-07-07T19:27:48Z</time>
      </trkpt>
      <trkpt lat="59.9400875" lon="17.8186456">
        <ele>26.5736</ele>
        <time>2014-07-07T19:27:49Z</time>
      </trkpt>
      <trkpt lat="59.9401619" lon="17.8187239">
        <ele>26.5736</ele>
        <time>2014-07-07T19:27:50Z</time>
      </trkpt>
      <trkpt lat="59.9402319" lon="17.8188061">
        <ele>26.5736</ele>
        <time>2014-07-07T19:27:51Z</time>
      </trkpt>
      <trkpt lat="59.9403004" lon="17.8188897">
        <ele>26.0929</ele>
        <time>2014-07-07T19:27:52Z</time>
      </trkpt>
      <trkpt lat="59.940369" lon="17.818973">
        <ele>26.0929</ele>
        <time>2014-07-07T19:27:53Z</time>
      </trkpt>
      <trkpt lat="59.9404366" lon="17.8190575">
        <ele>26.0929</ele>
        <time>2014-07-07T19:27:54Z</time>
      </trkpt>
      <trkpt lat="59.9405043" lon="17.8191429">
        <ele>25.6123</ele>
        <time>2014-07-07T19:27:55Z</time>
      </trkpt>
      <trkpt lat="59.9405722" lon="17.8192283">
        <ele>25.6123</ele>
        <time>2014-07-07T19:27:56Z</time>
      </trkpt>
      <trkpt lat="59.9406399" lon="17.8193143">
        <ele>25.1317</ele>
        <time>2014-07-07T19:27:57Z</time>
      </trkpt>
      <trkpt lat="59.9407084" lon="17.8194019">
        <ele>25.1317</ele>
        <time>2014-07-07T19:27:58Z</time>
      </trkpt>
      <trkpt lat="59.9407784" lon="17.819491">
        <ele>25.1317</ele>
        <time>2014-07-07T19:27:59Z</time>
      </trkpt>
      <trkpt lat="59.9408493" lon="17.8195827">
        <ele>24.651</ele>
        <time>2014-07-07T19:28:00Z</time>
      </trkpt>
      <trkpt lat="59.9409218" lon="17.8196749">
        <ele>24.651</ele>
        <time>2014-07-07T19:28:01Z</time>
      </trkpt>
      <trkpt lat="59.940996" lon="17.8197674">
        <ele>24.1703</ele>
        <time>2014-07-07T19:28:02Z</time>
      </trkpt>
      <trkpt lat="59.9410711" lon="17.8198598">
        <ele>24.1703</ele>
        <time>2014-07-07T19:28:03Z</time>
      </trkpt>
      <trkpt lat="59.9411466" lon="17.8199528">
        <ele>23.6896</ele>
        <time>2014-07-07T19:28:04Z</time>
      </trkpt>
      <trkpt lat="59.9412213" lon="17.8200477">
        <ele>23.6896</ele>
        <time>2014-07-07T19:28:05Z</time>
      </trkpt>
      <trkpt lat="59.9412953" lon="17.8201427">
        <ele>23.209</ele>
        <time>2014-07-07T19:28:06Z</time>
      </trkpt>
      <trkpt lat="59.941369" lon="17.8202357">
        <ele>23.209</ele>
        <time>2014-07-07T19:28:07Z</time>
      </trkpt>
      <trkpt lat="59.9414423" lon="17.8203261">
        <ele>23.209</ele>
        <time>2014-07-07T19:28:08Z</time>
      </trkpt>
      <trkpt lat="59.9415151" lon="17.8204177">
        <ele>22.7283</ele>
        <time>2014-07-07T19:28:09Z</time>
      </trkpt>
      <trkpt lat="59.9415881" lon="17.8205103">
        <ele>22.7283</ele>
        <time>2014-07-07T19:28:10Z</time>
      </trkpt>
      <trkpt lat="59.9416616" lon="17.8206025">
        <ele>22.7283</ele>
        <time>2014-07-07T19:28:11Z</time>
      </trkpt>
      <trkpt lat="59.9417348" lon="17.8206943">
        <ele>22.7283</ele>
        <time>2014-07-07T19:28:12Z</time>
      </trkpt>
      <trkpt lat="59.9418078" lon="17.8207866">
        <ele>22.7283</ele>
        <time>2014-07-07T19:28:13Z</time>
      </trkpt>
      <trkpt lat="59.9418803" lon="17.8208783">
        <ele>22.7283</ele>
        <time>2014-07-07T19:28:14Z</time>
      </trkpt>
      <trkpt lat="59.9419513" lon="17.8209689">
        <ele>22.7283</ele>
        <time>2014-07-07T19:28:15Z</time>
      </trkpt>
      <trkpt lat="59.9420209" lon="17.8210584">
        <ele>22.7283</ele>
        <time>2014-07-07T19:28:16Z</time>
      </trkpt>
      <trkpt lat="59.9420895" lon="17.8211438">
        <ele>23.209</ele>
        <time>2014-07-07T19:28:17Z</time>
      </trkpt>
      <trkpt lat="59.942157" lon="17.8212251">
        <ele>23.209</ele>
        <time>2014-07-07T19:28:18Z</time>
      </trkpt>
      <trkpt lat="59.9422233" lon="17.8213066">
        <ele>23.209</ele>
        <time>2014-07-07T19:28:19Z</time>
      </trkpt>
      <trkpt lat="59.9422889" lon="17.821389">
        <ele>23.6896</ele>
        <time>2014-07-07T19:28:20Z</time>
      </trkpt>
      <trkpt lat="59.9423541" lon="17.8214703">
        <ele>23.6896</ele>
        <time>2014-07-07T19:28:21Z</time>
      </trkpt>
      <trkpt lat="59.9424184" lon="17.8215509">
        <ele>23.6896</ele>
        <time>2014-07-07T19:28:22Z</time>
      </trkpt>
      <trkpt lat="59.9424827" lon="17.8216309">
        <ele>24.1703</ele>
        <time>2014-07-07T19:28:23Z</time>
      </trkpt>
      <trkpt lat="59.9425473" lon="17.8217112">
        <ele>24.1703</ele>
        <time>2014-07-07T19:28:24Z</time>
      </trkpt>
      <trkpt lat="59.9426122" lon="17.8217918">
        <ele>24.1703</ele>
        <time>2014-07-07T19:28:25Z</time>
      </trkpt>
      <trkpt lat="59.9426768" lon="17.8218715">
        <ele>24.651</ele>
        <time>2014-07-07T19:28:26Z</time>
      </trkpt>
      <trkpt lat="59.9427407" lon="17.8219514">
        <ele>24.651</ele>
        <time>2014-07-07T19:28:27Z</time>
      </trkpt>
      <trkpt lat="59.9428043" lon="17.8220308">
        <ele>24.651</ele>
        <time>2014-07-07T19:28:28Z</time>
      </trkpt>
      <trkpt lat="59.9428677" lon="17.8221095">
        <ele>25.1317</ele>
        <time>2014-07-07T19:28:29Z</time>
      </trkpt>
      <trkpt lat="59.9429308" lon="17.8221891">
        <ele>25.1317</ele>
        <time>2014-07-07T19:28:30Z</time>
      </trkpt>
      <trkpt lat="59.9429944" lon="17.8222685">
        <ele>25.1317</ele>
        <time>2014-07-07T19:28:31Z</time>
      </trkpt>
      <trkpt lat="59.9430582" lon="17.8223477">
        <ele>25.1317</ele>
        <time>2014-07-07T19:28:32Z</time>
      </trkpt>
      <trkpt lat="59.9431222" lon="17.8224276">
        <ele>25.6123</ele>
        <time>2014-07-07T19:28:33Z</time>
      </trkpt>
      <trkpt lat="59.9431855" lon="17.8225079">
        <ele>25.6123</ele>
        <time>2014-07-07T19:28:34Z</time>
      </trkpt>
      <trkpt lat="59.9432482" lon="17.8225876">
        <ele>25.6123</ele>
        <time>2014-07-07T19:28:35Z</time>
      </trkpt>
      <trkpt lat="59.9433111" lon="17.8226655">
        <ele>26.0929</ele>
        <time>2014-07-07T19:28:36Z</time>
      </trkpt>
      <trkpt lat="59.9433741" lon="17.8227425">
        <ele>26.0929</ele>
        <time>2014-07-07T19:28:37Z</time>
      </trkpt>
      <trkpt lat="59.9434361" lon="17.8228193">
        <ele>26.0929</ele>
        <time>2014-07-07T19:28:38Z</time>
      </trkpt>
      <trkpt lat="59.9434974" lon="17.8228962">
        <ele>26.5736</ele>
        <time>2014-07-07T19:28:39Z</time>
      </trkpt>
      <trkpt lat="59.9435581" lon="17.8229719">
        <ele>26.5736</ele>
        <time>2014-07-07T19:28:40Z</time>
      </trkpt>
      <trkpt lat="59.9436179" lon="17.8230466">
        <ele>26.5736</ele>
        <time>2014-07-07T19:28:41Z</time>
      </trkpt>
      <trkpt lat="59.943677" lon="17.8231222">
        <ele>26.5736</ele>
        <time>2014-07-07T19:28:42Z</time>
      </trkpt>
      <trkpt lat="59.9437356" lon="17.8231968">
        <ele>27.0543</ele>
        <time>2014-07-07T19:28:43Z</time>
      </trkpt>
      <trkpt lat="59.9437943" lon="17.8232678">
        <ele>27.0543</ele>
        <time>2014-07-07T19:28:44Z</time>
      </trkpt>
      <trkpt lat="59.9438518" lon="17.8233387">
        <ele>27.0543</ele>
        <time>2014-07-07T19:28:45Z</time>
      </trkpt>
      <trkpt lat="59.9439077" lon="17.8234118">
        <ele>27.5349</ele>
        <time>2014-07-07T19:28:46Z</time>
      </trkpt>
      <trkpt lat="59.9439631" lon="17.8234837">
        <ele>27.5349</ele>
        <time>2014-07-07T19:28:47Z</time>
      </trkpt>
      <trkpt lat="59.944017" lon="17.8235561">
        <ele>27.5349</ele>
        <time>2014-07-07T19:28:48Z</time>
      </trkpt>
      <trkpt lat="59.9440707" lon="17.8236277">
        <ele>28.0155</ele>
        <time>2014-07-07T19:28:49Z</time>
      </trkpt>
      <trkpt lat="59.9441247" lon="17.8236951">
        <ele>28.0155</ele>
        <time>2014-07-07T19:28:50Z</time>
      </trkpt>
      <trkpt lat="59.9441784" lon="17.8237615">
        <ele>28.0155</ele>
        <time>2014-07-07T19:28:51Z</time>
      </trkpt>
      <trkpt lat="59.9442326" lon="17.8238272">
        <ele>28.0155</ele>
        <time>2014-07-07T19:28:52Z</time>
      </trkpt>
      <trkpt lat="59.9442886" lon="17.8238894">
        <ele>28.4962</ele>
        <time>2014-07-07T19:28:53Z</time>
      </trkpt>
      <trkpt lat="59.9443447" lon="17.823949">
        <ele>28.4962</ele>
        <time>2014-07-07T19:28:54Z</time>
      </trkpt>
      <trkpt lat="59.9444007" lon="17.8240085">
        <ele>28.0155</ele>
        <time>2014-07-07T19:28:55Z</time>
      </trkpt>
      <trkpt lat="59.9444562" lon="17.8240701">
        <ele>28.0155</ele>
        <time>2014-07-07T19:28:56Z</time>
      </trkpt>
      <trkpt lat="59.944512" lon="17.8241314">
        <ele>28.0155</ele>
        <time>2014-07-07T19:28:57Z</time>
      </trkpt>
      <trkpt lat="59.9445686" lon="17.8241909">
        <ele>28.0155</ele>
        <time>2014-07-07T19:28:58Z</time>
      </trkpt>
      <trkpt lat="59.9446261" lon="17.8242511">
        <ele>28.0155</ele>
        <time>2014-07-07T19:28:59Z</time>
      </trkpt>
      <trkpt lat="59.9446847" lon="17.8243136">
        <ele>27.5349</ele>
        <time>2014-07-07T19:29:00Z</time>
      </trkpt>
      <trkpt lat="59.9447443" lon="17.8243768">
        <ele>27.5349</ele>
        <time>2014-07-07T19:29:01Z</time>
      </trkpt>
      <trkpt lat="59.9448044" lon="17.824439">
        <ele>27.5349</ele>
        <time>2014-07-07T19:29:02Z</time>
      </trkpt>
      <trkpt lat="59.9448649" lon="17.8245005">
        <ele>27.5349</ele>
        <time>2014-07-07T19:29:03Z</time>
      </trkpt>
      <trkpt lat="59.9449262" lon="17.8245629">
        <ele>27.0543</ele>
        <time>2014-07-07T19:29:04Z</time>
      </trkpt>
      <trkpt lat="59.9449872" lon="17.8246261">
        <ele>27.0543</ele>
        <time>2014-07-07T19:29:05Z</time>
      </trkpt>
      <trkpt lat="59.945048" lon="17.8246906">
        <ele>27.0543</ele>
        <time>2014-07-07T19:29:06Z</time>
      </trkpt>
      <trkpt lat="59.94511" lon="17.8247558">
        <ele>26.5736</ele>
        <time>2014-07-07T19:29:07Z</time>
      </trkpt>
      <trkpt lat="59.9451737" lon="17.8248212">
        <ele>26.5736</ele>
        <time>2014-07-07T19:29:08Z</time>
      </trkpt>
      <trkpt lat="59.9452385" lon="17.8248876">
        <ele>26.5736</ele>
        <time>2014-07-07T19:29:09Z</time>
      </trkpt>
      <trkpt lat="59.9453038" lon="17.824956">
        <ele>26.5736</ele>
        <time>2014-07-07T19:29:10Z</time>
      </trkpt>
      <trkpt lat="59.94537" lon="17.8250247">
        <ele>26.5736</ele>
        <time>2014-07-07T19:29:11Z</time>
      </trkpt>
      <trkpt lat="59.9454373" lon="17.8250934">
        <ele>26.0929</ele>
        <time>2014-07-07T19:29:12Z</time>
      </trkpt>
      <trkpt lat="59.9455057" lon="17.8251635">
        <ele>26.0929</ele>
        <time>2014-07-07T19:29:13Z</time>
      </trkpt>
      <trkpt lat="59.9455743" lon="17.825233">
        <ele>26.0929</ele>
        <time>2014-07-07T19:29:14Z</time>
      </trkpt>
      <trkpt lat="59.9456428" lon="17.8253025">
        <ele>26.0929</ele>
        <time>2014-07-07T19:29:15Z</time>
      </trkpt>
      <trkpt lat="59.9457107" lon="17.8253725">
        <ele>25.6123</ele>
        <time>2014-07-07T19:29:16Z</time>
      </trkpt>
      <trkpt lat="59.9457784" lon="17.825442">
        <ele>25.6123</ele>
        <time>2014-07-07T19:29:17Z</time>
      </trkpt>
      <trkpt lat="59.9458457" lon="17.8255121">
        <ele>25.6123</ele>
        <time>2014-07-07T19:29:18Z</time>
      </trkpt>
      <trkpt lat="59.9459128" lon="17.8255818">
        <ele>25.1317</ele>
        <time>2014-07-07T19:29:19Z</time>
      </trkpt>
      <trkpt lat="59.9459796" lon="17.8256507">
        <ele>25.1317</ele>
        <time>2014-07-07T19:29:20Z</time>
      </trkpt>
      <trkpt lat="59.9460462" lon="17.8257198">
        <ele>25.1317</ele>
        <time>2014-07-07T19:29:21Z</time>
      </trkpt>
      <trkpt lat="59.9461133" lon="17.8257904">
        <ele>25.1317</ele>
        <time>2014-07-07T19:29:22Z</time>
      </trkpt>
      <trkpt lat="59.9461813" lon="17.8258618">
        <ele>24.651</ele>
        <time>2014-07-07T19:29:23Z</time>
      </trkpt>
      <trkpt lat="59.9462502" lon="17.825932">
        <ele>24.651</ele>
        <time>2014-07-07T19:29:24Z</time>
      </trkpt>
      <trkpt lat="59.9463195" lon="17.826003">
        <ele>24.651</ele>
        <time>2014-07-07T19:29:25Z</time>
      </trkpt>
      <trkpt lat="59.9463895" lon="17.8260762">
        <ele>24.651</ele>
        <time>2014-07-07T19:29:26Z</time>
      </trkpt>
      <trkpt lat="59.9464609" lon="17.82615">
        <ele>24.651</ele>
        <time>2014-07-07T19:29:27Z</time>
      </trkpt>
      <trkpt lat="59.9465333" lon="17.826224">
        <ele>24.1703</ele>
        <time>2014-07-07T19:29:28Z</time>
      </trkpt>
      <trkpt lat="59.9466064" lon="17.8262986">
        <ele>24.1703</ele>
        <time>2014-07-07T19:29:29Z</time>
      </trkpt>
      <trkpt lat="59.9466799" lon="17.8263741">
        <ele>24.1703</ele>
        <time>2014-07-07T19:29:30Z</time>
      </trkpt>
      <trkpt lat="59.9467538" lon="17.8264504">
        <ele>24.1703</ele>
        <time>2014-07-07T19:29:31Z</time>
      </trkpt>
      <trkpt lat="59.9468279" lon="17.8265259">
        <ele>24.1703</ele>
        <time>2014-07-07T19:29:32Z</time>
      </trkpt>
      <trkpt lat="59.9469009" lon="17.8266001">
        <ele>23.6896</ele>
        <time>2014-07-07T19:29:33Z</time>
      </trkpt>
      <trkpt lat="59.9469729" lon="17.8266742">
        <ele>23.6896</ele>
        <time>2014-07-07T19:29:34Z</time>
      </trkpt>
      <trkpt lat="59.9470447" lon="17.8267484">
        <ele>23.6896</ele>
        <time>2014-07-07T19:29:35Z</time>
      </trkpt>
      <trkpt lat="59.9471161" lon="17.8268229">
        <ele>23.6896</ele>
        <time>2014-07-07T19:29:36Z</time>
      </trkpt>
      <trkpt lat="59.9471877" lon="17.8268975">
        <ele>23.6896</ele>
        <time>2014-07-07T19:29:37Z</time>
      </trkpt>
      <trkpt lat="59.9472598" lon="17.8269713">
        <ele>23.6896</ele>
        <time>2014-07-07T19:29:38Z</time>
      </trkpt>
      <trkpt lat="59.9473321" lon="17.8270452">
        <ele>23.6896</ele>
        <time>2014-07-07T19:29:39Z</time>
      </trkpt>
      <trkpt lat="59.9474044" lon="17.8271202">
        <ele>23.6896</ele>
        <time>2014-07-07T19:29:40Z</time>
      </trkpt>
      <trkpt lat="59.9474772" lon="17.8271952">
        <ele>23.6896</ele>
        <time>2014-07-07T19:29:41Z</time>
      </trkpt>
      <trkpt lat="59.9475497" lon="17.8272693">
        <ele>23.6896</ele>
        <time>2014-07-07T19:29:42Z</time>
      </trkpt>
      <trkpt lat="59.9476223" lon="17.8273425">
        <ele>23.6896</ele>
        <time>2014-07-07T19:29:43Z</time>
      </trkpt>
      <trkpt lat="59.9476947" lon="17.8274163">
        <ele>23.6896</ele>
        <time>2014-07-07T19:29:44Z</time>
      </trkpt>
      <trkpt lat="59.9477669" lon="17.8274911">
        <ele>23.209</ele>
        <time>2014-07-07T19:29:45Z</time>
      </trkpt>
      <trkpt lat="59.9478393" lon="17.8275663">
        <ele>23.209</ele>
        <time>2014-07-07T19:29:46Z</time>
      </trkpt>
      <trkpt lat="59.9479119" lon="17.8276413">
        <ele>23.209</ele>
        <time>2014-07-07T19:29:47Z</time>
      </trkpt>
      <trkpt lat="59.9479837" lon="17.8277159">
        <ele>23.209</ele>
        <time>2014-07-07T19:29:48Z</time>
      </trkpt>
      <trkpt lat="59.9480535" lon="17.8277886">
        <ele>23.209</ele>
        <time>2014-07-07T19:29:49Z</time>
      </trkpt>
      <trkpt lat="59.9481216" lon="17.8278598">
        <ele>23.209</ele>
        <time>2014-07-07T19:29:50Z</time>
      </trkpt>
      <trkpt lat="59.948188" lon="17.8279308">
        <ele>23.209</ele>
        <time>2014-07-07T19:29:51Z</time>
      </trkpt>
      <trkpt lat="59.9482544" lon="17.828001">
        <ele>23.209</ele>
        <time>2014-07-07T19:29:52Z</time>
      </trkpt>
      <trkpt lat="59.9483206" lon="17.8280709">
        <ele>23.209</ele>
        <time>2014-07-07T19:29:53Z</time>
      </trkpt>
      <trkpt lat="59.948387" lon="17.8281392">
        <ele>23.209</ele>
        <time>2014-07-07T19:29:54Z</time>
      </trkpt>
      <trkpt lat="59.9484533" lon="17.8282075">
        <ele>22.7283</ele>
        <time>2014-07-07T19:29:55Z</time>
      </trkpt>
      <trkpt lat="59.9485194" lon="17.8282785">
        <ele>22.7283</ele>
        <time>2014-07-07T19:29:56Z</time>
      </trkpt>
      <trkpt lat="59.9485859" lon="17.8283501">
        <ele>22.7283</ele>
        <time>2014-07-07T19:29:57Z</time>
      </trkpt>
      <trkpt lat="59.9486535" lon="17.828421">
        <ele>22.2476</ele>
        <time>2014-07-07T19:29:58Z</time>
      </trkpt>
      <trkpt lat="59.9487215" lon="17.8284939">
        <ele>22.2476</ele>
        <time>2014-07-07T19:29:59Z</time>
      </trkpt>
      <trkpt lat="59.9487898" lon="17.8285686">
        <ele>22.2476</ele>
        <time>2014-07-07T19:30:00Z</time>
      </trkpt>
      <trkpt lat="59.948859" lon="17.8286431">
        <ele>22.2476</ele>
        <time>2014-07-07T19:30:01Z</time>
      </trkpt>
      <trkpt lat="59.9489288" lon="17.8287178">
        <ele>21.767</ele>
        <time>2014-07-07T19:30:02Z</time>
      </trkpt>
      <trkpt lat="59.9489975" lon="17.8287938">
        <ele>21.767</ele>
        <time>2014-07-07T19:30:03Z</time>
      </trkpt>
      <trkpt lat="59.9490645" lon="17.8288695">
        <ele>21.767</ele>
        <time>2014-07-07T19:30:04Z</time>
      </trkpt>
      <trkpt lat="59.9491293" lon="17.8289427">
        <ele>21.767</ele>
        <time>2014-07-07T19:30:05Z</time>
      </trkpt>
      <trkpt lat="59.9491925" lon="17.8290141">
        <ele>21.767</ele>
        <time>2014-07-07T19:30:06Z</time>
      </trkpt>
      <trkpt lat="59.9492541" lon="17.8290819">
        <ele>21.767</ele>
        <time>2014-07-07T19:30:07Z</time>
      </trkpt>
      <trkpt lat="59.9493146" lon="17.8291504">
        <ele>22.2476</ele>
        <time>2014-07-07T19:30:08Z</time>
      </trkpt>
      <trkpt lat="59.9493738" lon="17.8292226">
        <ele>22.2476</ele>
        <time>2014-07-07T19:30:09Z</time>
      </trkpt>
      <trkpt lat="59.9494326" lon="17.8292957">
        <ele>22.2476</ele>
        <time>2014-07-07T19:30:10Z</time>
      </trkpt>
      <trkpt lat="59.9494904" lon="17.8293692">
        <ele>22.2476</ele>
        <time>2014-07-07T19:30:11Z</time>
      </trkpt>
      <trkpt lat="59.9495472" lon="17.829444">
        <ele>22.2476</ele>
        <time>2014-07-07T19:30:12Z</time>
      </trkpt>
      <trkpt lat="59.9496023" lon="17.8295217">
        <ele>22.7283</ele>
        <time>2014-07-07T19:30:13Z</time>
      </trkpt>
      <trkpt lat="59.9496561" lon="17.8295997">
        <ele>22.7283</ele>
        <time>2014-07-07T19:30:14Z</time>
      </trkpt>
      <trkpt lat="59.9497085" lon="17.8296725">
        <ele>22.7283</ele>
        <time>2014-07-07T19:30:15Z</time>
      </trkpt>
      <trkpt lat="59.9497608" lon="17.8297336">
        <ele>22.7283</ele>
        <time>2014-07-07T19:30:16Z</time>
      </trkpt>
      <trkpt lat="59.9498146" lon="17.8297749">
        <ele>23.209</ele>
        <time>2014-07-07T19:30:17Z</time>
      </trkpt>
      <trkpt lat="59.9498688" lon="17.8297911">
        <ele>22.7283</ele>
        <time>2014-07-07T19:30:18Z</time>
      </trkpt>
      <trkpt lat="59.9499221" lon="17.8297781">
        <ele>22.7283</ele>
        <time>2014-07-07T19:30:19Z</time>
      </trkpt>
      <trkpt lat="59.9499709" lon="17.8297301">
        <ele>22.7283</ele>
        <time>2014-07-07T19:30:20Z</time>
      </trkpt>
      <trkpt lat="59.9500105" lon="17.829648">
        <ele>22.7283</ele>
        <time>2014-07-07T19:30:21Z</time>
      </trkpt>
      <trkpt lat="59.9500404" lon="17.8295399">
        <ele>22.7283</ele>
        <time>2014-07-07T19:30:22Z</time>
      </trkpt>
      <trkpt lat="59.9500632" lon="17.8294161">
        <ele>22.2476</ele>
        <time>2014-07-07T19:30:23Z</time>
      </trkpt>
      <trkpt lat="59.9500798" lon="17.8292825">
        <ele>22.2476</ele>
        <time>2014-07-07T19:30:24Z</time>
      </trkpt>
      <trkpt lat="59.9500886" lon="17.829142">
        <ele>22.2476</ele>
        <time>2014-07-07T19:30:25Z</time>
      </trkpt>
      <trkpt lat="59.9500908" lon="17.8289969">
        <ele>22.2476</ele>
        <time>2014-07-07T19:30:26Z</time>
      </trkpt>
      <trkpt lat="59.9500886" lon="17.8288486">
        <ele>22.7283</ele>
        <time>2014-07-07T19:30:27Z</time>
      </trkpt>
      <trkpt lat="59.9500845" lon="17.8286955">
        <ele>22.2476</ele>
        <time>2014-07-07T19:30:28Z</time>
      </trkpt>
      <trkpt lat="59.9500798" lon="17.8285412">
        <ele>22.2476</ele>
        <time>2014-07-07T19:30:29Z</time>
      </trkpt>
      <trkpt lat="59.950075" lon="17.8283857">
        <ele>22.2476</ele>
        <time>2014-07-07T19:30:30Z</time>
      </trkpt>
      <trkpt lat="59.9500715" lon="17.828228">
        <ele>22.2476</ele>
        <time>2014-07-07T19:30:31Z</time>
      </trkpt>
      <trkpt lat="59.95007" lon="17.8280687">
        <ele>22.2476</ele>
        <time>2014-07-07T19:30:32Z</time>
      </trkpt>
      <trkpt lat="59.9500688" lon="17.8279077">
        <ele>21.767</ele>
        <time>2014-07-07T19:30:33Z</time>
      </trkpt>
      <trkpt lat="59.9500662" lon="17.8277455">
        <ele>21.767</ele>
        <time>2014-07-07T19:30:34Z</time>
      </trkpt>
      <trkpt lat="59.9500627" lon="17.8275818">
        <ele>21.767</ele>
        <time>2014-07-07T19:30:35Z</time>
      </trkpt>
      <trkpt lat="59.9500618" lon="17.8274164">
        <ele>21.767</ele>
        <time>2014-07-07T19:30:36Z</time>
      </trkpt>
      <trkpt lat="59.9500654" lon="17.8272497">
        <ele>21.767</ele>
        <time>2014-07-07T19:30:37Z</time>
      </trkpt>
      <trkpt lat="59.950072" lon="17.8270814">
        <ele>21.767</ele>
        <time>2014-07-07T19:30:38Z</time>
      </trkpt>
      <trkpt lat="59.9500801" lon="17.8269114">
        <ele>21.767</ele>
        <time>2014-07-07T19:30:39Z</time>
      </trkpt>
      <trkpt lat="59.9500907" lon="17.8267396">
        <ele>21.767</ele>
        <time>2014-07-07T19:30:40Z</time>
      </trkpt>
      <trkpt lat="59.9501047" lon="17.8265671">
        <ele>22.2476</ele>
        <time>2014-07-07T19:30:41Z</time>
      </trkpt>
      <trkpt lat="59.9501224" lon="17.826395">
        <ele>22.2476</ele>
        <time>2014-07-07T19:30:42Z</time>
      </trkpt>
      <trkpt lat="59.9501454" lon="17.8262244">
        <ele>22.2476</ele>
        <time>2014-07-07T19:30:43Z</time>
      </trkpt>
      <trkpt lat="59.9501736" lon="17.8260569">
        <ele>22.2476</ele>
        <time>2014-07-07T19:30:44Z</time>
      </trkpt>
      <trkpt lat="59.9502062" lon="17.8258924">
        <ele>22.7283</ele>
        <time>2014-07-07T19:30:45Z</time>
      </trkpt>
      <trkpt lat="59.9502407" lon="17.8257289">
        <ele>22.7283</ele>
        <time>2014-07-07T19:30:46Z</time>
      </trkpt>
      <trkpt lat="59.9502756" lon="17.8255661">
        <ele>22.7283</ele>
        <time>2014-07-07T19:30:47Z</time>
      </trkpt>
      <trkpt lat="59.9503107" lon="17.8254031">
        <ele>23.209</ele>
        <time>2014-07-07T19:30:48Z</time>
      </trkpt>
      <trkpt lat="59.9503474" lon="17.8252414">
        <ele>23.209</ele>
        <time>2014-07-07T19:30:49Z</time>
      </trkpt>
      <trkpt lat="59.9503865" lon="17.8250811">
        <ele>23.209</ele>
        <time>2014-07-07T19:30:50Z</time>
      </trkpt>
      <trkpt lat="59.9504257" lon="17.8249202">
        <ele>23.209</ele>
        <time>2014-07-07T19:30:51Z</time>
      </trkpt>
      <trkpt lat="59.9504635" lon="17.8247582">
        <ele>23.6896</ele>
        <time>2014-07-07T19:30:52Z</time>
      </trkpt>
      <trkpt lat="59.9504999" lon="17.824596">
        <ele>23.6896</ele>
        <time>2014-07-07T19:30:53Z</time>
      </trkpt>
      <trkpt lat="59.9505356" lon="17.8244343">
        <ele>23.6896</ele>
        <time>2014-07-07T19:30:54Z</time>
      </trkpt>
      <trkpt lat="59.9505704" lon="17.8242738">
        <ele>24.1703</ele>
        <time>2014-07-07T19:30:55Z</time>
      </trkpt>
      <trkpt lat="59.9506036" lon="17.8241145">
        <ele>24.1703</ele>
        <time>2014-07-07T19:30:56Z</time>
      </trkpt>
      <trkpt lat="59.9506346" lon="17.823955">
        <ele>24.651</ele>
        <time>2014-07-07T19:30:57Z</time>
      </trkpt>
      <trkpt lat="59.9506621" lon="17.8237935">
        <ele>25.1317</ele>
        <time>2014-07-07T19:30:58Z</time>
      </trkpt>
      <trkpt lat="59.9506853" lon="17.8236283">
        <ele>25.1317</ele>
        <time>2014-07-07T19:30:59Z</time>
      </trkpt>
      <trkpt lat="59.9507052" lon="17.8234605">
        <ele>25.1317</ele>
        <time>2014-07-07T19:31:00Z</time>
      </trkpt>
      <trkpt lat="59.9507233" lon="17.8232911">
        <ele>25.6123</ele>
        <time>2014-07-07T19:31:01Z</time>
      </trkpt>
      <trkpt lat="59.9507401" lon="17.8231202">
        <ele>25.6123</ele>
        <time>2014-07-07T19:31:02Z</time>
      </trkpt>
      <trkpt lat="59.9507558" lon="17.8229493">
        <ele>25.6123</ele>
        <time>2014-07-07T19:31:03Z</time>
      </trkpt>
      <trkpt lat="59.9507715" lon="17.8227807">
        <ele>26.0929</ele>
        <time>2014-07-07T19:31:04Z</time>
      </trkpt>
      <trkpt lat="59.9507882" lon="17.8226149">
        <ele>26.0929</ele>
        <time>2014-07-07T19:31:05Z</time>
      </trkpt>
      <trkpt lat="59.950805" lon="17.8224514">
        <ele>26.5736</ele>
        <time>2014-07-07T19:31:06Z</time>
      </trkpt>
      <trkpt lat="59.9508232" lon="17.8222914">
        <ele>26.5736</ele>
        <time>2014-07-07T19:31:07Z</time>
      </trkpt>
      <trkpt lat="59.9508423" lon="17.8221339">
        <ele>27.0543</ele>
        <time>2014-07-07T19:31:08Z</time>
      </trkpt>
      <trkpt lat="59.9508599" lon="17.821977">
        <ele>27.0543</ele>
        <time>2014-07-07T19:31:09Z</time>
      </trkpt>
      <trkpt lat="59.9508763" lon="17.8218205">
        <ele>27.0543</ele>
        <time>2014-07-07T19:31:10Z</time>
      </trkpt>
      <trkpt lat="59.9508919" lon="17.821665">
        <ele>27.0543</ele>
        <time>2014-07-07T19:31:11Z</time>
      </trkpt>
      <trkpt lat="59.9509071" lon="17.8215107">
        <ele>27.5349</ele>
        <time>2014-07-07T19:31:12Z</time>
      </trkpt>
      <trkpt lat="59.9509216" lon="17.8213579">
        <ele>27.5349</ele>
        <time>2014-07-07T19:31:13Z</time>
      </trkpt>
      <trkpt lat="59.950935" lon="17.8212067">
        <ele>27.5349</ele>
        <time>2014-07-07T19:31:14Z</time>
      </trkpt>
      <trkpt lat="59.9509478" lon="17.8210574">
        <ele>27.5349</ele>
        <time>2014-07-07T19:31:15Z</time>
      </trkpt>
      <trkpt lat="59.9509594" lon="17.8209092">
        <ele>27.5349</ele>
        <time>2014-07-07T19:31:16Z</time>
      </trkpt>
      <trkpt lat="59.9509703" lon="17.8207617">
        <ele>27.5349</ele>
        <time>2014-07-07T19:31:17Z</time>
      </trkpt>
      <trkpt lat="59.9509809" lon="17.8206146">
        <ele>28.0155</ele>
        <time>2014-07-07T19:31:18Z</time>
      </trkpt>
      <trkpt lat="59.9509903" lon="17.8204684">
        <ele>28.0155</ele>
        <time>2014-07-07T19:31:19Z</time>
      </trkpt>
      <trkpt lat="59.9509991" lon="17.8203232">
        <ele>28.0155</ele>
        <time>2014-07-07T19:31:20Z</time>
      </trkpt>
      <trkpt lat="59.9510075" lon="17.8201787">
        <ele>28.0155</ele>
        <time>2014-07-07T19:31:21Z</time>
      </trkpt>
      <trkpt lat="59.9510146" lon="17.8200345">
        <ele>28.0155</ele>
        <time>2014-07-07T19:31:22Z</time>
      </trkpt>
      <trkpt lat="59.9510205" lon="17.8198914">
        <ele>28.4962</ele>
        <time>2014-07-07T19:31:23Z</time>
      </trkpt>
      <trkpt lat="59.9510256" lon="17.8197491">
        <ele>28.4962</ele>
        <time>2014-07-07T19:31:24Z</time>
      </trkpt>
      <trkpt lat="59.9510263" lon="17.8196115">
        <ele>28.4962</ele>
        <time>2014-07-07T19:31:25Z</time>
      </trkpt>
      <trkpt lat="59.9510221" lon="17.819474">
        <ele>28.9769</ele>
        <time>2014-07-07T19:31:26Z</time>
      </trkpt>
      <trkpt lat="59.9510159" lon="17.8193343">
        <ele>28.4962</ele>
        <time>2014-07-07T19:31:27Z</time>
      </trkpt>
      <trkpt lat="59.9510142" lon="17.81919">
        <ele>28.4962</ele>
        <time>2014-07-07T19:31:28Z</time>
      </trkpt>
      <trkpt lat="59.9510175" lon="17.819045">
        <ele>28.4962</ele>
        <time>2014-07-07T19:31:29Z</time>
      </trkpt>
      <trkpt lat="59.9510251" lon="17.8189046">
        <ele>28.9769</ele>
        <time>2014-07-07T19:31:30Z</time>
      </trkpt>
      <trkpt lat="59.9510358" lon="17.8187663">
        <ele>28.9769</ele>
        <time>2014-07-07T19:31:31Z</time>
      </trkpt>
      <trkpt lat="59.9510484" lon="17.8186294">
        <ele>28.9769</ele>
        <time>2014-07-07T19:31:32Z</time>
      </trkpt>
      <trkpt lat="59.951062" lon="17.8184926">
        <ele>28.9769</ele>
        <time>2014-07-07T19:31:33Z</time>
      </trkpt>
      <trkpt lat="59.9510768" lon="17.8183541">
        <ele>28.9769</ele>
        <time>2014-07-07T19:31:34Z</time>
      </trkpt>
      <trkpt lat="59.9510919" lon="17.8182134">
        <ele>28.9769</ele>
        <time>2014-07-07T19:31:35Z</time>
      </trkpt>
      <trkpt lat="59.951107" lon="17.818069">
        <ele>28.9769</ele>
        <time>2014-07-07T19:31:36Z</time>
      </trkpt>
      <trkpt lat="59.9511229" lon="17.8179199">
        <ele>28.9769</ele>
        <time>2014-07-07T19:31:37Z</time>
      </trkpt>
      <trkpt lat="59.9511386" lon="17.8177666">
        <ele>28.9769</ele>
        <time>2014-07-07T19:31:38Z</time>
      </trkpt>
      <trkpt lat="59.9511543" lon="17.8176111">
        <ele>28.9769</ele>
        <time>2014-07-07T19:31:39Z</time>
      </trkpt>
      <trkpt lat="59.9511707" lon="17.8174536">
        <ele>28.9769</ele>
        <time>2014-07-07T19:31:40Z</time>
      </trkpt>
      <trkpt lat="59.9511874" lon="17.8172947">
        <ele>28.9769</ele>
        <time>2014-07-07T19:31:41Z</time>
      </trkpt>
      <trkpt lat="59.951205" lon="17.8171351">
        <ele>28.9769</ele>
        <time>2014-07-07T19:31:42Z</time>
      </trkpt>
      <trkpt lat="59.9512223" lon="17.8169735">
        <ele>28.9769</ele>
        <time>2014-07-07T19:31:43Z</time>
      </trkpt>
      <trkpt lat="59.9512381" lon="17.8168093">
        <ele>28.9769</ele>
        <time>2014-07-07T19:31:44Z</time>
      </trkpt>
      <trkpt lat="59.9512545" lon="17.8166435">
        <ele>28.9769</ele>
        <time>2014-07-07T19:31:45Z</time>
      </trkpt>
      <trkpt lat="59.9512712" lon="17.8164767">
        <ele>28.9769</ele>
        <time>2014-07-07T19:31:46Z</time>
      </trkpt>
      <trkpt lat="59.9512871" lon="17.8163081">
        <ele>28.9769</ele>
        <time>2014-07-07T19:31:47Z</time>
      </trkpt>
      <trkpt lat="59.9513018" lon="17.8161374">
        <ele>28.9769</ele>
        <time>2014-07-07T19:31:48Z</time>
      </trkpt>
      <trkpt lat="59.9513151" lon="17.8159655">
        <ele>28.9769</ele>
        <time>2014-07-07T19:31:49Z</time>
      </trkpt>
      <trkpt lat="59.9513266" lon="17.8157933">
        <ele>28.9769</ele>
        <time>2014-07-07T19:31:50Z</time>
      </trkpt>
      <trkpt lat="59.9513365" lon="17.8156214">
        <ele>28.9769</ele>
        <time>2014-07-07T19:31:51Z</time>
      </trkpt>
      <trkpt lat="59.9513453" lon="17.81545">
        <ele>28.9769</ele>
        <time>2014-07-07T19:31:52Z</time>
      </trkpt>
      <trkpt lat="59.9513524" lon="17.8152794">
        <ele>28.9769</ele>
        <time>2014-07-07T19:31:53Z</time>
      </trkpt>
      <trkpt lat="59.9513582" lon="17.8151097">
        <ele>28.9769</ele>
        <time>2014-07-07T19:31:54Z</time>
      </trkpt>
      <trkpt lat="59.9513633" lon="17.8149411">
        <ele>29.4575</ele>
        <time>2014-07-07T19:31:55Z</time>
      </trkpt>
      <trkpt lat="59.9513675" lon="17.8147735">
        <ele>29.4575</ele>
        <time>2014-07-07T19:31:56Z</time>
      </trkpt>
      <trkpt lat="59.9513712" lon="17.8146065">
        <ele>29.4575</ele>
        <time>2014-07-07T19:31:57Z</time>
      </trkpt>
      <trkpt lat="59.9513742" lon="17.8144395">
        <ele>29.4575</ele>
        <time>2014-07-07T19:31:58Z</time>
      </trkpt>
      <trkpt lat="59.9513758" lon="17.8142725">
        <ele>29.4575</ele>
        <time>2014-07-07T19:31:59Z</time>
      </trkpt>
      <trkpt lat="59.9513774" lon="17.8141058">
        <ele>29.4575</ele>
        <time>2014-07-07T19:32:00Z</time>
      </trkpt>
      <trkpt lat="59.951379" lon="17.81394">
        <ele>29.4575</ele>
        <time>2014-07-07T19:32:01Z</time>
      </trkpt>
      <trkpt lat="59.9513804" lon="17.8137748">
        <ele>29.4575</ele>
        <time>2014-07-07T19:32:02Z</time>
      </trkpt>
      <trkpt lat="59.951382" lon="17.8136106">
        <ele>29.4575</ele>
        <time>2014-07-07T19:32:03Z</time>
      </trkpt>
      <trkpt lat="59.9513827" lon="17.8134475">
        <ele>29.4575</ele>
        <time>2014-07-07T19:32:04Z</time>
      </trkpt>
      <trkpt lat="59.951383" lon="17.813286">
        <ele>29.9381</ele>
        <time>2014-07-07T19:32:05Z</time>
      </trkpt>
      <trkpt lat="59.9513835" lon="17.8131255">
        <ele>29.9381</ele>
        <time>2014-07-07T19:32:06Z</time>
      </trkpt>
      <trkpt lat="59.9513843" lon="17.8129673">
        <ele>29.9381</ele>
        <time>2014-07-07T19:32:07Z</time>
      </trkpt>
      <trkpt lat="59.9513853" lon="17.8128138">
        <ele>29.9381</ele>
        <time>2014-07-07T19:32:08Z</time>
      </trkpt>
      <trkpt lat="59.9513858" lon="17.8126651">
        <ele>29.9381</ele>
        <time>2014-07-07T19:32:09Z</time>
      </trkpt>
      <trkpt lat="59.9513867" lon="17.8125202">
        <ele>29.9381</ele>
        <time>2014-07-07T19:32:10Z</time>
      </trkpt>
      <trkpt lat="59.9513891" lon="17.8123782">
        <ele>30.4188</ele>
        <time>2014-07-07T19:32:11Z</time>
      </trkpt>
      <trkpt lat="59.9513926" lon="17.8122374">
        <ele>30.4188</ele>
        <time>2014-07-07T19:32:12Z</time>
      </trkpt>
      <trkpt lat="59.9513974" lon="17.8120972">
        <ele>30.4188</ele>
        <time>2014-07-07T19:32:13Z</time>
      </trkpt>
      <trkpt lat="59.9514043" lon="17.811957">
        <ele>30.4188</ele>
        <time>2014-07-07T19:32:14Z</time>
      </trkpt>
      <trkpt lat="59.9514137" lon="17.8118166">
        <ele>30.8995</ele>
        <time>2014-07-07T19:32:15Z</time>
      </trkpt>
      <trkpt lat="59.9514256" lon="17.8116768">
        <ele>30.8995</ele>
        <time>2014-07-07T19:32:16Z</time>
      </trkpt>
      <trkpt lat="59.9514407" lon="17.8115396">
        <ele>30.8995</ele>
        <time>2014-07-07T19:32:17Z</time>
      </trkpt>
      <trkpt lat="59.9514587" lon="17.8114043">
        <ele>30.8995</ele>
        <time>2014-07-07T19:32:18Z</time>
      </trkpt>
      <trkpt lat="59.9514772" lon="17.8112696">
        <ele>30.8995</ele>
        <time>2014-07-07T19:32:19Z</time>
      </trkpt>
      <trkpt lat="59.9514959" lon="17.8111349">
        <ele>30.8995</ele>
        <time>2014-07-07T19:32:20Z</time>
      </trkpt>
      <trkpt lat="59.9515157" lon="17.8110007">
        <ele>30.8995</ele>
        <time>2014-07-07T19:32:21Z</time>
      </trkpt>
      <trkpt lat="59.9515376" lon="17.8108666">
        <ele>31.3801</ele>
        <time>2014-07-07T19:32:22Z</time>
      </trkpt>
      <trkpt lat="59.9515618" lon="17.8107335">
        <ele>31.3801</ele>
        <time>2014-07-07T19:32:23Z</time>
      </trkpt>
      <trkpt lat="59.9515877" lon="17.8106012">
        <ele>31.3801</ele>
        <time>2014-07-07T19:32:24Z</time>
      </trkpt>
      <trkpt lat="59.9516145" lon="17.8104684">
        <ele>31.3801</ele>
        <time>2014-07-07T19:32:25Z</time>
      </trkpt>
      <trkpt lat="59.9516433" lon="17.8103362">
        <ele>31.3801</ele>
        <time>2014-07-07T19:32:26Z</time>
      </trkpt>
      <trkpt lat="59.9516749" lon="17.8102054">
        <ele>31.3801</ele>
        <time>2014-07-07T19:32:27Z</time>
      </trkpt>
      <trkpt lat="59.9517084" lon="17.810076">
        <ele>31.3801</ele>
        <time>2014-07-07T19:32:28Z</time>
      </trkpt>
      <trkpt lat="59.9517427" lon="17.8099467">
        <ele>31.3801</ele>
        <time>2014-07-07T19:32:29Z</time>
      </trkpt>
      <trkpt lat="59.9517773" lon="17.8098174">
        <ele>31.3801</ele>
        <time>2014-07-07T19:32:30Z</time>
      </trkpt>
      <trkpt lat="59.9518116" lon="17.8096875">
        <ele>31.3801</ele>
        <time>2014-07-07T19:32:31Z</time>
      </trkpt>
      <trkpt lat="59.9518461" lon="17.8095567">
        <ele>31.3801</ele>
        <time>2014-07-07T19:32:32Z</time>
      </trkpt>
      <trkpt lat="59.9518813" lon="17.809425">
        <ele>31.8607</ele>
        <time>2014-07-07T19:32:33Z</time>
      </trkpt>
      <trkpt lat="59.9519176" lon="17.8092919">
        <ele>31.8607</ele>
        <time>2014-07-07T19:32:34Z</time>
      </trkpt>
      <trkpt lat="59.9519543" lon="17.809157">
        <ele>31.8607</ele>
        <time>2014-07-07T19:32:35Z</time>
      </trkpt>
      <trkpt lat="59.9519909" lon="17.8090205">
        <ele>31.8607</ele>
        <time>2014-07-07T19:32:36Z</time>
      </trkpt>
      <trkpt lat="59.9520278" lon="17.8088832">
        <ele>31.8607</ele>
        <time>2014-07-07T19:32:37Z</time>
      </trkpt>
      <trkpt lat="59.9520648" lon="17.8087448">
        <ele>31.8607</ele>
        <time>2014-07-07T19:32:38Z</time>
      </trkpt>
      <trkpt lat="59.9521016" lon="17.8086054">
        <ele>31.8607</ele>
        <time>2014-07-07T19:32:39Z</time>
      </trkpt>
      <trkpt lat="59.9521377" lon="17.8084646">
        <ele>32.3416</ele>
        <time>2014-07-07T19:32:40Z</time>
      </trkpt>
      <trkpt lat="59.9521731" lon="17.8083243">
        <ele>32.3416</ele>
        <time>2014-07-07T19:32:41Z</time>
      </trkpt>
      <trkpt lat="59.9522086" lon="17.8081859">
        <ele>32.3416</ele>
        <time>2014-07-07T19:32:42Z</time>
      </trkpt>
      <trkpt lat="59.9522441" lon="17.8080492">
        <ele>32.3416</ele>
        <time>2014-07-07T19:32:43Z</time>
      </trkpt>
      <trkpt lat="59.9522801" lon="17.8079143">
        <ele>32.8223</ele>
        <time>2014-07-07T19:32:44Z</time>
      </trkpt>
      <trkpt lat="59.9523161" lon="17.8077802">
        <ele>32.8223</ele>
        <time>2014-07-07T19:32:45Z</time>
      </trkpt>
      <trkpt lat="59.9523518" lon="17.8076462">
        <ele>32.8223</ele>
        <time>2014-07-07T19:32:46Z</time>
      </trkpt>
      <trkpt lat="59.9523875" lon="17.8075118">
        <ele>33.3029</ele>
        <time>2014-07-07T19:32:47Z</time>
      </trkpt>
      <trkpt lat="59.9524224" lon="17.8073769">
        <ele>33.3029</ele>
        <time>2014-07-07T19:32:48Z</time>
      </trkpt>
      <trkpt lat="59.9524568" lon="17.8072436">
        <ele>33.7834</ele>
        <time>2014-07-07T19:32:49Z</time>
      </trkpt>
      <trkpt lat="59.9524906" lon="17.8071122">
        <ele>33.7834</ele>
        <time>2014-07-07T19:32:50Z</time>
      </trkpt>
      <trkpt lat="59.9525233" lon="17.8069821">
        <ele>34.2642</ele>
        <time>2014-07-07T19:32:51Z</time>
      </trkpt>
      <trkpt lat="59.9525538" lon="17.8068516">
        <ele>34.7449</ele>
        <time>2014-07-07T19:32:52Z</time>
      </trkpt>
      <trkpt lat="59.9525832" lon="17.806721">
        <ele>34.7449</ele>
        <time>2014-07-07T19:32:53Z</time>
      </trkpt>
      <trkpt lat="59.9526119" lon="17.8065914">
        <ele>35.2255</ele>
        <time>2014-07-07T19:32:54Z</time>
      </trkpt>
      <trkpt lat="59.9526399" lon="17.8064626">
        <ele>35.7061</ele>
        <time>2014-07-07T19:32:55Z</time>
      </trkpt>
      <trkpt lat="59.9526665" lon="17.806334">
        <ele>35.7061</ele>
        <time>2014-07-07T19:32:56Z</time>
      </trkpt>
      <trkpt lat="59.9526914" lon="17.8062049">
        <ele>35.7061</ele>
        <time>2014-07-07T19:32:57Z</time>
      </trkpt>
      <trkpt lat="59.9527145" lon="17.8060748">
        <ele>36.1868</ele>
        <time>2014-07-07T19:32:58Z</time>
      </trkpt>
      <trkpt lat="59.9527356" lon="17.8059429">
        <ele>36.1868</ele>
        <time>2014-07-07T19:32:59Z</time>
      </trkpt>
      <trkpt lat="59.9527539" lon="17.8058098">
        <ele>36.1868</ele>
        <time>2014-07-07T19:33:00Z</time>
      </trkpt>
      <trkpt lat="59.9527712" lon="17.8056766">
        <ele>36.1868</ele>
        <time>2014-07-07T19:33:01Z</time>
      </trkpt>
      <trkpt lat="59.952788" lon="17.8055425">
        <ele>36.1868</ele>
        <time>2014-07-07T19:33:02Z</time>
      </trkpt>
      <trkpt lat="59.9528035" lon="17.8054074">
        <ele>36.6675</ele>
        <time>2014-07-07T19:33:03Z</time>
      </trkpt>
      <trkpt lat="59.9528185" lon="17.8052736">
        <ele>36.6675</ele>
        <time>2014-07-07T19:33:04Z</time>
      </trkpt>
      <trkpt lat="59.952833" lon="17.805141">
        <ele>36.6675</ele>
        <time>2014-07-07T19:33:05Z</time>
      </trkpt>
      <trkpt lat="59.9528475" lon="17.8050098">
        <ele>36.6675</ele>
        <time>2014-07-07T19:33:06Z</time>
      </trkpt>
      <trkpt lat="59.9528632" lon="17.8048806">
        <ele>37.1481</ele>
        <time>2014-07-07T19:33:07Z</time>
      </trkpt>
      <trkpt lat="59.9528806" lon="17.8047525">
        <ele>37.1481</ele>
        <time>2014-07-07T19:33:08Z</time>
      </trkpt>
      <trkpt lat="59.9529008" lon="17.8046273">
        <ele>37.1481</ele>
        <time>2014-07-07T19:33:09Z</time>
      </trkpt>
      <trkpt lat="59.9529246" lon="17.804507">
        <ele>37.6287</ele>
        <time>2014-07-07T19:33:10Z</time>
      </trkpt>
      <trkpt lat="59.9529533" lon="17.8043946">
        <ele>37.6287</ele>
        <time>2014-07-07T19:33:11Z</time>
      </trkpt>
      <trkpt lat="59.9529879" lon="17.8042927">
        <ele>38.1094</ele>
        <time>2014-07-07T19:33:12Z</time>
      </trkpt>
      <trkpt lat="59.9530258" lon="17.8042014">
        <ele>38.5901</ele>
        <time>2014-07-07T19:33:13Z</time>
      </trkpt>
      <trkpt lat="59.9530656" lon="17.8041191">
        <ele>38.5901</ele>
        <time>2014-07-07T19:33:14Z</time>
      </trkpt>
      <trkpt lat="59.953106" lon="17.8040413">
        <ele>39.0707</ele>
        <time>2014-07-07T19:33:15Z</time>
      </trkpt>
      <trkpt lat="59.9531458" lon="17.8039639">
        <ele>39.5513</ele>
        <time>2014-07-07T19:33:16Z</time>
      </trkpt>
      <trkpt lat="59.9531848" lon="17.8038859">
        <ele>39.5513</ele>
        <time>2014-07-07T19:33:17Z</time>
      </trkpt>
      <trkpt lat="59.9532239" lon="17.8038066">
        <ele>40.0321</ele>
        <time>2014-07-07T19:33:18Z</time>
      </trkpt>
      <trkpt lat="59.9532625" lon="17.8037234">
        <ele>40.0321</ele>
        <time>2014-07-07T19:33:19Z</time>
      </trkpt>
      <trkpt lat="59.9533023" lon="17.8036418">
        <ele>40.0321</ele>
        <time>2014-07-07T19:33:20Z</time>
      </trkpt>
      <trkpt lat="59.9533412" lon="17.8035602">
        <ele>40.0321</ele>
        <time>2014-07-07T19:33:21Z</time>
      </trkpt>
      <trkpt lat="59.9533779" lon="17.8034741">
        <ele>40.0321</ele>
        <time>2014-07-07T19:33:22Z</time>
      </trkpt>
      <trkpt lat="59.9534117" lon="17.8033791">
        <ele>40.0321</ele>
        <time>2014-07-07T19:33:23Z</time>
      </trkpt>
      <trkpt lat="59.9534443" lon="17.8032783">
        <ele>40.0321</ele>
        <time>2014-07-07T19:33:24Z</time>
      </trkpt>
      <trkpt lat="59.9534757" lon="17.8031747">
        <ele>40.0321</ele>
        <time>2014-07-07T19:33:25Z</time>
      </trkpt>
      <trkpt lat="59.9535057" lon="17.8030674">
        <ele>40.0321</ele>
        <time>2014-07-07T19:33:26Z</time>
      </trkpt>
      <trkpt lat="59.9535334" lon="17.8029536">
        <ele>40.0321</ele>
        <time>2014-07-07T19:33:27Z</time>
      </trkpt>
      <trkpt lat="59.9535596" lon="17.8028348">
        <ele>39.5513</ele>
        <time>2014-07-07T19:33:28Z</time>
      </trkpt>
      <trkpt lat="59.9535847" lon="17.8027129">
        <ele>39.0707</ele>
        <time>2014-07-07T19:33:29Z</time>
      </trkpt>
      <trkpt lat="59.9536059" lon="17.8025908">
        <ele>39.5513</ele>
        <time>2014-07-07T19:33:30Z</time>
      </trkpt>
      <trkpt lat="59.9536252" lon="17.8024608">
        <ele>39.0707</ele>
        <time>2014-07-07T19:33:31Z</time>
      </trkpt>
      <trkpt lat="59.9536447" lon="17.8023255">
        <ele>39.0707</ele>
        <time>2014-07-07T19:33:32Z</time>
      </trkpt>
      <trkpt lat="59.9536684" lon="17.8021857">
        <ele>38.5901</ele>
        <time>2014-07-07T19:33:33Z</time>
      </trkpt>
      <trkpt lat="59.9536986" lon="17.8020489">
        <ele>38.5901</ele>
        <time>2014-07-07T19:33:34Z</time>
      </trkpt>
      <trkpt lat="59.9537317" lon="17.8019119">
        <ele>38.5901</ele>
        <time>2014-07-07T19:33:35Z</time>
      </trkpt>
      <trkpt lat="59.953788" lon="17.8017606">
        <ele>38.1094</ele>
        <time>2014-07-07T19:33:36Z</time>
      </trkpt>
      <trkpt lat="59.953839" lon="17.80163">
        <ele>37.1481</ele>
        <time>2014-07-07T19:33:37Z</time>
      </trkpt>
      <trkpt lat="59.9538907" lon="17.8015015">
        <ele>36.6675</ele>
        <time>2014-07-07T19:33:38Z</time>
      </trkpt>
      <trkpt lat="59.9539437" lon="17.8013723">
        <ele>36.1868</ele>
        <time>2014-07-07T19:33:39Z</time>
      </trkpt>
      <trkpt lat="59.953998" lon="17.8012406">
        <ele>35.7061</ele>
        <time>2014-07-07T19:33:40Z</time>
      </trkpt>
      <trkpt lat="59.9540538" lon="17.8011064">
        <ele>35.2255</ele>
        <time>2014-07-07T19:33:41Z</time>
      </trkpt>
      <trkpt lat="59.9541103" lon="17.8009716">
        <ele>35.2255</ele>
        <time>2014-07-07T19:33:42Z</time>
      </trkpt>
      <trkpt lat="59.9541644" lon="17.8008367">
        <ele>34.7449</ele>
        <time>2014-07-07T19:33:43Z</time>
      </trkpt>
      <trkpt lat="59.9542167" lon="17.8006924">
        <ele>34.2642</ele>
        <time>2014-07-07T19:33:44Z</time>
      </trkpt>
      <trkpt lat="59.9542721" lon="17.8005603">
        <ele>33.7834</ele>
        <time>2014-07-07T19:33:45Z</time>
      </trkpt>
      <trkpt lat="59.9543254" lon="17.8004287">
        <ele>33.7834</ele>
        <time>2014-07-07T19:33:46Z</time>
      </trkpt>
      <trkpt lat="59.9543773" lon="17.8002999">
        <ele>33.3029</ele>
        <time>2014-07-07T19:33:47Z</time>
      </trkpt>
      <trkpt lat="59.9544283" lon="17.8001737">
        <ele>33.3029</ele>
        <time>2014-07-07T19:33:48Z</time>
      </trkpt>
      <trkpt lat="59.9544781" lon="17.8000488">
        <ele>33.3029</ele>
        <time>2014-07-07T19:33:49Z</time>
      </trkpt>
      <trkpt lat="59.9545265" lon="17.7999247">
        <ele>32.8223</ele>
        <time>2014-07-07T19:33:50Z</time>
      </trkpt>
      <trkpt lat="59.9545761" lon="17.7998024">
        <ele>32.8223</ele>
        <time>2014-07-07T19:33:51Z</time>
      </trkpt>
      <trkpt lat="59.9546278" lon="17.7996813">
        <ele>32.8223</ele>
        <time>2014-07-07T19:33:52Z</time>
      </trkpt>
      <trkpt lat="59.9546816" lon="17.7995609">
        <ele>32.8223</ele>
        <time>2014-07-07T19:33:53Z</time>
      </trkpt>
      <trkpt lat="59.9547367" lon="17.7994439">
        <ele>32.8223</ele>
        <time>2014-07-07T19:33:54Z</time>
      </trkpt>
      <trkpt lat="59.9547933" lon="17.7993314">
        <ele>33.3029</ele>
        <time>2014-07-07T19:33:55Z</time>
      </trkpt>
      <trkpt lat="59.9548503" lon="17.7992221">
        <ele>33.3029</ele>
        <time>2014-07-07T19:33:56Z</time>
      </trkpt>
      <trkpt lat="59.9549073" lon="17.7991155">
        <ele>33.7834</ele>
        <time>2014-07-07T19:33:57Z</time>
      </trkpt>
      <trkpt lat="59.9549641" lon="17.7990103">
        <ele>33.7834</ele>
        <time>2014-07-07T19:33:58Z</time>
      </trkpt>
      <trkpt lat="59.9550207" lon="17.7989052">
        <ele>33.7834</ele>
        <time>2014-07-07T19:33:59Z</time>
      </trkpt>
      <trkpt lat="59.9550774" lon="17.7987983">
        <ele>33.7834</ele>
        <time>2014-07-07T19:34:00Z</time>
      </trkpt>
      <trkpt lat="59.9551336" lon="17.7986842">
        <ele>33.7834</ele>
        <time>2014-07-07T19:34:01Z</time>
      </trkpt>
      <trkpt lat="59.9551888" lon="17.7985597">
        <ele>33.3029</ele>
        <time>2014-07-07T19:34:02Z</time>
      </trkpt>
      <trkpt lat="59.9552418" lon="17.7984293">
        <ele>33.3029</ele>
        <time>2014-07-07T19:34:03Z</time>
      </trkpt>
      <trkpt lat="59.9552916" lon="17.7982945">
        <ele>33.3029</ele>
        <time>2014-07-07T19:34:04Z</time>
      </trkpt>
      <trkpt lat="59.9553392" lon="17.7981552">
        <ele>32.8223</ele>
        <time>2014-07-07T19:34:05Z</time>
      </trkpt>
      <trkpt lat="59.9553846" lon="17.7980117">
        <ele>32.8223</ele>
        <time>2014-07-07T19:34:06Z</time>
      </trkpt>
      <trkpt lat="59.9554283" lon="17.7978646">
        <ele>32.3416</ele>
        <time>2014-07-07T19:34:07Z</time>
      </trkpt>
      <trkpt lat="59.9554728" lon="17.7977153">
        <ele>32.3416</ele>
        <time>2014-07-07T19:34:08Z</time>
      </trkpt>
      <trkpt lat="59.9555178" lon="17.7975647">
        <ele>32.3416</ele>
        <time>2014-07-07T19:34:09Z</time>
      </trkpt>
      <trkpt lat="59.9555633" lon="17.797414">
        <ele>31.8607</ele>
        <time>2014-07-07T19:34:10Z</time>
      </trkpt>
      <trkpt lat="59.9556084" lon="17.7972614">
        <ele>31.8607</ele>
        <time>2014-07-07T19:34:11Z</time>
      </trkpt>
      <trkpt lat="59.9556518" lon="17.797105">
        <ele>31.8607</ele>
        <time>2014-07-07T19:34:12Z</time>
      </trkpt>
      <trkpt lat="59.9556924" lon="17.7969441">
        <ele>31.3801</ele>
        <time>2014-07-07T19:34:13Z</time>
      </trkpt>
      <trkpt lat="59.9557306" lon="17.7967805">
        <ele>31.3801</ele>
        <time>2014-07-07T19:34:14Z</time>
      </trkpt>
      <trkpt lat="59.9557665" lon="17.7966157">
        <ele>31.3801</ele>
        <time>2014-07-07T19:34:15Z</time>
      </trkpt>
      <trkpt lat="59.9557991" lon="17.796449">
        <ele>31.3801</ele>
        <time>2014-07-07T19:34:16Z</time>
      </trkpt>
      <trkpt lat="59.9558292" lon="17.796281">
        <ele>31.3801</ele>
        <time>2014-07-07T19:34:17Z</time>
      </trkpt>
      <trkpt lat="59.9558567" lon="17.7961109">
        <ele>31.3801</ele>
        <time>2014-07-07T19:34:18Z</time>
      </trkpt>
      <trkpt lat="59.9558841" lon="17.7959403">
        <ele>31.3801</ele>
        <time>2014-07-07T19:34:19Z</time>
      </trkpt>
      <trkpt lat="59.9559148" lon="17.7957719">
        <ele>31.3801</ele>
        <time>2014-07-07T19:34:20Z</time>
      </trkpt>
      <trkpt lat="59.9559458" lon="17.795604">
        <ele>31.8607</ele>
        <time>2014-07-07T19:34:21Z</time>
      </trkpt>
      <trkpt lat="59.9559782" lon="17.7954362">
        <ele>31.8607</ele>
        <time>2014-07-07T19:34:22Z</time>
      </trkpt>
      <trkpt lat="59.9560146" lon="17.7952693">
        <ele>31.8607</ele>
        <time>2014-07-07T19:34:23Z</time>
      </trkpt>
      <trkpt lat="59.9560543" lon="17.795102">
        <ele>31.8607</ele>
        <time>2014-07-07T19:34:24Z</time>
      </trkpt>
      <trkpt lat="59.9560944" lon="17.7949333">
        <ele>31.8607</ele>
        <time>2014-07-07T19:34:25Z</time>
      </trkpt>
      <trkpt lat="59.9561346" lon="17.7947633">
        <ele>31.8607</ele>
        <time>2014-07-07T19:34:26Z</time>
      </trkpt>
      <trkpt lat="59.9561752" lon="17.7945932">
        <ele>31.8607</ele>
        <time>2014-07-07T19:34:27Z</time>
      </trkpt>
      <trkpt lat="59.9562152" lon="17.7944234">
        <ele>31.8607</ele>
        <time>2014-07-07T19:34:28Z</time>
      </trkpt>
      <trkpt lat="59.9562544" lon="17.794254">
        <ele>32.3416</ele>
        <time>2014-07-07T19:34:29Z</time>
      </trkpt>
      <trkpt lat="59.9562922" lon="17.7940847">
        <ele>32.3416</ele>
        <time>2014-07-07T19:34:30Z</time>
      </trkpt>
      <trkpt lat="59.9563285" lon="17.7939158">
        <ele>32.3416</ele>
        <time>2014-07-07T19:34:31Z</time>
      </trkpt>
      <trkpt lat="59.9563647" lon="17.7937485">
        <ele>32.8223</ele>
        <time>2014-07-07T19:34:32Z</time>
      </trkpt>
      <trkpt lat="59.9564002" lon="17.793583">
        <ele>32.8223</ele>
        <time>2014-07-07T19:34:33Z</time>
      </trkpt>
      <trkpt lat="59.9564353" lon="17.7934193">
        <ele>32.8223</ele>
        <time>2014-07-07T19:34:34Z</time>
      </trkpt>
      <trkpt lat="59.956469" lon="17.7932569">
        <ele>33.3029</ele>
        <time>2014-07-07T19:34:35Z</time>
      </trkpt>
      <trkpt lat="59.9565016" lon="17.7930958">
        <ele>33.3029</ele>
        <time>2014-07-07T19:34:36Z</time>
      </trkpt>
      <trkpt lat="59.9565327" lon="17.7929347">
        <ele>33.3029</ele>
        <time>2014-07-07T19:34:37Z</time>
      </trkpt>
      <trkpt lat="59.9565627" lon="17.792772">
        <ele>33.3029</ele>
        <time>2014-07-07T19:34:38Z</time>
      </trkpt>
      <trkpt lat="59.9565915" lon="17.7926078">
        <ele>33.3029</ele>
        <time>2014-07-07T19:34:39Z</time>
      </trkpt>
      <trkpt lat="59.9566197" lon="17.7924429">
        <ele>33.3029</ele>
        <time>2014-07-07T19:34:40Z</time>
      </trkpt>
      <trkpt lat="59.956648" lon="17.7922776">
        <ele>33.3029</ele>
        <time>2014-07-07T19:34:41Z</time>
      </trkpt>
      <trkpt lat="59.9566757" lon="17.7921116">
        <ele>33.3029</ele>
        <time>2014-07-07T19:34:42Z</time>
      </trkpt>
      <trkpt lat="59.9567035" lon="17.7919473">
        <ele>33.3029</ele>
        <time>2014-07-07T19:34:43Z</time>
      </trkpt>
      <trkpt lat="59.9567305" lon="17.7917858">
        <ele>33.3029</ele>
        <time>2014-07-07T19:34:44Z</time>
      </trkpt>
      <trkpt lat="59.9567562" lon="17.7916276">
        <ele>33.3029</ele>
        <time>2014-07-07T19:34:45Z</time>
      </trkpt>
      <trkpt lat="59.9567781" lon="17.7914724">
        <ele>33.7834</ele>
        <time>2014-07-07T19:34:46Z</time>
      </trkpt>
      <trkpt lat="59.9567901" lon="17.7913242">
        <ele>33.7834</ele>
        <time>2014-07-07T19:34:47Z</time>
      </trkpt>
      <trkpt lat="59.956791" lon="17.7911802">
        <ele>33.7834</ele>
        <time>2014-07-07T19:34:48Z</time>
      </trkpt>
      <trkpt lat="59.9567802" lon="17.7910396">
        <ele>33.7834</ele>
        <time>2014-07-07T19:34:49Z</time>
      </trkpt>
      <trkpt lat="59.9567594" lon="17.7909041">
        <ele>33.7834</ele>
        <time>2014-07-07T19:34:50Z</time>
      </trkpt>
      <trkpt lat="59.9567295" lon="17.7907704">
        <ele>33.7834</ele>
        <time>2014-07-07T19:34:51Z</time>
      </trkpt>
      <trkpt lat="59.9566964" lon="17.7906366">
        <ele>33.3029</ele>
        <time>2014-07-07T19:34:52Z</time>
      </trkpt>
      <trkpt lat="59.9566636" lon="17.7904983">
        <ele>33.3029</ele>
        <time>2014-07-07T19:34:53Z</time>
      </trkpt>
      <trkpt lat="59.9566324" lon="17.7903522">
        <ele>32.8223</ele>
        <time>2014-07-07T19:34:54Z</time>
      </trkpt>
      <trkpt lat="59.9566052" lon="17.7902011">
        <ele>32.3416</ele>
        <time>2014-07-07T19:34:55Z</time>
      </trkpt>
      <trkpt lat="59.9565892" lon="17.7900417">
        <ele>31.8607</ele>
        <time>2014-07-07T19:34:56Z</time>
      </trkpt>
      <trkpt lat="59.9565948" lon="17.7898613">
        <ele>31.8607</ele>
        <time>2014-07-07T19:34:57Z</time>
      </trkpt>
      <trkpt lat="59.9566254" lon="17.7897073">
        <ele>31.3801</ele>
        <time>2014-07-07T19:34:58Z</time>
      </trkpt>
      <trkpt lat="59.9566718" lon="17.7895722">
        <ele>30.8995</ele>
        <time>2014-07-07T19:34:59Z</time>
      </trkpt>
      <trkpt lat="59.9567382" lon="17.7894595">
        <ele>31.3801</ele>
        <time>2014-07-07T19:35:00Z</time>
      </trkpt>
      <trkpt lat="59.9568056" lon="17.7893572">
        <ele>30.8995</ele>
        <time>2014-07-07T19:35:01Z</time>
      </trkpt>
      <trkpt lat="59.9568771" lon="17.7892681">
        <ele>30.8995</ele>
        <time>2014-07-07T19:35:02Z</time>
      </trkpt>
      <trkpt lat="59.9569484" lon="17.7891815">
        <ele>30.8995</ele>
        <time>2014-07-07T19:35:03Z</time>
      </trkpt>
      <trkpt lat="59.9570175" lon="17.789092">
        <ele>30.8995</ele>
        <time>2014-07-07T19:35:04Z</time>
      </trkpt>
      <trkpt lat="59.9570837" lon="17.7889953">
        <ele>31.3801</ele>
        <time>2014-07-07T19:35:05Z</time>
      </trkpt>
      <trkpt lat="59.9571444" lon="17.7888911">
        <ele>31.3801</ele>
        <time>2014-07-07T19:35:06Z</time>
      </trkpt>
      <trkpt lat="59.9572012" lon="17.7887803">
        <ele>31.8607</ele>
        <time>2014-07-07T19:35:07Z</time>
      </trkpt>
      <trkpt lat="59.9572527" lon="17.7886628">
        <ele>31.8607</ele>
        <time>2014-07-07T19:35:08Z</time>
      </trkpt>
      <trkpt lat="59.9572992" lon="17.7885428">
        <ele>32.3416</ele>
        <time>2014-07-07T19:35:09Z</time>
      </trkpt>
      <trkpt lat="59.9573431" lon="17.7884211">
        <ele>32.3416</ele>
        <time>2014-07-07T19:35:10Z</time>
      </trkpt>
      <trkpt lat="59.9573837" lon="17.7882955">
        <ele>32.3416</ele>
        <time>2014-07-07T19:35:11Z</time>
      </trkpt>
      <trkpt lat="59.9574209" lon="17.7881644">
        <ele>32.3416</ele>
        <time>2014-07-07T19:35:12Z</time>
      </trkpt>
      <trkpt lat="59.9574561" lon="17.7880295">
        <ele>32.3416</ele>
        <time>2014-07-07T19:35:13Z</time>
      </trkpt>
      <trkpt lat="59.9574916" lon="17.7878928">
        <ele>32.3416</ele>
        <time>2014-07-07T19:35:14Z</time>
      </trkpt>
      <trkpt lat="59.9575283" lon="17.7877554">
        <ele>32.3416</ele>
        <time>2014-07-07T19:35:15Z</time>
      </trkpt>
      <trkpt lat="59.9575654" lon="17.7876182">
        <ele>32.3416</ele>
        <time>2014-07-07T19:35:16Z</time>
      </trkpt>
      <trkpt lat="59.9576017" lon="17.7874814">
        <ele>32.8223</ele>
        <time>2014-07-07T19:35:17Z</time>
      </trkpt>
      <trkpt lat="59.9576358" lon="17.7873473">
        <ele>32.8223</ele>
        <time>2014-07-07T19:35:18Z</time>
      </trkpt>
      <trkpt lat="59.9576653" lon="17.7872123">
        <ele>32.8223</ele>
        <time>2014-07-07T19:35:19Z</time>
      </trkpt>
      <trkpt lat="59.9576908" lon="17.7870761">
        <ele>33.3029</ele>
        <time>2014-07-07T19:35:20Z</time>
      </trkpt>
      <trkpt lat="59.9577173" lon="17.7869408">
        <ele>33.3029</ele>
        <time>2014-07-07T19:35:21Z</time>
      </trkpt>
      <trkpt lat="59.95775" lon="17.7868082">
        <ele>32.8223</ele>
        <time>2014-07-07T19:35:22Z</time>
      </trkpt>
      <trkpt lat="59.9577926" lon="17.7866826">
        <ele>32.8223</ele>
        <time>2014-07-07T19:35:23Z</time>
      </trkpt>
      <trkpt lat="59.9578463" lon="17.7865678">
        <ele>32.8223</ele>
        <time>2014-07-07T19:35:24Z</time>
      </trkpt>
      <trkpt lat="59.9579084" lon="17.7864633">
        <ele>32.3416</ele>
        <time>2014-07-07T19:35:25Z</time>
      </trkpt>
      <trkpt lat="59.9579758" lon="17.7863682">
        <ele>32.3416</ele>
        <time>2014-07-07T19:35:26Z</time>
      </trkpt>
      <trkpt lat="59.9580461" lon="17.7862825">
        <ele>32.3416</ele>
        <time>2014-07-07T19:35:27Z</time>
      </trkpt>
      <trkpt lat="59.9581161" lon="17.7862034">
        <ele>32.3416</ele>
        <time>2014-07-07T19:35:28Z</time>
      </trkpt>
      <trkpt lat="59.958184" lon="17.7861254">
        <ele>32.3416</ele>
        <time>2014-07-07T19:35:29Z</time>
      </trkpt>
      <trkpt lat="59.9582507" lon="17.7860478">
        <ele>32.3416</ele>
        <time>2014-07-07T19:35:30Z</time>
      </trkpt>
      <trkpt lat="59.9583172" lon="17.7859729">
        <ele>32.8223</ele>
        <time>2014-07-07T19:35:31Z</time>
      </trkpt>
      <trkpt lat="59.9583836" lon="17.7859002">
        <ele>32.8223</ele>
        <time>2014-07-07T19:35:32Z</time>
      </trkpt>
      <trkpt lat="59.9584493" lon="17.7858276">
        <ele>32.8223</ele>
        <time>2014-07-07T19:35:33Z</time>
      </trkpt>
      <trkpt lat="59.9585144" lon="17.7857543">
        <ele>32.8223</ele>
        <time>2014-07-07T19:35:34Z</time>
      </trkpt>
      <trkpt lat="59.9585791" lon="17.785681">
        <ele>32.8223</ele>
        <time>2014-07-07T19:35:35Z</time>
      </trkpt>
      <trkpt lat="59.9586439" lon="17.7856108">
        <ele>33.3029</ele>
        <time>2014-07-07T19:35:36Z</time>
      </trkpt>
      <trkpt lat="59.9587083" lon="17.7855445">
        <ele>33.3029</ele>
        <time>2014-07-07T19:35:37Z</time>
      </trkpt>
      <trkpt lat="59.958773" lon="17.7854836">
        <ele>33.3029</ele>
        <time>2014-07-07T19:35:38Z</time>
      </trkpt>
      <trkpt lat="59.9588389" lon="17.7854261">
        <ele>33.3029</ele>
        <time>2014-07-07T19:35:39Z</time>
      </trkpt>
      <trkpt lat="59.9589067" lon="17.7853708">
        <ele>33.3029</ele>
        <time>2014-07-07T19:35:40Z</time>
      </trkpt>
      <trkpt lat="59.9589765" lon="17.7853176">
        <ele>33.3029</ele>
        <time>2014-07-07T19:35:41Z</time>
      </trkpt>
      <trkpt lat="59.9590476" lon="17.7852635">
        <ele>32.8223</ele>
        <time>2014-07-07T19:35:42Z</time>
      </trkpt>
      <trkpt lat="59.9591187" lon="17.7852061">
        <ele>32.8223</ele>
        <time>2014-07-07T19:35:43Z</time>
      </trkpt>
      <trkpt lat="59.9591893" lon="17.7851459">
        <ele>32.8223</ele>
        <time>2014-07-07T19:35:44Z</time>
      </trkpt>
      <trkpt lat="59.9592582" lon="17.7850812">
        <ele>32.8223</ele>
        <time>2014-07-07T19:35:45Z</time>
      </trkpt>
      <trkpt lat="59.9593242" lon="17.7850101">
        <ele>33.3029</ele>
        <time>2014-07-07T19:35:46Z</time>
      </trkpt>
      <trkpt lat="59.9593873" lon="17.7849302">
        <ele>33.3029</ele>
        <time>2014-07-07T19:35:47Z</time>
      </trkpt>
      <trkpt lat="59.9594471" lon="17.7848424">
        <ele>33.3029</ele>
        <time>2014-07-07T19:35:48Z</time>
      </trkpt>
      <trkpt lat="59.9595053" lon="17.7847506">
        <ele>33.3029</ele>
        <time>2014-07-07T19:35:49Z</time>
      </trkpt>
      <trkpt lat="59.9595635" lon="17.7846589">
        <ele>33.3029</ele>
        <time>2014-07-07T19:35:50Z</time>
      </trkpt>
      <trkpt lat="59.959622" lon="17.7845652">
        <ele>33.3029</ele>
        <time>2014-07-07T19:35:51Z</time>
      </trkpt>
      <trkpt lat="59.9596811" lon="17.7844702">
        <ele>33.3029</ele>
        <time>2014-07-07T19:35:52Z</time>
      </trkpt>
      <trkpt lat="59.9597405" lon="17.7843734">
        <ele>33.3029</ele>
        <time>2014-07-07T19:35:53Z</time>
      </trkpt>
      <trkpt lat="59.9597992" lon="17.7842739">
        <ele>33.3029</ele>
        <time>2014-07-07T19:35:54Z</time>
      </trkpt>
      <trkpt lat="59.9598562" lon="17.7841711">
        <ele>33.3029</ele>
        <time>2014-07-07T19:35:55Z</time>
      </trkpt>
      <trkpt lat="59.9599101" lon="17.7840627">
        <ele>33.3029</ele>
        <time>2014-07-07T19:35:56Z</time>
      </trkpt>
      <trkpt lat="59.9599607" lon="17.7839491">
        <ele>33.3029</ele>
        <time>2014-07-07T19:35:57Z</time>
      </trkpt>
      <trkpt lat="59.9600086" lon="17.7838317">
        <ele>33.3029</ele>
        <time>2014-07-07T19:35:58Z</time>
      </trkpt>
      <trkpt lat="59.9600551" lon="17.7837118">
        <ele>33.3029</ele>
        <time>2014-07-07T19:35:59Z</time>
      </trkpt>
      <trkpt lat="59.9600996" lon="17.7835894">
        <ele>33.3029</ele>
        <time>2014-07-07T19:36:00Z</time>
      </trkpt>
      <trkpt lat="59.960142" lon="17.7834649">
        <ele>33.3029</ele>
        <time>2014-07-07T19:36:01Z</time>
      </trkpt>
      <trkpt lat="59.9601831" lon="17.7833397">
        <ele>33.7834</ele>
        <time>2014-07-07T19:36:02Z</time>
      </trkpt>
      <trkpt lat="59.960224" lon="17.7832174">
        <ele>33.7834</ele>
        <time>2014-07-07T19:36:03Z</time>
      </trkpt>
      <trkpt lat="59.960265" lon="17.7831022">
        <ele>33.7834</ele>
        <time>2014-07-07T19:36:04Z</time>
      </trkpt>
      <trkpt lat="59.9603049" lon="17.7829918">
        <ele>33.7834</ele>
        <time>2014-07-07T19:36:05Z</time>
      </trkpt>
      <trkpt lat="59.9603431" lon="17.7828812">
        <ele>34.2642</ele>
        <time>2014-07-07T19:36:06Z</time>
      </trkpt>
      <trkpt lat="59.9603802" lon="17.7827686">
        <ele>34.2642</ele>
        <time>2014-07-07T19:36:07Z</time>
      </trkpt>
      <trkpt lat="59.9604172" lon="17.7826535">
        <ele>34.2642</ele>
        <time>2014-07-07T19:36:08Z</time>
      </trkpt>
      <trkpt lat="59.9604554" lon="17.7825361">
        <ele>33.7834</ele>
        <time>2014-07-07T19:36:09Z</time>
      </trkpt>
      <trkpt lat="59.9604934" lon="17.7824145">
        <ele>33.7834</ele>
        <time>2014-07-07T19:36:10Z</time>
      </trkpt>
      <trkpt lat="59.9605307" lon="17.7822875">
        <ele>33.7834</ele>
        <time>2014-07-07T19:36:11Z</time>
      </trkpt>
      <trkpt lat="59.96057" lon="17.7821578">
        <ele>33.3029</ele>
        <time>2014-07-07T19:36:12Z</time>
      </trkpt>
      <trkpt lat="59.9606154" lon="17.7820305">
        <ele>33.3029</ele>
        <time>2014-07-07T19:36:13Z</time>
      </trkpt>
      <trkpt lat="59.9606679" lon="17.7819087">
        <ele>32.8223</ele>
        <time>2014-07-07T19:36:14Z</time>
      </trkpt>
      <trkpt lat="59.9607254" lon="17.7817931">
        <ele>32.8223</ele>
        <time>2014-07-07T19:36:15Z</time>
      </trkpt>
      <trkpt lat="59.9607855" lon="17.7816804">
        <ele>32.8223</ele>
        <time>2014-07-07T19:36:16Z</time>
      </trkpt>
      <trkpt lat="59.9608472" lon="17.7815696">
        <ele>32.8223</ele>
        <time>2014-07-07T19:36:17Z</time>
      </trkpt>
      <trkpt lat="59.9609097" lon="17.7814603">
        <ele>32.8223</ele>
        <time>2014-07-07T19:36:18Z</time>
      </trkpt>
      <trkpt lat="59.9609719" lon="17.7813515">
        <ele>32.8223</ele>
        <time>2014-07-07T19:36:19Z</time>
      </trkpt>
      <trkpt lat="59.9610335" lon="17.7812416">
        <ele>32.8223</ele>
        <time>2014-07-07T19:36:20Z</time>
      </trkpt>
      <trkpt lat="59.9610948" lon="17.7811299">
        <ele>33.3029</ele>
        <time>2014-07-07T19:36:21Z</time>
      </trkpt>
      <trkpt lat="59.9611562" lon="17.7810166">
        <ele>33.3029</ele>
        <time>2014-07-07T19:36:22Z</time>
      </trkpt>
      <trkpt lat="59.9612176" lon="17.7809017">
        <ele>32.8223</ele>
        <time>2014-07-07T19:36:23Z</time>
      </trkpt>
      <trkpt lat="59.9612803" lon="17.7807864">
        <ele>33.3029</ele>
        <time>2014-07-07T19:36:24Z</time>
      </trkpt>
      <trkpt lat="59.9613435" lon="17.7806709">
        <ele>33.3029</ele>
        <time>2014-07-07T19:36:25Z</time>
      </trkpt>
      <trkpt lat="59.9614069" lon="17.7805548">
        <ele>33.3029</ele>
        <time>2014-07-07T19:36:26Z</time>
      </trkpt>
      <trkpt lat="59.9614702" lon="17.7804378">
        <ele>33.3029</ele>
        <time>2014-07-07T19:36:27Z</time>
      </trkpt>
      <trkpt lat="59.9615333" lon="17.7803186">
        <ele>33.3029</ele>
        <time>2014-07-07T19:36:28Z</time>
      </trkpt>
      <trkpt lat="59.9615958" lon="17.7801953">
        <ele>33.3029</ele>
        <time>2014-07-07T19:36:29Z</time>
      </trkpt>
      <trkpt lat="59.9616573" lon="17.7800669">
        <ele>33.3029</ele>
        <time>2014-07-07T19:36:30Z</time>
      </trkpt>
      <trkpt lat="59.961717" lon="17.7799342">
        <ele>33.3029</ele>
        <time>2014-07-07T19:36:31Z</time>
      </trkpt>
      <trkpt lat="59.9617754" lon="17.7797984">
        <ele>33.3029</ele>
        <time>2014-07-07T19:36:32Z</time>
      </trkpt>
      <trkpt lat="59.9618334" lon="17.7796622">
        <ele>33.3029</ele>
        <time>2014-07-07T19:36:33Z</time>
      </trkpt>
      <trkpt lat="59.9618928" lon="17.7795263">
        <ele>33.3029</ele>
        <time>2014-07-07T19:36:34Z</time>
      </trkpt>
      <trkpt lat="59.961954" lon="17.7793908">
        <ele>33.3029</ele>
        <time>2014-07-07T19:36:35Z</time>
      </trkpt>
      <trkpt lat="59.9620167" lon="17.7792549">
        <ele>33.3029</ele>
        <time>2014-07-07T19:36:36Z</time>
      </trkpt>
      <trkpt lat="59.96208" lon="17.7791158">
        <ele>33.3029</ele>
        <time>2014-07-07T19:36:37Z</time>
      </trkpt>
      <trkpt lat="59.9621426" lon="17.7789734">
        <ele>32.8223</ele>
        <time>2014-07-07T19:36:38Z</time>
      </trkpt>
      <trkpt lat="59.9622044" lon="17.7788293">
        <ele>32.8223</ele>
        <time>2014-07-07T19:36:39Z</time>
      </trkpt>
      <trkpt lat="59.9622661" lon="17.7786828">
        <ele>32.8223</ele>
        <time>2014-07-07T19:36:40Z</time>
      </trkpt>
      <trkpt lat="59.9623276" lon="17.7785348">
        <ele>32.8223</ele>
        <time>2014-07-07T19:36:41Z</time>
      </trkpt>
      <trkpt lat="59.9623886" lon="17.7783882">
        <ele>32.8223</ele>
        <time>2014-07-07T19:36:42Z</time>
      </trkpt>
      <trkpt lat="59.9624498" lon="17.7782466">
        <ele>32.8223</ele>
        <time>2014-07-07T19:36:43Z</time>
      </trkpt>
      <trkpt lat="59.9625116" lon="17.7781099">
        <ele>32.3416</ele>
        <time>2014-07-07T19:36:44Z</time>
      </trkpt>
      <trkpt lat="59.9625736" lon="17.777976">
        <ele>32.3416</ele>
        <time>2014-07-07T19:36:45Z</time>
      </trkpt>
      <trkpt lat="59.9626353" lon="17.7778431">
        <ele>32.3416</ele>
        <time>2014-07-07T19:36:46Z</time>
      </trkpt>
      <trkpt lat="59.9626974" lon="17.7777128">
        <ele>32.8223</ele>
        <time>2014-07-07T19:36:47Z</time>
      </trkpt>
      <trkpt lat="59.9627592" lon="17.777584">
        <ele>32.8223</ele>
        <time>2014-07-07T19:36:48Z</time>
      </trkpt>
      <trkpt lat="59.9628208" lon="17.7774561">
        <ele>32.8223</ele>
        <time>2014-07-07T19:36:49Z</time>
      </trkpt>
      <trkpt lat="59.9628818" lon="17.7773279">
        <ele>32.8223</ele>
        <time>2014-07-07T19:36:50Z</time>
      </trkpt>
      <trkpt lat="59.9629409" lon="17.7771973">
        <ele>32.8223</ele>
        <time>2014-07-07T19:36:51Z</time>
      </trkpt>
      <trkpt lat="59.9629974" lon="17.7770628">
        <ele>32.8223</ele>
        <time>2014-07-07T19:36:52Z</time>
      </trkpt>
      <trkpt lat="59.9630493" lon="17.776923">
        <ele>32.8223</ele>
        <time>2014-07-07T19:36:53Z</time>
      </trkpt>
      <trkpt lat="59.9630963" lon="17.7767794">
        <ele>33.3029</ele>
        <time>2014-07-07T19:36:54Z</time>
      </trkpt>
      <trkpt lat="59.9631405" lon="17.7766363">
        <ele>33.3029</ele>
        <time>2014-07-07T19:36:55Z</time>
      </trkpt>
      <trkpt lat="59.9631839" lon="17.7764968">
        <ele>33.7834</ele>
        <time>2014-07-07T19:36:56Z</time>
      </trkpt>
      <trkpt lat="59.963226" lon="17.7763603">
        <ele>33.7834</ele>
        <time>2014-07-07T19:36:57Z</time>
      </trkpt>
      <trkpt lat="59.9632677" lon="17.7762247">
        <ele>33.7834</ele>
        <time>2014-07-07T19:36:58Z</time>
      </trkpt>
      <trkpt lat="59.9633091" lon="17.7760891">
        <ele>33.7834</ele>
        <time>2014-07-07T19:36:59Z</time>
      </trkpt>
      <trkpt lat="59.9633516" lon="17.7759537">
        <ele>33.7834</ele>
        <time>2014-07-07T19:37:00Z</time>
      </trkpt>
      <trkpt lat="59.9633951" lon="17.7758173">
        <ele>33.3029</ele>
        <time>2014-07-07T19:37:01Z</time>
      </trkpt>
      <trkpt lat="59.9634393" lon="17.7756787">
        <ele>33.3029</ele>
        <time>2014-07-07T19:37:02Z</time>
      </trkpt>
      <trkpt lat="59.9634837" lon="17.7755389">
        <ele>33.3029</ele>
        <time>2014-07-07T19:37:03Z</time>
      </trkpt>
      <trkpt lat="59.9635272" lon="17.7753995">
        <ele>33.3029</ele>
        <time>2014-07-07T19:37:04Z</time>
      </trkpt>
      <trkpt lat="59.9635688" lon="17.7752594">
        <ele>32.8223</ele>
        <time>2014-07-07T19:37:05Z</time>
      </trkpt>
      <trkpt lat="59.9636067" lon="17.7751177">
        <ele>32.8223</ele>
        <time>2014-07-07T19:37:06Z</time>
      </trkpt>
      <trkpt lat="59.9636404" lon="17.7749727">
        <ele>32.8223</ele>
        <time>2014-07-07T19:37:07Z</time>
      </trkpt>
      <trkpt lat="59.9636707" lon="17.774825">
        <ele>32.8223</ele>
        <time>2014-07-07T19:37:08Z</time>
      </trkpt>
      <trkpt lat="59.9636977" lon="17.7746758">
        <ele>32.8223</ele>
        <time>2014-07-07T19:37:09Z</time>
      </trkpt>
      <trkpt lat="59.9637217" lon="17.7745256">
        <ele>32.8223</ele>
        <time>2014-07-07T19:37:10Z</time>
      </trkpt>
      <trkpt lat="59.9637449" lon="17.7743765">
        <ele>33.3029</ele>
        <time>2014-07-07T19:37:11Z</time>
      </trkpt>
      <trkpt lat="59.9637687" lon="17.7742288">
        <ele>33.3029</ele>
        <time>2014-07-07T19:37:12Z</time>
      </trkpt>
      <trkpt lat="59.9637931" lon="17.774081">
        <ele>33.3029</ele>
        <time>2014-07-07T19:37:13Z</time>
      </trkpt>
      <trkpt lat="59.9638194" lon="17.773931">
        <ele>32.8223</ele>
        <time>2014-07-07T19:37:14Z</time>
      </trkpt>
      <trkpt lat="59.9638468" lon="17.773777">
        <ele>32.8223</ele>
        <time>2014-07-07T19:37:15Z</time>
      </trkpt>
      <trkpt lat="59.9638729" lon="17.773618">
        <ele>32.8223</ele>
        <time>2014-07-07T19:37:16Z</time>
      </trkpt>
      <trkpt lat="59.9638967" lon="17.7734557">
        <ele>32.8223</ele>
        <time>2014-07-07T19:37:17Z</time>
      </trkpt>
      <trkpt lat="59.9639175" lon="17.7732921">
        <ele>32.8223</ele>
        <time>2014-07-07T19:37:18Z</time>
      </trkpt>
      <trkpt lat="59.9639345" lon="17.7731285">
        <ele>32.8223</ele>
        <time>2014-07-07T19:37:19Z</time>
      </trkpt>
      <trkpt lat="59.9639437" lon="17.7729643">
        <ele>32.8223</ele>
        <time>2014-07-07T19:37:20Z</time>
      </trkpt>
      <trkpt lat="59.9639422" lon="17.772798">
        <ele>32.8223</ele>
        <time>2014-07-07T19:37:21Z</time>
      </trkpt>
      <trkpt lat="59.9639304" lon="17.7726291">
        <ele>32.3416</ele>
        <time>2014-07-07T19:37:22Z</time>
      </trkpt>
      <trkpt lat="59.9639115" lon="17.7724589">
        <ele>32.3416</ele>
        <time>2014-07-07T19:37:23Z</time>
      </trkpt>
      <trkpt lat="59.9638866" lon="17.7722921">
        <ele>32.3416</ele>
        <time>2014-07-07T19:37:24Z</time>
      </trkpt>
      <trkpt lat="59.9638558" lon="17.7721319">
        <ele>32.8223</ele>
        <time>2014-07-07T19:37:25Z</time>
      </trkpt>
      <trkpt lat="59.9638225" lon="17.771979">
        <ele>32.8223</ele>
        <time>2014-07-07T19:37:26Z</time>
      </trkpt>
      <trkpt lat="59.9637887" lon="17.7718315">
        <ele>32.8223</ele>
        <time>2014-07-07T19:37:27Z</time>
      </trkpt>
      <trkpt lat="59.9637548" lon="17.771689">
        <ele>32.8223</ele>
        <time>2014-07-07T19:37:28Z</time>
      </trkpt>
      <trkpt lat="59.9637209" lon="17.7715531">
        <ele>33.3029</ele>
        <time>2014-07-07T19:37:29Z</time>
      </trkpt>
      <trkpt lat="59.9636859" lon="17.7714251">
        <ele>33.3029</ele>
        <time>2014-07-07T19:37:30Z</time>
      </trkpt>
      <trkpt lat="59.9636533" lon="17.7712984">
        <ele>33.3029</ele>
        <time>2014-07-07T19:37:31Z</time>
      </trkpt>
      <trkpt lat="59.9636258" lon="17.7711689">
        <ele>33.3029</ele>
        <time>2014-07-07T19:37:32Z</time>
      </trkpt>
      <trkpt lat="59.9635999" lon="17.7710413">
        <ele>33.3029</ele>
        <time>2014-07-07T19:37:33Z</time>
      </trkpt>
      <trkpt lat="59.9635745" lon="17.7709156">
        <ele>33.7834</ele>
        <time>2014-07-07T19:37:34Z</time>
      </trkpt>
      <trkpt lat="59.9635515" lon="17.7707907">
        <ele>33.7834</ele>
        <time>2014-07-07T19:37:35Z</time>
      </trkpt>
      <trkpt lat="59.9635324" lon="17.7706658">
        <ele>34.2642</ele>
        <time>2014-07-07T19:37:36Z</time>
      </trkpt>
      <trkpt lat="59.9635184" lon="17.7705383">
        <ele>34.2642</ele>
        <time>2014-07-07T19:37:37Z</time>
      </trkpt>
      <trkpt lat="59.96351" lon="17.7704088">
        <ele>34.2642</ele>
        <time>2014-07-07T19:37:38Z</time>
      </trkpt>
      <trkpt lat="59.963504" lon="17.7702777">
        <ele>34.7449</ele>
        <time>2014-07-07T19:37:39Z</time>
      </trkpt>
      <trkpt lat="59.9634989" lon="17.7701441">
        <ele>34.7449</ele>
        <time>2014-07-07T19:37:40Z</time>
      </trkpt>
      <trkpt lat="59.9634962" lon="17.7700071">
        <ele>35.2255</ele>
        <time>2014-07-07T19:37:41Z</time>
      </trkpt>
      <trkpt lat="59.9634963" lon="17.7698652">
        <ele>35.2255</ele>
        <time>2014-07-07T19:37:42Z</time>
      </trkpt>
      <trkpt lat="59.9635018" lon="17.7697196">
        <ele>35.2255</ele>
        <time>2014-07-07T19:37:43Z</time>
      </trkpt>
      <trkpt lat="59.963517" lon="17.7695746">
        <ele>35.2255</ele>
        <time>2014-07-07T19:37:44Z</time>
      </trkpt>
      <trkpt lat="59.9635444" lon="17.7694336">
        <ele>34.7449</ele>
        <time>2014-07-07T19:37:45Z</time>
      </trkpt>
      <trkpt lat="59.9635807" lon="17.7692963">
        <ele>34.7449</ele>
        <time>2014-07-07T19:37:46Z</time>
      </trkpt>
      <trkpt lat="59.9636205" lon="17.7691607">
        <ele>34.7449</ele>
        <time>2014-07-07T19:37:47Z</time>
      </trkpt>
      <trkpt lat="59.9636584" lon="17.7690259">
        <ele>34.7449</ele>
        <time>2014-07-07T19:37:48Z</time>
      </trkpt>
      <trkpt lat="59.9636926" lon="17.7688942">
        <ele>35.2255</ele>
        <time>2014-07-07T19:37:49Z</time>
      </trkpt>
      <trkpt lat="59.963729" lon="17.7687596">
        <ele>34.7449</ele>
        <time>2014-07-07T19:37:50Z</time>
      </trkpt>
      <trkpt lat="59.9637688" lon="17.768625">
        <ele>34.7449</ele>
        <time>2014-07-07T19:37:51Z</time>
      </trkpt>
      <trkpt lat="59.9638066" lon="17.7684965">
        <ele>35.2255</ele>
        <time>2014-07-07T19:37:52Z</time>
      </trkpt>
      <trkpt lat="59.9638426" lon="17.7683707">
        <ele>35.2255</ele>
        <time>2014-07-07T19:37:53Z</time>
      </trkpt>
      <trkpt lat="59.9638755" lon="17.7682482">
        <ele>35.2255</ele>
        <time>2014-07-07T19:37:54Z</time>
      </trkpt>
      <trkpt lat="59.9639059" lon="17.7681296">
        <ele>35.7061</ele>
        <time>2014-07-07T19:37:55Z</time>
      </trkpt>
      <trkpt lat="59.9639335" lon="17.7680137">
        <ele>35.7061</ele>
        <time>2014-07-07T19:37:56Z</time>
      </trkpt>
      <trkpt lat="59.9639583" lon="17.7678993">
        <ele>36.1868</ele>
        <time>2014-07-07T19:37:57Z</time>
      </trkpt>
      <trkpt lat="59.9639815" lon="17.7677858">
        <ele>36.1868</ele>
        <time>2014-07-07T19:37:58Z</time>
      </trkpt>
      <trkpt lat="59.9640038" lon="17.7676724">
        <ele>36.1868</ele>
        <time>2014-07-07T19:37:59Z</time>
      </trkpt>
      <trkpt lat="59.9640249" lon="17.7675589">
        <ele>36.1868</ele>
        <time>2014-07-07T19:38:00Z</time>
      </trkpt>
      <trkpt lat="59.9640443" lon="17.7674443">
        <ele>36.6675</ele>
        <time>2014-07-07T19:38:01Z</time>
      </trkpt>
      <trkpt lat="59.9640614" lon="17.7673266">
        <ele>36.6675</ele>
        <time>2014-07-07T19:38:02Z</time>
      </trkpt>
      <trkpt lat="59.9640764" lon="17.7672061">
        <ele>36.1868</ele>
        <time>2014-07-07T19:38:03Z</time>
      </trkpt>
      <trkpt lat="59.9640882" lon="17.7670818">
        <ele>36.6675</ele>
        <time>2014-07-07T19:38:04Z</time>
      </trkpt>
      <trkpt lat="59.9640949" lon="17.7669545">
        <ele>36.6675</ele>
        <time>2014-07-07T19:38:05Z</time>
      </trkpt>
      <trkpt lat="59.9640972" lon="17.7668257">
        <ele>36.6675</ele>
        <time>2014-07-07T19:38:06Z</time>
      </trkpt>
      <trkpt lat="59.9640977" lon="17.7666973">
        <ele>36.6675</ele>
        <time>2014-07-07T19:38:07Z</time>
      </trkpt>
      <trkpt lat="59.9640962" lon="17.7665673">
        <ele>36.1868</ele>
        <time>2014-07-07T19:38:08Z</time>
      </trkpt>
      <trkpt lat="59.9640909" lon="17.7664338">
        <ele>36.1868</ele>
        <time>2014-07-07T19:38:09Z</time>
      </trkpt>
      <trkpt lat="59.9640847" lon="17.7662919">
        <ele>36.1868</ele>
        <time>2014-07-07T19:38:10Z</time>
      </trkpt>
      <trkpt lat="59.9640825" lon="17.7661414">
        <ele>35.7061</ele>
        <time>2014-07-07T19:38:11Z</time>
      </trkpt>
      <trkpt lat="59.9640833" lon="17.765983">
        <ele>35.7061</ele>
        <time>2014-07-07T19:38:12Z</time>
      </trkpt>
      <trkpt lat="59.9640852" lon="17.7658172">
        <ele>35.2255</ele>
        <time>2014-07-07T19:38:13Z</time>
      </trkpt>
      <trkpt lat="59.9640909" lon="17.7656442">
        <ele>34.2642</ele>
        <time>2014-07-07T19:38:14Z</time>
      </trkpt>
      <trkpt lat="59.9641013" lon="17.7654629">
        <ele>33.7834</ele>
        <time>2014-07-07T19:38:15Z</time>
      </trkpt>
      <trkpt lat="59.9641173" lon="17.7652735">
        <ele>33.3029</ele>
        <time>2014-07-07T19:38:16Z</time>
      </trkpt>
      <trkpt lat="59.9641412" lon="17.7650804">
        <ele>32.8223</ele>
        <time>2014-07-07T19:38:17Z</time>
      </trkpt>
      <trkpt lat="59.9641743" lon="17.7648894">
        <ele>31.8607</ele>
        <time>2014-07-07T19:38:18Z</time>
      </trkpt>
      <trkpt lat="59.9642142" lon="17.7647029">
        <ele>31.3801</ele>
        <time>2014-07-07T19:38:19Z</time>
      </trkpt>
      <trkpt lat="59.9642589" lon="17.7645202">
        <ele>31.3801</ele>
        <time>2014-07-07T19:38:20Z</time>
      </trkpt>
      <trkpt lat="59.9643054" lon="17.7643419">
        <ele>31.3801</ele>
        <time>2014-07-07T19:38:21Z</time>
      </trkpt>
      <trkpt lat="59.9643506" lon="17.7641665">
        <ele>31.3801</ele>
        <time>2014-07-07T19:38:22Z</time>
      </trkpt>
      <trkpt lat="59.9643953" lon="17.7639935">
        <ele>31.8607</ele>
        <time>2014-07-07T19:38:23Z</time>
      </trkpt>
      <trkpt lat="59.9644396" lon="17.763822">
        <ele>31.8607</ele>
        <time>2014-07-07T19:38:24Z</time>
      </trkpt>
      <trkpt lat="59.9644836" lon="17.7636511">
        <ele>31.8607</ele>
        <time>2014-07-07T19:38:25Z</time>
      </trkpt>
      <trkpt lat="59.9645269" lon="17.7634791">
        <ele>31.8607</ele>
        <time>2014-07-07T19:38:26Z</time>
      </trkpt>
      <trkpt lat="59.9645697" lon="17.7633054">
        <ele>31.8607</ele>
        <time>2014-07-07T19:38:27Z</time>
      </trkpt>
      <trkpt lat="59.9646127" lon="17.76313">
        <ele>31.8607</ele>
        <time>2014-07-07T19:38:28Z</time>
      </trkpt>
      <trkpt lat="59.9646578" lon="17.7629548">
        <ele>31.8607</ele>
        <time>2014-07-07T19:38:29Z</time>
      </trkpt>
      <trkpt lat="59.9647058" lon="17.7627804">
        <ele>31.8607</ele>
        <time>2014-07-07T19:38:30Z</time>
      </trkpt>
      <trkpt lat="59.9647577" lon="17.7626084">
        <ele>31.8607</ele>
        <time>2014-07-07T19:38:31Z</time>
      </trkpt>
      <trkpt lat="59.9648146" lon="17.7624399">
        <ele>31.3801</ele>
        <time>2014-07-07T19:38:32Z</time>
      </trkpt>
      <trkpt lat="59.9648742" lon="17.7622737">
        <ele>31.3801</ele>
        <time>2014-07-07T19:38:33Z</time>
      </trkpt>
      <trkpt lat="59.9649353" lon="17.7621109">
        <ele>31.3801</ele>
        <time>2014-07-07T19:38:34Z</time>
      </trkpt>
      <trkpt lat="59.964997" lon="17.7619525">
        <ele>31.3801</ele>
        <time>2014-07-07T19:38:35Z</time>
      </trkpt>
      <trkpt lat="59.9650586" lon="17.7617971">
        <ele>31.3801</ele>
        <time>2014-07-07T19:38:36Z</time>
      </trkpt>
      <trkpt lat="59.9651183" lon="17.7616422">
        <ele>31.3801</ele>
        <time>2014-07-07T19:38:37Z</time>
      </trkpt>
      <trkpt lat="59.9651768" lon="17.7614869">
        <ele>31.3801</ele>
        <time>2014-07-07T19:38:38Z</time>
      </trkpt>
      <trkpt lat="59.9652357" lon="17.7613314">
        <ele>30.8995</ele>
        <time>2014-07-07T19:38:39Z</time>
      </trkpt>
      <trkpt lat="59.9652959" lon="17.7611743">
        <ele>30.8995</ele>
        <time>2014-07-07T19:38:40Z</time>
      </trkpt>
      <trkpt lat="59.9653593" lon="17.7610173">
        <ele>30.4188</ele>
        <time>2014-07-07T19:38:41Z</time>
      </trkpt>
      <trkpt lat="59.9654269" lon="17.7608647">
        <ele>30.4188</ele>
        <time>2014-07-07T19:38:42Z</time>
      </trkpt>
      <trkpt lat="59.9654989" lon="17.7607218">
        <ele>30.4188</ele>
        <time>2014-07-07T19:38:43Z</time>
      </trkpt>
      <trkpt lat="59.965575" lon="17.7605917">
        <ele>30.4188</ele>
        <time>2014-07-07T19:38:44Z</time>
      </trkpt>
      <trkpt lat="59.9656532" lon="17.7604703">
        <ele>30.4188</ele>
        <time>2014-07-07T19:38:45Z</time>
      </trkpt>
      <trkpt lat="59.9657305" lon="17.7603467">
        <ele>30.4188</ele>
        <time>2014-07-07T19:38:46Z</time>
      </trkpt>
      <trkpt lat="59.9658072" lon="17.7602171">
        <ele>29.9381</ele>
        <time>2014-07-07T19:38:47Z</time>
      </trkpt>
      <trkpt lat="59.9658838" lon="17.7600834">
        <ele>29.9381</ele>
        <time>2014-07-07T19:38:48Z</time>
      </trkpt>
      <trkpt lat="59.9659604" lon="17.7599481">
        <ele>29.9381</ele>
        <time>2014-07-07T19:38:49Z</time>
      </trkpt>
      <trkpt lat="59.9660366" lon="17.7598122">
        <ele>29.9381</ele>
        <time>2014-07-07T19:38:50Z</time>
      </trkpt>
      <trkpt lat="59.9661128" lon="17.7596769">
        <ele>29.4575</ele>
        <time>2014-07-07T19:38:51Z</time>
      </trkpt>
      <trkpt lat="59.9661894" lon="17.7595431">
        <ele>29.4575</ele>
        <time>2014-07-07T19:38:52Z</time>
      </trkpt>
      <trkpt lat="59.9662665" lon="17.7594127">
        <ele>29.9381</ele>
        <time>2014-07-07T19:38:53Z</time>
      </trkpt>
      <trkpt lat="59.9663444" lon="17.7592899">
        <ele>29.9381</ele>
        <time>2014-07-07T19:38:54Z</time>
      </trkpt>
      <trkpt lat="59.9664231" lon="17.7591729">
        <ele>29.4575</ele>
        <time>2014-07-07T19:38:55Z</time>
      </trkpt>
      <trkpt lat="59.9665041" lon="17.759062">
        <ele>29.4575</ele>
        <time>2014-07-07T19:38:56Z</time>
      </trkpt>
      <trkpt lat="59.9665883" lon="17.7589585">
        <ele>29.4575</ele>
        <time>2014-07-07T19:38:57Z</time>
      </trkpt>
      <trkpt lat="59.9666747" lon="17.7588631">
        <ele>29.4575</ele>
        <time>2014-07-07T19:38:58Z</time>
      </trkpt>
      <trkpt lat="59.9667612" lon="17.7587761">
        <ele>29.4575</ele>
        <time>2014-07-07T19:38:59Z</time>
      </trkpt>
      <trkpt lat="59.9668468" lon="17.7586976">
        <ele>29.4575</ele>
        <time>2014-07-07T19:39:00Z</time>
      </trkpt>
      <trkpt lat="59.9669302" lon="17.7586249">
        <ele>29.4575</ele>
        <time>2014-07-07T19:39:01Z</time>
      </trkpt>
      <trkpt lat="59.9670114" lon="17.7585589">
        <ele>29.4575</ele>
        <time>2014-07-07T19:39:02Z</time>
      </trkpt>
      <trkpt lat="59.9670895" lon="17.7584982">
        <ele>29.4575</ele>
        <time>2014-07-07T19:39:03Z</time>
      </trkpt>
      <trkpt lat="59.9671652" lon="17.7584392">
        <ele>29.4575</ele>
        <time>2014-07-07T19:39:04Z</time>
      </trkpt>
      <trkpt lat="59.967239" lon="17.7583807">
        <ele>29.4575</ele>
        <time>2014-07-07T19:39:05Z</time>
      </trkpt>
      <trkpt lat="59.9673122" lon="17.7583219">
        <ele>29.4575</ele>
        <time>2014-07-07T19:39:06Z</time>
      </trkpt>
      <trkpt lat="59.9673842" lon="17.7582596">
        <ele>29.4575</ele>
        <time>2014-07-07T19:39:07Z</time>
      </trkpt>
      <trkpt lat="59.9674548" lon="17.7581933">
        <ele>29.4575</ele>
        <time>2014-07-07T19:39:08Z</time>
      </trkpt>
      <trkpt lat="59.9675244" lon="17.758125">
        <ele>29.4575</ele>
        <time>2014-07-07T19:39:09Z</time>
      </trkpt>
      <trkpt lat="59.9675928" lon="17.758055">
        <ele>29.4575</ele>
        <time>2014-07-07T19:39:10Z</time>
      </trkpt>
      <trkpt lat="59.9676596" lon="17.757986">
        <ele>29.4575</ele>
        <time>2014-07-07T19:39:11Z</time>
      </trkpt>
      <trkpt lat="59.9677236" lon="17.757917">
        <ele>29.4575</ele>
        <time>2014-07-07T19:39:12Z</time>
      </trkpt>
      <trkpt lat="59.9677853" lon="17.7578503">
        <ele>29.9381</ele>
        <time>2014-07-07T19:39:13Z</time>
      </trkpt>
      <trkpt lat="59.9678446" lon="17.757785">
        <ele>29.9381</ele>
        <time>2014-07-07T19:39:14Z</time>
      </trkpt>
      <trkpt lat="59.9679033" lon="17.7577183">
        <ele>29.9381</ele>
        <time>2014-07-07T19:39:15Z</time>
      </trkpt>
      <trkpt lat="59.9679609" lon="17.7576499">
        <ele>29.9381</ele>
        <time>2014-07-07T19:39:16Z</time>
      </trkpt>
      <trkpt lat="59.9680185" lon="17.7575825">
        <ele>30.4188</ele>
        <time>2014-07-07T19:39:17Z</time>
      </trkpt>
      <trkpt lat="59.9680759" lon="17.7575156">
        <ele>30.4188</ele>
        <time>2014-07-07T19:39:18Z</time>
      </trkpt>
      <trkpt lat="59.968132" lon="17.7574474">
        <ele>30.8995</ele>
        <time>2014-07-07T19:39:19Z</time>
      </trkpt>
      <trkpt lat="59.9681868" lon="17.7573783">
        <ele>30.8995</ele>
        <time>2014-07-07T19:39:20Z</time>
      </trkpt>
      <trkpt lat="59.9682393" lon="17.757308">
        <ele>31.3801</ele>
        <time>2014-07-07T19:39:21Z</time>
      </trkpt>
      <trkpt lat="59.9682904" lon="17.7572355">
        <ele>31.3801</ele>
        <time>2014-07-07T19:39:22Z</time>
      </trkpt>
      <trkpt lat="59.9683417" lon="17.7571594">
        <ele>31.3801</ele>
        <time>2014-07-07T19:39:23Z</time>
      </trkpt>
      <trkpt lat="59.968395" lon="17.757082">
        <ele>31.3801</ele>
        <time>2014-07-07T19:39:24Z</time>
      </trkpt>
      <trkpt lat="59.9684508" lon="17.7570028">
        <ele>31.3801</ele>
        <time>2014-07-07T19:39:25Z</time>
      </trkpt>
      <trkpt lat="59.9685085" lon="17.7569194">
        <ele>31.3801</ele>
        <time>2014-07-07T19:39:26Z</time>
      </trkpt>
      <trkpt lat="59.9685667" lon="17.756833">
        <ele>31.3801</ele>
        <time>2014-07-07T19:39:27Z</time>
      </trkpt>
      <trkpt lat="59.9686251" lon="17.7567444">
        <ele>31.3801</ele>
        <time>2014-07-07T19:39:28Z</time>
      </trkpt>
      <trkpt lat="59.9686836" lon="17.7566522">
        <ele>31.3801</ele>
        <time>2014-07-07T19:39:29Z</time>
      </trkpt>
      <trkpt lat="59.96874" lon="17.7565565">
        <ele>31.3801</ele>
        <time>2014-07-07T19:39:30Z</time>
      </trkpt>
      <trkpt lat="59.9687934" lon="17.7564611">
        <ele>31.3801</ele>
        <time>2014-07-07T19:39:31Z</time>
      </trkpt>
      <trkpt lat="59.9688447" lon="17.7563619">
        <ele>30.8995</ele>
        <time>2014-07-07T19:39:32Z</time>
      </trkpt>
      <trkpt lat="59.9688937" lon="17.7562554">
        <ele>30.8995</ele>
        <time>2014-07-07T19:39:33Z</time>
      </trkpt>
      <trkpt lat="59.9689424" lon="17.7561472">
        <ele>30.4188</ele>
        <time>2014-07-07T19:39:34Z</time>
      </trkpt>
      <trkpt lat="59.9689927" lon="17.7560435">
        <ele>30.4188</ele>
        <time>2014-07-07T19:39:35Z</time>
      </trkpt>
      <trkpt lat="59.9690422" lon="17.755939">
        <ele>30.4188</ele>
        <time>2014-07-07T19:39:36Z</time>
      </trkpt>
      <trkpt lat="59.9690913" lon="17.7558342">
        <ele>29.9381</ele>
        <time>2014-07-07T19:39:37Z</time>
      </trkpt>
      <trkpt lat="59.969141" lon="17.7557302">
        <ele>29.9381</ele>
        <time>2014-07-07T19:39:38Z</time>
      </trkpt>
      <trkpt lat="59.9691912" lon="17.7556259">
        <ele>29.9381</ele>
        <time>2014-07-07T19:39:39Z</time>
      </trkpt>
      <trkpt lat="59.9692413" lon="17.7555202">
        <ele>29.9381</ele>
        <time>2014-07-07T19:39:40Z</time>
      </trkpt>
      <trkpt lat="59.9692918" lon="17.7554124">
        <ele>29.9381</ele>
        <time>2014-07-07T19:39:41Z</time>
      </trkpt>
      <trkpt lat="59.9693424" lon="17.7553028">
        <ele>29.4575</ele>
        <time>2014-07-07T19:39:42Z</time>
      </trkpt>
      <trkpt lat="59.9693932" lon="17.7551943">
        <ele>29.4575</ele>
        <time>2014-07-07T19:39:43Z</time>
      </trkpt>
      <trkpt lat="59.9694438" lon="17.755089">
        <ele>29.4575</ele>
        <time>2014-07-07T19:39:44Z</time>
      </trkpt>
      <trkpt lat="59.9694928" lon="17.7549847">
        <ele>29.4575</ele>
        <time>2014-07-07T19:39:45Z</time>
      </trkpt>
      <trkpt lat="59.9695414" lon="17.7548812">
        <ele>29.4575</ele>
        <time>2014-07-07T19:39:46Z</time>
      </trkpt>
      <trkpt lat="59.9695904" lon="17.7547781">
        <ele>29.4575</ele>
        <time>2014-07-07T19:39:47Z</time>
      </trkpt>
      <trkpt lat="59.9696402" lon="17.7546768">
        <ele>29.4575</ele>
        <time>2014-07-07T19:39:48Z</time>
      </trkpt>
      <trkpt lat="59.9696911" lon="17.754577">
        <ele>29.4575</ele>
        <time>2014-07-07T19:39:49Z</time>
      </trkpt>
      <trkpt lat="59.9697413" lon="17.7544745">
        <ele>29.4575</ele>
        <time>2014-07-07T19:39:50Z</time>
      </trkpt>
      <trkpt lat="59.9697915" lon="17.7543704">
        <ele>29.4575</ele>
        <time>2014-07-07T19:39:51Z</time>
      </trkpt>
      <trkpt lat="59.9698429" lon="17.7542647">
        <ele>29.4575</ele>
        <time>2014-07-07T19:39:52Z</time>
      </trkpt>
      <trkpt lat="59.9698952" lon="17.7541544">
        <ele>28.9769</ele>
        <time>2014-07-07T19:39:53Z</time>
      </trkpt>
      <trkpt lat="59.9699434" lon="17.7540451">
        <ele>28.9769</ele>
        <time>2014-07-07T19:39:54Z</time>
      </trkpt>
      <trkpt lat="59.9699929" lon="17.7539342">
        <ele>29.4575</ele>
        <time>2014-07-07T19:39:55Z</time>
      </trkpt>
      <trkpt lat="59.9700451" lon="17.7538156">
        <ele>29.4575</ele>
        <time>2014-07-07T19:39:56Z</time>
      </trkpt>
      <trkpt lat="59.9700947" lon="17.7536954">
        <ele>29.4575</ele>
        <time>2014-07-07T19:39:57Z</time>
      </trkpt>
      <trkpt lat="59.9701408" lon="17.7535738">
        <ele>29.4575</ele>
        <time>2014-07-07T19:39:58Z</time>
      </trkpt>
      <trkpt lat="59.9701853" lon="17.7534519">
        <ele>29.4575</ele>
        <time>2014-07-07T19:39:59Z</time>
      </trkpt>
      <trkpt lat="59.9702277" lon="17.7533303">
        <ele>29.4575</ele>
        <time>2014-07-07T19:40:00Z</time>
      </trkpt>
      <trkpt lat="59.9702693" lon="17.7532107">
        <ele>29.4575</ele>
        <time>2014-07-07T19:40:01Z</time>
      </trkpt>
      <trkpt lat="59.9703112" lon="17.7530928">
        <ele>29.4575</ele>
        <time>2014-07-07T19:40:02Z</time>
      </trkpt>
      <trkpt lat="59.9703526" lon="17.7529745">
        <ele>29.4575</ele>
        <time>2014-07-07T19:40:03Z</time>
      </trkpt>
      <trkpt lat="59.9703932" lon="17.7528543">
        <ele>29.4575</ele>
        <time>2014-07-07T19:40:04Z</time>
      </trkpt>
      <trkpt lat="59.9704345" lon="17.7527335">
        <ele>29.4575</ele>
        <time>2014-07-07T19:40:05Z</time>
      </trkpt>
      <trkpt lat="59.9704785" lon="17.752615">
        <ele>29.4575</ele>
        <time>2014-07-07T19:40:06Z</time>
      </trkpt>
      <trkpt lat="59.9705267" lon="17.7525005">
        <ele>29.4575</ele>
        <time>2014-07-07T19:40:07Z</time>
      </trkpt>
      <trkpt lat="59.970578" lon="17.7523881">
        <ele>29.4575</ele>
        <time>2014-07-07T19:40:08Z</time>
      </trkpt>
      <trkpt lat="59.9706318" lon="17.7522766">
        <ele>29.4575</ele>
        <time>2014-07-07T19:40:09Z</time>
      </trkpt>
      <trkpt lat="59.9706876" lon="17.7521657">
        <ele>29.4575</ele>
        <time>2014-07-07T19:40:10Z</time>
      </trkpt>
      <trkpt lat="59.9707462" lon="17.7520585">
        <ele>29.4575</ele>
        <time>2014-07-07T19:40:11Z</time>
      </trkpt>
      <trkpt lat="59.9708071" lon="17.751955">
        <ele>29.4575</ele>
        <time>2014-07-07T19:40:12Z</time>
      </trkpt>
      <trkpt lat="59.9708701" lon="17.7518543">
        <ele>29.4575</ele>
        <time>2014-07-07T19:40:13Z</time>
      </trkpt>
      <trkpt lat="59.9709358" lon="17.7517575">
        <ele>29.4575</ele>
        <time>2014-07-07T19:40:14Z</time>
      </trkpt>
      <trkpt lat="59.9710026" lon="17.7516631">
        <ele>29.4575</ele>
        <time>2014-07-07T19:40:15Z</time>
      </trkpt>
      <trkpt lat="59.9710709" lon="17.7515725">
        <ele>29.9381</ele>
        <time>2014-07-07T19:40:16Z</time>
      </trkpt>
      <trkpt lat="59.9711403" lon="17.7514871">
        <ele>29.9381</ele>
        <time>2014-07-07T19:40:17Z</time>
      </trkpt>
      <trkpt lat="59.9712094" lon="17.7514056">
        <ele>29.9381</ele>
        <time>2014-07-07T19:40:18Z</time>
      </trkpt>
      <trkpt lat="59.9712777" lon="17.7513267">
        <ele>29.9381</ele>
        <time>2014-07-07T19:40:19Z</time>
      </trkpt>
      <trkpt lat="59.9713441" lon="17.7512507">
        <ele>30.4188</ele>
        <time>2014-07-07T19:40:20Z</time>
      </trkpt>
      <trkpt lat="59.9714073" lon="17.7511769">
        <ele>30.4188</ele>
        <time>2014-07-07T19:40:21Z</time>
      </trkpt>
      <trkpt lat="59.9714685" lon="17.7511042">
        <ele>30.4188</ele>
        <time>2014-07-07T19:40:22Z</time>
      </trkpt>
      <trkpt lat="59.9715281" lon="17.7510328">
        <ele>30.4188</ele>
        <time>2014-07-07T19:40:23Z</time>
      </trkpt>
      <trkpt lat="59.9715859" lon="17.7509578">
        <ele>30.8995</ele>
        <time>2014-07-07T19:40:24Z</time>
      </trkpt>
      <trkpt lat="59.9716428" lon="17.7508783">
        <ele>30.8995</ele>
        <time>2014-07-07T19:40:25Z</time>
      </trkpt>
      <trkpt lat="59.9716984" lon="17.7507931">
        <ele>31.3801</ele>
        <time>2014-07-07T19:40:26Z</time>
      </trkpt>
      <trkpt lat="59.9717528" lon="17.7507024">
        <ele>31.3801</ele>
        <time>2014-07-07T19:40:27Z</time>
      </trkpt>
      <trkpt lat="59.9718067" lon="17.7506087">
        <ele>31.8607</ele>
        <time>2014-07-07T19:40:28Z</time>
      </trkpt>
      <trkpt lat="59.9718599" lon="17.7505117">
        <ele>31.8607</ele>
        <time>2014-07-07T19:40:29Z</time>
      </trkpt>
      <trkpt lat="59.9719114" lon="17.7504123">
        <ele>32.3416</ele>
        <time>2014-07-07T19:40:30Z</time>
      </trkpt>
      <trkpt lat="59.971961" lon="17.75031">
        <ele>32.8223</ele>
        <time>2014-07-07T19:40:31Z</time>
      </trkpt>
      <trkpt lat="59.972009" lon="17.7502049">
        <ele>33.3029</ele>
        <time>2014-07-07T19:40:32Z</time>
      </trkpt>
      <trkpt lat="59.9720559" lon="17.7500974">
        <ele>33.3029</ele>
        <time>2014-07-07T19:40:33Z</time>
      </trkpt>
      <trkpt lat="59.972103" lon="17.7499899">
        <ele>33.7834</ele>
        <time>2014-07-07T19:40:34Z</time>
      </trkpt>
      <trkpt lat="59.9721505" lon="17.7498807">
        <ele>34.2642</ele>
        <time>2014-07-07T19:40:35Z</time>
      </trkpt>
      <trkpt lat="59.9721978" lon="17.7497637">
        <ele>34.2642</ele>
        <time>2014-07-07T19:40:36Z</time>
      </trkpt>
      <trkpt lat="59.9722516" lon="17.7496317">
        <ele>34.2642</ele>
        <time>2014-07-07T19:40:37Z</time>
      </trkpt>
      <trkpt lat="59.9723038" lon="17.7495197">
        <ele>34.2642</ele>
        <time>2014-07-07T19:40:38Z</time>
      </trkpt>
      <trkpt lat="59.9723573" lon="17.7494035">
        <ele>34.2642</ele>
        <time>2014-07-07T19:40:39Z</time>
      </trkpt>
      <trkpt lat="59.9724086" lon="17.7492996">
        <ele>33.7834</ele>
        <time>2014-07-07T19:40:40Z</time>
      </trkpt>
      <trkpt lat="59.9724593" lon="17.7491908">
        <ele>33.7834</ele>
        <time>2014-07-07T19:40:41Z</time>
      </trkpt>
      <trkpt lat="59.9725081" lon="17.7490872">
        <ele>33.3029</ele>
        <time>2014-07-07T19:40:42Z</time>
      </trkpt>
      <trkpt lat="59.972552" lon="17.7489748">
        <ele>32.8223</ele>
        <time>2014-07-07T19:40:43Z</time>
      </trkpt>
      <trkpt lat="59.9725994" lon="17.7488679">
        <ele>32.8223</ele>
        <time>2014-07-07T19:40:44Z</time>
      </trkpt>
      <trkpt lat="59.972649" lon="17.7487562">
        <ele>32.3416</ele>
        <time>2014-07-07T19:40:45Z</time>
      </trkpt>
      <trkpt lat="59.972696" lon="17.748646">
        <ele>32.3416</ele>
        <time>2014-07-07T19:40:46Z</time>
      </trkpt>
      <trkpt lat="59.9727413" lon="17.7485335">
        <ele>31.8607</ele>
        <time>2014-07-07T19:40:47Z</time>
      </trkpt>
      <trkpt lat="59.9727882" lon="17.7484193">
        <ele>31.3801</ele>
        <time>2014-07-07T19:40:48Z</time>
      </trkpt>
      <trkpt lat="59.9728394" lon="17.7483084">
        <ele>31.3801</ele>
        <time>2014-07-07T19:40:49Z</time>
      </trkpt>
      <trkpt lat="59.9728938" lon="17.7482024">
        <ele>31.3801</ele>
        <time>2014-07-07T19:40:50Z</time>
      </trkpt>
      <trkpt lat="59.972951" lon="17.7481019">
        <ele>31.3801</ele>
        <time>2014-07-07T19:40:51Z</time>
      </trkpt>
      <trkpt lat="59.9730107" lon="17.7480096">
        <ele>31.3801</ele>
        <time>2014-07-07T19:40:52Z</time>
      </trkpt>
      <trkpt lat="59.9730721" lon="17.747927">
        <ele>31.3801</ele>
        <time>2014-07-07T19:40:53Z</time>
      </trkpt>
      <trkpt lat="59.9731331" lon="17.7478497">
        <ele>31.8607</ele>
        <time>2014-07-07T19:40:54Z</time>
      </trkpt>
      <trkpt lat="59.9731932" lon="17.7477792">
        <ele>31.8607</ele>
        <time>2014-07-07T19:40:55Z</time>
      </trkpt>
      <trkpt lat="59.9732525" lon="17.7477096">
        <ele>31.8607</ele>
        <time>2014-07-07T19:40:56Z</time>
      </trkpt>
      <trkpt lat="59.9733114" lon="17.7476428">
        <ele>31.8607</ele>
        <time>2014-07-07T19:40:57Z</time>
      </trkpt>
      <trkpt lat="59.9733698" lon="17.7475785">
        <ele>32.3416</ele>
        <time>2014-07-07T19:40:58Z</time>
      </trkpt>
      <trkpt lat="59.9734281" lon="17.7475167">
        <ele>32.3416</ele>
        <time>2014-07-07T19:40:59Z</time>
      </trkpt>
      <trkpt lat="59.9734856" lon="17.7474568">
        <ele>32.3416</ele>
        <time>2014-07-07T19:41:00Z</time>
      </trkpt>
      <trkpt lat="59.9735416" lon="17.7473975">
        <ele>32.3416</ele>
        <time>2014-07-07T19:41:01Z</time>
      </trkpt>
      <trkpt lat="59.9735965" lon="17.7473403">
        <ele>32.3416</ele>
        <time>2014-07-07T19:41:02Z</time>
      </trkpt>
      <trkpt lat="59.9736498" lon="17.7472841">
        <ele>32.3416</ele>
        <time>2014-07-07T19:41:03Z</time>
      </trkpt>
      <trkpt lat="59.9737021" lon="17.7472277">
        <ele>32.3416</ele>
        <time>2014-07-07T19:41:04Z</time>
      </trkpt>
      <trkpt lat="59.9737534" lon="17.7471712">
        <ele>32.3416</ele>
        <time>2014-07-07T19:41:05Z</time>
      </trkpt>
      <trkpt lat="59.9738041" lon="17.7471136">
        <ele>32.3416</ele>
        <time>2014-07-07T19:41:06Z</time>
      </trkpt>
      <trkpt lat="59.9738558" lon="17.747055">
        <ele>32.3416</ele>
        <time>2014-07-07T19:41:07Z</time>
      </trkpt>
      <trkpt lat="59.9739075" lon="17.746994">
        <ele>32.3416</ele>
        <time>2014-07-07T19:41:08Z</time>
      </trkpt>
      <trkpt lat="59.9739597" lon="17.7469312">
        <ele>32.3416</ele>
        <time>2014-07-07T19:41:09Z</time>
      </trkpt>
      <trkpt lat="59.9740119" lon="17.7468647">
        <ele>32.3416</ele>
        <time>2014-07-07T19:41:10Z</time>
      </trkpt>
      <trkpt lat="59.9740642" lon="17.746796">
        <ele>32.3416</ele>
        <time>2014-07-07T19:41:11Z</time>
      </trkpt>
      <trkpt lat="59.9741169" lon="17.7467272">
        <ele>32.3416</ele>
        <time>2014-07-07T19:41:12Z</time>
      </trkpt>
      <trkpt lat="59.9741699" lon="17.7466578">
        <ele>31.8607</ele>
        <time>2014-07-07T19:41:13Z</time>
      </trkpt>
      <trkpt lat="59.974223" lon="17.7465881">
        <ele>31.8607</ele>
        <time>2014-07-07T19:41:14Z</time>
      </trkpt>
      <trkpt lat="59.9742758" lon="17.7465171">
        <ele>31.8607</ele>
        <time>2014-07-07T19:41:15Z</time>
      </trkpt>
      <trkpt lat="59.9743279" lon="17.7464459">
        <ele>31.8607</ele>
        <time>2014-07-07T19:41:16Z</time>
      </trkpt>
      <trkpt lat="59.9743792" lon="17.7463752">
        <ele>32.3416</ele>
        <time>2014-07-07T19:41:17Z</time>
      </trkpt>
      <trkpt lat="59.9744295" lon="17.7463039">
        <ele>32.3416</ele>
        <time>2014-07-07T19:41:18Z</time>
      </trkpt>
      <trkpt lat="59.9744787" lon="17.746234">
        <ele>32.3416</ele>
        <time>2014-07-07T19:41:19Z</time>
      </trkpt>
      <trkpt lat="59.9745276" lon="17.7461665">
        <ele>32.3416</ele>
        <time>2014-07-07T19:41:20Z</time>
      </trkpt>
      <trkpt lat="59.9745743" lon="17.7460951">
        <ele>32.3416</ele>
        <time>2014-07-07T19:41:21Z</time>
      </trkpt>
      <trkpt lat="59.9746194" lon="17.746017">
        <ele>32.3416</ele>
        <time>2014-07-07T19:41:22Z</time>
      </trkpt>
      <trkpt lat="59.974665" lon="17.7459336">
        <ele>32.3416</ele>
        <time>2014-07-07T19:41:23Z</time>
      </trkpt>
      <trkpt lat="59.9747116" lon="17.7458459">
        <ele>32.3416</ele>
        <time>2014-07-07T19:41:24Z</time>
      </trkpt>
      <trkpt lat="59.9747572" lon="17.7457512">
        <ele>32.3416</ele>
        <time>2014-07-07T19:41:25Z</time>
      </trkpt>
      <trkpt lat="59.9748021" lon="17.7456495">
        <ele>31.8607</ele>
        <time>2014-07-07T19:41:26Z</time>
      </trkpt>
      <trkpt lat="59.9748467" lon="17.7455408">
        <ele>31.8607</ele>
        <time>2014-07-07T19:41:27Z</time>
      </trkpt>
      <trkpt lat="59.9748904" lon="17.7454252">
        <ele>31.8607</ele>
        <time>2014-07-07T19:41:28Z</time>
      </trkpt>
      <trkpt lat="59.974933" lon="17.7453015">
        <ele>31.3801</ele>
        <time>2014-07-07T19:41:29Z</time>
      </trkpt>
      <trkpt lat="59.9749776" lon="17.7451742">
        <ele>31.3801</ele>
        <time>2014-07-07T19:41:30Z</time>
      </trkpt>
      <trkpt lat="59.9750239" lon="17.7450452">
        <ele>31.3801</ele>
        <time>2014-07-07T19:41:31Z</time>
      </trkpt>
      <trkpt lat="59.9750684" lon="17.744912">
        <ele>31.3801</ele>
        <time>2014-07-07T19:41:32Z</time>
      </trkpt>
      <trkpt lat="59.9751106" lon="17.7447737">
        <ele>31.3801</ele>
        <time>2014-07-07T19:41:33Z</time>
      </trkpt>
      <trkpt lat="59.9751506" lon="17.7446321">
        <ele>30.8995</ele>
        <time>2014-07-07T19:41:34Z</time>
      </trkpt>
      <trkpt lat="59.9751883" lon="17.7444872">
        <ele>31.3801</ele>
        <time>2014-07-07T19:41:35Z</time>
      </trkpt>
      <trkpt lat="59.9752236" lon="17.7443394">
        <ele>31.3801</ele>
        <time>2014-07-07T19:41:36Z</time>
      </trkpt>
      <trkpt lat="59.9752565" lon="17.7441877">
        <ele>31.3801</ele>
        <time>2014-07-07T19:41:37Z</time>
      </trkpt>
      <trkpt lat="59.9752871" lon="17.744032">
        <ele>31.3801</ele>
        <time>2014-07-07T19:41:38Z</time>
      </trkpt>
      <trkpt lat="59.9753167" lon="17.7438744">
        <ele>31.3801</ele>
        <time>2014-07-07T19:41:39Z</time>
      </trkpt>
      <trkpt lat="59.9753456" lon="17.7437145">
        <ele>31.3801</ele>
        <time>2014-07-07T19:41:40Z</time>
      </trkpt>
      <trkpt lat="59.9753746" lon="17.7435527">
        <ele>31.3801</ele>
        <time>2014-07-07T19:41:41Z</time>
      </trkpt>
      <trkpt lat="59.9754056" lon="17.7433896">
        <ele>31.3801</ele>
        <time>2014-07-07T19:41:42Z</time>
      </trkpt>
      <trkpt lat="59.9754416" lon="17.7432288">
        <ele>31.3801</ele>
        <time>2014-07-07T19:41:43Z</time>
      </trkpt>
      <trkpt lat="59.9754815" lon="17.7430709">
        <ele>31.3801</ele>
        <time>2014-07-07T19:41:44Z</time>
      </trkpt>
      <trkpt lat="59.9755249" lon="17.7429177">
        <ele>31.3801</ele>
        <time>2014-07-07T19:41:45Z</time>
      </trkpt>
      <trkpt lat="59.9755696" lon="17.7427665">
        <ele>31.3801</ele>
        <time>2014-07-07T19:41:46Z</time>
      </trkpt>
      <trkpt lat="59.9756137" lon="17.7426132">
        <ele>31.3801</ele>
        <time>2014-07-07T19:41:47Z</time>
      </trkpt>
      <trkpt lat="59.9756566" lon="17.7424586">
        <ele>31.3801</ele>
        <time>2014-07-07T19:41:48Z</time>
      </trkpt>
      <trkpt lat="59.9756978" lon="17.7423027">
        <ele>31.3801</ele>
        <time>2014-07-07T19:41:49Z</time>
      </trkpt>
      <trkpt lat="59.9757373" lon="17.7421452">
        <ele>31.3801</ele>
        <time>2014-07-07T19:41:50Z</time>
      </trkpt>
      <trkpt lat="59.9757761" lon="17.7419866">
        <ele>31.3801</ele>
        <time>2014-07-07T19:41:51Z</time>
      </trkpt>
      <trkpt lat="59.975814" lon="17.7418248">
        <ele>31.3801</ele>
        <time>2014-07-07T19:41:52Z</time>
      </trkpt>
      <trkpt lat="59.9758513" lon="17.7416596">
        <ele>31.3801</ele>
        <time>2014-07-07T19:41:53Z</time>
      </trkpt>
      <trkpt lat="59.9758891" lon="17.7414919">
        <ele>30.8995</ele>
        <time>2014-07-07T19:41:54Z</time>
      </trkpt>
      <trkpt lat="59.9759285" lon="17.741322">
        <ele>30.8995</ele>
        <time>2014-07-07T19:41:55Z</time>
      </trkpt>
      <trkpt lat="59.9759694" lon="17.7411517">
        <ele>30.8995</ele>
        <time>2014-07-07T19:41:56Z</time>
      </trkpt>
      <trkpt lat="59.9760128" lon="17.7409829">
        <ele>30.4188</ele>
        <time>2014-07-07T19:41:57Z</time>
      </trkpt>
      <trkpt lat="59.9760581" lon="17.7408172">
        <ele>30.4188</ele>
        <time>2014-07-07T19:41:58Z</time>
      </trkpt>
      <trkpt lat="59.9761057" lon="17.7406559">
        <ele>30.4188</ele>
        <time>2014-07-07T19:41:59Z</time>
      </trkpt>
      <trkpt lat="59.9761552" lon="17.7404999">
        <ele>30.4188</ele>
        <time>2014-07-07T19:42:00Z</time>
      </trkpt>
      <trkpt lat="59.9762056" lon="17.7403488">
        <ele>30.4188</ele>
        <time>2014-07-07T19:42:01Z</time>
      </trkpt>
      <trkpt lat="59.9762564" lon="17.7402012">
        <ele>30.4188</ele>
        <time>2014-07-07T19:42:02Z</time>
      </trkpt>
      <trkpt lat="59.976307" lon="17.7400547">
        <ele>29.9381</ele>
        <time>2014-07-07T19:42:03Z</time>
      </trkpt>
      <trkpt lat="59.9763585" lon="17.7399082">
        <ele>29.9381</ele>
        <time>2014-07-07T19:42:04Z</time>
      </trkpt>
      <trkpt lat="59.9764163" lon="17.7397683">
        <ele>29.9381</ele>
        <time>2014-07-07T19:42:05Z</time>
      </trkpt>
      <trkpt lat="59.9764853" lon="17.7396474">
        <ele>29.9381</ele>
        <time>2014-07-07T19:42:06Z</time>
      </trkpt>
      <trkpt lat="59.9765635" lon="17.739547">
        <ele>29.9381</ele>
        <time>2014-07-07T19:42:07Z</time>
      </trkpt>
      <trkpt lat="59.976647" lon="17.7394655">
        <ele>30.4188</ele>
        <time>2014-07-07T19:42:08Z</time>
      </trkpt>
      <trkpt lat="59.9767328" lon="17.7394047">
        <ele>30.4188</ele>
        <time>2014-07-07T19:42:09Z</time>
      </trkpt>
      <trkpt lat="59.9768179" lon="17.7393603">
        <ele>30.8995</ele>
        <time>2014-07-07T19:42:10Z</time>
      </trkpt>
      <trkpt lat="59.9769025" lon="17.7393273">
        <ele>31.3801</ele>
        <time>2014-07-07T19:42:11Z</time>
      </trkpt>
      <trkpt lat="59.9769853" lon="17.7392969">
        <ele>31.3801</ele>
        <time>2014-07-07T19:42:12Z</time>
      </trkpt>
      <trkpt lat="59.9770669" lon="17.7392629">
        <ele>31.3801</ele>
        <time>2014-07-07T19:42:13Z</time>
      </trkpt>
      <trkpt lat="59.9771474" lon="17.7392247">
        <ele>31.8607</ele>
        <time>2014-07-07T19:42:14Z</time>
      </trkpt>
      <trkpt lat="59.9772272" lon="17.7391814">
        <ele>31.8607</ele>
        <time>2014-07-07T19:42:15Z</time>
      </trkpt>
      <trkpt lat="59.977306" lon="17.7391392">
        <ele>32.3416</ele>
        <time>2014-07-07T19:42:16Z</time>
      </trkpt>
      <trkpt lat="59.9773846" lon="17.7391004">
        <ele>32.3416</ele>
        <time>2014-07-07T19:42:17Z</time>
      </trkpt>
      <trkpt lat="59.9774618" lon="17.7390664">
        <ele>32.8223</ele>
        <time>2014-07-07T19:42:18Z</time>
      </trkpt>
      <trkpt lat="59.9775365" lon="17.7390426">
        <ele>33.3029</ele>
        <time>2014-07-07T19:42:19Z</time>
      </trkpt>
      <trkpt lat="59.97761" lon="17.73903">
        <ele>33.7834</ele>
        <time>2014-07-07T19:42:20Z</time>
      </trkpt>
      <trkpt lat="59.9776818" lon="17.7390283">
        <ele>34.2642</ele>
        <time>2014-07-07T19:42:21Z</time>
      </trkpt>
      <trkpt lat="59.9777515" lon="17.7390388">
        <ele>34.2642</ele>
        <time>2014-07-07T19:42:22Z</time>
      </trkpt>
      <trkpt lat="59.9778187" lon="17.739061">
        <ele>34.7449</ele>
        <time>2014-07-07T19:42:23Z</time>
      </trkpt>
      <trkpt lat="59.9778831" lon="17.7390913">
        <ele>34.7449</ele>
        <time>2014-07-07T19:42:24Z</time>
      </trkpt>
      <trkpt lat="59.9779467" lon="17.7391279">
        <ele>35.2255</ele>
        <time>2014-07-07T19:42:25Z</time>
      </trkpt>
      <trkpt lat="59.9780098" lon="17.7391673">
        <ele>35.2255</ele>
        <time>2014-07-07T19:42:26Z</time>
      </trkpt>
      <trkpt lat="59.9780756" lon="17.7392044">
        <ele>35.7061</ele>
        <time>2014-07-07T19:42:27Z</time>
      </trkpt>
      <trkpt lat="59.978143" lon="17.7392372">
        <ele>35.7061</ele>
        <time>2014-07-07T19:42:28Z</time>
      </trkpt>
      <trkpt lat="59.9782094" lon="17.7392588">
        <ele>36.1868</ele>
        <time>2014-07-07T19:42:29Z</time>
      </trkpt>
      <trkpt lat="59.9782718" lon="17.7392678">
        <ele>35.7061</ele>
        <time>2014-07-07T19:42:30Z</time>
      </trkpt>
      <trkpt lat="59.9783341" lon="17.7392793">
        <ele>35.7061</ele>
        <time>2014-07-07T19:42:31Z</time>
      </trkpt>
      <trkpt lat="59.9783953" lon="17.7392888">
        <ele>35.7061</ele>
        <time>2014-07-07T19:42:32Z</time>
      </trkpt>
      <trkpt lat="59.9784567" lon="17.7392998">
        <ele>35.2255</ele>
        <time>2014-07-07T19:42:33Z</time>
      </trkpt>
      <trkpt lat="59.9785185" lon="17.7393094">
        <ele>35.2255</ele>
        <time>2014-07-07T19:42:34Z</time>
      </trkpt>
      <trkpt lat="59.9785807" lon="17.7393181">
        <ele>35.2255</ele>
        <time>2014-07-07T19:42:35Z</time>
      </trkpt>
      <trkpt lat="59.9789991" lon="17.7397366">
        <ele>36.6675</ele>
        <time>2014-07-07T19:42:51Z</time>
      </trkpt>
      <trkpt lat="59.9789962" lon="17.7397367">
        <ele>36.1868</ele>
        <time>2014-07-07T19:42:52Z</time>
      </trkpt>
      <trkpt lat="59.978995" lon="17.7397366">
        <ele>36.1868</ele>
        <time>2014-07-07T19:42:53Z</time>
      </trkpt>
    </trkseg>
  </trk>
</gpx>